<?xml version='1.0' encoding='UTF-8'?><gpx version="1.1" creator="JPX - https://github.com/jenetics/jpx" xmlns="http://www.topografix.com/GPX/1/1"><trk><trkseg><trkpt lat="44.3215591" lon="8.3242119"><ele>409.0</ele><time>2026-04-04T13:43:57.055Z</time></trkpt><trkpt lat="44.3215996" lon="8.3241431"><ele>409.0</ele><time>2026-04-04T13:44:28.15Z</time></trkpt><trkpt lat="44.321669" lon="8.3241158"><ele>409.0</ele><time>2026-04-04T13:44:51.054Z</time></trkpt><trkpt lat="44.3217007" lon="8.3240282"><ele>409.0</ele><time>2026-04-04T13:44:56.055Z</time></trkpt><trkpt lat="44.3217547" lon="8.3239765"><ele>409.0</ele><time>2026-04-04T13:45:30.054Z</time></trkpt><trkpt lat="44.3217233" lon="8.3238774"><ele>409.0</ele><time>2026-04-04T13:45:35.056Z</time></trkpt><trkpt lat="44.3216504" lon="8.32384"><ele>409.0</ele><time>2026-04-04T13:45:38.054Z</time></trkpt><trkpt lat="44.321581" lon="8.323793"><ele>409.0</ele><time>2026-04-04T13:45:41.055Z</time></trkpt><trkpt lat="44.3215244" lon="8.3237513"><ele>409.0</ele><time>2026-04-04T13:45:43.055Z</time></trkpt><trkpt lat="44.3214605" lon="8.3237188"><ele>409.0</ele><time>2026-04-04T13:45:45.055Z</time></trkpt><trkpt lat="44.3213881" lon="8.3236816"><ele>409.0</ele><time>2026-04-04T13:45:47.055Z</time></trkpt><trkpt lat="44.3213156" lon="8.3236376"><ele>409.0</ele><time>2026-04-04T13:45:49.054Z</time></trkpt><trkpt lat="44.3212486" lon="8.3235941"><ele>409.0</ele><time>2026-04-04T13:45:51.054Z</time></trkpt><trkpt lat="44.3211693" lon="8.3235565"><ele>409.0</ele><time>2026-04-04T13:45:53.055Z</time></trkpt><trkpt lat="44.3210848" lon="8.3235178"><ele>409.2</ele><time>2026-04-04T13:45:55.055Z</time></trkpt><trkpt lat="44.3209964" lon="8.3234872"><ele>409.4</ele><time>2026-04-04T13:45:57.056Z</time></trkpt><trkpt lat="44.3209089" lon="8.3234523"><ele>409.6</ele><time>2026-04-04T13:45:59.054Z</time></trkpt><trkpt lat="44.3208274" lon="8.3234163"><ele>409.8</ele><time>2026-04-04T13:46:01.055Z</time></trkpt><trkpt lat="44.3207316" lon="8.3233809"><ele>410.0</ele><time>2026-04-04T13:46:03.885Z</time></trkpt><trkpt lat="44.3206531" lon="8.3233415"><ele>410.99999999999994</ele><time>2026-04-04T13:46:06.053Z</time></trkpt><trkpt lat="44.3205614" lon="8.3233137"><ele>412.0</ele><time>2026-04-04T13:46:08.053Z</time></trkpt><trkpt lat="44.3204851" lon="8.3232661"><ele>413.0</ele><time>2026-04-04T13:46:10.054Z</time></trkpt><trkpt lat="44.3204132" lon="8.323213"><ele>414.0</ele><time>2026-04-04T13:46:12.053Z</time></trkpt><trkpt lat="44.3203339" lon="8.323162"><ele>414.99999999999994</ele><time>2026-04-04T13:46:14.053Z</time></trkpt><trkpt lat="44.3202536" lon="8.3231189"><ele>416.0</ele><time>2026-04-04T13:46:16.054Z</time></trkpt><trkpt lat="44.3201723" lon="8.323084"><ele>415.0</ele><time>2026-04-04T13:46:18.055Z</time></trkpt><trkpt lat="44.3200827" lon="8.3230136"><ele>414.0</ele><time>2026-04-04T13:46:20.055Z</time></trkpt><trkpt lat="44.3199998" lon="8.3229714"><ele>413.0</ele><time>2026-04-04T13:46:22.056Z</time></trkpt><trkpt lat="44.3199138" lon="8.3229191"><ele>412.0</ele><time>2026-04-04T13:46:24.056Z</time></trkpt><trkpt lat="44.3198102" lon="8.322871"><ele>411.0</ele><time>2026-04-04T13:46:26.055Z</time></trkpt><trkpt lat="44.3197529" lon="8.3228234"><ele>412.20000000000005</ele><time>2026-04-04T13:46:28.055Z</time></trkpt><trkpt lat="44.3196741" lon="8.3227569"><ele>413.40000000000003</ele><time>2026-04-04T13:46:30.055Z</time></trkpt><trkpt lat="44.3196039" lon="8.3226558"><ele>414.6</ele><time>2026-04-04T13:46:32.053Z</time></trkpt><trkpt lat="44.3195368" lon="8.3225724"><ele>415.8</ele><time>2026-04-04T13:46:34.054Z</time></trkpt><trkpt lat="44.3194709" lon="8.3224972"><ele>417.0</ele><time>2026-04-04T13:46:36.055Z</time></trkpt><trkpt lat="44.3194207" lon="8.3223914"><ele>417.0</ele><time>2026-04-04T13:46:38.055Z</time></trkpt><trkpt lat="44.3193471" lon="8.3223052"><ele>417.0</ele><time>2026-04-04T13:46:40.055Z</time></trkpt><trkpt lat="44.3192751" lon="8.3222325"><ele>417.0</ele><time>2026-04-04T13:46:42.055Z</time></trkpt><trkpt lat="44.3192055" lon="8.3221325"><ele>417.0</ele><time>2026-04-04T13:46:44.054Z</time></trkpt><trkpt lat="44.3191392" lon="8.3220495"><ele>417.0</ele><time>2026-04-04T13:46:46.054Z</time></trkpt><trkpt lat="44.3190772" lon="8.3219687"><ele>417.5</ele><time>2026-04-04T13:46:48.053Z</time></trkpt><trkpt lat="44.3190094" lon="8.3218847"><ele>418.0</ele><time>2026-04-04T13:46:50.053Z</time></trkpt><trkpt lat="44.318952" lon="8.3218036"><ele>418.5</ele><time>2026-04-04T13:46:52.054Z</time></trkpt><trkpt lat="44.3188939" lon="8.3217225"><ele>419.0</ele><time>2026-04-04T13:46:54.055Z</time></trkpt><trkpt lat="44.3188466" lon="8.3216318"><ele>419.5</ele><time>2026-04-04T13:46:56.055Z</time></trkpt><trkpt lat="44.3187988" lon="8.3215353"><ele>420.0</ele><time>2026-04-04T13:46:58.053Z</time></trkpt><trkpt lat="44.318758" lon="8.3214377"><ele>419.6666666666667</ele><time>2026-04-04T13:47:00.053Z</time></trkpt><trkpt lat="44.3187175" lon="8.321335"><ele>419.33333333333337</ele><time>2026-04-04T13:47:02.054Z</time></trkpt><trkpt lat="44.3186887" lon="8.3212271"><ele>419.0</ele><time>2026-04-04T13:47:04.055Z</time></trkpt><trkpt lat="44.3186535" lon="8.3211251"><ele>418.6666666666667</ele><time>2026-04-04T13:47:06.055Z</time></trkpt><trkpt lat="44.318616" lon="8.3210221"><ele>418.33333333333337</ele><time>2026-04-04T13:47:08.055Z</time></trkpt><trkpt lat="44.3185831" lon="8.3209177"><ele>418.0</ele><time>2026-04-04T13:47:10.055Z</time></trkpt><trkpt lat="44.3185431" lon="8.3208119"><ele>418.00000000000006</ele><time>2026-04-04T13:47:12.055Z</time></trkpt><trkpt lat="44.3185032" lon="8.3207124"><ele>418.0</ele><time>2026-04-04T13:47:14.054Z</time></trkpt><trkpt lat="44.31846" lon="8.3206164"><ele>418.0</ele><time>2026-04-04T13:47:16.054Z</time></trkpt><trkpt lat="44.3184168" lon="8.3205153"><ele>418.0</ele><time>2026-04-04T13:47:18.053Z</time></trkpt><trkpt lat="44.3183736" lon="8.3204128"><ele>418.00000000000006</ele><time>2026-04-04T13:47:20.053Z</time></trkpt><trkpt lat="44.3183245" lon="8.3203195"><ele>418.0</ele><time>2026-04-04T13:47:22.054Z</time></trkpt><trkpt lat="44.3182802" lon="8.3202185"><ele>418.4</ele><time>2026-04-04T13:47:24.055Z</time></trkpt><trkpt lat="44.3182095" lon="8.3201672"><ele>418.79999999999995</ele><time>2026-04-04T13:47:26.054Z</time></trkpt><trkpt lat="44.3181127" lon="8.3201438"><ele>419.2</ele><time>2026-04-04T13:47:28.053Z</time></trkpt><trkpt lat="44.3180223" lon="8.3201336"><ele>419.6</ele><time>2026-04-04T13:47:30.054Z</time></trkpt><trkpt lat="44.3179236" lon="8.320128"><ele>420.0</ele><time>2026-04-04T13:47:32.055Z</time></trkpt><trkpt lat="44.3178327" lon="8.3201292"><ele>420.0</ele><time>2026-04-04T13:47:34.053Z</time></trkpt><trkpt lat="44.3177406" lon="8.3201101"><ele>420.0</ele><time>2026-04-04T13:47:36.054Z</time></trkpt><trkpt lat="44.3176418" lon="8.3201007"><ele>420.0</ele><time>2026-04-04T13:47:38.055Z</time></trkpt><trkpt lat="44.317558" lon="8.320075"><ele>420.0</ele><time>2026-04-04T13:47:40.053Z</time></trkpt><trkpt lat="44.317465" lon="8.3200476"><ele>420.0</ele><time>2026-04-04T13:47:42.054Z</time></trkpt><trkpt lat="44.3173603" lon="8.3199866"><ele>420.0</ele><time>2026-04-04T13:47:44.055Z</time></trkpt><trkpt lat="44.3172859" lon="8.3199315"><ele>420.0</ele><time>2026-04-04T13:47:46.056Z</time></trkpt><trkpt lat="44.3172423" lon="8.3198486"><ele>420.0</ele><time>2026-04-04T13:47:48.055Z</time></trkpt><trkpt lat="44.3171757" lon="8.3197246"><ele>420.0</ele><time>2026-04-04T13:47:50.055Z</time></trkpt><trkpt lat="44.3171215" lon="8.3196222"><ele>420.0</ele><time>2026-04-04T13:47:52.055Z</time></trkpt><trkpt lat="44.3170587" lon="8.3195427"><ele>420.0</ele><time>2026-04-04T13:47:54.053Z</time></trkpt><trkpt lat="44.3169981" lon="8.319449"><ele>421.1666666666667</ele><time>2026-04-04T13:47:56.054Z</time></trkpt><trkpt lat="44.316939" lon="8.3193424"><ele>422.33333333333337</ele><time>2026-04-04T13:47:58.055Z</time></trkpt><trkpt lat="44.3168896" lon="8.3192434"><ele>423.5</ele><time>2026-04-04T13:48:00.055Z</time></trkpt><trkpt lat="44.3168367" lon="8.3191672"><ele>424.6666666666667</ele><time>2026-04-04T13:48:02.056Z</time></trkpt><trkpt lat="44.31679" lon="8.3191034"><ele>425.83333333333337</ele><time>2026-04-04T13:48:04.054Z</time></trkpt><trkpt lat="44.3167348" lon="8.319025"><ele>427.0</ele><time>2026-04-04T13:48:06.054Z</time></trkpt><trkpt lat="44.3166907" lon="8.3189179"><ele>425.50000000000006</ele><time>2026-04-04T13:48:08.055Z</time></trkpt><trkpt lat="44.3166405" lon="8.3188307"><ele>424.0</ele><time>2026-04-04T13:48:10.054Z</time></trkpt><trkpt lat="44.3165785" lon="8.3187175"><ele>422.5</ele><time>2026-04-04T13:48:12.053Z</time></trkpt><trkpt lat="44.3165189" lon="8.3186444"><ele>421.0</ele><time>2026-04-04T13:48:14.055Z</time></trkpt><trkpt lat="44.3164749" lon="8.3185645"><ele>419.50000000000006</ele><time>2026-04-04T13:48:16.055Z</time></trkpt><trkpt lat="44.3164128" lon="8.3184863"><ele>418.0</ele><time>2026-04-04T13:48:18.055Z</time></trkpt><trkpt lat="44.3163563" lon="8.3184036"><ele>422.33333333333337</ele><time>2026-04-04T13:48:20.055Z</time></trkpt><trkpt lat="44.3163454" lon="8.3182981"><ele>426.6666666666667</ele><time>2026-04-04T13:48:22.055Z</time></trkpt><trkpt lat="44.3163381" lon="8.3181925"><ele>431.0</ele><time>2026-04-04T13:48:24.055Z</time></trkpt><trkpt lat="44.3163374" lon="8.3181017"><ele>435.33333333333337</ele><time>2026-04-04T13:48:26.053Z</time></trkpt><trkpt lat="44.316353" lon="8.3180004"><ele>439.6666666666667</ele><time>2026-04-04T13:48:28.053Z</time></trkpt><trkpt lat="44.3163779" lon="8.3179035"><ele>444.0</ele><time>2026-04-04T13:48:30.055Z</time></trkpt><trkpt lat="44.3164029" lon="8.3177877"><ele>440.8333333333333</ele><time>2026-04-04T13:48:32.054Z</time></trkpt><trkpt lat="44.3164443" lon="8.3176485"><ele>437.66666666666663</ele><time>2026-04-04T13:48:34.053Z</time></trkpt><trkpt lat="44.3164691" lon="8.3175324"><ele>434.5</ele><time>2026-04-04T13:48:36.054Z</time></trkpt><trkpt lat="44.316488" lon="8.3174235"><ele>431.3333333333333</ele><time>2026-04-04T13:48:38.054Z</time></trkpt><trkpt lat="44.3164986" lon="8.3173133"><ele>428.16666666666663</ele><time>2026-04-04T13:48:40.054Z</time></trkpt><trkpt lat="44.3165083" lon="8.3172165"><ele>425.0</ele><time>2026-04-04T13:48:42.054Z</time></trkpt><trkpt lat="44.3165247" lon="8.317104"><ele>424.99999999999994</ele><time>2026-04-04T13:48:44.055Z</time></trkpt><trkpt lat="44.3165358" lon="8.3169971"><ele>425.0</ele><time>2026-04-04T13:48:46.054Z</time></trkpt><trkpt lat="44.316549" lon="8.3168882"><ele>425.0</ele><time>2026-04-04T13:48:48.054Z</time></trkpt><trkpt lat="44.3165611" lon="8.3167716"><ele>425.0</ele><time>2026-04-04T13:48:50.055Z</time></trkpt><trkpt lat="44.3165715" lon="8.3166662"><ele>424.99999999999994</ele><time>2026-04-04T13:48:52.053Z</time></trkpt><trkpt lat="44.3165908" lon="8.3165442"><ele>425.0</ele><time>2026-04-04T13:48:54.055Z</time></trkpt><trkpt lat="44.3165993" lon="8.3164257"><ele>425.66666666666663</ele><time>2026-04-04T13:48:56.055Z</time></trkpt><trkpt lat="44.3165896" lon="8.316317"><ele>426.3333333333333</ele><time>2026-04-04T13:48:58.055Z</time></trkpt><trkpt lat="44.3165763" lon="8.3162068"><ele>427.0</ele><time>2026-04-04T13:49:00.055Z</time></trkpt><trkpt lat="44.3165749" lon="8.3160727"><ele>427.66666666666663</ele><time>2026-04-04T13:49:02.054Z</time></trkpt><trkpt lat="44.3165485" lon="8.3159545"><ele>428.3333333333333</ele><time>2026-04-04T13:49:04.055Z</time></trkpt><trkpt lat="44.3165342" lon="8.3158587"><ele>429.0</ele><time>2026-04-04T13:49:06.055Z</time></trkpt><trkpt lat="44.316542" lon="8.3157316"><ele>429.0</ele><time>2026-04-04T13:49:08.054Z</time></trkpt><trkpt lat="44.3165585" lon="8.3156332"><ele>429.0</ele><time>2026-04-04T13:49:10.054Z</time></trkpt><trkpt lat="44.3165387" lon="8.3155376"><ele>429.0</ele><time>2026-04-04T13:49:12.055Z</time></trkpt><trkpt lat="44.316524" lon="8.3154418"><ele>429.0</ele><time>2026-04-04T13:49:14.055Z</time></trkpt><trkpt lat="44.3165234" lon="8.315335"><ele>429.0</ele><time>2026-04-04T13:49:16.054Z</time></trkpt><trkpt lat="44.3165213" lon="8.3152223"><ele>429.0</ele><time>2026-04-04T13:49:18.054Z</time></trkpt><trkpt lat="44.3165364" lon="8.3150879"><ele>429.0</ele><time>2026-04-04T13:49:20.053Z</time></trkpt><trkpt lat="44.3165336" lon="8.3149784"><ele>429.0</ele><time>2026-04-04T13:49:22.054Z</time></trkpt><trkpt lat="44.3165175" lon="8.3148502"><ele>429.0</ele><time>2026-04-04T13:49:24.055Z</time></trkpt><trkpt lat="44.3165187" lon="8.3147449"><ele>429.0</ele><time>2026-04-04T13:49:26.054Z</time></trkpt><trkpt lat="44.3165161" lon="8.3146403"><ele>429.0</ele><time>2026-04-04T13:49:28.055Z</time></trkpt><trkpt lat="44.3165069" lon="8.3145208"><ele>429.0</ele><time>2026-04-04T13:49:30.055Z</time></trkpt><trkpt lat="44.3164974" lon="8.3144092"><ele>429.0</ele><time>2026-04-04T13:49:32.055Z</time></trkpt><trkpt lat="44.3164892" lon="8.314296"><ele>429.0</ele><time>2026-04-04T13:49:34.055Z</time></trkpt><trkpt lat="44.3164671" lon="8.3141964"><ele>429.0</ele><time>2026-04-04T13:49:36.055Z</time></trkpt><trkpt lat="44.3164418" lon="8.3141009"><ele>429.0</ele><time>2026-04-04T13:49:38.053Z</time></trkpt><trkpt lat="44.3164052" lon="8.3139892"><ele>429.0</ele><time>2026-04-04T13:49:40.055Z</time></trkpt><trkpt lat="44.3163467" lon="8.3139376"><ele>429.0</ele><time>2026-04-04T13:49:41.055Z</time></trkpt><trkpt lat="44.3162953" lon="8.3138507"><ele>428.8333333333333</ele><time>2026-04-04T13:49:43.054Z</time></trkpt><trkpt lat="44.3162507" lon="8.3137693"><ele>428.66666666666663</ele><time>2026-04-04T13:49:45.054Z</time></trkpt><trkpt lat="44.3161904" lon="8.3136954"><ele>428.5</ele><time>2026-04-04T13:49:47.054Z</time></trkpt><trkpt lat="44.3161139" lon="8.3136537"><ele>428.3333333333333</ele><time>2026-04-04T13:49:49.054Z</time></trkpt><trkpt lat="44.3160232" lon="8.3136444"><ele>428.16666666666663</ele><time>2026-04-04T13:49:51.053Z</time></trkpt><trkpt lat="44.3159048" lon="8.3136405"><ele>428.0</ele><time>2026-04-04T13:49:53.055Z</time></trkpt><trkpt lat="44.3158277" lon="8.3136643"><ele>428.0</ele><time>2026-04-04T13:49:54.053Z</time></trkpt><trkpt lat="44.3157268" lon="8.3136483"><ele>427.99999999999994</ele><time>2026-04-04T13:49:56.054Z</time></trkpt><trkpt lat="44.3156095" lon="8.3136626"><ele>427.99999999999994</ele><time>2026-04-04T13:49:58.054Z</time></trkpt><trkpt lat="44.3155393" lon="8.3136526"><ele>428.0</ele><time>2026-04-04T13:50:00.054Z</time></trkpt><trkpt lat="44.3154496" lon="8.313672"><ele>428.0</ele><time>2026-04-04T13:50:02.054Z</time></trkpt><trkpt lat="44.3153882" lon="8.3137295"><ele>427.4</ele><time>2026-04-04T13:50:03.056Z</time></trkpt><trkpt lat="44.315306" lon="8.3137821"><ele>426.79999999999995</ele><time>2026-04-04T13:50:05.054Z</time></trkpt><trkpt lat="44.3152149" lon="8.3138141"><ele>426.2</ele><time>2026-04-04T13:50:07.054Z</time></trkpt><trkpt lat="44.3151014" lon="8.3138466"><ele>425.6</ele><time>2026-04-04T13:50:09.054Z</time></trkpt><trkpt lat="44.3149971" lon="8.313855"><ele>425.0</ele><time>2026-04-04T13:50:11.055Z</time></trkpt><trkpt lat="44.3148836" lon="8.3138908"><ele>425.0</ele><time>2026-04-04T13:50:13.054Z</time></trkpt><trkpt lat="44.3147991" lon="8.3139006"><ele>425.0</ele><time>2026-04-04T13:50:15.055Z</time></trkpt><trkpt lat="44.314685" lon="8.3138893"><ele>425.0</ele><time>2026-04-04T13:50:17.054Z</time></trkpt><trkpt lat="44.3145993" lon="8.3138411"><ele>425.0</ele><time>2026-04-04T13:50:19.055Z</time></trkpt><trkpt lat="44.3145067" lon="8.3138027"><ele>425.0</ele><time>2026-04-04T13:50:21.054Z</time></trkpt><trkpt lat="44.3144309" lon="8.3137569"><ele>424.4</ele><time>2026-04-04T13:50:23.055Z</time></trkpt><trkpt lat="44.314328" lon="8.3137493"><ele>423.8</ele><time>2026-04-04T13:50:25.055Z</time></trkpt><trkpt lat="44.3142178" lon="8.3137605"><ele>423.20000000000005</ele><time>2026-04-04T13:50:27.054Z</time></trkpt><trkpt lat="44.3141063" lon="8.31378"><ele>422.6</ele><time>2026-04-04T13:50:29.055Z</time></trkpt><trkpt lat="44.3139863" lon="8.3138044"><ele>422.0</ele><time>2026-04-04T13:50:31.056Z</time></trkpt><trkpt lat="44.3138726" lon="8.3138051"><ele>424.49999999999994</ele><time>2026-04-04T13:50:33.055Z</time></trkpt><trkpt lat="44.3138092" lon="8.3138008"><ele>427.0</ele><time>2026-04-04T13:50:34.054Z</time></trkpt><trkpt lat="44.3137339" lon="8.31381"><ele>429.5</ele><time>2026-04-04T13:50:35.054Z</time></trkpt><trkpt lat="44.3136568" lon="8.3137387"><ele>432.0</ele><time>2026-04-04T13:50:38.056Z</time></trkpt><trkpt lat="44.313578" lon="8.3136731"><ele>434.49999999999994</ele><time>2026-04-04T13:50:40.053Z</time></trkpt><trkpt lat="44.3134891" lon="8.3136272"><ele>437.0</ele><time>2026-04-04T13:50:41.055Z</time></trkpt><trkpt lat="44.3133918" lon="8.3135931"><ele>437.0</ele><time>2026-04-04T13:50:42.054Z</time></trkpt><trkpt lat="44.3133696" lon="8.3134962"><ele>437.00000000000006</ele><time>2026-04-04T13:50:43.054Z</time></trkpt><trkpt lat="44.3132795" lon="8.313408"><ele>437.00000000000006</ele><time>2026-04-04T13:50:45.053Z</time></trkpt><trkpt lat="44.3132272" lon="8.3132734"><ele>437.0</ele><time>2026-04-04T13:50:47.055Z</time></trkpt><trkpt lat="44.3131553" lon="8.3131684"><ele>437.0</ele><time>2026-04-04T13:50:49.055Z</time></trkpt><trkpt lat="44.3131414" lon="8.3130389"><ele>435.20000000000005</ele><time>2026-04-04T13:50:51.054Z</time></trkpt><trkpt lat="44.3130784" lon="8.3129133"><ele>433.40000000000003</ele><time>2026-04-04T13:50:53.054Z</time></trkpt><trkpt lat="44.3130182" lon="8.3128008"><ele>431.59999999999997</ele><time>2026-04-04T13:50:55.054Z</time></trkpt><trkpt lat="44.3129623" lon="8.3126621"><ele>429.79999999999995</ele><time>2026-04-04T13:50:57.054Z</time></trkpt><trkpt lat="44.3128944" lon="8.3125562"><ele>428.0</ele><time>2026-04-04T13:50:59.053Z</time></trkpt><trkpt lat="44.3128304" lon="8.3124652"><ele>428.0</ele><time>2026-04-04T13:51:01.054Z</time></trkpt><trkpt lat="44.3127441" lon="8.3124069"><ele>427.99999999999994</ele><time>2026-04-04T13:51:03.054Z</time></trkpt><trkpt lat="44.3126441" lon="8.3123847"><ele>427.99999999999994</ele><time>2026-04-04T13:51:05.054Z</time></trkpt><trkpt lat="44.3125533" lon="8.3123903"><ele>428.0</ele><time>2026-04-04T13:51:07.054Z</time></trkpt><trkpt lat="44.3124641" lon="8.3124297"><ele>428.0</ele><time>2026-04-04T13:51:09.055Z</time></trkpt><trkpt lat="44.31237" lon="8.3124993"><ele>428.0</ele><time>2026-04-04T13:51:11.055Z</time></trkpt><trkpt lat="44.3122897" lon="8.3125784"><ele>427.99999999999994</ele><time>2026-04-04T13:51:13.053Z</time></trkpt><trkpt lat="44.3122123" lon="8.3126443"><ele>427.99999999999994</ele><time>2026-04-04T13:51:15.054Z</time></trkpt><trkpt lat="44.3121289" lon="8.312732"><ele>428.0</ele><time>2026-04-04T13:51:17.054Z</time></trkpt><trkpt lat="44.3120556" lon="8.312812"><ele>428.0</ele><time>2026-04-04T13:51:19.055Z</time></trkpt><trkpt lat="44.3119638" lon="8.3128722"><ele>427.0</ele><time>2026-04-04T13:51:21.056Z</time></trkpt><trkpt lat="44.3118847" lon="8.3129456"><ele>425.99999999999994</ele><time>2026-04-04T13:51:23.055Z</time></trkpt><trkpt lat="44.3118325" lon="8.3130014"><ele>425.0</ele><time>2026-04-04T13:51:24.055Z</time></trkpt><trkpt lat="44.311749" lon="8.313083"><ele>424.0</ele><time>2026-04-04T13:51:26.054Z</time></trkpt><trkpt lat="44.3116623" lon="8.3131468"><ele>423.0</ele><time>2026-04-04T13:51:28.055Z</time></trkpt><trkpt lat="44.3115735" lon="8.3132005"><ele>424.59999999999997</ele><time>2026-04-04T13:51:30.056Z</time></trkpt><trkpt lat="44.3114961" lon="8.3132288"><ele>426.2</ele><time>2026-04-04T13:51:31.055Z</time></trkpt><trkpt lat="44.3114018" lon="8.3132839"><ele>427.8</ele><time>2026-04-04T13:51:33.054Z</time></trkpt><trkpt lat="44.3113011" lon="8.3133142"><ele>429.4</ele><time>2026-04-04T13:51:35.054Z</time></trkpt><trkpt lat="44.3112137" lon="8.3133328"><ele>431.0</ele><time>2026-04-04T13:51:37.055Z</time></trkpt><trkpt lat="44.3111269" lon="8.3133456"><ele>430.99999999999994</ele><time>2026-04-04T13:51:39.055Z</time></trkpt><trkpt lat="44.3110427" lon="8.3133547"><ele>431.0</ele><time>2026-04-04T13:51:41.054Z</time></trkpt><trkpt lat="44.310965" lon="8.3133689"><ele>431.0</ele><time>2026-04-04T13:51:43.055Z</time></trkpt><trkpt lat="44.3108919" lon="8.3133686"><ele>431.0</ele><time>2026-04-04T13:51:45.054Z</time></trkpt><trkpt lat="44.3108072" lon="8.3133635"><ele>430.99999999999994</ele><time>2026-04-04T13:51:47.055Z</time></trkpt><trkpt lat="44.310723" lon="8.3133619"><ele>431.0</ele><time>2026-04-04T13:51:49.054Z</time></trkpt><trkpt lat="44.3106461" lon="8.3133685"><ele>431.66666666666663</ele><time>2026-04-04T13:51:51.053Z</time></trkpt><trkpt lat="44.3105637" lon="8.313365"><ele>432.3333333333333</ele><time>2026-04-04T13:51:53.055Z</time></trkpt><trkpt lat="44.3104668" lon="8.3133512"><ele>433.0</ele><time>2026-04-04T13:51:55.055Z</time></trkpt><trkpt lat="44.3103724" lon="8.3133518"><ele>433.66666666666663</ele><time>2026-04-04T13:51:57.056Z</time></trkpt><trkpt lat="44.3102885" lon="8.3133466"><ele>434.3333333333333</ele><time>2026-04-04T13:51:59.055Z</time></trkpt><trkpt lat="44.3102043" lon="8.3133148"><ele>435.0</ele><time>2026-04-04T13:52:01.053Z</time></trkpt><trkpt lat="44.3101257" lon="8.3132723"><ele>435.00000000000006</ele><time>2026-04-04T13:52:03.053Z</time></trkpt><trkpt lat="44.310054" lon="8.3132147"><ele>435.0</ele><time>2026-04-04T13:52:05.054Z</time></trkpt><trkpt lat="44.3099994" lon="8.3131669"><ele>435.0</ele><time>2026-04-04T13:52:07.056Z</time></trkpt><trkpt lat="44.3099534" lon="8.3130983"><ele>435.0</ele><time>2026-04-04T13:52:09.054Z</time></trkpt><trkpt lat="44.3099053" lon="8.3130235"><ele>435.0</ele><time>2026-04-04T13:52:11.054Z</time></trkpt><trkpt lat="44.3098609" lon="8.312945"><ele>435.00000000000006</ele><time>2026-04-04T13:52:13.055Z</time></trkpt><trkpt lat="44.3098192" lon="8.3128486"><ele>435.0</ele><time>2026-04-04T13:52:15.053Z</time></trkpt><trkpt lat="44.3097852" lon="8.312743"><ele>434.3333333333333</ele><time>2026-04-04T13:52:17.053Z</time></trkpt><trkpt lat="44.3097556" lon="8.3126459"><ele>433.66666666666663</ele><time>2026-04-04T13:52:19.054Z</time></trkpt><trkpt lat="44.3097088" lon="8.312542"><ele>433.0</ele><time>2026-04-04T13:52:21.053Z</time></trkpt><trkpt lat="44.3096709" lon="8.3124394"><ele>432.3333333333333</ele><time>2026-04-04T13:52:23.055Z</time></trkpt><trkpt lat="44.3096453" lon="8.3123484"><ele>431.66666666666663</ele><time>2026-04-04T13:52:25.054Z</time></trkpt><trkpt lat="44.3096303" lon="8.3122522"><ele>431.0</ele><time>2026-04-04T13:52:27.054Z</time></trkpt><trkpt lat="44.3096269" lon="8.3121563"><ele>431.99999999999994</ele><time>2026-04-04T13:52:29.054Z</time></trkpt><trkpt lat="44.309639" lon="8.3120458"><ele>433.0</ele><time>2026-04-04T13:52:31.055Z</time></trkpt><trkpt lat="44.3096711" lon="8.3119405"><ele>434.0</ele><time>2026-04-04T13:52:33.056Z</time></trkpt><trkpt lat="44.3096991" lon="8.3118393"><ele>435.0</ele><time>2026-04-04T13:52:35.055Z</time></trkpt><trkpt lat="44.3097238" lon="8.3117318"><ele>435.99999999999994</ele><time>2026-04-04T13:52:37.055Z</time></trkpt><trkpt lat="44.3097502" lon="8.3116266"><ele>437.0</ele><time>2026-04-04T13:52:39.053Z</time></trkpt><trkpt lat="44.3097873" lon="8.3115201"><ele>436.99999999999994</ele><time>2026-04-04T13:52:41.054Z</time></trkpt><trkpt lat="44.3098044" lon="8.311414"><ele>437.0</ele><time>2026-04-04T13:52:43.054Z</time></trkpt><trkpt lat="44.3098106" lon="8.3113061"><ele>437.0</ele><time>2026-04-04T13:52:45.053Z</time></trkpt><trkpt lat="44.3098054" lon="8.3111974"><ele>437.0</ele><time>2026-04-04T13:52:47.054Z</time></trkpt><trkpt lat="44.3097889" lon="8.3110714"><ele>436.99999999999994</ele><time>2026-04-04T13:52:50.054Z</time></trkpt><trkpt lat="44.3097505" lon="8.3109685"><ele>437.0</ele><time>2026-04-04T13:52:53.055Z</time></trkpt><trkpt lat="44.3096991" lon="8.310854"><ele>437.16666666666663</ele><time>2026-04-04T13:52:56.055Z</time></trkpt><trkpt lat="44.309639" lon="8.3107738"><ele>437.3333333333333</ele><time>2026-04-04T13:52:58.054Z</time></trkpt><trkpt lat="44.3095862" lon="8.3106946"><ele>437.5</ele><time>2026-04-04T13:53:00.056Z</time></trkpt><trkpt lat="44.3095333" lon="8.310616"><ele>437.66666666666663</ele><time>2026-04-04T13:53:02.055Z</time></trkpt><trkpt lat="44.3094678" lon="8.3105578"><ele>437.8333333333333</ele><time>2026-04-04T13:53:04.056Z</time></trkpt><trkpt lat="44.3094066" lon="8.3104743"><ele>438.0</ele><time>2026-04-04T13:53:06.055Z</time></trkpt><trkpt lat="44.3093275" lon="8.3104059"><ele>438.0</ele><time>2026-04-04T13:53:08.055Z</time></trkpt><trkpt lat="44.3092589" lon="8.3103142"><ele>437.99999999999994</ele><time>2026-04-04T13:53:10.055Z</time></trkpt><trkpt lat="44.3092076" lon="8.3102269"><ele>437.99999999999994</ele><time>2026-04-04T13:53:12.055Z</time></trkpt><trkpt lat="44.3091455" lon="8.3101281"><ele>438.0</ele><time>2026-04-04T13:53:14.054Z</time></trkpt><trkpt lat="44.3090683" lon="8.3100432"><ele>438.0</ele><time>2026-04-04T13:53:16.053Z</time></trkpt><trkpt lat="44.3089962" lon="8.3099583"><ele>438.0</ele><time>2026-04-04T13:53:18.054Z</time></trkpt><trkpt lat="44.3089434" lon="8.3098576"><ele>437.99999999999994</ele><time>2026-04-04T13:53:20.055Z</time></trkpt><trkpt lat="44.3088637" lon="8.3097941"><ele>437.99999999999994</ele><time>2026-04-04T13:53:22.054Z</time></trkpt><trkpt lat="44.3087881" lon="8.3097132"><ele>438.0</ele><time>2026-04-04T13:53:24.054Z</time></trkpt><trkpt lat="44.3087365" lon="8.3096145"><ele>438.0</ele><time>2026-04-04T13:53:26.055Z</time></trkpt><trkpt lat="44.3086652" lon="8.3095295"><ele>438.8333333333333</ele><time>2026-04-04T13:53:28.056Z</time></trkpt><trkpt lat="44.3086" lon="8.309446"><ele>439.66666666666663</ele><time>2026-04-04T13:53:30.054Z</time></trkpt><trkpt lat="44.3085399" lon="8.3093475"><ele>440.5</ele><time>2026-04-04T13:53:32.054Z</time></trkpt><trkpt lat="44.3084655" lon="8.3092786"><ele>441.3333333333333</ele><time>2026-04-04T13:53:34.054Z</time></trkpt><trkpt lat="44.3083778" lon="8.3092362"><ele>442.16666666666663</ele><time>2026-04-04T13:53:36.054Z</time></trkpt><trkpt lat="44.3082985" lon="8.3091981"><ele>443.0</ele><time>2026-04-04T13:53:38.053Z</time></trkpt><trkpt lat="44.3082047" lon="8.3091624"><ele>442.99999999999994</ele><time>2026-04-04T13:53:40.056Z</time></trkpt><trkpt lat="44.3081413" lon="8.3091322"><ele>443.0</ele><time>2026-04-04T13:53:42.056Z</time></trkpt><trkpt lat="44.3080705" lon="8.3090871"><ele>443.0</ele><time>2026-04-04T13:53:44.055Z</time></trkpt><trkpt lat="44.3079986" lon="8.3090413"><ele>443.0</ele><time>2026-04-04T13:53:46.054Z</time></trkpt><trkpt lat="44.3079246" lon="8.30899"><ele>442.99999999999994</ele><time>2026-04-04T13:53:48.055Z</time></trkpt><trkpt lat="44.3078511" lon="8.308945"><ele>443.0</ele><time>2026-04-04T13:53:50.055Z</time></trkpt><trkpt lat="44.307785" lon="8.3089065"><ele>441.99999999999994</ele><time>2026-04-04T13:53:52.055Z</time></trkpt><trkpt lat="44.3076977" lon="8.3088438"><ele>441.0</ele><time>2026-04-04T13:53:55.054Z</time></trkpt><trkpt lat="44.3076299" lon="8.3087988"><ele>440.0</ele><time>2026-04-04T13:53:57.056Z</time></trkpt><trkpt lat="44.3075686" lon="8.3087479"><ele>439.0</ele><time>2026-04-04T13:53:59.388Z</time></trkpt><trkpt lat="44.3075028" lon="8.3086935"><ele>437.99999999999994</ele><time>2026-04-04T13:54:01.055Z</time></trkpt><trkpt lat="44.3074304" lon="8.3086426"><ele>437.0</ele><time>2026-04-04T13:54:03.053Z</time></trkpt><trkpt lat="44.3073679" lon="8.308595"><ele>437.0</ele><time>2026-04-04T13:54:05.054Z</time></trkpt><trkpt lat="44.3072904" lon="8.3085413"><ele>437.00000000000006</ele><time>2026-04-04T13:54:07.054Z</time></trkpt><trkpt lat="44.3072108" lon="8.3084939"><ele>437.00000000000006</ele><time>2026-04-04T13:54:09.053Z</time></trkpt><trkpt lat="44.3071245" lon="8.3084581"><ele>437.0</ele><time>2026-04-04T13:54:11.055Z</time></trkpt><trkpt lat="44.3070446" lon="8.308422"><ele>437.0</ele><time>2026-04-04T13:54:13.053Z</time></trkpt><trkpt lat="44.3069392" lon="8.3083946"><ele>441.20000000000005</ele><time>2026-04-04T13:54:15.054Z</time></trkpt><trkpt lat="44.3068614" lon="8.3083756"><ele>445.40000000000003</ele><time>2026-04-04T13:54:17.054Z</time></trkpt><trkpt lat="44.3067574" lon="8.3083509"><ele>449.59999999999997</ele><time>2026-04-04T13:54:19.054Z</time></trkpt><trkpt lat="44.3066808" lon="8.3083026"><ele>453.79999999999995</ele><time>2026-04-04T13:54:21.054Z</time></trkpt><trkpt lat="44.3066146" lon="8.3082216"><ele>458.0</ele><time>2026-04-04T13:54:23.054Z</time></trkpt><trkpt lat="44.3065435" lon="8.3081357"><ele>458.0</ele><time>2026-04-04T13:54:25.054Z</time></trkpt><trkpt lat="44.3064853" lon="8.3080956"><ele>457.99999999999994</ele><time>2026-04-04T13:54:26.054Z</time></trkpt><trkpt lat="44.3064406" lon="8.3079513"><ele>457.99999999999994</ele><time>2026-04-04T13:54:28.053Z</time></trkpt><trkpt lat="44.3064023" lon="8.3078257"><ele>458.0</ele><time>2026-04-04T13:54:30.055Z</time></trkpt><trkpt lat="44.3063858" lon="8.3076829"><ele>458.0</ele><time>2026-04-04T13:54:32.054Z</time></trkpt><trkpt lat="44.3063869" lon="8.3075565"><ele>455.66666666666663</ele><time>2026-04-04T13:54:34.055Z</time></trkpt><trkpt lat="44.3064289" lon="8.3074846"><ele>453.3333333333333</ele><time>2026-04-04T13:54:35.056Z</time></trkpt><trkpt lat="44.3064216" lon="8.3073543"><ele>451.0</ele><time>2026-04-04T13:54:37.054Z</time></trkpt><trkpt lat="44.3064061" lon="8.3072289"><ele>448.66666666666663</ele><time>2026-04-04T13:54:39.054Z</time></trkpt><trkpt lat="44.3063814" lon="8.307108"><ele>446.3333333333333</ele><time>2026-04-04T13:54:41.054Z</time></trkpt><trkpt lat="44.3063726" lon="8.3069871"><ele>444.0</ele><time>2026-04-04T13:54:43.054Z</time></trkpt><trkpt lat="44.3063454" lon="8.3068562"><ele>452.0</ele><time>2026-04-04T13:54:45.053Z</time></trkpt><trkpt lat="44.3063488" lon="8.3067395"><ele>460.0</ele><time>2026-04-04T13:54:47.054Z</time></trkpt><trkpt lat="44.3063613" lon="8.3066101"><ele>468.0</ele><time>2026-04-04T13:54:49.054Z</time></trkpt><trkpt lat="44.3063434" lon="8.3064868"><ele>476.0</ele><time>2026-04-04T13:54:51.053Z</time></trkpt><trkpt lat="44.3063571" lon="8.3063593"><ele>484.0</ele><time>2026-04-04T13:54:53.054Z</time></trkpt><trkpt lat="44.3063747" lon="8.3062321"><ele>484.00000000000006</ele><time>2026-04-04T13:54:55.054Z</time></trkpt><trkpt lat="44.3063695" lon="8.3061072"><ele>484.0</ele><time>2026-04-04T13:54:57.054Z</time></trkpt><trkpt lat="44.3063781" lon="8.3059905"><ele>484.0</ele><time>2026-04-04T13:54:59.055Z</time></trkpt><trkpt lat="44.3063802" lon="8.3058755"><ele>484.0</ele><time>2026-04-04T13:55:01.054Z</time></trkpt><trkpt lat="44.3063788" lon="8.3057529"><ele>484.00000000000006</ele><time>2026-04-04T13:55:03.053Z</time></trkpt><trkpt lat="44.3063818" lon="8.3056349"><ele>484.0</ele><time>2026-04-04T13:55:05.055Z</time></trkpt><trkpt lat="44.306373" lon="8.3055042"><ele>483.83333333333337</ele><time>2026-04-04T13:55:07.054Z</time></trkpt><trkpt lat="44.3063632" lon="8.3053857"><ele>483.6666666666667</ele><time>2026-04-04T13:55:09.054Z</time></trkpt><trkpt lat="44.3063602" lon="8.3052887"><ele>483.5</ele><time>2026-04-04T13:55:11.054Z</time></trkpt><trkpt lat="44.306359" lon="8.3051652"><ele>483.33333333333337</ele><time>2026-04-04T13:55:13.053Z</time></trkpt><trkpt lat="44.3063485" lon="8.3050419"><ele>483.1666666666667</ele><time>2026-04-04T13:55:15.054Z</time></trkpt><trkpt lat="44.3063288" lon="8.3049274"><ele>483.0</ele><time>2026-04-04T13:55:17.054Z</time></trkpt><trkpt lat="44.3063056" lon="8.3048249"><ele>481.2</ele><time>2026-04-04T13:55:19.055Z</time></trkpt><trkpt lat="44.3062658" lon="8.3047064"><ele>479.4</ele><time>2026-04-04T13:55:21.054Z</time></trkpt><trkpt lat="44.3062384" lon="8.3045651"><ele>477.59999999999997</ele><time>2026-04-04T13:55:23.054Z</time></trkpt><trkpt lat="44.3062597" lon="8.304404"><ele>475.79999999999995</ele><time>2026-04-04T13:55:25.054Z</time></trkpt><trkpt lat="44.3062276" lon="8.3042772"><ele>474.0</ele><time>2026-04-04T13:55:27.053Z</time></trkpt><trkpt lat="44.3061871" lon="8.3041928"><ele>474.0</ele><time>2026-04-04T13:55:29.053Z</time></trkpt><trkpt lat="44.3061111" lon="8.3040728"><ele>474.0</ele><time>2026-04-04T13:55:31.055Z</time></trkpt><trkpt lat="44.3060456" lon="8.3039616"><ele>474.0</ele><time>2026-04-04T13:55:33.053Z</time></trkpt><trkpt lat="44.3059915" lon="8.3038678"><ele>474.0</ele><time>2026-04-04T13:55:35.053Z</time></trkpt><trkpt lat="44.3059265" lon="8.3037671"><ele>474.0</ele><time>2026-04-04T13:55:37.054Z</time></trkpt><trkpt lat="44.3058499" lon="8.3036777"><ele>473.2</ele><time>2026-04-04T13:55:39.054Z</time></trkpt><trkpt lat="44.305809" lon="8.3035929"><ele>472.4</ele><time>2026-04-04T13:55:41.056Z</time></trkpt><trkpt lat="44.3057189" lon="8.303518"><ele>471.6</ele><time>2026-04-04T13:55:43.055Z</time></trkpt><trkpt lat="44.3056543" lon="8.3034288"><ele>470.8</ele><time>2026-04-04T13:55:45.054Z</time></trkpt><trkpt lat="44.3055845" lon="8.3032958"><ele>470.0</ele><time>2026-04-04T13:55:47.054Z</time></trkpt><trkpt lat="44.3055075" lon="8.3031981"><ele>470.0</ele><time>2026-04-04T13:55:49.054Z</time></trkpt><trkpt lat="44.3054335" lon="8.3031"><ele>470.0</ele><time>2026-04-04T13:55:51.054Z</time></trkpt><trkpt lat="44.3053693" lon="8.3030241"><ele>470.0</ele><time>2026-04-04T13:55:53.054Z</time></trkpt><trkpt lat="44.3052911" lon="8.3029192"><ele>470.0</ele><time>2026-04-04T13:55:55.055Z</time></trkpt><trkpt lat="44.3052189" lon="8.3028133"><ele>470.0</ele><time>2026-04-04T13:55:57.053Z</time></trkpt><trkpt lat="44.3051364" lon="8.3027119"><ele>467.0</ele><time>2026-04-04T13:55:59.054Z</time></trkpt><trkpt lat="44.3050503" lon="8.3026303"><ele>464.0</ele><time>2026-04-04T13:56:01.054Z</time></trkpt><trkpt lat="44.304968" lon="8.3025392"><ele>461.0</ele><time>2026-04-04T13:56:03.054Z</time></trkpt><trkpt lat="44.3049026" lon="8.3024448"><ele>458.0</ele><time>2026-04-04T13:56:05.055Z</time></trkpt><trkpt lat="44.3048361" lon="8.3023056"><ele>455.0</ele><time>2026-04-04T13:56:07.054Z</time></trkpt><trkpt lat="44.304765" lon="8.3022377"><ele>455.8</ele><time>2026-04-04T13:56:09.055Z</time></trkpt><trkpt lat="44.3047549" lon="8.3021251"><ele>456.6</ele><time>2026-04-04T13:56:11.054Z</time></trkpt><trkpt lat="44.3046861" lon="8.302001"><ele>457.4</ele><time>2026-04-04T13:56:13.055Z</time></trkpt><trkpt lat="44.3046515" lon="8.301901"><ele>458.2</ele><time>2026-04-04T13:56:15.055Z</time></trkpt><trkpt lat="44.3045999" lon="8.3017709"><ele>459.0</ele><time>2026-04-04T13:56:17.052Z</time></trkpt><trkpt lat="44.3045068" lon="8.3016592"><ele>459.0</ele><time>2026-04-04T13:56:19.053Z</time></trkpt><trkpt lat="44.3044237" lon="8.3016283"><ele>459.0</ele><time>2026-04-04T13:56:20.054Z</time></trkpt><trkpt lat="44.3043763" lon="8.3015522"><ele>459.0</ele><time>2026-04-04T13:56:22.054Z</time></trkpt><trkpt lat="44.3042691" lon="8.3015186"><ele>459.0</ele><time>2026-04-04T13:56:24.054Z</time></trkpt><trkpt lat="44.3042066" lon="8.3014862"><ele>459.0</ele><time>2026-04-04T13:56:26.055Z</time></trkpt><trkpt lat="44.3041055" lon="8.3014736"><ele>459.0</ele><time>2026-04-04T13:56:28.053Z</time></trkpt><trkpt lat="44.304008" lon="8.3014521"><ele>458.0</ele><time>2026-04-04T13:56:30.054Z</time></trkpt><trkpt lat="44.3038981" lon="8.3014406"><ele>457.0</ele><time>2026-04-04T13:56:32.054Z</time></trkpt><trkpt lat="44.3037873" lon="8.3014126"><ele>456.0</ele><time>2026-04-04T13:56:34.053Z</time></trkpt><trkpt lat="44.3037211" lon="8.3013932"><ele>455.0</ele><time>2026-04-04T13:56:35.053Z</time></trkpt><trkpt lat="44.3036001" lon="8.3013492"><ele>454.0</ele><time>2026-04-04T13:56:37.053Z</time></trkpt><trkpt lat="44.3035345" lon="8.3013277"><ele>454.0</ele><time>2026-04-04T13:56:38.054Z</time></trkpt><trkpt lat="44.3034776" lon="8.3012897"><ele>454.0</ele><time>2026-04-04T13:56:39.054Z</time></trkpt><trkpt lat="44.3033632" lon="8.3012404"><ele>454.0</ele><time>2026-04-04T13:56:41.054Z</time></trkpt><trkpt lat="44.3032488" lon="8.3012791"><ele>454.0</ele><time>2026-04-04T13:56:43.055Z</time></trkpt><trkpt lat="44.3031579" lon="8.3013771"><ele>454.0</ele><time>2026-04-04T13:56:45.054Z</time></trkpt><trkpt lat="44.3031149" lon="8.301508"><ele>454.0</ele><time>2026-04-04T13:56:47.054Z</time></trkpt><trkpt lat="44.3030873" lon="8.3015912"><ele>454.0</ele><time>2026-04-04T13:56:48.054Z</time></trkpt><trkpt lat="44.3030376" lon="8.3017341"><ele>454.0</ele><time>2026-04-04T13:56:50.053Z</time></trkpt><trkpt lat="44.3030145" lon="8.3018222"><ele>454.0</ele><time>2026-04-04T13:56:51.053Z</time></trkpt><trkpt lat="44.3029621" lon="8.301967"><ele>454.0</ele><time>2026-04-04T13:56:53.053Z</time></trkpt><trkpt lat="44.3029281" lon="8.3020974"><ele>453.00000000000006</ele><time>2026-04-04T13:56:55.053Z</time></trkpt><trkpt lat="44.3028965" lon="8.3021914"><ele>452.0</ele><time>2026-04-04T13:56:56.054Z</time></trkpt><trkpt lat="44.3028764" lon="8.3022849"><ele>451.0</ele><time>2026-04-04T13:56:57.053Z</time></trkpt><trkpt lat="44.3028295" lon="8.302421"><ele>450.0</ele><time>2026-04-04T13:56:59.053Z</time></trkpt><trkpt lat="44.3027781" lon="8.3025686"><ele>449.00000000000006</ele><time>2026-04-04T13:57:01.054Z</time></trkpt><trkpt lat="44.302747" lon="8.3026452"><ele>448.0</ele><time>2026-04-04T13:57:02.054Z</time></trkpt><trkpt lat="44.3027139" lon="8.3027303"><ele>447.6666666666667</ele><time>2026-04-04T13:57:03.053Z</time></trkpt><trkpt lat="44.3026748" lon="8.3028042"><ele>447.33333333333337</ele><time>2026-04-04T13:57:04.053Z</time></trkpt><trkpt lat="44.3026058" lon="8.3029353"><ele>447.0</ele><time>2026-04-04T13:57:06.053Z</time></trkpt><trkpt lat="44.3025609" lon="8.3030064"><ele>446.66666666666663</ele><time>2026-04-04T13:57:07.055Z</time></trkpt><trkpt lat="44.302484" lon="8.3031316"><ele>446.3333333333333</ele><time>2026-04-04T13:57:09.053Z</time></trkpt><trkpt lat="44.3024347" lon="8.3031864"><ele>446.0</ele><time>2026-04-04T13:57:10.054Z</time></trkpt><trkpt lat="44.3023403" lon="8.3032918"><ele>446.49999999999994</ele><time>2026-04-04T13:57:12.054Z</time></trkpt><trkpt lat="44.3022872" lon="8.3033399"><ele>447.0</ele><time>2026-04-04T13:57:13.054Z</time></trkpt><trkpt lat="44.3022006" lon="8.3034106"><ele>447.5</ele><time>2026-04-04T13:57:15.054Z</time></trkpt><trkpt lat="44.3021024" lon="8.3034608"><ele>448.0</ele><time>2026-04-04T13:57:17.055Z</time></trkpt><trkpt lat="44.3020298" lon="8.3034768"><ele>448.49999999999994</ele><time>2026-04-04T13:57:18.054Z</time></trkpt><trkpt lat="44.3019569" lon="8.3034961"><ele>449.0</ele><time>2026-04-04T13:57:19.055Z</time></trkpt><trkpt lat="44.3018892" lon="8.3035014"><ele>448.99999999999994</ele><time>2026-04-04T13:57:20.052Z</time></trkpt><trkpt lat="44.3018162" lon="8.3034968"><ele>449.0</ele><time>2026-04-04T13:57:21.053Z</time></trkpt><trkpt lat="44.3017561" lon="8.3034366"><ele>449.0</ele><time>2026-04-04T13:57:23.052Z</time></trkpt><trkpt lat="44.3016295" lon="8.3034137"><ele>449.0</ele><time>2026-04-04T13:57:25.054Z</time></trkpt><trkpt lat="44.3015652" lon="8.3033964"><ele>448.99999999999994</ele><time>2026-04-04T13:57:26.054Z</time></trkpt><trkpt lat="44.3014979" lon="8.3033816"><ele>449.0</ele><time>2026-04-04T13:57:27.054Z</time></trkpt><trkpt lat="44.3013768" lon="8.3033846"><ele>448.79999999999995</ele><time>2026-04-04T13:57:29.054Z</time></trkpt><trkpt lat="44.3012639" lon="8.30342"><ele>448.59999999999997</ele><time>2026-04-04T13:57:31.052Z</time></trkpt><trkpt lat="44.301167" lon="8.3034779"><ele>448.4</ele><time>2026-04-04T13:57:33.052Z</time></trkpt><trkpt lat="44.301083" lon="8.3035527"><ele>448.2</ele><time>2026-04-04T13:57:35.053Z</time></trkpt><trkpt lat="44.300987" lon="8.3036404"><ele>448.0</ele><time>2026-04-04T13:57:37.055Z</time></trkpt><trkpt lat="44.3009037" lon="8.3037101"><ele>448.0</ele><time>2026-04-04T13:57:39.053Z</time></trkpt><trkpt lat="44.3008013" lon="8.3037535"><ele>447.99999999999994</ele><time>2026-04-04T13:57:41.053Z</time></trkpt><trkpt lat="44.3007224" lon="8.3037781"><ele>447.99999999999994</ele><time>2026-04-04T13:57:42.053Z</time></trkpt><trkpt lat="44.3006316" lon="8.3037782"><ele>448.0</ele><time>2026-04-04T13:57:44.054Z</time></trkpt><trkpt lat="44.3005061" lon="8.3038246"><ele>448.0</ele><time>2026-04-04T13:57:46.054Z</time></trkpt><trkpt lat="44.30041" lon="8.303804"><ele>447.4</ele><time>2026-04-04T13:57:48.053Z</time></trkpt><trkpt lat="44.3002834" lon="8.3037938"><ele>446.79999999999995</ele><time>2026-04-04T13:57:50.053Z</time></trkpt><trkpt lat="44.300173" lon="8.3038073"><ele>446.2</ele><time>2026-04-04T13:57:52.053Z</time></trkpt><trkpt lat="44.3000656" lon="8.3037936"><ele>445.6</ele><time>2026-04-04T13:57:54.053Z</time></trkpt><trkpt lat="44.2999687" lon="8.3038282"><ele>445.0</ele><time>2026-04-04T13:57:55.054Z</time></trkpt><trkpt lat="44.2998669" lon="8.3037903"><ele>445.00000000000006</ele><time>2026-04-04T13:57:57.054Z</time></trkpt><trkpt lat="44.2997675" lon="8.3037564"><ele>445.0</ele><time>2026-04-04T13:57:59.052Z</time></trkpt><trkpt lat="44.2997067" lon="8.3037281"><ele>445.0</ele><time>2026-04-04T13:58:00.053Z</time></trkpt><trkpt lat="44.2996118" lon="8.3037032"><ele>445.0</ele><time>2026-04-04T13:58:02.054Z</time></trkpt><trkpt lat="44.2995133" lon="8.3037269"><ele>445.00000000000006</ele><time>2026-04-04T13:58:04.054Z</time></trkpt><trkpt lat="44.2994578" lon="8.3037751"><ele>445.0</ele><time>2026-04-04T13:58:06.055Z</time></trkpt><trkpt lat="44.2993613" lon="8.303822"><ele>445.33333333333337</ele><time>2026-04-04T13:58:08.055Z</time></trkpt><trkpt lat="44.29926" lon="8.3038689"><ele>445.6666666666667</ele><time>2026-04-04T13:58:10.053Z</time></trkpt><trkpt lat="44.2991628" lon="8.3039078"><ele>446.0</ele><time>2026-04-04T13:58:12.054Z</time></trkpt><trkpt lat="44.2990705" lon="8.3039191"><ele>446.33333333333337</ele><time>2026-04-04T13:58:14.054Z</time></trkpt><trkpt lat="44.2990061" lon="8.3039242"><ele>446.6666666666667</ele><time>2026-04-04T13:58:15.054Z</time></trkpt><trkpt lat="44.2989259" lon="8.303919"><ele>447.0</ele><time>2026-04-04T13:58:17.054Z</time></trkpt><trkpt lat="44.2988275" lon="8.3039175"><ele>448.8</ele><time>2026-04-04T13:58:19.053Z</time></trkpt><trkpt lat="44.2987317" lon="8.3039247"><ele>450.6</ele><time>2026-04-04T13:58:21.054Z</time></trkpt><trkpt lat="44.2986477" lon="8.3039148"><ele>452.40000000000003</ele><time>2026-04-04T13:58:23.055Z</time></trkpt><trkpt lat="44.2985536" lon="8.3039281"><ele>454.20000000000005</ele><time>2026-04-04T13:58:25.053Z</time></trkpt><trkpt lat="44.2984596" lon="8.303945"><ele>456.0</ele><time>2026-04-04T13:58:27.054Z</time></trkpt><trkpt lat="44.2983654" lon="8.3039563"><ele>456.0</ele><time>2026-04-04T13:58:29.053Z</time></trkpt><trkpt lat="44.2982847" lon="8.3039915"><ele>456.0</ele><time>2026-04-04T13:58:31.054Z</time></trkpt><trkpt lat="44.298199" lon="8.3040305"><ele>456.0</ele><time>2026-04-04T13:58:33.054Z</time></trkpt><trkpt lat="44.2981332" lon="8.3040437"><ele>456.0</ele><time>2026-04-04T13:58:35.054Z</time></trkpt><trkpt lat="44.2980469" lon="8.3040661"><ele>456.0</ele><time>2026-04-04T13:58:37.054Z</time></trkpt><trkpt lat="44.2979591" lon="8.3040575"><ele>456.0</ele><time>2026-04-04T13:58:39.055Z</time></trkpt><trkpt lat="44.2978646" lon="8.3040223"><ele>456.20000000000005</ele><time>2026-04-04T13:58:41.054Z</time></trkpt><trkpt lat="44.2977614" lon="8.3039826"><ele>456.40000000000003</ele><time>2026-04-04T13:58:43.055Z</time></trkpt><trkpt lat="44.2976671" lon="8.3039285"><ele>456.6</ele><time>2026-04-04T13:58:45.054Z</time></trkpt><trkpt lat="44.2975822" lon="8.3038706"><ele>456.8</ele><time>2026-04-04T13:58:47.053Z</time></trkpt><trkpt lat="44.2974924" lon="8.3038211"><ele>457.0</ele><time>2026-04-04T13:58:49.054Z</time></trkpt><trkpt lat="44.2974413" lon="8.3037435"><ele>455.6</ele><time>2026-04-04T13:58:51.053Z</time></trkpt><trkpt lat="44.2973916" lon="8.3036493"><ele>454.20000000000005</ele><time>2026-04-04T13:58:53.054Z</time></trkpt><trkpt lat="44.2973623" lon="8.3035002"><ele>452.8</ele><time>2026-04-04T13:58:55.053Z</time></trkpt><trkpt lat="44.2973626" lon="8.3033749"><ele>451.4</ele><time>2026-04-04T13:58:57.055Z</time></trkpt><trkpt lat="44.2973755" lon="8.3032494"><ele>450.0</ele><time>2026-04-04T13:58:59.053Z</time></trkpt><trkpt lat="44.2973932" lon="8.3031078"><ele>449.6</ele><time>2026-04-04T13:59:01.053Z</time></trkpt><trkpt lat="44.2973963" lon="8.3029608"><ele>449.2</ele><time>2026-04-04T13:59:03.054Z</time></trkpt><trkpt lat="44.2974204" lon="8.3028008"><ele>448.79999999999995</ele><time>2026-04-04T13:59:05.053Z</time></trkpt><trkpt lat="44.297452" lon="8.3026309"><ele>448.4</ele><time>2026-04-04T13:59:07.054Z</time></trkpt><trkpt lat="44.2974664" lon="8.3025384"><ele>448.0</ele><time>2026-04-04T13:59:08.053Z</time></trkpt><trkpt lat="44.2974827" lon="8.3024516"><ele>448.0</ele><time>2026-04-04T13:59:09.055Z</time></trkpt><trkpt lat="44.2975004" lon="8.3023648"><ele>448.0</ele><time>2026-04-04T13:59:10.054Z</time></trkpt><trkpt lat="44.2975283" lon="8.3022688"><ele>448.0</ele><time>2026-04-04T13:59:11.054Z</time></trkpt><trkpt lat="44.2975641" lon="8.3021612"><ele>448.0</ele><time>2026-04-04T13:59:12.053Z</time></trkpt><trkpt lat="44.297577" lon="8.3020557"><ele>448.0</ele><time>2026-04-04T13:59:13.054Z</time></trkpt><trkpt lat="44.2975974" lon="8.3019602"><ele>448.0</ele><time>2026-04-04T13:59:14.054Z</time></trkpt><trkpt lat="44.2976137" lon="8.3018588"><ele>448.0</ele><time>2026-04-04T13:59:15.055Z</time></trkpt><trkpt lat="44.2976258" lon="8.3017551"><ele>447.83333333333337</ele><time>2026-04-04T13:59:16.055Z</time></trkpt><trkpt lat="44.2976423" lon="8.3016594"><ele>447.6666666666667</ele><time>2026-04-04T13:59:17.054Z</time></trkpt><trkpt lat="44.2976623" lon="8.3015446"><ele>447.5</ele><time>2026-04-04T13:59:18.055Z</time></trkpt><trkpt lat="44.2976816" lon="8.3014383"><ele>447.33333333333337</ele><time>2026-04-04T13:59:19.053Z</time></trkpt><trkpt lat="44.2977085" lon="8.3013293"><ele>447.1666666666667</ele><time>2026-04-04T13:59:20.054Z</time></trkpt><trkpt lat="44.2977246" lon="8.3012259"><ele>447.0</ele><time>2026-04-04T13:59:21.055Z</time></trkpt><trkpt lat="44.2977461" lon="8.3011228"><ele>446.99999999999994</ele><time>2026-04-04T13:59:22.053Z</time></trkpt><trkpt lat="44.2977636" lon="8.3010191"><ele>447.0</ele><time>2026-04-04T13:59:23.053Z</time></trkpt><trkpt lat="44.2977879" lon="8.3009211"><ele>447.0</ele><time>2026-04-04T13:59:24.053Z</time></trkpt><trkpt lat="44.2978068" lon="8.3008246"><ele>447.0</ele><time>2026-04-04T13:59:25.054Z</time></trkpt><trkpt lat="44.2978237" lon="8.3007247"><ele>447.0</ele><time>2026-04-04T13:59:26.054Z</time></trkpt><trkpt lat="44.2978359" lon="8.3006187"><ele>446.99999999999994</ele><time>2026-04-04T13:59:27.053Z</time></trkpt><trkpt lat="44.2978374" lon="8.3005185"><ele>447.0</ele><time>2026-04-04T13:59:28.053Z</time></trkpt><trkpt lat="44.2978291" lon="8.3004218"><ele>448.0</ele><time>2026-04-04T13:59:29.054Z</time></trkpt><trkpt lat="44.2978091" lon="8.3003378"><ele>449.0</ele><time>2026-04-04T13:59:30.054Z</time></trkpt><trkpt lat="44.2977783" lon="8.3002595"><ele>450.0</ele><time>2026-04-04T13:59:31.052Z</time></trkpt><trkpt lat="44.297712" lon="8.3001463"><ele>451.0</ele><time>2026-04-04T13:59:33.054Z</time></trkpt><trkpt lat="44.29765" lon="8.3000542"><ele>452.0</ele><time>2026-04-04T13:59:35.054Z</time></trkpt><trkpt lat="44.2975953" lon="8.2999702"><ele>453.0</ele><time>2026-04-04T13:59:37.053Z</time></trkpt><trkpt lat="44.2975398" lon="8.2998904"><ele>453.0</ele><time>2026-04-04T13:59:39.055Z</time></trkpt><trkpt lat="44.2974911" lon="8.2998166"><ele>453.0</ele><time>2026-04-04T13:59:41.055Z</time></trkpt><trkpt lat="44.2974192" lon="8.2997443"><ele>453.0</ele><time>2026-04-04T13:59:43.054Z</time></trkpt><trkpt lat="44.2973682" lon="8.2996713"><ele>453.0</ele><time>2026-04-04T13:59:45.052Z</time></trkpt><trkpt lat="44.297299" lon="8.2996367"><ele>453.0</ele><time>2026-04-04T13:59:47.053Z</time></trkpt><trkpt lat="44.2972342" lon="8.2995435"><ele>453.0</ele><time>2026-04-04T13:59:50.053Z</time></trkpt><trkpt lat="44.2971812" lon="8.2994772"><ele>453.8333333333333</ele><time>2026-04-04T13:59:52.053Z</time></trkpt><trkpt lat="44.2971061" lon="8.2994034"><ele>454.66666666666663</ele><time>2026-04-04T13:59:54.053Z</time></trkpt><trkpt lat="44.297039" lon="8.2993318"><ele>455.5</ele><time>2026-04-04T13:59:56.054Z</time></trkpt><trkpt lat="44.296965" lon="8.299264"><ele>456.3333333333333</ele><time>2026-04-04T13:59:58.054Z</time></trkpt><trkpt lat="44.2968926" lon="8.2992038"><ele>457.16666666666663</ele><time>2026-04-04T14:00:00.054Z</time></trkpt><trkpt lat="44.2968181" lon="8.2991511"><ele>458.0</ele><time>2026-04-04T14:00:02.052Z</time></trkpt><trkpt lat="44.2967485" lon="8.2990841"><ele>458.0</ele><time>2026-04-04T14:00:04.054Z</time></trkpt><trkpt lat="44.2966761" lon="8.2990192"><ele>457.99999999999994</ele><time>2026-04-04T14:00:06.054Z</time></trkpt><trkpt lat="44.2966128" lon="8.298933"><ele>457.99999999999994</ele><time>2026-04-04T14:00:08.052Z</time></trkpt><trkpt lat="44.296552" lon="8.2988041"><ele>458.0</ele><time>2026-04-04T14:00:10.052Z</time></trkpt><trkpt lat="44.2964786" lon="8.2987135"><ele>458.0</ele><time>2026-04-04T14:00:12.052Z</time></trkpt><trkpt lat="44.2964069" lon="8.298645"><ele>459.4</ele><time>2026-04-04T14:00:14.054Z</time></trkpt><trkpt lat="44.2963335" lon="8.2985661"><ele>460.79999999999995</ele><time>2026-04-04T14:00:16.054Z</time></trkpt><trkpt lat="44.2962546" lon="8.2984996"><ele>462.2</ele><time>2026-04-04T14:00:18.053Z</time></trkpt><trkpt lat="44.2961699" lon="8.298455"><ele>463.6</ele><time>2026-04-04T14:00:20.053Z</time></trkpt><trkpt lat="44.2960724" lon="8.2983868"><ele>465.0</ele><time>2026-04-04T14:00:22.053Z</time></trkpt><trkpt lat="44.295959" lon="8.2983185"><ele>465.0</ele><time>2026-04-04T14:00:24.053Z</time></trkpt><trkpt lat="44.2958418" lon="8.2982646"><ele>465.0</ele><time>2026-04-04T14:00:26.054Z</time></trkpt><trkpt lat="44.2957233" lon="8.2982129"><ele>465.0</ele><time>2026-04-04T14:00:28.053Z</time></trkpt><trkpt lat="44.2956219" lon="8.2981811"><ele>465.0</ele><time>2026-04-04T14:00:30.053Z</time></trkpt><trkpt lat="44.295519" lon="8.298146"><ele>463.2</ele><time>2026-04-04T14:00:32.053Z</time></trkpt><trkpt lat="44.2954545" lon="8.2981079"><ele>461.4</ele><time>2026-04-04T14:00:33.052Z</time></trkpt><trkpt lat="44.2953852" lon="8.2980182"><ele>459.6</ele><time>2026-04-04T14:00:35.053Z</time></trkpt><trkpt lat="44.2952925" lon="8.2979645"><ele>457.8</ele><time>2026-04-04T14:00:37.054Z</time></trkpt><trkpt lat="44.2951983" lon="8.2979096"><ele>456.0</ele><time>2026-04-04T14:00:39.053Z</time></trkpt><trkpt lat="44.2951091" lon="8.2978456"><ele>456.4</ele><time>2026-04-04T14:00:41.054Z</time></trkpt><trkpt lat="44.2950104" lon="8.297786"><ele>456.8</ele><time>2026-04-04T14:00:43.053Z</time></trkpt><trkpt lat="44.2949235" lon="8.2977406"><ele>457.19999999999993</ele><time>2026-04-04T14:00:45.053Z</time></trkpt><trkpt lat="44.2948229" lon="8.2977004"><ele>457.59999999999997</ele><time>2026-04-04T14:00:47.053Z</time></trkpt><trkpt lat="44.2947309" lon="8.2976694"><ele>458.0</ele><time>2026-04-04T14:00:49.052Z</time></trkpt><trkpt lat="44.2946321" lon="8.2976283"><ele>458.0</ele><time>2026-04-04T14:00:51.054Z</time></trkpt><trkpt lat="44.2945352" lon="8.2975838"><ele>457.99999999999994</ele><time>2026-04-04T14:00:53.054Z</time></trkpt><trkpt lat="44.2944363" lon="8.2975175"><ele>457.99999999999994</ele><time>2026-04-04T14:00:55.055Z</time></trkpt><trkpt lat="44.2943465" lon="8.2974239"><ele>458.0</ele><time>2026-04-04T14:00:57.053Z</time></trkpt><trkpt lat="44.2942489" lon="8.297342"><ele>458.0</ele><time>2026-04-04T14:00:59.053Z</time></trkpt><trkpt lat="44.2941523" lon="8.2972232"><ele>457.49999999999994</ele><time>2026-04-04T14:01:01.053Z</time></trkpt><trkpt lat="44.2940971" lon="8.2971718"><ele>457.0</ele><time>2026-04-04T14:01:02.052Z</time></trkpt><trkpt lat="44.2940432" lon="8.2971106"><ele>456.5</ele><time>2026-04-04T14:01:03.053Z</time></trkpt><trkpt lat="44.2939521" lon="8.2970256"><ele>456.0</ele><time>2026-04-04T14:01:05.053Z</time></trkpt><trkpt lat="44.2938648" lon="8.2969463"><ele>455.49999999999994</ele><time>2026-04-04T14:01:07.054Z</time></trkpt><trkpt lat="44.2937785" lon="8.296876"><ele>455.0</ele><time>2026-04-04T14:01:09.054Z</time></trkpt><trkpt lat="44.2936948" lon="8.2967976"><ele>455.0</ele><time>2026-04-04T14:01:11.054Z</time></trkpt><trkpt lat="44.2936129" lon="8.2967278"><ele>455.0</ele><time>2026-04-04T14:01:13.053Z</time></trkpt><trkpt lat="44.2935315" lon="8.2966523"><ele>455.0</ele><time>2026-04-04T14:01:15.055Z</time></trkpt><trkpt lat="44.293437" lon="8.2965991"><ele>455.0</ele><time>2026-04-04T14:01:17.052Z</time></trkpt><trkpt lat="44.2933519" lon="8.296541"><ele>455.0</ele><time>2026-04-04T14:01:19.053Z</time></trkpt><trkpt lat="44.2932686" lon="8.2964803"><ele>455.0</ele><time>2026-04-04T14:01:21.054Z</time></trkpt><trkpt lat="44.2931869" lon="8.2964253"><ele>455.0</ele><time>2026-04-04T14:01:23.054Z</time></trkpt><trkpt lat="44.2930972" lon="8.2963724"><ele>455.0</ele><time>2026-04-04T14:01:25.054Z</time></trkpt><trkpt lat="44.2930085" lon="8.2963267"><ele>455.0</ele><time>2026-04-04T14:01:27.053Z</time></trkpt><trkpt lat="44.2929243" lon="8.2962596"><ele>455.0</ele><time>2026-04-04T14:01:29.054Z</time></trkpt><trkpt lat="44.2928322" lon="8.2962055"><ele>454.6</ele><time>2026-04-04T14:01:31.053Z</time></trkpt><trkpt lat="44.2927476" lon="8.2961543"><ele>454.2</ele><time>2026-04-04T14:01:33.052Z</time></trkpt><trkpt lat="44.2926559" lon="8.2961026"><ele>453.79999999999995</ele><time>2026-04-04T14:01:35.054Z</time></trkpt><trkpt lat="44.292565" lon="8.2960484"><ele>453.4</ele><time>2026-04-04T14:01:37.054Z</time></trkpt><trkpt lat="44.2924784" lon="8.2959869"><ele>453.0</ele><time>2026-04-04T14:01:39.053Z</time></trkpt><trkpt lat="44.2923977" lon="8.2959144"><ele>453.0</ele><time>2026-04-04T14:01:41.054Z</time></trkpt><trkpt lat="44.2923247" lon="8.2958326"><ele>452.99999999999994</ele><time>2026-04-04T14:01:43.054Z</time></trkpt><trkpt lat="44.2922392" lon="8.2957613"><ele>452.99999999999994</ele><time>2026-04-04T14:01:45.053Z</time></trkpt><trkpt lat="44.2921628" lon="8.2956777"><ele>453.0</ele><time>2026-04-04T14:01:47.053Z</time></trkpt><trkpt lat="44.2921" lon="8.2956075"><ele>453.0</ele><time>2026-04-04T14:01:49.053Z</time></trkpt><trkpt lat="44.2920298" lon="8.2955329"><ele>453.4</ele><time>2026-04-04T14:01:51.053Z</time></trkpt><trkpt lat="44.2919564" lon="8.2954593"><ele>453.79999999999995</ele><time>2026-04-04T14:01:53.053Z</time></trkpt><trkpt lat="44.2918949" lon="8.2953545"><ele>454.2</ele><time>2026-04-04T14:01:55.054Z</time></trkpt><trkpt lat="44.29182" lon="8.2952679"><ele>454.6</ele><time>2026-04-04T14:01:57.053Z</time></trkpt><trkpt lat="44.2917583" lon="8.2951681"><ele>455.0</ele><time>2026-04-04T14:01:59.053Z</time></trkpt><trkpt lat="44.2917051" lon="8.2950647"><ele>455.0</ele><time>2026-04-04T14:02:01.054Z</time></trkpt><trkpt lat="44.2916552" lon="8.2949373"><ele>455.0</ele><time>2026-04-04T14:02:03.054Z</time></trkpt><trkpt lat="44.2916392" lon="8.2948273"><ele>455.0</ele><time>2026-04-04T14:02:05.052Z</time></trkpt><trkpt lat="44.2916233" lon="8.2947056"><ele>455.0</ele><time>2026-04-04T14:02:07.052Z</time></trkpt><trkpt lat="44.2916134" lon="8.2945828"><ele>455.0</ele><time>2026-04-04T14:02:09.053Z</time></trkpt><trkpt lat="44.2915928" lon="8.2944468"><ele>455.16666666666663</ele><time>2026-04-04T14:02:11.052Z</time></trkpt><trkpt lat="44.2915892" lon="8.2943435"><ele>455.3333333333333</ele><time>2026-04-04T14:02:13.053Z</time></trkpt><trkpt lat="44.291592" lon="8.2942536"><ele>455.5</ele><time>2026-04-04T14:02:15.053Z</time></trkpt><trkpt lat="44.2915871" lon="8.2941568"><ele>455.66666666666663</ele><time>2026-04-04T14:02:17.054Z</time></trkpt><trkpt lat="44.2915944" lon="8.2940475"><ele>455.8333333333333</ele><time>2026-04-04T14:02:19.055Z</time></trkpt><trkpt lat="44.2915943" lon="8.2939242"><ele>456.0</ele><time>2026-04-04T14:02:21.053Z</time></trkpt><trkpt lat="44.2916177" lon="8.2938018"><ele>456.20000000000005</ele><time>2026-04-04T14:02:23.053Z</time></trkpt><trkpt lat="44.2916377" lon="8.2936597"><ele>456.40000000000003</ele><time>2026-04-04T14:02:25.053Z</time></trkpt><trkpt lat="44.2916528" lon="8.2935164"><ele>456.6</ele><time>2026-04-04T14:02:27.053Z</time></trkpt><trkpt lat="44.2916639" lon="8.2933979"><ele>456.8</ele><time>2026-04-04T14:02:29.054Z</time></trkpt><trkpt lat="44.2916928" lon="8.2932662"><ele>457.0</ele><time>2026-04-04T14:02:31.053Z</time></trkpt><trkpt lat="44.2917239" lon="8.2931216"><ele>457.20000000000005</ele><time>2026-04-04T14:02:33.052Z</time></trkpt><trkpt lat="44.2917645" lon="8.2929934"><ele>457.40000000000003</ele><time>2026-04-04T14:02:35.052Z</time></trkpt><trkpt lat="44.2918045" lon="8.2928779"><ele>457.59999999999997</ele><time>2026-04-04T14:02:37.055Z</time></trkpt><trkpt lat="44.2918465" lon="8.292763"><ele>457.79999999999995</ele><time>2026-04-04T14:02:39.054Z</time></trkpt><trkpt lat="44.2919032" lon="8.2926443"><ele>458.0</ele><time>2026-04-04T14:02:41.053Z</time></trkpt><trkpt lat="44.2919548" lon="8.2925414"><ele>458.0</ele><time>2026-04-04T14:02:43.052Z</time></trkpt><trkpt lat="44.2919752" lon="8.2924316"><ele>457.99999999999994</ele><time>2026-04-04T14:02:45.054Z</time></trkpt><trkpt lat="44.2920168" lon="8.2923274"><ele>457.99999999999994</ele><time>2026-04-04T14:02:47.054Z</time></trkpt><trkpt lat="44.2920708" lon="8.2922169"><ele>458.0</ele><time>2026-04-04T14:02:49.053Z</time></trkpt><trkpt lat="44.2921266" lon="8.2921009"><ele>458.0</ele><time>2026-04-04T14:02:51.054Z</time></trkpt><trkpt lat="44.2921734" lon="8.2919944"><ele>458.4</ele><time>2026-04-04T14:02:53.053Z</time></trkpt><trkpt lat="44.2922092" lon="8.2918694"><ele>458.79999999999995</ele><time>2026-04-04T14:02:55.053Z</time></trkpt><trkpt lat="44.2922548" lon="8.2917617"><ele>459.2</ele><time>2026-04-04T14:02:57.053Z</time></trkpt><trkpt lat="44.292305" lon="8.291659"><ele>459.6</ele><time>2026-04-04T14:02:59.053Z</time></trkpt><trkpt lat="44.2923576" lon="8.2915441"><ele>460.0</ele><time>2026-04-04T14:03:01.052Z</time></trkpt><trkpt lat="44.2923973" lon="8.2914394"><ele>460.8</ele><time>2026-04-04T14:03:03.054Z</time></trkpt><trkpt lat="44.2924408" lon="8.2913192"><ele>461.6</ele><time>2026-04-04T14:03:05.052Z</time></trkpt><trkpt lat="44.2924702" lon="8.2912009"><ele>462.4</ele><time>2026-04-04T14:03:07.054Z</time></trkpt><trkpt lat="44.2924982" lon="8.2910734"><ele>463.2</ele><time>2026-04-04T14:03:09.053Z</time></trkpt><trkpt lat="44.2925002" lon="8.2909523"><ele>464.0</ele><time>2026-04-04T14:03:11.053Z</time></trkpt><trkpt lat="44.2924984" lon="8.2908192"><ele>464.0</ele><time>2026-04-04T14:03:13.053Z</time></trkpt><trkpt lat="44.2925102" lon="8.2906867"><ele>464.0</ele><time>2026-04-04T14:03:15.053Z</time></trkpt><trkpt lat="44.2925152" lon="8.2905434"><ele>464.0</ele><time>2026-04-04T14:03:17.053Z</time></trkpt><trkpt lat="44.2925247" lon="8.2904103"><ele>464.0</ele><time>2026-04-04T14:03:19.052Z</time></trkpt><trkpt lat="44.292528" lon="8.2902727"><ele>464.0</ele><time>2026-04-04T14:03:21.053Z</time></trkpt><trkpt lat="44.2925279" lon="8.2901271"><ele>464.2</ele><time>2026-04-04T14:03:23.053Z</time></trkpt><trkpt lat="44.2925378" lon="8.289989"><ele>464.4</ele><time>2026-04-04T14:03:25.053Z</time></trkpt><trkpt lat="44.2925531" lon="8.2898453"><ele>464.6</ele><time>2026-04-04T14:03:27.053Z</time></trkpt><trkpt lat="44.2925661" lon="8.2897028"><ele>464.8</ele><time>2026-04-04T14:03:29.053Z</time></trkpt><trkpt lat="44.2925724" lon="8.2895522"><ele>465.0</ele><time>2026-04-04T14:03:31.053Z</time></trkpt><trkpt lat="44.2925964" lon="8.2894089"><ele>465.0</ele><time>2026-04-04T14:03:33.054Z</time></trkpt><trkpt lat="44.292607" lon="8.2892571"><ele>465.0</ele><time>2026-04-04T14:03:35.054Z</time></trkpt><trkpt lat="44.2926211" lon="8.2891108"><ele>465.0</ele><time>2026-04-04T14:03:37.054Z</time></trkpt><trkpt lat="44.2926271" lon="8.2889754"><ele>465.0</ele><time>2026-04-04T14:03:39.053Z</time></trkpt><trkpt lat="44.2926465" lon="8.2888378"><ele>465.0</ele><time>2026-04-04T14:03:41.054Z</time></trkpt><trkpt lat="44.2926628" lon="8.2887009"><ele>465.0</ele><time>2026-04-04T14:03:43.052Z</time></trkpt><trkpt lat="44.2926826" lon="8.2885712"><ele>465.0</ele><time>2026-04-04T14:03:45.054Z</time></trkpt><trkpt lat="44.2927259" lon="8.2884559"><ele>465.0</ele><time>2026-04-04T14:03:47.053Z</time></trkpt><trkpt lat="44.2927549" lon="8.2883388"><ele>465.0</ele><time>2026-04-04T14:03:49.052Z</time></trkpt><trkpt lat="44.2927974" lon="8.288216"><ele>465.0</ele><time>2026-04-04T14:03:51.054Z</time></trkpt><trkpt lat="44.2928431" lon="8.2880959"><ele>464.8</ele><time>2026-04-04T14:03:53.055Z</time></trkpt><trkpt lat="44.2928968" lon="8.2879879"><ele>464.6</ele><time>2026-04-04T14:03:55.054Z</time></trkpt><trkpt lat="44.2929487" lon="8.2878698"><ele>464.4</ele><time>2026-04-04T14:03:57.053Z</time></trkpt><trkpt lat="44.2930087" lon="8.2877599"><ele>464.2</ele><time>2026-04-04T14:03:59.052Z</time></trkpt><trkpt lat="44.2930684" lon="8.2876403"><ele>464.0</ele><time>2026-04-04T14:04:01.053Z</time></trkpt><trkpt lat="44.2931246" lon="8.2875188"><ele>466.0</ele><time>2026-04-04T14:04:03.054Z</time></trkpt><trkpt lat="44.2931641" lon="8.2873935"><ele>468.0</ele><time>2026-04-04T14:04:05.052Z</time></trkpt><trkpt lat="44.2932126" lon="8.287264"><ele>470.0</ele><time>2026-04-04T14:04:07.052Z</time></trkpt><trkpt lat="44.2932496" lon="8.2871407"><ele>472.0</ele><time>2026-04-04T14:04:09.054Z</time></trkpt><trkpt lat="44.2932819" lon="8.287006"><ele>474.0</ele><time>2026-04-04T14:04:11.054Z</time></trkpt><trkpt lat="44.2933107" lon="8.2868796"><ele>474.6</ele><time>2026-04-04T14:04:13.053Z</time></trkpt><trkpt lat="44.2933376" lon="8.2867368"><ele>475.2</ele><time>2026-04-04T14:04:15.053Z</time></trkpt><trkpt lat="44.2933448" lon="8.2865957"><ele>475.80000000000007</ele><time>2026-04-04T14:04:17.052Z</time></trkpt><trkpt lat="44.2933464" lon="8.2864707"><ele>476.40000000000003</ele><time>2026-04-04T14:04:19.053Z</time></trkpt><trkpt lat="44.2933396" lon="8.2863489"><ele>477.0</ele><time>2026-04-04T14:04:21.053Z</time></trkpt><trkpt lat="44.293338" lon="8.2862184"><ele>478.20000000000005</ele><time>2026-04-04T14:04:23.054Z</time></trkpt><trkpt lat="44.2933185" lon="8.2860812"><ele>479.40000000000003</ele><time>2026-04-04T14:04:25.052Z</time></trkpt><trkpt lat="44.2933112" lon="8.2859677"><ele>480.59999999999997</ele><time>2026-04-04T14:04:27.052Z</time></trkpt><trkpt lat="44.2932863" lon="8.285854"><ele>481.79999999999995</ele><time>2026-04-04T14:04:29.052Z</time></trkpt><trkpt lat="44.2932645" lon="8.2857386"><ele>483.0</ele><time>2026-04-04T14:04:31.052Z</time></trkpt><trkpt lat="44.2932199" lon="8.2856079"><ele>483.59999999999997</ele><time>2026-04-04T14:04:33.053Z</time></trkpt><trkpt lat="44.2931654" lon="8.2854912"><ele>484.19999999999993</ele><time>2026-04-04T14:04:35.053Z</time></trkpt><trkpt lat="44.293104" lon="8.2853838"><ele>484.8</ele><time>2026-04-04T14:04:37.053Z</time></trkpt><trkpt lat="44.2930419" lon="8.2852785"><ele>485.4</ele><time>2026-04-04T14:04:39.054Z</time></trkpt><trkpt lat="44.2929872" lon="8.2851655"><ele>486.0</ele><time>2026-04-04T14:04:41.053Z</time></trkpt><trkpt lat="44.2929176" lon="8.2850589"><ele>484.0</ele><time>2026-04-04T14:04:43.053Z</time></trkpt><trkpt lat="44.2928471" lon="8.2849531"><ele>482.0</ele><time>2026-04-04T14:04:45.053Z</time></trkpt><trkpt lat="44.2927864" lon="8.2848457"><ele>480.0</ele><time>2026-04-04T14:04:47.054Z</time></trkpt><trkpt lat="44.292713" lon="8.2847401"><ele>478.0</ele><time>2026-04-04T14:04:49.053Z</time></trkpt><trkpt lat="44.2926419" lon="8.2846374"><ele>476.0</ele><time>2026-04-04T14:04:51.053Z</time></trkpt><trkpt lat="44.2925739" lon="8.2845377"><ele>476.0</ele><time>2026-04-04T14:04:53.053Z</time></trkpt><trkpt lat="44.2925074" lon="8.2844339"><ele>476.0</ele><time>2026-04-04T14:04:55.052Z</time></trkpt><trkpt lat="44.2924479" lon="8.2843362"><ele>476.0</ele><time>2026-04-04T14:04:57.054Z</time></trkpt><trkpt lat="44.2923792" lon="8.2842476"><ele>476.0</ele><time>2026-04-04T14:04:59.053Z</time></trkpt><trkpt lat="44.2923105" lon="8.2841435"><ele>476.0</ele><time>2026-04-04T14:05:01.054Z</time></trkpt><trkpt lat="44.2922355" lon="8.2840474"><ele>476.6</ele><time>2026-04-04T14:05:03.052Z</time></trkpt><trkpt lat="44.2921614" lon="8.283945"><ele>477.20000000000005</ele><time>2026-04-04T14:05:05.052Z</time></trkpt><trkpt lat="44.2920777" lon="8.2838365"><ele>477.79999999999995</ele><time>2026-04-04T14:05:07.053Z</time></trkpt><trkpt lat="44.2919989" lon="8.2837466"><ele>478.4</ele><time>2026-04-04T14:05:09.052Z</time></trkpt><trkpt lat="44.2919601" lon="8.2836765"><ele>479.0</ele><time>2026-04-04T14:05:10.053Z</time></trkpt><trkpt lat="44.2918793" lon="8.2835907"><ele>479.0</ele><time>2026-04-04T14:05:12.052Z</time></trkpt><trkpt lat="44.2917979" lon="8.2835033"><ele>479.0</ele><time>2026-04-04T14:05:14.053Z</time></trkpt><trkpt lat="44.2917149" lon="8.2834145"><ele>479.0</ele><time>2026-04-04T14:05:16.052Z</time></trkpt><trkpt lat="44.2916255" lon="8.2833363"><ele>479.0</ele><time>2026-04-04T14:05:18.053Z</time></trkpt><trkpt lat="44.2915425" lon="8.283256"><ele>479.0</ele><time>2026-04-04T14:05:20.054Z</time></trkpt><trkpt lat="44.2914651" lon="8.2831766"><ele>478.4</ele><time>2026-04-04T14:05:22.053Z</time></trkpt><trkpt lat="44.2913856" lon="8.2831277"><ele>477.79999999999995</ele><time>2026-04-04T14:05:24.052Z</time></trkpt><trkpt lat="44.291289" lon="8.2830632"><ele>477.20000000000005</ele><time>2026-04-04T14:05:26.053Z</time></trkpt><trkpt lat="44.2912124" lon="8.2830083"><ele>476.6</ele><time>2026-04-04T14:05:28.053Z</time></trkpt><trkpt lat="44.2911363" lon="8.2829498"><ele>476.0</ele><time>2026-04-04T14:05:30.053Z</time></trkpt><trkpt lat="44.2910611" lon="8.2828896"><ele>477.16666666666663</ele><time>2026-04-04T14:05:32.053Z</time></trkpt><trkpt lat="44.2909935" lon="8.2828186"><ele>478.3333333333333</ele><time>2026-04-04T14:05:34.052Z</time></trkpt><trkpt lat="44.2909267" lon="8.2827461"><ele>479.5</ele><time>2026-04-04T14:05:36.053Z</time></trkpt><trkpt lat="44.2908623" lon="8.2826703"><ele>480.66666666666663</ele><time>2026-04-04T14:05:38.053Z</time></trkpt><trkpt lat="44.2907958" lon="8.282602"><ele>481.8333333333333</ele><time>2026-04-04T14:05:40.052Z</time></trkpt><trkpt lat="44.290728" lon="8.2825339"><ele>483.0</ele><time>2026-04-04T14:05:42.053Z</time></trkpt><trkpt lat="44.2906587" lon="8.2824703"><ele>483.0</ele><time>2026-04-04T14:05:44.053Z</time></trkpt><trkpt lat="44.2905891" lon="8.2823942"><ele>483.0</ele><time>2026-04-04T14:05:46.054Z</time></trkpt><trkpt lat="44.2905152" lon="8.2823254"><ele>483.0</ele><time>2026-04-04T14:05:48.054Z</time></trkpt><trkpt lat="44.2904445" lon="8.2822569"><ele>483.0</ele><time>2026-04-04T14:05:50.054Z</time></trkpt><trkpt lat="44.2903771" lon="8.2821833"><ele>483.0</ele><time>2026-04-04T14:05:52.053Z</time></trkpt><trkpt lat="44.2903141" lon="8.2821105"><ele>483.0</ele><time>2026-04-04T14:05:54.051Z</time></trkpt><trkpt lat="44.2902477" lon="8.2820446"><ele>483.0</ele><time>2026-04-04T14:05:56.052Z</time></trkpt><trkpt lat="44.2901805" lon="8.281981"><ele>483.0</ele><time>2026-04-04T14:05:58.051Z</time></trkpt><trkpt lat="44.2901115" lon="8.2819246"><ele>483.0</ele><time>2026-04-04T14:06:00.052Z</time></trkpt><trkpt lat="44.2900434" lon="8.2818681"><ele>483.0</ele><time>2026-04-04T14:06:02.053Z</time></trkpt><trkpt lat="44.2899752" lon="8.2818076"><ele>483.0</ele><time>2026-04-04T14:06:04.053Z</time></trkpt><trkpt lat="44.2899062" lon="8.2817566"><ele>483.0</ele><time>2026-04-04T14:06:06.053Z</time></trkpt><trkpt lat="44.2898404" lon="8.281699"><ele>483.0</ele><time>2026-04-04T14:06:08.054Z</time></trkpt><trkpt lat="44.2897755" lon="8.2816474"><ele>483.0</ele><time>2026-04-04T14:06:10.052Z</time></trkpt><trkpt lat="44.2897111" lon="8.2815768"><ele>483.0</ele><time>2026-04-04T14:06:12.052Z</time></trkpt><trkpt lat="44.2896543" lon="8.2814944"><ele>483.0</ele><time>2026-04-04T14:06:14.052Z</time></trkpt><trkpt lat="44.2895996" lon="8.2814056"><ele>483.0</ele><time>2026-04-04T14:06:16.051Z</time></trkpt><trkpt lat="44.2895366" lon="8.2813218"><ele>483.0</ele><time>2026-04-04T14:06:18.052Z</time></trkpt><trkpt lat="44.2894643" lon="8.2812437"><ele>484.2</ele><time>2026-04-04T14:06:20.052Z</time></trkpt><trkpt lat="44.2893845" lon="8.2811703"><ele>485.4</ele><time>2026-04-04T14:06:22.054Z</time></trkpt><trkpt lat="44.2893056" lon="8.2811195"><ele>486.59999999999997</ele><time>2026-04-04T14:06:24.052Z</time></trkpt><trkpt lat="44.289223" lon="8.2810588"><ele>487.79999999999995</ele><time>2026-04-04T14:06:26.054Z</time></trkpt><trkpt lat="44.2891397" lon="8.2809967"><ele>489.0</ele><time>2026-04-04T14:06:28.053Z</time></trkpt><trkpt lat="44.2890594" lon="8.2809419"><ele>489.0</ele><time>2026-04-04T14:06:30.052Z</time></trkpt><trkpt lat="44.2889773" lon="8.2809046"><ele>489.0</ele><time>2026-04-04T14:06:32.053Z</time></trkpt><trkpt lat="44.2889118" lon="8.2808638"><ele>489.0</ele><time>2026-04-04T14:06:34.052Z</time></trkpt><trkpt lat="44.2888301" lon="8.2808298"><ele>489.0</ele><time>2026-04-04T14:06:36.053Z</time></trkpt><trkpt lat="44.2887487" lon="8.2808081"><ele>489.0</ele><time>2026-04-04T14:06:38.053Z</time></trkpt><trkpt lat="44.288666" lon="8.2807833"><ele>489.0</ele><time>2026-04-04T14:06:40.052Z</time></trkpt><trkpt lat="44.2885772" lon="8.2807205"><ele>490.0</ele><time>2026-04-04T14:06:42.052Z</time></trkpt><trkpt lat="44.2884946" lon="8.280671"><ele>491.0</ele><time>2026-04-04T14:06:44.053Z</time></trkpt><trkpt lat="44.2884021" lon="8.2806122"><ele>492.0</ele><time>2026-04-04T14:06:46.052Z</time></trkpt><trkpt lat="44.2883038" lon="8.2805518"><ele>493.0</ele><time>2026-04-04T14:06:48.051Z</time></trkpt><trkpt lat="44.2882095" lon="8.2804955"><ele>494.0</ele><time>2026-04-04T14:06:50.053Z</time></trkpt><trkpt lat="44.2881271" lon="8.2804439"><ele>491.79999999999995</ele><time>2026-04-04T14:06:52.053Z</time></trkpt><trkpt lat="44.2880413" lon="8.2803807"><ele>489.59999999999997</ele><time>2026-04-04T14:06:54.052Z</time></trkpt><trkpt lat="44.2879546" lon="8.2803328"><ele>487.4</ele><time>2026-04-04T14:06:56.053Z</time></trkpt><trkpt lat="44.287858" lon="8.2802753"><ele>485.2</ele><time>2026-04-04T14:06:58.052Z</time></trkpt><trkpt lat="44.2877686" lon="8.2802137"><ele>483.0</ele><time>2026-04-04T14:07:00.052Z</time></trkpt><trkpt lat="44.2876636" lon="8.2801549"><ele>483.0</ele><time>2026-04-04T14:07:02.051Z</time></trkpt><trkpt lat="44.2875668" lon="8.280093"><ele>482.99999999999994</ele><time>2026-04-04T14:07:04.051Z</time></trkpt><trkpt lat="44.2874778" lon="8.2800431"><ele>482.99999999999994</ele><time>2026-04-04T14:07:06.053Z</time></trkpt><trkpt lat="44.2873936" lon="8.2799864"><ele>483.0</ele><time>2026-04-04T14:07:08.052Z</time></trkpt><trkpt lat="44.2873132" lon="8.2799308"><ele>483.0</ele><time>2026-04-04T14:07:10.052Z</time></trkpt><trkpt lat="44.2872408" lon="8.2798908"><ele>483.0</ele><time>2026-04-04T14:07:12.052Z</time></trkpt><trkpt lat="44.2871781" lon="8.2798263"><ele>483.0</ele><time>2026-04-04T14:07:14.054Z</time></trkpt><trkpt lat="44.2871178" lon="8.2797535"><ele>483.0</ele><time>2026-04-04T14:07:16.053Z</time></trkpt><trkpt lat="44.2870699" lon="8.2796638"><ele>483.0</ele><time>2026-04-04T14:07:18.053Z</time></trkpt><trkpt lat="44.2870347" lon="8.279579"><ele>483.0</ele><time>2026-04-04T14:07:20.052Z</time></trkpt><trkpt lat="44.2870032" lon="8.2794793"><ele>483.0</ele><time>2026-04-04T14:07:22.054Z</time></trkpt><trkpt lat="44.2869721" lon="8.2793735"><ele>483.0</ele><time>2026-04-04T14:07:24.053Z</time></trkpt><trkpt lat="44.286936" lon="8.2792814"><ele>483.0</ele><time>2026-04-04T14:07:26.051Z</time></trkpt><trkpt lat="44.2869088" lon="8.2791912"><ele>483.0</ele><time>2026-04-04T14:07:28.053Z</time></trkpt><trkpt lat="44.2868798" lon="8.2790988"><ele>483.0</ele><time>2026-04-04T14:07:30.053Z</time></trkpt><trkpt lat="44.2868582" lon="8.2790044"><ele>483.0</ele><time>2026-04-04T14:07:32.053Z</time></trkpt><trkpt lat="44.2868307" lon="8.2789227"><ele>483.0</ele><time>2026-04-04T14:07:34.053Z</time></trkpt><trkpt lat="44.2868094" lon="8.278837"><ele>483.0</ele><time>2026-04-04T14:07:36.053Z</time></trkpt><trkpt lat="44.2867818" lon="8.278755"><ele>484.1666666666667</ele><time>2026-04-04T14:07:38.053Z</time></trkpt><trkpt lat="44.2867455" lon="8.2786363"><ele>485.33333333333337</ele><time>2026-04-04T14:07:41.053Z</time></trkpt><trkpt lat="44.2867222" lon="8.2785525"><ele>486.5</ele><time>2026-04-04T14:07:43.052Z</time></trkpt><trkpt lat="44.2866788" lon="8.2784294"><ele>487.6666666666667</ele><time>2026-04-04T14:07:46.052Z</time></trkpt><trkpt lat="44.2866524" lon="8.2783461"><ele>488.83333333333337</ele><time>2026-04-04T14:07:48.051Z</time></trkpt><trkpt lat="44.2866224" lon="8.2782592"><ele>490.0</ele><time>2026-04-04T14:07:50.053Z</time></trkpt><trkpt lat="44.286587" lon="8.2781695"><ele>489.42857142857144</ele><time>2026-04-04T14:07:52.053Z</time></trkpt><trkpt lat="44.2865531" lon="8.2780867"><ele>488.8571428571429</ele><time>2026-04-04T14:07:54.053Z</time></trkpt><trkpt lat="44.2865261" lon="8.278001"><ele>488.2857142857143</ele><time>2026-04-04T14:07:56.052Z</time></trkpt><trkpt lat="44.2865015" lon="8.2779129"><ele>487.7142857142857</ele><time>2026-04-04T14:07:58.052Z</time></trkpt><trkpt lat="44.2864749" lon="8.2778247"><ele>487.14285714285717</ele><time>2026-04-04T14:08:00.053Z</time></trkpt><trkpt lat="44.286443" lon="8.2777387"><ele>486.57142857142856</ele><time>2026-04-04T14:08:02.052Z</time></trkpt><trkpt lat="44.2864107" lon="8.2776512"><ele>486.0</ele><time>2026-04-04T14:08:04.052Z</time></trkpt><trkpt lat="44.2863823" lon="8.2775538"><ele>486.0</ele><time>2026-04-04T14:08:06.053Z</time></trkpt><trkpt lat="44.2863574" lon="8.2774479"><ele>486.0</ele><time>2026-04-04T14:08:08.052Z</time></trkpt><trkpt lat="44.2863351" lon="8.2773425"><ele>486.0</ele><time>2026-04-04T14:08:10.051Z</time></trkpt><trkpt lat="44.2863248" lon="8.2772316"><ele>486.0</ele><time>2026-04-04T14:08:12.053Z</time></trkpt><trkpt lat="44.2863054" lon="8.2771261"><ele>486.0</ele><time>2026-04-04T14:08:14.053Z</time></trkpt><trkpt lat="44.2862807" lon="8.277021"><ele>486.0</ele><time>2026-04-04T14:08:16.053Z</time></trkpt><trkpt lat="44.2862548" lon="8.2769166"><ele>486.5</ele><time>2026-04-04T14:08:18.054Z</time></trkpt><trkpt lat="44.2862282" lon="8.276812"><ele>487.0</ele><time>2026-04-04T14:08:20.053Z</time></trkpt><trkpt lat="44.2862073" lon="8.2767057"><ele>487.5</ele><time>2026-04-04T14:08:22.053Z</time></trkpt><trkpt lat="44.2861793" lon="8.2766036"><ele>488.0</ele><time>2026-04-04T14:08:24.052Z</time></trkpt><trkpt lat="44.2861544" lon="8.2764905"><ele>488.5</ele><time>2026-04-04T14:08:26.051Z</time></trkpt><trkpt lat="44.2861178" lon="8.2763683"><ele>489.0</ele><time>2026-04-04T14:08:28.054Z</time></trkpt><trkpt lat="44.286081" lon="8.2762393"><ele>489.6</ele><time>2026-04-04T14:08:30.052Z</time></trkpt><trkpt lat="44.2860569" lon="8.2761113"><ele>490.2</ele><time>2026-04-04T14:08:32.053Z</time></trkpt><trkpt lat="44.2860173" lon="8.2759902"><ele>490.80000000000007</ele><time>2026-04-04T14:08:34.052Z</time></trkpt><trkpt lat="44.2859854" lon="8.2758724"><ele>491.40000000000003</ele><time>2026-04-04T14:08:36.053Z</time></trkpt><trkpt lat="44.2859687" lon="8.2757499"><ele>492.0</ele><time>2026-04-04T14:08:38.051Z</time></trkpt><trkpt lat="44.2859583" lon="8.2756257"><ele>492.8</ele><time>2026-04-04T14:08:40.053Z</time></trkpt><trkpt lat="44.2859597" lon="8.2754894"><ele>493.6</ele><time>2026-04-04T14:08:42.052Z</time></trkpt><trkpt lat="44.2859617" lon="8.2753532"><ele>494.40000000000003</ele><time>2026-04-04T14:08:44.053Z</time></trkpt><trkpt lat="44.2859606" lon="8.2752275"><ele>495.20000000000005</ele><time>2026-04-04T14:08:46.053Z</time></trkpt><trkpt lat="44.28596" lon="8.2751019"><ele>496.0</ele><time>2026-04-04T14:08:48.052Z</time></trkpt><trkpt lat="44.2859595" lon="8.2749859"><ele>496.00000000000006</ele><time>2026-04-04T14:08:50.052Z</time></trkpt><trkpt lat="44.2859596" lon="8.2748676"><ele>496.0</ele><time>2026-04-04T14:08:52.052Z</time></trkpt><trkpt lat="44.2859591" lon="8.2747474"><ele>496.0</ele><time>2026-04-04T14:08:54.054Z</time></trkpt><trkpt lat="44.2859624" lon="8.2746249"><ele>496.0</ele><time>2026-04-04T14:08:56.054Z</time></trkpt><trkpt lat="44.2859551" lon="8.2745123"><ele>496.00000000000006</ele><time>2026-04-04T14:08:58.054Z</time></trkpt><trkpt lat="44.2859502" lon="8.2744052"><ele>496.0</ele><time>2026-04-04T14:09:00.053Z</time></trkpt><trkpt lat="44.2859459" lon="8.2743082"><ele>497.00000000000006</ele><time>2026-04-04T14:09:02.053Z</time></trkpt><trkpt lat="44.2859443" lon="8.274185"><ele>498.0</ele><time>2026-04-04T14:09:05.052Z</time></trkpt><trkpt lat="44.2859352" lon="8.2740626"><ele>499.0</ele><time>2026-04-04T14:09:08.052Z</time></trkpt><trkpt lat="44.2859198" lon="8.2739522"><ele>500.0</ele><time>2026-04-04T14:09:11.053Z</time></trkpt><trkpt lat="44.2858974" lon="8.2738441"><ele>501.00000000000006</ele><time>2026-04-04T14:09:14.051Z</time></trkpt><trkpt lat="44.2858564" lon="8.2737487"><ele>502.0</ele><time>2026-04-04T14:09:17.053Z</time></trkpt><trkpt lat="44.2857997" lon="8.2736677"><ele>502.6666666666667</ele><time>2026-04-04T14:09:20.052Z</time></trkpt><trkpt lat="44.2857227" lon="8.2735979"><ele>503.33333333333337</ele><time>2026-04-04T14:09:23.053Z</time></trkpt><trkpt lat="44.2856654" lon="8.2735095"><ele>504.0</ele><time>2026-04-04T14:09:26.052Z</time></trkpt><trkpt lat="44.2856146" lon="8.2734337"><ele>504.66666666666663</ele><time>2026-04-04T14:09:29.054Z</time></trkpt><trkpt lat="44.2855338" lon="8.2733888"><ele>505.3333333333333</ele><time>2026-04-04T14:09:32.052Z</time></trkpt><trkpt lat="44.2854494" lon="8.2733551"><ele>506.0</ele><time>2026-04-04T14:09:35.051Z</time></trkpt><trkpt lat="44.2853871" lon="8.2733033"><ele>506.00000000000006</ele><time>2026-04-04T14:09:38.052Z</time></trkpt><trkpt lat="44.2853215" lon="8.2732728"><ele>506.0</ele><time>2026-04-04T14:09:41.052Z</time></trkpt><trkpt lat="44.2852437" lon="8.2732601"><ele>506.00000000000006</ele><time>2026-04-04T14:09:45.053Z</time></trkpt><trkpt lat="44.2851736" lon="8.2732319"><ele>506.00000000000006</ele><time>2026-04-04T14:09:48.052Z</time></trkpt><trkpt lat="44.2851151" lon="8.2731926"><ele>506.0</ele><time>2026-04-04T14:09:51.053Z</time></trkpt><trkpt lat="44.285059" lon="8.2731433"><ele>506.00000000000006</ele><time>2026-04-04T14:09:54.051Z</time></trkpt><trkpt lat="44.2850003" lon="8.2730913"><ele>506.00000000000006</ele><time>2026-04-04T14:09:57.053Z</time></trkpt><trkpt lat="44.2849318" lon="8.2730612"><ele>507.00000000000006</ele><time>2026-04-04T14:10:00.052Z</time></trkpt><trkpt lat="44.2848636" lon="8.2730257"><ele>508.0</ele><time>2026-04-04T14:10:03.052Z</time></trkpt><trkpt lat="44.284792" lon="8.2729783"><ele>509.00000000000006</ele><time>2026-04-04T14:10:06.052Z</time></trkpt><trkpt lat="44.2847303" lon="8.2729496"><ele>510.00000000000006</ele><time>2026-04-04T14:10:09.052Z</time></trkpt><trkpt lat="44.2846685" lon="8.2729226"><ele>511.0</ele><time>2026-04-04T14:10:12.052Z</time></trkpt><trkpt lat="44.2845804" lon="8.2728866"><ele>512.0000000000001</ele><time>2026-04-04T14:10:16.052Z</time></trkpt><trkpt lat="44.2845078" lon="8.27286"><ele>513.0</ele><time>2026-04-04T14:10:19.052Z</time></trkpt><trkpt lat="44.2844398" lon="8.2728244"><ele>513.0000000000001</ele><time>2026-04-04T14:10:22.052Z</time></trkpt><trkpt lat="44.2843723" lon="8.2727859"><ele>513.0</ele><time>2026-04-04T14:10:25.053Z</time></trkpt><trkpt lat="44.2843073" lon="8.2727405"><ele>513.0</ele><time>2026-04-04T14:10:28.052Z</time></trkpt><trkpt lat="44.2842438" lon="8.2727065"><ele>513.0</ele><time>2026-04-04T14:10:31.052Z</time></trkpt><trkpt lat="44.2841788" lon="8.2726527"><ele>513.0</ele><time>2026-04-04T14:10:34.053Z</time></trkpt><trkpt lat="44.2841201" lon="8.2725987"><ele>513.0000000000001</ele><time>2026-04-04T14:10:37.051Z</time></trkpt><trkpt lat="44.2840628" lon="8.2725382"><ele>513.0</ele><time>2026-04-04T14:10:40.051Z</time></trkpt><trkpt lat="44.284027" lon="8.272445"><ele>513.0000000000001</ele><time>2026-04-04T14:10:43.052Z</time></trkpt><trkpt lat="44.2840029" lon="8.2723552"><ele>513.0</ele><time>2026-04-04T14:10:46.053Z</time></trkpt><trkpt lat="44.2839786" lon="8.2722625"><ele>513.0</ele><time>2026-04-04T14:10:49.052Z</time></trkpt><trkpt lat="44.2839538" lon="8.2721744"><ele>513.0</ele><time>2026-04-04T14:10:52.054Z</time></trkpt><trkpt lat="44.2839294" lon="8.272077"><ele>513.0</ele><time>2026-04-04T14:10:55.052Z</time></trkpt><trkpt lat="44.2839061" lon="8.2719918"><ele>513.0000000000001</ele><time>2026-04-04T14:10:58.051Z</time></trkpt><trkpt lat="44.2838789" lon="8.2718834"><ele>513.0</ele><time>2026-04-04T14:11:02.052Z</time></trkpt><trkpt lat="44.2838589" lon="8.2717989"><ele>513.4285714285714</ele><time>2026-04-04T14:11:05.051Z</time></trkpt><trkpt lat="44.2838175" lon="8.2717083"><ele>513.8571428571429</ele><time>2026-04-04T14:11:09.053Z</time></trkpt><trkpt lat="44.2837763" lon="8.2716131"><ele>514.2857142857142</ele><time>2026-04-04T14:11:13.052Z</time></trkpt><trkpt lat="44.2837273" lon="8.2715265"><ele>514.7142857142858</ele><time>2026-04-04T14:11:17.052Z</time></trkpt><trkpt lat="44.2836816" lon="8.2714624"><ele>515.1428571428571</ele><time>2026-04-04T14:11:20.052Z</time></trkpt><trkpt lat="44.283629" lon="8.2714081"><ele>515.5714285714286</ele><time>2026-04-04T14:11:23.053Z</time></trkpt><trkpt lat="44.2835703" lon="8.2713471"><ele>516.0</ele><time>2026-04-04T14:11:27.051Z</time></trkpt><trkpt lat="44.2835149" lon="8.2712926"><ele>517.1428571428571</ele><time>2026-04-04T14:11:30.053Z</time></trkpt><trkpt lat="44.2834415" lon="8.2712374"><ele>518.2857142857142</ele><time>2026-04-04T14:11:34.053Z</time></trkpt><trkpt lat="44.2833836" lon="8.2711956"><ele>519.4285714285714</ele><time>2026-04-04T14:11:37.054Z</time></trkpt><trkpt lat="44.2833258" lon="8.2711525"><ele>520.5714285714286</ele><time>2026-04-04T14:11:40.051Z</time></trkpt><trkpt lat="44.2832487" lon="8.2711237"><ele>521.7142857142858</ele><time>2026-04-04T14:11:44.051Z</time></trkpt><trkpt lat="44.2831902" lon="8.271088"><ele>522.8571428571429</ele><time>2026-04-04T14:11:47.051Z</time></trkpt><trkpt lat="44.283125" lon="8.2710827"><ele>524.0</ele><time>2026-04-04T14:11:50.052Z</time></trkpt><trkpt lat="44.2830499" lon="8.2710568"><ele>524.0</ele><time>2026-04-04T14:11:54.051Z</time></trkpt><trkpt lat="44.2829831" lon="8.2710516"><ele>524.0</ele><time>2026-04-04T14:11:57.053Z</time></trkpt><trkpt lat="44.2829192" lon="8.2710516"><ele>524.0</ele><time>2026-04-04T14:12:00.051Z</time></trkpt><trkpt lat="44.2828592" lon="8.2710127"><ele>524.0</ele><time>2026-04-04T14:12:03.051Z</time></trkpt><trkpt lat="44.2827932" lon="8.2709463"><ele>524.0</ele><time>2026-04-04T14:12:07.051Z</time></trkpt><trkpt lat="44.2827545" lon="8.2708705"><ele>524.0</ele><time>2026-04-04T14:12:10.051Z</time></trkpt><trkpt lat="44.2827575" lon="8.2707558"><ele>524.0</ele><time>2026-04-04T14:12:14.052Z</time></trkpt><trkpt lat="44.282787" lon="8.2706671"><ele>523.5714285714286</ele><time>2026-04-04T14:12:17.05Z</time></trkpt><trkpt lat="44.2828199" lon="8.270578"><ele>523.1428571428572</ele><time>2026-04-04T14:12:20.051Z</time></trkpt><trkpt lat="44.2828496" lon="8.270485"><ele>522.7142857142858</ele><time>2026-04-04T14:12:23.052Z</time></trkpt><trkpt lat="44.2828786" lon="8.2703827"><ele>522.2857142857143</ele><time>2026-04-04T14:12:27.053Z</time></trkpt><trkpt lat="44.2829097" lon="8.2702827"><ele>521.8571428571429</ele><time>2026-04-04T14:12:31.052Z</time></trkpt><trkpt lat="44.282947" lon="8.270191"><ele>521.4285714285714</ele><time>2026-04-04T14:12:35.052Z</time></trkpt><trkpt lat="44.2829718" lon="8.2700983"><ele>521.0</ele><time>2026-04-04T14:12:38.051Z</time></trkpt><trkpt lat="44.283" lon="8.2700113"><ele>521.0</ele><time>2026-04-04T14:12:41.052Z</time></trkpt><trkpt lat="44.2830197" lon="8.2699255"><ele>521.0</ele><time>2026-04-04T14:12:44.052Z</time></trkpt><trkpt lat="44.2830373" lon="8.2698321"><ele>521.0</ele><time>2026-04-04T14:12:47.052Z</time></trkpt><trkpt lat="44.2830858" lon="8.2697414"><ele>521.0</ele><time>2026-04-04T14:12:51.051Z</time></trkpt><trkpt lat="44.2831329" lon="8.2696465"><ele>521.0</ele><time>2026-04-04T14:12:55.052Z</time></trkpt><trkpt lat="44.2831697" lon="8.2695452"><ele>521.0</ele><time>2026-04-04T14:12:59.051Z</time></trkpt><trkpt lat="44.2831992" lon="8.2694663"><ele>521.0</ele><time>2026-04-04T14:13:02.052Z</time></trkpt><trkpt lat="44.2832354" lon="8.2693782"><ele>524.4285714285714</ele><time>2026-04-04T14:13:05.052Z</time></trkpt><trkpt lat="44.2832801" lon="8.2693071"><ele>527.8571428571429</ele><time>2026-04-04T14:13:08.052Z</time></trkpt><trkpt lat="44.2833411" lon="8.2692399"><ele>531.2857142857143</ele><time>2026-04-04T14:13:11.053Z</time></trkpt><trkpt lat="44.2833937" lon="8.2691755"><ele>534.7142857142858</ele><time>2026-04-04T14:13:14.051Z</time></trkpt><trkpt lat="44.2834366" lon="8.2691037"><ele>538.1428571428572</ele><time>2026-04-04T14:13:17.051Z</time></trkpt><trkpt lat="44.283475" lon="8.2690182"><ele>541.5714285714286</ele><time>2026-04-04T14:13:20.051Z</time></trkpt><trkpt lat="44.283516" lon="8.2689391"><ele>545.0</ele><time>2026-04-04T14:13:23.052Z</time></trkpt><trkpt lat="44.2835472" lon="8.2688579"><ele>545.1428571428571</ele><time>2026-04-04T14:13:26.053Z</time></trkpt><trkpt lat="44.2835777" lon="8.2687738"><ele>545.2857142857143</ele><time>2026-04-04T14:13:29.052Z</time></trkpt><trkpt lat="44.2835849" lon="8.2686614"><ele>545.4285714285714</ele><time>2026-04-04T14:13:33.052Z</time></trkpt><trkpt lat="44.2835891" lon="8.2685584"><ele>545.5714285714286</ele><time>2026-04-04T14:13:36.051Z</time></trkpt><trkpt lat="44.2835945" lon="8.2684609"><ele>545.7142857142858</ele><time>2026-04-04T14:13:39.052Z</time></trkpt><trkpt lat="44.2836077" lon="8.2683668"><ele>545.8571428571429</ele><time>2026-04-04T14:13:42.052Z</time></trkpt><trkpt lat="44.2836224" lon="8.2682547"><ele>546.0</ele><time>2026-04-04T14:13:45.053Z</time></trkpt><trkpt lat="44.2836209" lon="8.2681541"><ele>547.0</ele><time>2026-04-04T14:13:48.05Z</time></trkpt><trkpt lat="44.2836159" lon="8.268054"><ele>548.0</ele><time>2026-04-04T14:13:51.052Z</time></trkpt><trkpt lat="44.2836054" lon="8.2679477"><ele>549.0</ele><time>2026-04-04T14:13:54.052Z</time></trkpt><trkpt lat="44.2835871" lon="8.2678399"><ele>550.0</ele><time>2026-04-04T14:13:57.052Z</time></trkpt><trkpt lat="44.2835711" lon="8.2677483"><ele>551.0</ele><time>2026-04-04T14:14:00.051Z</time></trkpt><trkpt lat="44.2835566" lon="8.2676567"><ele>552.0</ele><time>2026-04-04T14:14:03.051Z</time></trkpt><trkpt lat="44.2835548" lon="8.267558"><ele>553.0</ele><time>2026-04-04T14:14:06.052Z</time></trkpt><trkpt lat="44.2835469" lon="8.2674682"><ele>553.0</ele><time>2026-04-04T14:14:09.052Z</time></trkpt><trkpt lat="44.2835305" lon="8.2673706"><ele>553.0</ele><time>2026-04-04T14:14:12.053Z</time></trkpt><trkpt lat="44.2835133" lon="8.2672809"><ele>553.0</ele><time>2026-04-04T14:14:15.052Z</time></trkpt><trkpt lat="44.2835013" lon="8.2671837"><ele>553.0</ele><time>2026-04-04T14:14:18.052Z</time></trkpt><trkpt lat="44.2834863" lon="8.2670863"><ele>553.0</ele><time>2026-04-04T14:14:21.052Z</time></trkpt><trkpt lat="44.2834758" lon="8.2669791"><ele>553.0</ele><time>2026-04-04T14:14:24.052Z</time></trkpt><trkpt lat="44.283464" lon="8.2668795"><ele>553.0</ele><time>2026-04-04T14:14:27.052Z</time></trkpt><trkpt lat="44.2834517" lon="8.2667763"><ele>554.0</ele><time>2026-04-04T14:14:30.051Z</time></trkpt><trkpt lat="44.2834457" lon="8.2666831"><ele>555.0</ele><time>2026-04-04T14:14:33.05Z</time></trkpt><trkpt lat="44.2834456" lon="8.2665909"><ele>556.0</ele><time>2026-04-04T14:14:36.051Z</time></trkpt><trkpt lat="44.2834463" lon="8.2664918"><ele>557.0</ele><time>2026-04-04T14:14:39.052Z</time></trkpt><trkpt lat="44.2834418" lon="8.2663953"><ele>558.0</ele><time>2026-04-04T14:14:42.053Z</time></trkpt><trkpt lat="44.2834503" lon="8.2663004"><ele>559.0</ele><time>2026-04-04T14:14:45.052Z</time></trkpt><trkpt lat="44.2834517" lon="8.2662019"><ele>560.0</ele><time>2026-04-04T14:14:48.05Z</time></trkpt><trkpt lat="44.2834501" lon="8.2661007"><ele>560.2857142857143</ele><time>2026-04-04T14:14:51.051Z</time></trkpt><trkpt lat="44.2834344" lon="8.2660008"><ele>560.5714285714286</ele><time>2026-04-04T14:14:54.053Z</time></trkpt><trkpt lat="44.2834283" lon="8.2658917"><ele>560.8571428571429</ele><time>2026-04-04T14:14:57.053Z</time></trkpt><trkpt lat="44.283431" lon="8.2657856"><ele>561.1428571428571</ele><time>2026-04-04T14:15:00.051Z</time></trkpt><trkpt lat="44.2834334" lon="8.265683"><ele>561.4285714285714</ele><time>2026-04-04T14:15:03.051Z</time></trkpt><trkpt lat="44.283427" lon="8.2655869"><ele>561.7142857142858</ele><time>2026-04-04T14:15:06.052Z</time></trkpt><trkpt lat="44.2834348" lon="8.2654917"><ele>562.0</ele><time>2026-04-04T14:15:09.051Z</time></trkpt><trkpt lat="44.2834377" lon="8.2653845"><ele>562.7142857142858</ele><time>2026-04-04T14:15:12.052Z</time></trkpt><trkpt lat="44.2834585" lon="8.2652766"><ele>563.4285714285714</ele><time>2026-04-04T14:15:15.05Z</time></trkpt><trkpt lat="44.2834772" lon="8.2651786"><ele>564.1428571428571</ele><time>2026-04-04T14:15:18.051Z</time></trkpt><trkpt lat="44.2834916" lon="8.2650739"><ele>564.8571428571429</ele><time>2026-04-04T14:15:22.051Z</time></trkpt><trkpt lat="44.2835016" lon="8.2649817"><ele>565.5714285714286</ele><time>2026-04-04T14:15:25.051Z</time></trkpt><trkpt lat="44.2835099" lon="8.2648746"><ele>566.2857142857143</ele><time>2026-04-04T14:15:28.051Z</time></trkpt><trkpt lat="44.2835139" lon="8.2647785"><ele>567.0</ele><time>2026-04-04T14:15:31.052Z</time></trkpt><trkpt lat="44.2835076" lon="8.2646801"><ele>568.4285714285714</ele><time>2026-04-04T14:15:34.051Z</time></trkpt><trkpt lat="44.2835043" lon="8.264587"><ele>569.8571428571429</ele><time>2026-04-04T14:15:37.051Z</time></trkpt><trkpt lat="44.2835033" lon="8.2644671"><ele>571.2857142857142</ele><time>2026-04-04T14:15:41.05Z</time></trkpt><trkpt lat="44.2834952" lon="8.2643735"><ele>572.7142857142858</ele><time>2026-04-04T14:15:44.052Z</time></trkpt><trkpt lat="44.2834861" lon="8.2642852"><ele>574.1428571428571</ele><time>2026-04-04T14:15:47.052Z</time></trkpt><trkpt lat="44.2834741" lon="8.2641689"><ele>575.5714285714286</ele><time>2026-04-04T14:15:51.053Z</time></trkpt><trkpt lat="44.2834765" lon="8.2640755"><ele>577.0</ele><time>2026-04-04T14:15:54.051Z</time></trkpt><trkpt lat="44.2834657" lon="8.26398"><ele>579.0</ele><time>2026-04-04T14:15:57.051Z</time></trkpt><trkpt lat="44.2834499" lon="8.2638902"><ele>581.0</ele><time>2026-04-04T14:16:00.051Z</time></trkpt><trkpt lat="44.2834324" lon="8.2638006"><ele>583.0</ele><time>2026-04-04T14:16:03.051Z</time></trkpt><trkpt lat="44.2834127" lon="8.2637093"><ele>585.0</ele><time>2026-04-04T14:16:06.051Z</time></trkpt><trkpt lat="44.2833906" lon="8.2636199"><ele>587.0</ele><time>2026-04-04T14:16:09.051Z</time></trkpt><trkpt lat="44.2833668" lon="8.2635281"><ele>589.0</ele><time>2026-04-04T14:16:12.052Z</time></trkpt><trkpt lat="44.2833383" lon="8.2634421"><ele>591.0</ele><time>2026-04-04T14:16:15.051Z</time></trkpt><trkpt lat="44.283295" lon="8.2633681"><ele>591.0</ele><time>2026-04-04T14:16:18.051Z</time></trkpt><trkpt lat="44.2832407" lon="8.2632999"><ele>591.0</ele><time>2026-04-04T14:16:21.052Z</time></trkpt><trkpt lat="44.2831817" lon="8.263212"><ele>591.0</ele><time>2026-04-04T14:16:24.053Z</time></trkpt><trkpt lat="44.2831326" lon="8.2631228"><ele>591.0</ele><time>2026-04-04T14:16:27.051Z</time></trkpt><trkpt lat="44.2830977" lon="8.26304"><ele>591.0</ele><time>2026-04-04T14:16:30.05Z</time></trkpt><trkpt lat="44.2830949" lon="8.262947"><ele>591.0</ele><time>2026-04-04T14:16:33.052Z</time></trkpt><trkpt lat="44.2831378" lon="8.2628648"><ele>591.0</ele><time>2026-04-04T14:16:35.051Z</time></trkpt><trkpt lat="44.2832049" lon="8.2627929"><ele>591.0</ele><time>2026-04-04T14:16:38.052Z</time></trkpt><trkpt lat="44.283285" lon="8.2627459"><ele>591.0</ele><time>2026-04-04T14:16:41.051Z</time></trkpt><trkpt lat="44.2833624" lon="8.2627146"><ele>591.0</ele><time>2026-04-04T14:16:44.051Z</time></trkpt><trkpt lat="44.2834398" lon="8.2626877"><ele>591.0</ele><time>2026-04-04T14:16:47.051Z</time></trkpt><trkpt lat="44.283526" lon="8.2626846"><ele>591.0</ele><time>2026-04-04T14:16:50.05Z</time></trkpt><trkpt lat="44.283595" lon="8.2626721"><ele>591.0</ele><time>2026-04-04T14:16:52.052Z</time></trkpt><trkpt lat="44.2836786" lon="8.2626649"><ele>591.0</ele><time>2026-04-04T14:16:54.051Z</time></trkpt><trkpt lat="44.2837941" lon="8.2626617"><ele>591.0</ele><time>2026-04-04T14:16:56.054Z</time></trkpt><trkpt lat="44.283919" lon="8.2626445"><ele>591.0</ele><time>2026-04-04T14:16:58.051Z</time></trkpt><trkpt lat="44.2839822" lon="8.2626223"><ele>591.0</ele><time>2026-04-04T14:16:59.051Z</time></trkpt><trkpt lat="44.2840529" lon="8.2626026"><ele>591.0</ele><time>2026-04-04T14:17:00.05Z</time></trkpt><trkpt lat="44.2841305" lon="8.2625652"><ele>589.8333333333334</ele><time>2026-04-04T14:17:01.051Z</time></trkpt><trkpt lat="44.2842006" lon="8.2625234"><ele>588.6666666666666</ele><time>2026-04-04T14:17:02.05Z</time></trkpt><trkpt lat="44.2842732" lon="8.2624746"><ele>587.5</ele><time>2026-04-04T14:17:03.052Z</time></trkpt><trkpt lat="44.284346" lon="8.2624178"><ele>586.3333333333333</ele><time>2026-04-04T14:17:04.052Z</time></trkpt><trkpt lat="44.2844172" lon="8.2623594"><ele>585.1666666666666</ele><time>2026-04-04T14:17:05.05Z</time></trkpt><trkpt lat="44.2844974" lon="8.2623035"><ele>584.0</ele><time>2026-04-04T14:17:06.051Z</time></trkpt><trkpt lat="44.2845688" lon="8.2622447"><ele>581.2857142857142</ele><time>2026-04-04T14:17:07.051Z</time></trkpt><trkpt lat="44.2846427" lon="8.2622053"><ele>578.5714285714286</ele><time>2026-04-04T14:17:08.052Z</time></trkpt><trkpt lat="44.2847164" lon="8.2621784"><ele>575.8571428571429</ele><time>2026-04-04T14:17:09.052Z</time></trkpt><trkpt lat="44.2847864" lon="8.2621896"><ele>573.1428571428571</ele><time>2026-04-04T14:17:10.05Z</time></trkpt><trkpt lat="44.2848506" lon="8.2621717"><ele>570.4285714285714</ele><time>2026-04-04T14:17:11.053Z</time></trkpt><trkpt lat="44.2849204" lon="8.2621504"><ele>567.7142857142857</ele><time>2026-04-04T14:17:12.052Z</time></trkpt><trkpt lat="44.2849683" lon="8.2620877"><ele>565.0</ele><time>2026-04-04T14:17:13.057Z</time></trkpt><trkpt lat="44.2849953" lon="8.2619219"><ele>565.0</ele><time>2026-04-04T14:17:15.053Z</time></trkpt><trkpt lat="44.2848992" lon="8.2618386"><ele>565.0</ele><time>2026-04-04T14:17:17.052Z</time></trkpt><trkpt lat="44.2848353" lon="8.2618348"><ele>565.0</ele><time>2026-04-04T14:17:18.051Z</time></trkpt><trkpt lat="44.2847684" lon="8.2618339"><ele>565.0</ele><time>2026-04-04T14:17:19.051Z</time></trkpt><trkpt lat="44.2846943" lon="8.2618331"><ele>565.0</ele><time>2026-04-04T14:17:20.051Z</time></trkpt><trkpt lat="44.2846275" lon="8.2618478"><ele>565.0</ele><time>2026-04-04T14:17:21.052Z</time></trkpt><trkpt lat="44.2845613" lon="8.261853"><ele>564.5</ele><time>2026-04-04T14:17:22.051Z</time></trkpt><trkpt lat="44.2844863" lon="8.2618951"><ele>564.0</ele><time>2026-04-04T14:17:23.052Z</time></trkpt><trkpt lat="44.2844066" lon="8.261861"><ele>563.5</ele><time>2026-04-04T14:17:24.051Z</time></trkpt><trkpt lat="44.2843436" lon="8.2618711"><ele>563.0</ele><time>2026-04-04T14:17:25.052Z</time></trkpt><trkpt lat="44.2842702" lon="8.2617775"><ele>562.5</ele><time>2026-04-04T14:17:27.054Z</time></trkpt><trkpt lat="44.2843283" lon="8.2616772"><ele>562.0</ele><time>2026-04-04T14:17:29.052Z</time></trkpt><trkpt lat="44.2843911" lon="8.2616491"><ele>562.0</ele><time>2026-04-04T14:17:30.051Z</time></trkpt><trkpt lat="44.2844651" lon="8.2616258"><ele>562.0</ele><time>2026-04-04T14:17:31.052Z</time></trkpt><trkpt lat="44.284548" lon="8.2615929"><ele>562.0</ele><time>2026-04-04T14:17:32.051Z</time></trkpt><trkpt lat="44.2846291" lon="8.2615573"><ele>562.0</ele><time>2026-04-04T14:17:33.052Z</time></trkpt><trkpt lat="44.2847425" lon="8.2615367"><ele>562.0</ele><time>2026-04-04T14:17:34.053Z</time></trkpt><trkpt lat="44.2848286" lon="8.2614893"><ele>557.2</ele><time>2026-04-04T14:17:35.052Z</time></trkpt><trkpt lat="44.2849244" lon="8.2614462"><ele>552.4000000000001</ele><time>2026-04-04T14:17:36.051Z</time></trkpt><trkpt lat="44.2850211" lon="8.2614204"><ele>547.5999999999999</ele><time>2026-04-04T14:17:37.053Z</time></trkpt><trkpt lat="44.2851265" lon="8.2613932"><ele>542.8</ele><time>2026-04-04T14:17:38.052Z</time></trkpt><trkpt lat="44.285232" lon="8.2613743"><ele>538.0</ele><time>2026-04-04T14:17:39.053Z</time></trkpt><trkpt lat="44.2853393" lon="8.2613518"><ele>538.0</ele><time>2026-04-04T14:17:40.052Z</time></trkpt><trkpt lat="44.285448" lon="8.2613409"><ele>538.0</ele><time>2026-04-04T14:17:41.052Z</time></trkpt><trkpt lat="44.2855436" lon="8.2613362"><ele>538.0</ele><time>2026-04-04T14:17:42.051Z</time></trkpt><trkpt lat="44.2856334" lon="8.2613196"><ele>538.0</ele><time>2026-04-04T14:17:43.051Z</time></trkpt><trkpt lat="44.2857244" lon="8.2613291"><ele>538.0</ele><time>2026-04-04T14:17:44.05Z</time></trkpt><trkpt lat="44.2858066" lon="8.2613266"><ele>538.0</ele><time>2026-04-04T14:17:45.053Z</time></trkpt><trkpt lat="44.2858812" lon="8.2613206"><ele>538.0</ele><time>2026-04-04T14:17:46.052Z</time></trkpt><trkpt lat="44.2859551" lon="8.2613076"><ele>538.0</ele><time>2026-04-04T14:17:47.052Z</time></trkpt><trkpt lat="44.2859975" lon="8.2611978"><ele>538.0</ele><time>2026-04-04T14:17:48.051Z</time></trkpt><trkpt lat="44.2859473" lon="8.2610404"><ele>538.0</ele><time>2026-04-04T14:17:50.051Z</time></trkpt><trkpt lat="44.2859085" lon="8.260967"><ele>538.0</ele><time>2026-04-04T14:17:51.053Z</time></trkpt><trkpt lat="44.2858414" lon="8.2609195"><ele>538.0</ele><time>2026-04-04T14:17:52.051Z</time></trkpt><trkpt lat="44.2857872" lon="8.2608672"><ele>538.0</ele><time>2026-04-04T14:17:53.052Z</time></trkpt><trkpt lat="44.2857135" lon="8.2607755"><ele>538.0</ele><time>2026-04-04T14:17:54.051Z</time></trkpt><trkpt lat="44.2856331" lon="8.260725"><ele>538.0</ele><time>2026-04-04T14:17:55.051Z</time></trkpt><trkpt lat="44.285557" lon="8.2606611"><ele>538.0</ele><time>2026-04-04T14:17:56.051Z</time></trkpt><trkpt lat="44.2854629" lon="8.2606442"><ele>538.0</ele><time>2026-04-04T14:17:57.052Z</time></trkpt><trkpt lat="44.285356" lon="8.2606316"><ele>538.0</ele><time>2026-04-04T14:17:58.054Z</time></trkpt><trkpt lat="44.2852574" lon="8.2606223"><ele>538.0</ele><time>2026-04-04T14:17:59.054Z</time></trkpt><trkpt lat="44.2851661" lon="8.2606326"><ele>538.0</ele><time>2026-04-04T14:18:00.051Z</time></trkpt><trkpt lat="44.2850958" lon="8.2606888"><ele>538.0</ele><time>2026-04-04T14:18:01.053Z</time></trkpt><trkpt lat="44.2850152" lon="8.26072"><ele>538.0</ele><time>2026-04-04T14:18:02.053Z</time></trkpt><trkpt lat="44.2849473" lon="8.2607721"><ele>538.0</ele><time>2026-04-04T14:18:03.053Z</time></trkpt><trkpt lat="44.2848509" lon="8.2608333"><ele>538.0</ele><time>2026-04-04T14:18:05.054Z</time></trkpt><trkpt lat="44.2849011" lon="8.2607088"><ele>538.0</ele><time>2026-04-04T14:18:06.052Z</time></trkpt><trkpt lat="44.2849315" lon="8.2606304"><ele>538.0</ele><time>2026-04-04T14:18:07.052Z</time></trkpt><trkpt lat="44.2850457" lon="8.2605357"><ele>538.0</ele><time>2026-04-04T14:18:09.051Z</time></trkpt><trkpt lat="44.2851105" lon="8.2604891"><ele>538.0</ele><time>2026-04-04T14:18:10.051Z</time></trkpt><trkpt lat="44.2851958" lon="8.260435"><ele>533.8</ele><time>2026-04-04T14:18:11.051Z</time></trkpt><trkpt lat="44.2852798" lon="8.2603863"><ele>529.5999999999999</ele><time>2026-04-04T14:18:12.052Z</time></trkpt><trkpt lat="44.285365" lon="8.2603351"><ele>525.4000000000001</ele><time>2026-04-04T14:18:13.052Z</time></trkpt><trkpt lat="44.2854469" lon="8.260269"><ele>521.2</ele><time>2026-04-04T14:18:14.052Z</time></trkpt><trkpt lat="44.2855348" lon="8.2601998"><ele>517.0</ele><time>2026-04-04T14:18:15.052Z</time></trkpt><trkpt lat="44.2856259" lon="8.2601439"><ele>517.0</ele><time>2026-04-04T14:18:16.052Z</time></trkpt><trkpt lat="44.2857128" lon="8.2600713"><ele>517.0</ele><time>2026-04-04T14:18:17.052Z</time></trkpt><trkpt lat="44.2858001" lon="8.2600202"><ele>517.0</ele><time>2026-04-04T14:18:18.051Z</time></trkpt><trkpt lat="44.2858959" lon="8.2600125"><ele>517.0</ele><time>2026-04-04T14:18:19.051Z</time></trkpt><trkpt lat="44.2859878" lon="8.2600249"><ele>517.0</ele><time>2026-04-04T14:18:20.053Z</time></trkpt><trkpt lat="44.2860719" lon="8.2600554"><ele>517.0</ele><time>2026-04-04T14:18:21.052Z</time></trkpt><trkpt lat="44.2861558" lon="8.2600819"><ele>517.0</ele><time>2026-04-04T14:18:22.051Z</time></trkpt><trkpt lat="44.2862066" lon="8.2601519"><ele>517.0</ele><time>2026-04-04T14:18:23.051Z</time></trkpt><trkpt lat="44.2862745" lon="8.2602008"><ele>517.0</ele><time>2026-04-04T14:18:24.051Z</time></trkpt><trkpt lat="44.2863783" lon="8.2601889"><ele>517.0</ele><time>2026-04-04T14:18:26.055Z</time></trkpt><trkpt lat="44.2863082" lon="8.2600574"><ele>517.0</ele><time>2026-04-04T14:18:27.055Z</time></trkpt><trkpt lat="44.2862877" lon="8.2598881"><ele>517.0</ele><time>2026-04-04T14:18:29.051Z</time></trkpt><trkpt lat="44.2862326" lon="8.2598264"><ele>517.0</ele><time>2026-04-04T14:18:30.051Z</time></trkpt><trkpt lat="44.2861767" lon="8.2597278"><ele>517.0</ele><time>2026-04-04T14:18:31.051Z</time></trkpt><trkpt lat="44.2860897" lon="8.2596354"><ele>517.0</ele><time>2026-04-04T14:18:32.054Z</time></trkpt><trkpt lat="44.2860338" lon="8.2595406"><ele>512.4</ele><time>2026-04-04T14:18:33.051Z</time></trkpt><trkpt lat="44.2859687" lon="8.2595077"><ele>507.80000000000007</ele><time>2026-04-04T14:18:34.051Z</time></trkpt><trkpt lat="44.2858889" lon="8.2594628"><ele>503.2</ele><time>2026-04-04T14:18:35.053Z</time></trkpt><trkpt lat="44.285778" lon="8.259434"><ele>498.6</ele><time>2026-04-04T14:18:36.051Z</time></trkpt><trkpt lat="44.2856712" lon="8.2594438"><ele>494.0</ele><time>2026-04-04T14:18:37.052Z</time></trkpt><trkpt lat="44.2855794" lon="8.2594331"><ele>493.79999999999995</ele><time>2026-04-04T14:18:38.05Z</time></trkpt><trkpt lat="44.2854674" lon="8.259421"><ele>493.59999999999997</ele><time>2026-04-04T14:18:39.055Z</time></trkpt><trkpt lat="44.285365" lon="8.2594452"><ele>493.4</ele><time>2026-04-04T14:18:40.052Z</time></trkpt><trkpt lat="44.2852721" lon="8.2594775"><ele>493.2</ele><time>2026-04-04T14:18:41.053Z</time></trkpt><trkpt lat="44.2851913" lon="8.2595108"><ele>493.0</ele><time>2026-04-04T14:18:42.054Z</time></trkpt><trkpt lat="44.2851227" lon="8.2595343"><ele>493.00000000000006</ele><time>2026-04-04T14:18:43.054Z</time></trkpt><trkpt lat="44.2850289" lon="8.2595318"><ele>493.0</ele><time>2026-04-04T14:18:45.051Z</time></trkpt><trkpt lat="44.2850182" lon="8.2594157"><ele>493.0</ele><time>2026-04-04T14:18:47.055Z</time></trkpt><trkpt lat="44.2850741" lon="8.2593561"><ele>493.0</ele><time>2026-04-04T14:18:48.053Z</time></trkpt><trkpt lat="44.2851324" lon="8.2593105"><ele>493.00000000000006</ele><time>2026-04-04T14:18:49.053Z</time></trkpt><trkpt lat="44.2851959" lon="8.2592699"><ele>493.0</ele><time>2026-04-04T14:18:50.052Z</time></trkpt><trkpt lat="44.2852571" lon="8.2592122"><ele>493.0</ele><time>2026-04-04T14:18:51.054Z</time></trkpt><trkpt lat="44.2853259" lon="8.2591475"><ele>492.99999999999994</ele><time>2026-04-04T14:18:52.053Z</time></trkpt><trkpt lat="44.2854026" lon="8.259083"><ele>492.99999999999994</ele><time>2026-04-04T14:18:53.054Z</time></trkpt><trkpt lat="44.2854901" lon="8.2590203"><ele>493.0</ele><time>2026-04-04T14:18:54.055Z</time></trkpt><trkpt lat="44.2855795" lon="8.2589743"><ele>493.0</ele><time>2026-04-04T14:18:55.054Z</time></trkpt><trkpt lat="44.2856827" lon="8.2589406"><ele>488.5</ele><time>2026-04-04T14:18:56.05Z</time></trkpt><trkpt lat="44.2857961" lon="8.2589234"><ele>484.0</ele><time>2026-04-04T14:18:57.054Z</time></trkpt><trkpt lat="44.2859227" lon="8.2589245"><ele>479.5</ele><time>2026-04-04T14:18:58.052Z</time></trkpt><trkpt lat="44.286051" lon="8.2589179"><ele>475.0</ele><time>2026-04-04T14:18:59.051Z</time></trkpt><trkpt lat="44.286176" lon="8.2589287"><ele>475.0</ele><time>2026-04-04T14:19:00.051Z</time></trkpt><trkpt lat="44.2863119" lon="8.2589424"><ele>475.0</ele><time>2026-04-04T14:19:01.054Z</time></trkpt><trkpt lat="44.2864493" lon="8.2589724"><ele>475.0</ele><time>2026-04-04T14:19:02.054Z</time></trkpt><trkpt lat="44.2865785" lon="8.2590027"><ele>475.0</ele><time>2026-04-04T14:19:03.054Z</time></trkpt><trkpt lat="44.2866981" lon="8.2590935"><ele>475.75</ele><time>2026-04-04T14:19:04.051Z</time></trkpt><trkpt lat="44.286815" lon="8.2591555"><ele>476.5</ele><time>2026-04-04T14:19:05.054Z</time></trkpt><trkpt lat="44.28691" lon="8.2592359"><ele>477.25</ele><time>2026-04-04T14:19:06.053Z</time></trkpt><trkpt lat="44.2870081" lon="8.2594122"><ele>478.0</ele><time>2026-04-04T14:19:07.053Z</time></trkpt><trkpt lat="44.2870881" lon="8.2595313"><ele>478.0</ele><time>2026-04-04T14:19:08.051Z</time></trkpt><trkpt lat="44.2871678" lon="8.2596095"><ele>477.99999999999994</ele><time>2026-04-04T14:19:09.052Z</time></trkpt><trkpt lat="44.2872416" lon="8.2596714"><ele>477.99999999999994</ele><time>2026-04-04T14:19:10.055Z</time></trkpt><trkpt lat="44.2873456" lon="8.2596624"><ele>478.0</ele><time>2026-04-04T14:19:11.054Z</time></trkpt><trkpt lat="44.2874464" lon="8.2596504"><ele>478.0</ele><time>2026-04-04T14:19:12.052Z</time></trkpt><trkpt lat="44.2875413" lon="8.2596007"><ele>476.1666666666667</ele><time>2026-04-04T14:19:13.05Z</time></trkpt><trkpt lat="44.2876041" lon="8.2595022"><ele>474.33333333333337</ele><time>2026-04-04T14:19:14.051Z</time></trkpt><trkpt lat="44.2876627" lon="8.2594151"><ele>472.5</ele><time>2026-04-04T14:19:15.049Z</time></trkpt><trkpt lat="44.2877142" lon="8.2593344"><ele>470.66666666666663</ele><time>2026-04-04T14:19:16.054Z</time></trkpt><trkpt lat="44.2877623" lon="8.2592492"><ele>468.8333333333333</ele><time>2026-04-04T14:19:17.05Z</time></trkpt><trkpt lat="44.2878183" lon="8.2591756"><ele>467.0</ele><time>2026-04-04T14:19:18.053Z</time></trkpt><trkpt lat="44.2878787" lon="8.2590948"><ele>466.99999999999994</ele><time>2026-04-04T14:19:19.055Z</time></trkpt><trkpt lat="44.2879412" lon="8.2590528"><ele>467.0</ele><time>2026-04-04T14:19:20.051Z</time></trkpt><trkpt lat="44.2880119" lon="8.2590344"><ele>466.99999999999994</ele><time>2026-04-04T14:19:21.051Z</time></trkpt><trkpt lat="44.2880834" lon="8.2590602"><ele>466.99999999999994</ele><time>2026-04-04T14:19:22.05Z</time></trkpt><trkpt lat="44.2881532" lon="8.259107"><ele>467.0</ele><time>2026-04-04T14:19:23.054Z</time></trkpt><trkpt lat="44.2882141" lon="8.2591567"><ele>466.99999999999994</ele><time>2026-04-04T14:19:24.054Z</time></trkpt><trkpt lat="44.288274" lon="8.2592043"><ele>466.99999999999994</ele><time>2026-04-04T14:19:25.051Z</time></trkpt><trkpt lat="44.2883888" lon="8.2592826"><ele>468.16666666666663</ele><time>2026-04-04T14:19:27.053Z</time></trkpt><trkpt lat="44.2884456" lon="8.2593212"><ele>469.3333333333333</ele><time>2026-04-04T14:19:28.05Z</time></trkpt><trkpt lat="44.288509" lon="8.2593546"><ele>470.5</ele><time>2026-04-04T14:19:29.053Z</time></trkpt><trkpt lat="44.2886148" lon="8.2594314"><ele>471.66666666666663</ele><time>2026-04-04T14:19:31.051Z</time></trkpt><trkpt lat="44.2886769" lon="8.2594792"><ele>472.8333333333333</ele><time>2026-04-04T14:19:32.052Z</time></trkpt><trkpt lat="44.2887331" lon="8.2595298"><ele>474.0</ele><time>2026-04-04T14:19:33.054Z</time></trkpt><trkpt lat="44.2887776" lon="8.2595926"><ele>474.0</ele><time>2026-04-04T14:19:34.052Z</time></trkpt><trkpt lat="44.2888452" lon="8.2597722"><ele>474.0</ele><time>2026-04-04T14:19:36.052Z</time></trkpt><trkpt lat="44.28888" lon="8.2599345"><ele>474.0</ele><time>2026-04-04T14:19:38.054Z</time></trkpt><trkpt lat="44.2889139" lon="8.2600443"><ele>474.0</ele><time>2026-04-04T14:19:39.053Z</time></trkpt><trkpt lat="44.288938" lon="8.2601755"><ele>474.0</ele><time>2026-04-04T14:19:41.054Z</time></trkpt><trkpt lat="44.2889535" lon="8.2602746"><ele>473.5</ele><time>2026-04-04T14:19:42.054Z</time></trkpt><trkpt lat="44.2889736" lon="8.2603733"><ele>473.0</ele><time>2026-04-04T14:19:43.053Z</time></trkpt><trkpt lat="44.2889961" lon="8.26046"><ele>472.5</ele><time>2026-04-04T14:19:44.053Z</time></trkpt><trkpt lat="44.2890231" lon="8.2605581"><ele>472.0</ele><time>2026-04-04T14:19:45.053Z</time></trkpt><trkpt lat="44.2890973" lon="8.2606928"><ele>471.5</ele><time>2026-04-04T14:19:47.055Z</time></trkpt><trkpt lat="44.2891347" lon="8.2607637"><ele>471.0</ele><time>2026-04-04T14:19:48.051Z</time></trkpt><trkpt lat="44.28924" lon="8.2608692"><ele>471.0</ele><time>2026-04-04T14:19:50.055Z</time></trkpt><trkpt lat="44.2893457" lon="8.2609385"><ele>471.0</ele><time>2026-04-04T14:19:52.049Z</time></trkpt><trkpt lat="44.2894438" lon="8.2610198"><ele>471.0</ele><time>2026-04-04T14:19:54.055Z</time></trkpt><trkpt lat="44.2895032" lon="8.2610905"><ele>471.0</ele><time>2026-04-04T14:19:55.057Z</time></trkpt><trkpt lat="44.2895967" lon="8.2611449"><ele>471.0</ele><time>2026-04-04T14:19:56.054Z</time></trkpt><trkpt lat="44.2896524" lon="8.2611867"><ele>471.0</ele><time>2026-04-04T14:19:57.056Z</time></trkpt><trkpt lat="44.2897256" lon="8.261237"><ele>471.0</ele><time>2026-04-04T14:19:58.057Z</time></trkpt><trkpt lat="44.2897787" lon="8.2612898"><ele>471.0</ele><time>2026-04-04T14:19:59.049Z</time></trkpt><trkpt lat="44.2898317" lon="8.2613514"><ele>471.0</ele><time>2026-04-04T14:20:00.05Z</time></trkpt><trkpt lat="44.2899477" lon="8.2614697"><ele>471.0</ele><time>2026-04-04T14:20:02.051Z</time></trkpt><trkpt lat="44.2900341" lon="8.2615691"><ele>471.3333333333333</ele><time>2026-04-04T14:20:04.054Z</time></trkpt><trkpt lat="44.2900965" lon="8.2616302"><ele>471.66666666666663</ele><time>2026-04-04T14:20:05.053Z</time></trkpt><trkpt lat="44.290153" lon="8.2616761"><ele>472.0</ele><time>2026-04-04T14:20:06.05Z</time></trkpt><trkpt lat="44.2902309" lon="8.2617619"><ele>472.3333333333333</ele><time>2026-04-04T14:20:08.058Z</time></trkpt><trkpt lat="44.2903057" lon="8.2618198"><ele>472.66666666666663</ele><time>2026-04-04T14:20:09.049Z</time></trkpt><trkpt lat="44.290377" lon="8.2619101"><ele>473.0</ele><time>2026-04-04T14:20:11.055Z</time></trkpt><trkpt lat="44.290456" lon="8.2620158"><ele>473.0</ele><time>2026-04-04T14:20:13.056Z</time></trkpt><trkpt lat="44.290554" lon="8.2620942"><ele>472.99999999999994</ele><time>2026-04-04T14:20:15.053Z</time></trkpt><trkpt lat="44.29061" lon="8.262144"><ele>472.99999999999994</ele><time>2026-04-04T14:20:16.052Z</time></trkpt><trkpt lat="44.2907111" lon="8.2622266"><ele>473.0</ele><time>2026-04-04T14:20:18.054Z</time></trkpt><trkpt lat="44.2908021" lon="8.2623238"><ele>473.0</ele><time>2026-04-04T14:20:20.049Z</time></trkpt><trkpt lat="44.2908682" lon="8.2624141"><ele>473.0</ele><time>2026-04-04T14:20:22.056Z</time></trkpt><trkpt lat="44.2909696" lon="8.2625094"><ele>472.99999999999994</ele><time>2026-04-04T14:20:24.051Z</time></trkpt><trkpt lat="44.2910319" lon="8.2626189"><ele>472.99999999999994</ele><time>2026-04-04T14:20:25.051Z</time></trkpt><trkpt lat="44.2911005" lon="8.2626214"><ele>473.0</ele><time>2026-04-04T14:20:26.052Z</time></trkpt><trkpt lat="44.2911789" lon="8.2626195"><ele>473.0</ele><time>2026-04-04T14:20:28.051Z</time></trkpt><trkpt lat="44.2912922" lon="8.26271"><ele>473.0</ele><time>2026-04-04T14:20:30.052Z</time></trkpt><trkpt lat="44.2914125" lon="8.2627369"><ele>473.0</ele><time>2026-04-04T14:20:32.05Z</time></trkpt><trkpt lat="44.2915171" lon="8.2627636"><ele>473.0</ele><time>2026-04-04T14:20:34.051Z</time></trkpt><trkpt lat="44.2916338" lon="8.262784"><ele>473.0</ele><time>2026-04-04T14:20:36.049Z</time></trkpt><trkpt lat="44.2917478" lon="8.2628291"><ele>476.0</ele><time>2026-04-04T14:20:38.05Z</time></trkpt><trkpt lat="44.2918526" lon="8.2628847"><ele>478.99999999999994</ele><time>2026-04-04T14:20:40.05Z</time></trkpt><trkpt lat="44.2919417" lon="8.2629405"><ele>481.99999999999994</ele><time>2026-04-04T14:20:43.05Z</time></trkpt><trkpt lat="44.2920447" lon="8.2629601"><ele>485.0</ele><time>2026-04-04T14:20:45.052Z</time></trkpt><trkpt lat="44.292153" lon="8.263007"><ele>488.0</ele><time>2026-04-04T14:20:47.05Z</time></trkpt><trkpt lat="44.2922356" lon="8.2630373"><ele>490.3333333333333</ele><time>2026-04-04T14:20:48.05Z</time></trkpt><trkpt lat="44.2922993" lon="8.2630709"><ele>492.66666666666663</ele><time>2026-04-04T14:20:49.05Z</time></trkpt><trkpt lat="44.2923668" lon="8.2630931"><ele>495.0</ele><time>2026-04-04T14:20:50.049Z</time></trkpt><trkpt lat="44.2924303" lon="8.2631144"><ele>497.33333333333337</ele><time>2026-04-04T14:20:51.049Z</time></trkpt><trkpt lat="44.2925337" lon="8.2631281"><ele>499.6666666666667</ele><time>2026-04-04T14:20:52.052Z</time></trkpt><trkpt lat="44.2926089" lon="8.2631768"><ele>502.0</ele><time>2026-04-04T14:20:54.05Z</time></trkpt><trkpt lat="44.292683" lon="8.2631741"><ele>497.0</ele><time>2026-04-04T14:20:55.05Z</time></trkpt><trkpt lat="44.2927994" lon="8.2632379"><ele>492.00000000000006</ele><time>2026-04-04T14:20:57.051Z</time></trkpt><trkpt lat="44.292878" lon="8.2632481"><ele>487.00000000000006</ele><time>2026-04-04T14:20:58.05Z</time></trkpt><trkpt lat="44.2929669" lon="8.2633153"><ele>482.0</ele><time>2026-04-04T14:20:59.05Z</time></trkpt><trkpt lat="44.2930482" lon="8.2633119"><ele>477.0</ele><time>2026-04-04T14:21:01.049Z</time></trkpt><trkpt lat="44.2931571" lon="8.2632904"><ele>477.0</ele><time>2026-04-04T14:21:03.051Z</time></trkpt><trkpt lat="44.2933002" lon="8.2632919"><ele>477.0</ele><time>2026-04-04T14:21:05.05Z</time></trkpt><trkpt lat="44.2933746" lon="8.2632656"><ele>477.0</ele><time>2026-04-04T14:21:06.052Z</time></trkpt><trkpt lat="44.2934411" lon="8.2632616"><ele>477.0</ele><time>2026-04-04T14:21:07.05Z</time></trkpt><trkpt lat="44.2935133" lon="8.263257"><ele>477.0</ele><time>2026-04-04T14:21:08.05Z</time></trkpt><trkpt lat="44.2935937" lon="8.2632409"><ele>477.0</ele><time>2026-04-04T14:21:09.051Z</time></trkpt><trkpt lat="44.2936611" lon="8.263257"><ele>477.0</ele><time>2026-04-04T14:21:10.05Z</time></trkpt><trkpt lat="44.2937382" lon="8.2632931"><ele>477.0</ele><time>2026-04-04T14:21:11.049Z</time></trkpt><trkpt lat="44.293843" lon="8.263325"><ele>477.0</ele><time>2026-04-04T14:21:13.051Z</time></trkpt><trkpt lat="44.2939212" lon="8.2633516"><ele>477.0</ele><time>2026-04-04T14:21:14.051Z</time></trkpt><trkpt lat="44.2939886" lon="8.2634201"><ele>477.0</ele><time>2026-04-04T14:21:16.052Z</time></trkpt><trkpt lat="44.2940702" lon="8.2634644"><ele>477.0</ele><time>2026-04-04T14:21:18.05Z</time></trkpt><trkpt lat="44.2941404" lon="8.263507"><ele>479.0</ele><time>2026-04-04T14:21:19.05Z</time></trkpt><trkpt lat="44.2942431" lon="8.2635225"><ele>481.00000000000006</ele><time>2026-04-04T14:21:21.051Z</time></trkpt><trkpt lat="44.2943369" lon="8.2635633"><ele>483.00000000000006</ele><time>2026-04-04T14:21:23.051Z</time></trkpt><trkpt lat="44.2944629" lon="8.2635831"><ele>485.0</ele><time>2026-04-04T14:21:25.05Z</time></trkpt><trkpt lat="44.2945746" lon="8.2636137"><ele>487.0</ele><time>2026-04-04T14:21:27.05Z</time></trkpt><trkpt lat="44.2946505" lon="8.2636877"><ele>487.0</ele><time>2026-04-04T14:21:29.051Z</time></trkpt><trkpt lat="44.2947047" lon="8.2637368"><ele>487.00000000000006</ele><time>2026-04-04T14:21:30.052Z</time></trkpt><trkpt lat="44.2947618" lon="8.2637876"><ele>487.00000000000006</ele><time>2026-04-04T14:21:31.051Z</time></trkpt><trkpt lat="44.2948573" lon="8.2638928"><ele>487.0</ele><time>2026-04-04T14:21:33.051Z</time></trkpt><trkpt lat="44.2949458" lon="8.2640013"><ele>487.0</ele><time>2026-04-04T14:21:35.051Z</time></trkpt><trkpt lat="44.2950241" lon="8.2640679"><ele>483.8</ele><time>2026-04-04T14:21:37.051Z</time></trkpt><trkpt lat="44.2951283" lon="8.2641307"><ele>480.6</ele><time>2026-04-04T14:21:39.049Z</time></trkpt><trkpt lat="44.295233" lon="8.2642016"><ele>477.40000000000003</ele><time>2026-04-04T14:21:41.049Z</time></trkpt><trkpt lat="44.2953237" lon="8.2642441"><ele>474.20000000000005</ele><time>2026-04-04T14:21:43.05Z</time></trkpt><trkpt lat="44.2954098" lon="8.2642935"><ele>471.0</ele><time>2026-04-04T14:21:45.05Z</time></trkpt><trkpt lat="44.2954676" lon="8.2643288"><ele>471.0</ele><time>2026-04-04T14:21:46.05Z</time></trkpt><trkpt lat="44.2955606" lon="8.2643863"><ele>471.0</ele><time>2026-04-04T14:21:48.05Z</time></trkpt><trkpt lat="44.2956224" lon="8.2644257"><ele>471.0</ele><time>2026-04-04T14:21:49.051Z</time></trkpt><trkpt lat="44.2957253" lon="8.2644999"><ele>471.0</ele><time>2026-04-04T14:21:51.051Z</time></trkpt><trkpt lat="44.2957938" lon="8.2645843"><ele>471.0</ele><time>2026-04-04T14:21:53.051Z</time></trkpt><trkpt lat="44.2958742" lon="8.2647154"><ele>469.0</ele><time>2026-04-04T14:21:55.05Z</time></trkpt><trkpt lat="44.2959577" lon="8.2648469"><ele>467.0</ele><time>2026-04-04T14:21:57.049Z</time></trkpt><trkpt lat="44.2960582" lon="8.2649564"><ele>465.0</ele><time>2026-04-04T14:21:59.05Z</time></trkpt><trkpt lat="44.2961277" lon="8.2650868"><ele>463.0</ele><time>2026-04-04T14:22:01.051Z</time></trkpt><trkpt lat="44.2962029" lon="8.2652058"><ele>463.0</ele><time>2026-04-04T14:22:03.05Z</time></trkpt><trkpt lat="44.2962928" lon="8.2653059"><ele>462.99999999999994</ele><time>2026-04-04T14:22:05.05Z</time></trkpt><trkpt lat="44.2963746" lon="8.2654085"><ele>462.99999999999994</ele><time>2026-04-04T14:22:07.05Z</time></trkpt><trkpt lat="44.2964459" lon="8.2654301"><ele>463.0</ele><time>2026-04-04T14:22:08.051Z</time></trkpt><trkpt lat="44.296536" lon="8.265455"><ele>463.0</ele><time>2026-04-04T14:22:10.049Z</time></trkpt><trkpt lat="44.2966047" lon="8.265491"><ele>462.59999999999997</ele><time>2026-04-04T14:22:11.049Z</time></trkpt><trkpt lat="44.2967" lon="8.2654973"><ele>462.19999999999993</ele><time>2026-04-04T14:22:13.05Z</time></trkpt><trkpt lat="44.2968142" lon="8.2655488"><ele>461.8</ele><time>2026-04-04T14:22:15.049Z</time></trkpt><trkpt lat="44.2968789" lon="8.2655674"><ele>461.4</ele><time>2026-04-04T14:22:16.049Z</time></trkpt><trkpt lat="44.2969945" lon="8.2656229"><ele>461.0</ele><time>2026-04-04T14:22:18.05Z</time></trkpt><trkpt lat="44.2971095" lon="8.2656497"><ele>461.0</ele><time>2026-04-04T14:22:20.05Z</time></trkpt><trkpt lat="44.2972197" lon="8.2656826"><ele>461.0</ele><time>2026-04-04T14:22:22.051Z</time></trkpt><trkpt lat="44.2973334" lon="8.2656923"><ele>461.0</ele><time>2026-04-04T14:22:24.051Z</time></trkpt><trkpt lat="44.2974412" lon="8.2657294"><ele>461.0</ele><time>2026-04-04T14:22:26.05Z</time></trkpt><trkpt lat="44.2975078" lon="8.2657425"><ele>461.0</ele><time>2026-04-04T14:22:27.051Z</time></trkpt><trkpt lat="44.2975719" lon="8.2657575"><ele>461.49999999999994</ele><time>2026-04-04T14:22:28.051Z</time></trkpt><trkpt lat="44.2976987" lon="8.2657971"><ele>462.0</ele><time>2026-04-04T14:22:30.049Z</time></trkpt><trkpt lat="44.2977696" lon="8.2658127"><ele>462.5</ele><time>2026-04-04T14:22:31.05Z</time></trkpt><trkpt lat="44.2978414" lon="8.265811"><ele>463.0</ele><time>2026-04-04T14:22:32.051Z</time></trkpt><trkpt lat="44.2979158" lon="8.2658179"><ele>463.49999999999994</ele><time>2026-04-04T14:22:33.05Z</time></trkpt><trkpt lat="44.2979952" lon="8.265845"><ele>464.0</ele><time>2026-04-04T14:22:34.051Z</time></trkpt><trkpt lat="44.2980693" lon="8.2658626"><ele>463.99999999999994</ele><time>2026-04-04T14:22:35.05Z</time></trkpt><trkpt lat="44.2981413" lon="8.2658917"><ele>464.0</ele><time>2026-04-04T14:22:36.051Z</time></trkpt><trkpt lat="44.2982262" lon="8.2659191"><ele>464.0</ele><time>2026-04-04T14:22:37.049Z</time></trkpt><trkpt lat="44.2983099" lon="8.2659538"><ele>464.0</ele><time>2026-04-04T14:22:38.05Z</time></trkpt><trkpt lat="44.2984011" lon="8.2659794"><ele>463.99999999999994</ele><time>2026-04-04T14:22:39.05Z</time></trkpt><trkpt lat="44.2984915" lon="8.2660071"><ele>464.0</ele><time>2026-04-04T14:22:40.049Z</time></trkpt><trkpt lat="44.2985865" lon="8.2660374"><ele>464.0</ele><time>2026-04-04T14:22:41.05Z</time></trkpt><trkpt lat="44.2986785" lon="8.2660768"><ele>464.0</ele><time>2026-04-04T14:22:42.051Z</time></trkpt><trkpt lat="44.2987737" lon="8.2661164"><ele>464.0</ele><time>2026-04-04T14:22:43.05Z</time></trkpt><trkpt lat="44.2988556" lon="8.2661487"><ele>464.0</ele><time>2026-04-04T14:22:44.049Z</time></trkpt><trkpt lat="44.2989251" lon="8.2661721"><ele>464.0</ele><time>2026-04-04T14:22:45.05Z</time></trkpt><trkpt lat="44.2990217" lon="8.2662111"><ele>465.2</ele><time>2026-04-04T14:22:46.051Z</time></trkpt><trkpt lat="44.2991625" lon="8.2662798"><ele>466.4</ele><time>2026-04-04T14:22:47.051Z</time></trkpt><trkpt lat="44.2992683" lon="8.2663239"><ele>467.6</ele><time>2026-04-04T14:22:48.05Z</time></trkpt><trkpt lat="44.2993578" lon="8.2663678"><ele>468.8</ele><time>2026-04-04T14:22:49.05Z</time></trkpt><trkpt lat="44.2994462" lon="8.2664086"><ele>470.0</ele><time>2026-04-04T14:22:50.049Z</time></trkpt><trkpt lat="44.2995511" lon="8.2664603"><ele>467.0</ele><time>2026-04-04T14:22:51.05Z</time></trkpt><trkpt lat="44.2996362" lon="8.2665012"><ele>464.0</ele><time>2026-04-04T14:22:52.05Z</time></trkpt><trkpt lat="44.2997393" lon="8.2665357"><ele>461.0</ele><time>2026-04-04T14:22:53.05Z</time></trkpt><trkpt lat="44.2998223" lon="8.2665869"><ele>458.0</ele><time>2026-04-04T14:22:54.05Z</time></trkpt><trkpt lat="44.2999176" lon="8.2666308"><ele>455.0</ele><time>2026-04-04T14:22:55.05Z</time></trkpt><trkpt lat="44.3000074" lon="8.2666724"><ele>455.0</ele><time>2026-04-04T14:22:56.049Z</time></trkpt><trkpt lat="44.3000977" lon="8.2667165"><ele>455.0</ele><time>2026-04-04T14:22:57.051Z</time></trkpt><trkpt lat="44.3002113" lon="8.2667831"><ele>455.0</ele><time>2026-04-04T14:22:58.05Z</time></trkpt><trkpt lat="44.3003407" lon="8.2668166"><ele>455.0</ele><time>2026-04-04T14:22:59.05Z</time></trkpt><trkpt lat="44.3004325" lon="8.266832"><ele>455.0</ele><time>2026-04-04T14:23:00.049Z</time></trkpt><trkpt lat="44.3005405" lon="8.2668372"><ele>454.2</ele><time>2026-04-04T14:23:01.05Z</time></trkpt><trkpt lat="44.3006442" lon="8.2668518"><ele>453.4</ele><time>2026-04-04T14:23:02.049Z</time></trkpt><trkpt lat="44.300741" lon="8.2668372"><ele>452.6</ele><time>2026-04-04T14:23:03.05Z</time></trkpt><trkpt lat="44.3008393" lon="8.2668077"><ele>451.8</ele><time>2026-04-04T14:23:04.051Z</time></trkpt><trkpt lat="44.300929" lon="8.2667866"><ele>451.0</ele><time>2026-04-04T14:23:05.05Z</time></trkpt><trkpt lat="44.3010331" lon="8.26678"><ele>451.0</ele><time>2026-04-04T14:23:06.049Z</time></trkpt><trkpt lat="44.3011302" lon="8.2667801"><ele>451.0</ele><time>2026-04-04T14:23:07.051Z</time></trkpt><trkpt lat="44.301223" lon="8.2667976"><ele>451.0</ele><time>2026-04-04T14:23:08.05Z</time></trkpt><trkpt lat="44.3013137" lon="8.2668583"><ele>451.0</ele><time>2026-04-04T14:23:09.05Z</time></trkpt><trkpt lat="44.3013969" lon="8.2669263"><ele>451.0</ele><time>2026-04-04T14:23:10.049Z</time></trkpt><trkpt lat="44.3014766" lon="8.2669876"><ele>452.0</ele><time>2026-04-04T14:23:11.05Z</time></trkpt><trkpt lat="44.3015547" lon="8.2670337"><ele>453.0</ele><time>2026-04-04T14:23:12.049Z</time></trkpt><trkpt lat="44.3016364" lon="8.2670869"><ele>454.0</ele><time>2026-04-04T14:23:13.049Z</time></trkpt><trkpt lat="44.3017204" lon="8.2671376"><ele>455.0</ele><time>2026-04-04T14:23:14.049Z</time></trkpt><trkpt lat="44.3018106" lon="8.2671855"><ele>456.0</ele><time>2026-04-04T14:23:15.05Z</time></trkpt><trkpt lat="44.3019014" lon="8.2672304"><ele>456.0</ele><time>2026-04-04T14:23:16.049Z</time></trkpt><trkpt lat="44.3019968" lon="8.2672682"><ele>456.0</ele><time>2026-04-04T14:23:17.049Z</time></trkpt><trkpt lat="44.3020999" lon="8.2672985"><ele>456.0</ele><time>2026-04-04T14:23:18.049Z</time></trkpt><trkpt lat="44.3021961" lon="8.2673346"><ele>456.0</ele><time>2026-04-04T14:23:19.051Z</time></trkpt><trkpt lat="44.3022915" lon="8.2673536"><ele>456.0</ele><time>2026-04-04T14:23:20.05Z</time></trkpt><trkpt lat="44.3023945" lon="8.2673849"><ele>454.0</ele><time>2026-04-04T14:23:21.049Z</time></trkpt><trkpt lat="44.3024988" lon="8.2674093"><ele>452.0</ele><time>2026-04-04T14:23:22.051Z</time></trkpt><trkpt lat="44.3026011" lon="8.2674496"><ele>450.0</ele><time>2026-04-04T14:23:23.051Z</time></trkpt><trkpt lat="44.3027055" lon="8.2674976"><ele>448.0</ele><time>2026-04-04T14:23:24.05Z</time></trkpt><trkpt lat="44.3028129" lon="8.2675264"><ele>446.0</ele><time>2026-04-04T14:23:25.051Z</time></trkpt><trkpt lat="44.3029097" lon="8.2675529"><ele>446.0</ele><time>2026-04-04T14:23:26.05Z</time></trkpt><trkpt lat="44.3030123" lon="8.2675829"><ele>446.0</ele><time>2026-04-04T14:23:27.05Z</time></trkpt><trkpt lat="44.3031181" lon="8.2676106"><ele>446.0</ele><time>2026-04-04T14:23:28.051Z</time></trkpt><trkpt lat="44.3032149" lon="8.2676254"><ele>446.0</ele><time>2026-04-04T14:23:29.049Z</time></trkpt><trkpt lat="44.3033166" lon="8.2676468"><ele>446.0</ele><time>2026-04-04T14:23:30.051Z</time></trkpt><trkpt lat="44.303426" lon="8.2676757"><ele>447.4</ele><time>2026-04-04T14:23:31.05Z</time></trkpt><trkpt lat="44.3035244" lon="8.2677087"><ele>448.8</ele><time>2026-04-04T14:23:32.05Z</time></trkpt><trkpt lat="44.3036148" lon="8.2677481"><ele>450.19999999999993</ele><time>2026-04-04T14:23:33.05Z</time></trkpt><trkpt lat="44.3037126" lon="8.2678072"><ele>451.59999999999997</ele><time>2026-04-04T14:23:34.049Z</time></trkpt><trkpt lat="44.3038006" lon="8.2678835"><ele>453.0</ele><time>2026-04-04T14:23:35.052Z</time></trkpt><trkpt lat="44.3038715" lon="8.2679615"><ele>451.1666666666667</ele><time>2026-04-04T14:23:36.05Z</time></trkpt><trkpt lat="44.3039218" lon="8.2680692"><ele>449.33333333333337</ele><time>2026-04-04T14:23:37.049Z</time></trkpt><trkpt lat="44.303972" lon="8.2681643"><ele>447.5</ele><time>2026-04-04T14:23:38.05Z</time></trkpt><trkpt lat="44.30402" lon="8.2682671"><ele>445.6666666666667</ele><time>2026-04-04T14:23:39.05Z</time></trkpt><trkpt lat="44.3040687" lon="8.2683502"><ele>443.83333333333337</ele><time>2026-04-04T14:23:40.052Z</time></trkpt><trkpt lat="44.3041276" lon="8.2684314"><ele>442.0</ele><time>2026-04-04T14:23:41.05Z</time></trkpt><trkpt lat="44.3042072" lon="8.268496"><ele>442.00000000000006</ele><time>2026-04-04T14:23:42.051Z</time></trkpt><trkpt lat="44.3043241" lon="8.2684622"><ele>442.0</ele><time>2026-04-04T14:23:43.051Z</time></trkpt><trkpt lat="44.3043921" lon="8.2684589"><ele>442.0</ele><time>2026-04-04T14:23:44.05Z</time></trkpt><trkpt lat="44.304464" lon="8.2684669"><ele>442.0</ele><time>2026-04-04T14:23:45.05Z</time></trkpt><trkpt lat="44.304536" lon="8.2684801"><ele>442.00000000000006</ele><time>2026-04-04T14:23:46.052Z</time></trkpt><trkpt lat="44.3046019" lon="8.2684956"><ele>442.0</ele><time>2026-04-04T14:23:47.051Z</time></trkpt><trkpt lat="44.3046765" lon="8.2685038"><ele>441.7142857142857</ele><time>2026-04-04T14:23:48.05Z</time></trkpt><trkpt lat="44.3047536" lon="8.2685201"><ele>441.42857142857144</ele><time>2026-04-04T14:23:49.049Z</time></trkpt><trkpt lat="44.3048261" lon="8.2685345"><ele>441.1428571428571</ele><time>2026-04-04T14:23:50.05Z</time></trkpt><trkpt lat="44.3049087" lon="8.268533"><ele>440.8571428571429</ele><time>2026-04-04T14:23:51.049Z</time></trkpt><trkpt lat="44.304977" lon="8.2685447"><ele>440.57142857142856</ele><time>2026-04-04T14:23:52.05Z</time></trkpt><trkpt lat="44.30505" lon="8.2685623"><ele>440.2857142857143</ele><time>2026-04-04T14:23:53.05Z</time></trkpt><trkpt lat="44.3051219" lon="8.2685724"><ele>440.0</ele><time>2026-04-04T14:23:54.051Z</time></trkpt><trkpt lat="44.3052446" lon="8.2685864"><ele>439.99999999999994</ele><time>2026-04-04T14:23:56.05Z</time></trkpt><trkpt lat="44.3053124" lon="8.268572"><ele>440.0</ele><time>2026-04-04T14:23:57.05Z</time></trkpt><trkpt lat="44.3054269" lon="8.2685249"><ele>440.0</ele><time>2026-04-04T14:23:59.051Z</time></trkpt><trkpt lat="44.3054888" lon="8.2685002"><ele>440.0</ele><time>2026-04-04T14:24:00.051Z</time></trkpt><trkpt lat="44.3055523" lon="8.2684696"><ele>439.99999999999994</ele><time>2026-04-04T14:24:01.049Z</time></trkpt><trkpt lat="44.305616" lon="8.2684337"><ele>440.0</ele><time>2026-04-04T14:24:02.049Z</time></trkpt><trkpt lat="44.3056762" lon="8.2683968"><ele>439.8333333333333</ele><time>2026-04-04T14:24:03.05Z</time></trkpt><trkpt lat="44.3057501" lon="8.2683641"><ele>439.66666666666663</ele><time>2026-04-04T14:24:04.05Z</time></trkpt><trkpt lat="44.3058151" lon="8.2683211"><ele>439.5</ele><time>2026-04-04T14:24:05.049Z</time></trkpt><trkpt lat="44.3058689" lon="8.2682736"><ele>439.33333333333337</ele><time>2026-04-04T14:24:06.05Z</time></trkpt><trkpt lat="44.305982" lon="8.2682102"><ele>439.1666666666667</ele><time>2026-04-04T14:24:08.05Z</time></trkpt><trkpt lat="44.3060401" lon="8.2681677"><ele>439.0</ele><time>2026-04-04T14:24:09.05Z</time></trkpt><trkpt lat="44.3061083" lon="8.2681335"><ele>441.50000000000006</ele><time>2026-04-04T14:24:10.049Z</time></trkpt><trkpt lat="44.306213" lon="8.2680724"><ele>444.0</ele><time>2026-04-04T14:24:12.049Z</time></trkpt><trkpt lat="44.3062775" lon="8.2680384"><ele>446.5</ele><time>2026-04-04T14:24:13.05Z</time></trkpt><trkpt lat="44.306341" lon="8.2680091"><ele>449.0</ele><time>2026-04-04T14:24:14.05Z</time></trkpt><trkpt lat="44.3064052" lon="8.2679787"><ele>451.50000000000006</ele><time>2026-04-04T14:24:15.05Z</time></trkpt><trkpt lat="44.3065234" lon="8.2679461"><ele>454.0</ele><time>2026-04-04T14:24:17.051Z</time></trkpt><trkpt lat="44.3066411" lon="8.2679002"><ele>454.0</ele><time>2026-04-04T14:24:19.05Z</time></trkpt><trkpt lat="44.3067032" lon="8.2678796"><ele>454.0</ele><time>2026-04-04T14:24:20.05Z</time></trkpt><trkpt lat="44.3068378" lon="8.2678441"><ele>454.0</ele><time>2026-04-04T14:24:22.051Z</time></trkpt><trkpt lat="44.3069647" lon="8.2678222"><ele>454.0</ele><time>2026-04-04T14:24:24.05Z</time></trkpt><trkpt lat="44.30709" lon="8.2678082"><ele>454.0</ele><time>2026-04-04T14:24:26.049Z</time></trkpt><trkpt lat="44.3071532" lon="8.2678071"><ele>454.00000000000006</ele><time>2026-04-04T14:24:27.05Z</time></trkpt><trkpt lat="44.307225" lon="8.2677965"><ele>454.0</ele><time>2026-04-04T14:24:28.05Z</time></trkpt><trkpt lat="44.3072899" lon="8.2678014"><ele>454.0</ele><time>2026-04-04T14:24:29.05Z</time></trkpt><trkpt lat="44.3073613" lon="8.2678073"><ele>454.00000000000006</ele><time>2026-04-04T14:24:30.05Z</time></trkpt><trkpt lat="44.3074282" lon="8.2678325"><ele>454.0</ele><time>2026-04-04T14:24:31.051Z</time></trkpt><trkpt lat="44.3074969" lon="8.2678386"><ele>454.0</ele><time>2026-04-04T14:24:32.05Z</time></trkpt><trkpt lat="44.3075657" lon="8.2678502"><ele>454.1666666666667</ele><time>2026-04-04T14:24:33.051Z</time></trkpt><trkpt lat="44.3076368" lon="8.2678625"><ele>454.33333333333337</ele><time>2026-04-04T14:24:34.05Z</time></trkpt><trkpt lat="44.3077131" lon="8.2678756"><ele>454.5</ele><time>2026-04-04T14:24:35.05Z</time></trkpt><trkpt lat="44.3077833" lon="8.2678994"><ele>454.66666666666663</ele><time>2026-04-04T14:24:36.051Z</time></trkpt><trkpt lat="44.3078549" lon="8.2679407"><ele>454.8333333333333</ele><time>2026-04-04T14:24:37.049Z</time></trkpt><trkpt lat="44.3079327" lon="8.2679801"><ele>455.0</ele><time>2026-04-04T14:24:38.05Z</time></trkpt><trkpt lat="44.3080084" lon="8.268027"><ele>456.99999999999994</ele><time>2026-04-04T14:24:39.05Z</time></trkpt><trkpt lat="44.3080874" lon="8.2680751"><ele>459.0</ele><time>2026-04-04T14:24:40.05Z</time></trkpt><trkpt lat="44.3081588" lon="8.2681226"><ele>461.0</ele><time>2026-04-04T14:24:41.05Z</time></trkpt><trkpt lat="44.3082563" lon="8.2681628"><ele>463.0</ele><time>2026-04-04T14:24:42.05Z</time></trkpt><trkpt lat="44.3083344" lon="8.2681934"><ele>464.99999999999994</ele><time>2026-04-04T14:24:43.051Z</time></trkpt><trkpt lat="44.3084134" lon="8.2682245"><ele>467.0</ele><time>2026-04-04T14:24:44.05Z</time></trkpt><trkpt lat="44.308496" lon="8.2682287"><ele>462.49999999999994</ele><time>2026-04-04T14:24:45.051Z</time></trkpt><trkpt lat="44.3085831" lon="8.2682419"><ele>458.0</ele><time>2026-04-04T14:24:46.05Z</time></trkpt><trkpt lat="44.308651" lon="8.2682606"><ele>453.5</ele><time>2026-04-04T14:24:47.051Z</time></trkpt><trkpt lat="44.3087196" lon="8.268264"><ele>449.0</ele><time>2026-04-04T14:24:48.05Z</time></trkpt><trkpt lat="44.3088015" lon="8.2682694"><ele>444.49999999999994</ele><time>2026-04-04T14:24:49.05Z</time></trkpt><trkpt lat="44.3088671" lon="8.2682897"><ele>440.0</ele><time>2026-04-04T14:24:50.049Z</time></trkpt><trkpt lat="44.3089554" lon="8.2683068"><ele>439.99999999999994</ele><time>2026-04-04T14:24:51.05Z</time></trkpt><trkpt lat="44.3090341" lon="8.2683206"><ele>440.0</ele><time>2026-04-04T14:24:52.05Z</time></trkpt><trkpt lat="44.3091281" lon="8.268326"><ele>440.0</ele><time>2026-04-04T14:24:53.05Z</time></trkpt><trkpt lat="44.3091984" lon="8.2683393"><ele>440.0</ele><time>2026-04-04T14:24:54.05Z</time></trkpt><trkpt lat="44.3092692" lon="8.2683458"><ele>439.99999999999994</ele><time>2026-04-04T14:24:55.05Z</time></trkpt><trkpt lat="44.3093357" lon="8.2683482"><ele>440.0</ele><time>2026-04-04T14:24:56.051Z</time></trkpt><trkpt lat="44.3094041" lon="8.268362"><ele>440.0</ele><time>2026-04-04T14:24:57.049Z</time></trkpt><trkpt lat="44.3094677" lon="8.2683767"><ele>440.0</ele><time>2026-04-04T14:24:58.051Z</time></trkpt><trkpt lat="44.3095936" lon="8.2683991"><ele>440.0</ele><time>2026-04-04T14:25:00.049Z</time></trkpt><trkpt lat="44.3096564" lon="8.2684152"><ele>440.0</ele><time>2026-04-04T14:25:01.051Z</time></trkpt><trkpt lat="44.3097796" lon="8.2684279"><ele>440.0</ele><time>2026-04-04T14:25:03.05Z</time></trkpt><trkpt lat="44.3098816" lon="8.2684514"><ele>441.0</ele><time>2026-04-04T14:25:05.05Z</time></trkpt><trkpt lat="44.3099994" lon="8.2684604"><ele>442.0</ele><time>2026-04-04T14:25:07.049Z</time></trkpt><trkpt lat="44.3101219" lon="8.2684696"><ele>443.0</ele><time>2026-04-04T14:25:09.049Z</time></trkpt><trkpt lat="44.3101879" lon="8.2684765"><ele>444.0</ele><time>2026-04-04T14:25:10.049Z</time></trkpt><trkpt lat="44.3102568" lon="8.2684838"><ele>445.0</ele><time>2026-04-04T14:25:11.05Z</time></trkpt><trkpt lat="44.3103821" lon="8.2685002"><ele>445.0</ele><time>2026-04-04T14:25:13.05Z</time></trkpt><trkpt lat="44.3104506" lon="8.268509"><ele>445.0</ele><time>2026-04-04T14:25:14.05Z</time></trkpt><trkpt lat="44.3105748" lon="8.2685402"><ele>445.0</ele><time>2026-04-04T14:25:16.049Z</time></trkpt><trkpt lat="44.310704" lon="8.2685361"><ele>445.0</ele><time>2026-04-04T14:25:18.048Z</time></trkpt><trkpt lat="44.3107682" lon="8.2685465"><ele>445.0</ele><time>2026-04-04T14:25:19.049Z</time></trkpt><trkpt lat="44.3108917" lon="8.2685962"><ele>444.2</ele><time>2026-04-04T14:25:21.05Z</time></trkpt><trkpt lat="44.3109556" lon="8.2686109"><ele>443.4</ele><time>2026-04-04T14:25:22.049Z</time></trkpt><trkpt lat="44.3110179" lon="8.2686289"><ele>442.6</ele><time>2026-04-04T14:25:23.051Z</time></trkpt><trkpt lat="44.3111341" lon="8.2686596"><ele>441.8</ele><time>2026-04-04T14:25:25.049Z</time></trkpt><trkpt lat="44.3112041" lon="8.2686684"><ele>441.0</ele><time>2026-04-04T14:25:26.051Z</time></trkpt><trkpt lat="44.3113381" lon="8.2686879"><ele>441.0</ele><time>2026-04-04T14:25:28.05Z</time></trkpt><trkpt lat="44.3114066" lon="8.2686998"><ele>441.0</ele><time>2026-04-04T14:25:29.05Z</time></trkpt><trkpt lat="44.3114758" lon="8.2687062"><ele>441.0</ele><time>2026-04-04T14:25:30.048Z</time></trkpt><trkpt lat="44.3115435" lon="8.2687037"><ele>441.0</ele><time>2026-04-04T14:25:31.051Z</time></trkpt><trkpt lat="44.3116155" lon="8.2687112"><ele>441.0</ele><time>2026-04-04T14:25:32.049Z</time></trkpt><trkpt lat="44.3116924" lon="8.2687217"><ele>441.0</ele><time>2026-04-04T14:25:33.049Z</time></trkpt><trkpt lat="44.3117608" lon="8.2687204"><ele>441.0</ele><time>2026-04-04T14:25:34.05Z</time></trkpt><trkpt lat="44.3118283" lon="8.2687246"><ele>440.57142857142856</ele><time>2026-04-04T14:25:35.049Z</time></trkpt><trkpt lat="44.3119067" lon="8.2687301"><ele>440.1428571428571</ele><time>2026-04-04T14:25:36.049Z</time></trkpt><trkpt lat="44.3119697" lon="8.2687326"><ele>439.7142857142857</ele><time>2026-04-04T14:25:37.049Z</time></trkpt><trkpt lat="44.3120381" lon="8.2687246"><ele>439.2857142857143</ele><time>2026-04-04T14:25:38.05Z</time></trkpt><trkpt lat="44.3121126" lon="8.2687218"><ele>438.85714285714283</ele><time>2026-04-04T14:25:39.05Z</time></trkpt><trkpt lat="44.3121899" lon="8.2687151"><ele>438.42857142857144</ele><time>2026-04-04T14:25:40.049Z</time></trkpt><trkpt lat="44.3122581" lon="8.2687063"><ele>438.0</ele><time>2026-04-04T14:25:41.049Z</time></trkpt><trkpt lat="44.3123805" lon="8.2687041"><ele>439.2857142857143</ele><time>2026-04-04T14:25:43.05Z</time></trkpt><trkpt lat="44.3124533" lon="8.2686923"><ele>440.57142857142856</ele><time>2026-04-04T14:25:44.05Z</time></trkpt><trkpt lat="44.3125256" lon="8.2687001"><ele>441.85714285714283</ele><time>2026-04-04T14:25:45.049Z</time></trkpt><trkpt lat="44.312592" lon="8.2686942"><ele>443.1428571428571</ele><time>2026-04-04T14:25:46.049Z</time></trkpt><trkpt lat="44.3126615" lon="8.2687056"><ele>444.42857142857144</ele><time>2026-04-04T14:25:47.05Z</time></trkpt><trkpt lat="44.3127336" lon="8.2687111"><ele>445.71428571428567</ele><time>2026-04-04T14:25:48.049Z</time></trkpt><trkpt lat="44.3128013" lon="8.2687159"><ele>447.0</ele><time>2026-04-04T14:25:49.05Z</time></trkpt><trkpt lat="44.3128667" lon="8.2687173"><ele>447.0</ele><time>2026-04-04T14:25:50.05Z</time></trkpt><trkpt lat="44.3129343" lon="8.2687192"><ele>447.00000000000006</ele><time>2026-04-04T14:25:51.051Z</time></trkpt><trkpt lat="44.3129994" lon="8.2687268"><ele>447.00000000000006</ele><time>2026-04-04T14:25:52.049Z</time></trkpt><trkpt lat="44.313125" lon="8.2687695"><ele>447.0</ele><time>2026-04-04T14:25:54.049Z</time></trkpt><trkpt lat="44.3132428" lon="8.2687908"><ele>447.0</ele><time>2026-04-04T14:25:56.05Z</time></trkpt><trkpt lat="44.3133526" lon="8.2687987"><ele>448.8</ele><time>2026-04-04T14:25:58.05Z</time></trkpt><trkpt lat="44.3134611" lon="8.2688136"><ele>450.6</ele><time>2026-04-04T14:26:00.05Z</time></trkpt><trkpt lat="44.3135771" lon="8.2688259"><ele>452.40000000000003</ele><time>2026-04-04T14:26:02.049Z</time></trkpt><trkpt lat="44.3136501" lon="8.2688215"><ele>454.20000000000005</ele><time>2026-04-04T14:26:03.051Z</time></trkpt><trkpt lat="44.3137196" lon="8.2688309"><ele>456.0</ele><time>2026-04-04T14:26:04.05Z</time></trkpt><trkpt lat="44.313804" lon="8.2688233"><ele>456.0</ele><time>2026-04-04T14:26:05.05Z</time></trkpt><trkpt lat="44.3138764" lon="8.2688127"><ele>456.0</ele><time>2026-04-04T14:26:06.05Z</time></trkpt><trkpt lat="44.3139812" lon="8.2687875"><ele>456.0</ele><time>2026-04-04T14:26:08.049Z</time></trkpt><trkpt lat="44.3140484" lon="8.2687602"><ele>456.0</ele><time>2026-04-04T14:26:09.048Z</time></trkpt><trkpt lat="44.3141668" lon="8.2687192"><ele>456.0</ele><time>2026-04-04T14:26:11.049Z</time></trkpt><trkpt lat="44.3142352" lon="8.2687043"><ele>456.0</ele><time>2026-04-04T14:26:12.05Z</time></trkpt><trkpt lat="44.3143026" lon="8.2686728"><ele>454.5</ele><time>2026-04-04T14:26:13.05Z</time></trkpt><trkpt lat="44.3143723" lon="8.2686606"><ele>453.0</ele><time>2026-04-04T14:26:14.05Z</time></trkpt><trkpt lat="44.3144416" lon="8.2686392"><ele>451.5</ele><time>2026-04-04T14:26:15.05Z</time></trkpt><trkpt lat="44.3145089" lon="8.2686141"><ele>450.0</ele><time>2026-04-04T14:26:16.049Z</time></trkpt><trkpt lat="44.3145785" lon="8.2685983"><ele>448.5</ele><time>2026-04-04T14:26:17.05Z</time></trkpt><trkpt lat="44.3146475" lon="8.2685698"><ele>447.0</ele><time>2026-04-04T14:26:18.05Z</time></trkpt><trkpt lat="44.314767" lon="8.2685117"><ele>444.1666666666667</ele><time>2026-04-04T14:26:20.05Z</time></trkpt><trkpt lat="44.3148299" lon="8.2684732"><ele>441.33333333333337</ele><time>2026-04-04T14:26:21.05Z</time></trkpt><trkpt lat="44.314889" lon="8.2684368"><ele>438.5</ele><time>2026-04-04T14:26:22.049Z</time></trkpt><trkpt lat="44.3149484" lon="8.2683938"><ele>435.6666666666667</ele><time>2026-04-04T14:26:23.049Z</time></trkpt><trkpt lat="44.3150052" lon="8.2683552"><ele>432.83333333333337</ele><time>2026-04-04T14:26:24.05Z</time></trkpt><trkpt lat="44.3150586" lon="8.2682868"><ele>430.0</ele><time>2026-04-04T14:26:25.05Z</time></trkpt><trkpt lat="44.3151561" lon="8.2681794"><ele>437.5</ele><time>2026-04-04T14:26:27.05Z</time></trkpt><trkpt lat="44.3152389" lon="8.2680787"><ele>445.0</ele><time>2026-04-04T14:26:29.05Z</time></trkpt><trkpt lat="44.3153237" lon="8.267965"><ele>452.5</ele><time>2026-04-04T14:26:31.049Z</time></trkpt><trkpt lat="44.3154431" lon="8.2678437"><ele>460.0</ele><time>2026-04-04T14:26:33.049Z</time></trkpt><trkpt lat="44.3155468" lon="8.2677631"><ele>453.2</ele><time>2026-04-04T14:26:35.05Z</time></trkpt><trkpt lat="44.3156417" lon="8.2676948"><ele>446.4</ele><time>2026-04-04T14:26:37.049Z</time></trkpt><trkpt lat="44.3157367" lon="8.2676334"><ele>439.6</ele><time>2026-04-04T14:26:39.048Z</time></trkpt><trkpt lat="44.3158372" lon="8.2675877"><ele>432.8</ele><time>2026-04-04T14:26:41.05Z</time></trkpt><trkpt lat="44.3159268" lon="8.2675406"><ele>426.0</ele><time>2026-04-04T14:26:43.051Z</time></trkpt><trkpt lat="44.3160302" lon="8.2675025"><ele>426.0</ele><time>2026-04-04T14:26:45.05Z</time></trkpt><trkpt lat="44.3161328" lon="8.2674607"><ele>426.0</ele><time>2026-04-04T14:26:47.05Z</time></trkpt><trkpt lat="44.3162353" lon="8.2674318"><ele>426.0</ele><time>2026-04-04T14:26:49.049Z</time></trkpt><trkpt lat="44.3163413" lon="8.2673943"><ele>426.0</ele><time>2026-04-04T14:26:51.05Z</time></trkpt><trkpt lat="44.3164498" lon="8.2673527"><ele>426.0</ele><time>2026-04-04T14:26:53.049Z</time></trkpt><trkpt lat="44.3165682" lon="8.2673279"><ele>426.0</ele><time>2026-04-04T14:26:55.05Z</time></trkpt><trkpt lat="44.3166906" lon="8.2673083"><ele>426.0</ele><time>2026-04-04T14:26:57.049Z</time></trkpt><trkpt lat="44.3167537" lon="8.2672933"><ele>426.0</ele><time>2026-04-04T14:26:58.05Z</time></trkpt><trkpt lat="44.316817" lon="8.2672697"><ele>426.0</ele><time>2026-04-04T14:26:59.05Z</time></trkpt><trkpt lat="44.316884" lon="8.267252"><ele>426.0</ele><time>2026-04-04T14:27:00.051Z</time></trkpt><trkpt lat="44.3169444" lon="8.2672226"><ele>426.0</ele><time>2026-04-04T14:27:01.049Z</time></trkpt><trkpt lat="44.3170086" lon="8.2672107"><ele>425.99999999999994</ele><time>2026-04-04T14:27:02.051Z</time></trkpt><trkpt lat="44.3170762" lon="8.2671866"><ele>426.0</ele><time>2026-04-04T14:27:03.049Z</time></trkpt><trkpt lat="44.3171488" lon="8.2671709"><ele>426.0</ele><time>2026-04-04T14:27:04.049Z</time></trkpt><trkpt lat="44.3172188" lon="8.2671484"><ele>426.0</ele><time>2026-04-04T14:27:05.049Z</time></trkpt><trkpt lat="44.3172861" lon="8.2671154"><ele>426.0</ele><time>2026-04-04T14:27:06.05Z</time></trkpt><trkpt lat="44.3173574" lon="8.2670974"><ele>425.99999999999994</ele><time>2026-04-04T14:27:07.05Z</time></trkpt><trkpt lat="44.3174277" lon="8.2670768"><ele>426.0</ele><time>2026-04-04T14:27:08.05Z</time></trkpt><trkpt lat="44.3175004" lon="8.2670525"><ele>425.99999999999994</ele><time>2026-04-04T14:27:09.05Z</time></trkpt><trkpt lat="44.3175736" lon="8.2670279"><ele>426.0</ele><time>2026-04-04T14:27:10.049Z</time></trkpt><trkpt lat="44.317649" lon="8.2670153"><ele>426.0</ele><time>2026-04-04T14:27:11.049Z</time></trkpt><trkpt lat="44.3177243" lon="8.266999"><ele>426.0</ele><time>2026-04-04T14:27:12.051Z</time></trkpt><trkpt lat="44.3177975" lon="8.2669839"><ele>426.0</ele><time>2026-04-04T14:27:13.049Z</time></trkpt><trkpt lat="44.3178684" lon="8.266973"><ele>425.99999999999994</ele><time>2026-04-04T14:27:14.049Z</time></trkpt><trkpt lat="44.3179388" lon="8.2669669"><ele>426.0</ele><time>2026-04-04T14:27:15.05Z</time></trkpt><trkpt lat="44.3180153" lon="8.2669678"><ele>426.2857142857143</ele><time>2026-04-04T14:27:16.049Z</time></trkpt><trkpt lat="44.3180903" lon="8.266976"><ele>426.57142857142856</ele><time>2026-04-04T14:27:17.05Z</time></trkpt><trkpt lat="44.3181619" lon="8.2669847"><ele>426.8571428571429</ele><time>2026-04-04T14:27:18.05Z</time></trkpt><trkpt lat="44.3182327" lon="8.2669977"><ele>427.1428571428571</ele><time>2026-04-04T14:27:19.049Z</time></trkpt><trkpt lat="44.3183063" lon="8.2670164"><ele>427.42857142857144</ele><time>2026-04-04T14:27:20.049Z</time></trkpt><trkpt lat="44.3183793" lon="8.2670265"><ele>427.7142857142857</ele><time>2026-04-04T14:27:21.051Z</time></trkpt><trkpt lat="44.318454" lon="8.2670484"><ele>428.0</ele><time>2026-04-04T14:27:22.049Z</time></trkpt><trkpt lat="44.3185275" lon="8.2670589"><ele>428.00000000000006</ele><time>2026-04-04T14:27:23.049Z</time></trkpt><trkpt lat="44.3186026" lon="8.2670649"><ele>428.0</ele><time>2026-04-04T14:27:24.05Z</time></trkpt><trkpt lat="44.3186742" lon="8.2670783"><ele>428.0</ele><time>2026-04-04T14:27:25.05Z</time></trkpt><trkpt lat="44.3187417" lon="8.2670983"><ele>428.0</ele><time>2026-04-04T14:27:26.049Z</time></trkpt><trkpt lat="44.3188174" lon="8.2670998"><ele>428.0</ele><time>2026-04-04T14:27:27.05Z</time></trkpt><trkpt lat="44.318888" lon="8.2671133"><ele>428.00000000000006</ele><time>2026-04-04T14:27:28.049Z</time></trkpt><trkpt lat="44.318966" lon="8.2671246"><ele>428.0</ele><time>2026-04-04T14:27:29.05Z</time></trkpt><trkpt lat="44.3190403" lon="8.2671429"><ele>426.7142857142857</ele><time>2026-04-04T14:27:30.049Z</time></trkpt><trkpt lat="44.3191177" lon="8.2671512"><ele>425.42857142857144</ele><time>2026-04-04T14:27:31.051Z</time></trkpt><trkpt lat="44.3191818" lon="8.2671738"><ele>424.1428571428571</ele><time>2026-04-04T14:27:32.05Z</time></trkpt><trkpt lat="44.3192515" lon="8.2672012"><ele>422.8571428571429</ele><time>2026-04-04T14:27:33.049Z</time></trkpt><trkpt lat="44.3193116" lon="8.2672384"><ele>421.57142857142856</ele><time>2026-04-04T14:27:34.05Z</time></trkpt><trkpt lat="44.3193842" lon="8.2672698"><ele>420.2857142857143</ele><time>2026-04-04T14:27:35.05Z</time></trkpt><trkpt lat="44.3194566" lon="8.2673306"><ele>419.0</ele><time>2026-04-04T14:27:36.051Z</time></trkpt><trkpt lat="44.3195067" lon="8.2673881"><ele>418.99999999999994</ele><time>2026-04-04T14:27:37.05Z</time></trkpt><trkpt lat="44.3195685" lon="8.267434"><ele>419.0</ele><time>2026-04-04T14:27:38.05Z</time></trkpt><trkpt lat="44.3196781" lon="8.2675306"><ele>419.0</ele><time>2026-04-04T14:27:40.051Z</time></trkpt><trkpt lat="44.3197318" lon="8.2675867"><ele>419.0</ele><time>2026-04-04T14:27:41.05Z</time></trkpt><trkpt lat="44.3197857" lon="8.267657"><ele>418.99999999999994</ele><time>2026-04-04T14:27:42.049Z</time></trkpt><trkpt lat="44.3198413" lon="8.2677219"><ele>419.0</ele><time>2026-04-04T14:27:43.049Z</time></trkpt><trkpt lat="44.3199021" lon="8.2677761"><ele>418.4285714285714</ele><time>2026-04-04T14:27:44.049Z</time></trkpt><trkpt lat="44.3199666" lon="8.2678443"><ele>417.85714285714283</ele><time>2026-04-04T14:27:45.05Z</time></trkpt><trkpt lat="44.320008" lon="8.267916"><ele>417.2857142857143</ele><time>2026-04-04T14:27:46.049Z</time></trkpt><trkpt lat="44.3200558" lon="8.2679807"><ele>416.71428571428567</ele><time>2026-04-04T14:27:47.049Z</time></trkpt><trkpt lat="44.3201126" lon="8.2680461"><ele>416.14285714285717</ele><time>2026-04-04T14:27:48.051Z</time></trkpt><trkpt lat="44.320167" lon="8.2681114"><ele>415.57142857142856</ele><time>2026-04-04T14:27:49.051Z</time></trkpt><trkpt lat="44.3202164" lon="8.2681737"><ele>415.0</ele><time>2026-04-04T14:27:50.049Z</time></trkpt><trkpt lat="44.3202707" lon="8.2682515"><ele>415.00000000000006</ele><time>2026-04-04T14:27:51.049Z</time></trkpt><trkpt lat="44.3203164" lon="8.2683146"><ele>415.0</ele><time>2026-04-04T14:27:52.051Z</time></trkpt><trkpt lat="44.3203793" lon="8.2684055"><ele>415.0</ele><time>2026-04-04T14:27:53.049Z</time></trkpt><trkpt lat="44.3204771" lon="8.2685473"><ele>415.0</ele><time>2026-04-04T14:27:55.048Z</time></trkpt><trkpt lat="44.3205318" lon="8.2686187"><ele>415.00000000000006</ele><time>2026-04-04T14:27:56.05Z</time></trkpt><trkpt lat="44.3205826" lon="8.268673"><ele>415.0</ele><time>2026-04-04T14:27:57.05Z</time></trkpt><trkpt lat="44.3206726" lon="8.268808"><ele>415.2</ele><time>2026-04-04T14:27:59.05Z</time></trkpt><trkpt lat="44.3207315" lon="8.2688719"><ele>415.4</ele><time>2026-04-04T14:28:00.049Z</time></trkpt><trkpt lat="44.3208125" lon="8.2689528"><ele>415.6</ele><time>2026-04-04T14:28:02.05Z</time></trkpt><trkpt lat="44.3209061" lon="8.269078"><ele>415.8</ele><time>2026-04-04T14:28:04.05Z</time></trkpt><trkpt lat="44.3209957" lon="8.2691913"><ele>416.0</ele><time>2026-04-04T14:28:06.048Z</time></trkpt><trkpt lat="44.3210821" lon="8.2693212"><ele>416.0</ele><time>2026-04-04T14:28:08.049Z</time></trkpt><trkpt lat="44.3211627" lon="8.2694304"><ele>416.0</ele><time>2026-04-04T14:28:10.051Z</time></trkpt><trkpt lat="44.3212502" lon="8.2695597"><ele>416.0</ele><time>2026-04-04T14:28:12.05Z</time></trkpt><trkpt lat="44.3213325" lon="8.269671"><ele>416.0</ele><time>2026-04-04T14:28:14.051Z</time></trkpt><trkpt lat="44.321433" lon="8.2697748"><ele>416.20000000000005</ele><time>2026-04-04T14:28:16.05Z</time></trkpt><trkpt lat="44.3215454" lon="8.2698386"><ele>416.40000000000003</ele><time>2026-04-04T14:28:18.049Z</time></trkpt><trkpt lat="44.3216176" lon="8.2698699"><ele>416.6</ele><time>2026-04-04T14:28:20.049Z</time></trkpt><trkpt lat="44.3217314" lon="8.2699022"><ele>416.8</ele><time>2026-04-04T14:28:22.049Z</time></trkpt><trkpt lat="44.3218301" lon="8.2699145"><ele>417.0</ele><time>2026-04-04T14:28:24.051Z</time></trkpt><trkpt lat="44.3219466" lon="8.2699307"><ele>417.0</ele><time>2026-04-04T14:28:26.05Z</time></trkpt><trkpt lat="44.3220623" lon="8.2699634"><ele>417.0</ele><time>2026-04-04T14:28:28.049Z</time></trkpt><trkpt lat="44.3221778" lon="8.2699934"><ele>417.0</ele><time>2026-04-04T14:28:30.05Z</time></trkpt><trkpt lat="44.3223174" lon="8.2700154"><ele>417.0</ele><time>2026-04-04T14:28:32.049Z</time></trkpt><trkpt lat="44.3224167" lon="8.2700397"><ele>417.0</ele><time>2026-04-04T14:28:34.049Z</time></trkpt><trkpt lat="44.3225308" lon="8.2700805"><ele>417.0</ele><time>2026-04-04T14:28:36.048Z</time></trkpt><trkpt lat="44.322652" lon="8.2701034"><ele>417.0</ele><time>2026-04-04T14:28:38.049Z</time></trkpt><trkpt lat="44.3227159" lon="8.270106"><ele>417.0</ele><time>2026-04-04T14:28:39.05Z</time></trkpt><trkpt lat="44.3228111" lon="8.2701431"><ele>417.0</ele><time>2026-04-04T14:28:41.051Z</time></trkpt><trkpt lat="44.3229024" lon="8.2701949"><ele>417.0</ele><time>2026-04-04T14:28:43.049Z</time></trkpt><trkpt lat="44.3230125" lon="8.2702717"><ele>417.0</ele><time>2026-04-04T14:28:45.049Z</time></trkpt><trkpt lat="44.3231087" lon="8.2703607"><ele>417.0</ele><time>2026-04-04T14:28:47.049Z</time></trkpt><trkpt lat="44.3232151" lon="8.2704668"><ele>417.0</ele><time>2026-04-04T14:28:49.05Z</time></trkpt><trkpt lat="44.3233008" lon="8.2705594"><ele>416.0</ele><time>2026-04-04T14:28:51.05Z</time></trkpt><trkpt lat="44.3233781" lon="8.270652"><ele>415.0</ele><time>2026-04-04T14:28:53.05Z</time></trkpt><trkpt lat="44.3234686" lon="8.2707424"><ele>414.0</ele><time>2026-04-04T14:28:55.048Z</time></trkpt><trkpt lat="44.3235523" lon="8.270828"><ele>413.0</ele><time>2026-04-04T14:28:57.049Z</time></trkpt><trkpt lat="44.3236531" lon="8.2708987"><ele>412.0</ele><time>2026-04-04T14:28:59.048Z</time></trkpt><trkpt lat="44.3237555" lon="8.2709687"><ele>412.0</ele><time>2026-04-04T14:29:01.051Z</time></trkpt><trkpt lat="44.323856" lon="8.271044"><ele>412.0</ele><time>2026-04-04T14:29:03.05Z</time></trkpt><trkpt lat="44.3239635" lon="8.2711018"><ele>412.0</ele><time>2026-04-04T14:29:05.048Z</time></trkpt><trkpt lat="44.3240286" lon="8.2711262"><ele>412.0</ele><time>2026-04-04T14:29:06.048Z</time></trkpt><trkpt lat="44.3241399" lon="8.271188"><ele>412.0</ele><time>2026-04-04T14:29:08.052Z</time></trkpt><trkpt lat="44.3242095" lon="8.2712247"><ele>411.6666666666667</ele><time>2026-04-04T14:29:09.049Z</time></trkpt><trkpt lat="44.3242678" lon="8.271258"><ele>411.33333333333337</ele><time>2026-04-04T14:29:10.05Z</time></trkpt><trkpt lat="44.3243395" lon="8.2713043"><ele>411.0</ele><time>2026-04-04T14:29:11.049Z</time></trkpt><trkpt lat="44.3243993" lon="8.2713361"><ele>410.66666666666663</ele><time>2026-04-04T14:29:12.05Z</time></trkpt><trkpt lat="44.3245318" lon="8.2713836"><ele>410.3333333333333</ele><time>2026-04-04T14:29:14.05Z</time></trkpt><trkpt lat="44.3245905" lon="8.2714232"><ele>410.0</ele><time>2026-04-04T14:29:15.049Z</time></trkpt><trkpt lat="44.3247077" lon="8.2715018"><ele>410.66666666666663</ele><time>2026-04-04T14:29:17.05Z</time></trkpt><trkpt lat="44.3247637" lon="8.2715546"><ele>411.3333333333333</ele><time>2026-04-04T14:29:18.051Z</time></trkpt><trkpt lat="44.3248666" lon="8.271669"><ele>412.0</ele><time>2026-04-04T14:29:20.049Z</time></trkpt><trkpt lat="44.3249222" lon="8.2717237"><ele>412.66666666666663</ele><time>2026-04-04T14:29:21.049Z</time></trkpt><trkpt lat="44.3249744" lon="8.2717741"><ele>413.3333333333333</ele><time>2026-04-04T14:29:22.049Z</time></trkpt><trkpt lat="44.3250185" lon="8.2718388"><ele>414.0</ele><time>2026-04-04T14:29:23.049Z</time></trkpt><trkpt lat="44.3250788" lon="8.2719077"><ele>414.0</ele><time>2026-04-04T14:29:24.049Z</time></trkpt><trkpt lat="44.3251334" lon="8.2719737"><ele>414.0</ele><time>2026-04-04T14:29:25.049Z</time></trkpt><trkpt lat="44.3251869" lon="8.2720328"><ele>414.0</ele><time>2026-04-04T14:29:26.05Z</time></trkpt><trkpt lat="44.3252712" lon="8.2721065"><ele>414.0</ele><time>2026-04-04T14:29:27.05Z</time></trkpt><trkpt lat="44.3253417" lon="8.2721831"><ele>414.0</ele><time>2026-04-04T14:29:28.051Z</time></trkpt><trkpt lat="44.3254067" lon="8.2722516"><ele>414.0</ele><time>2026-04-04T14:29:29.049Z</time></trkpt><trkpt lat="44.3254691" lon="8.2723287"><ele>413.25</ele><time>2026-04-04T14:29:30.051Z</time></trkpt><trkpt lat="44.3256297" lon="8.272462"><ele>412.5</ele><time>2026-04-04T14:29:32.051Z</time></trkpt><trkpt lat="44.3257085" lon="8.2725646"><ele>411.75</ele><time>2026-04-04T14:29:33.05Z</time></trkpt><trkpt lat="44.3257795" lon="8.2726779"><ele>411.0</ele><time>2026-04-04T14:29:34.049Z</time></trkpt><trkpt lat="44.3258297" lon="8.2727737"><ele>411.0</ele><time>2026-04-04T14:29:35.05Z</time></trkpt><trkpt lat="44.3258786" lon="8.2728691"><ele>411.0</ele><time>2026-04-04T14:29:36.049Z</time></trkpt><trkpt lat="44.3259099" lon="8.2729593"><ele>411.0</ele><time>2026-04-04T14:29:37.049Z</time></trkpt><trkpt lat="44.3259503" lon="8.27305"><ele>411.0</ele><time>2026-04-04T14:29:38.048Z</time></trkpt><trkpt lat="44.3260086" lon="8.2731206"><ele>411.0</ele><time>2026-04-04T14:29:39.049Z</time></trkpt><trkpt lat="44.3260845" lon="8.2731646"><ele>411.0</ele><time>2026-04-04T14:29:40.049Z</time></trkpt><trkpt lat="44.3261617" lon="8.2732006"><ele>409.8333333333333</ele><time>2026-04-04T14:29:41.049Z</time></trkpt><trkpt lat="44.3262303" lon="8.2732351"><ele>408.66666666666663</ele><time>2026-04-04T14:29:42.05Z</time></trkpt><trkpt lat="44.3262935" lon="8.2732715"><ele>407.5</ele><time>2026-04-04T14:29:43.05Z</time></trkpt><trkpt lat="44.3263704" lon="8.2732887"><ele>406.3333333333333</ele><time>2026-04-04T14:29:44.048Z</time></trkpt><trkpt lat="44.3264326" lon="8.2733302"><ele>405.16666666666663</ele><time>2026-04-04T14:29:45.05Z</time></trkpt><trkpt lat="44.326494" lon="8.2733541"><ele>404.0</ele><time>2026-04-04T14:29:46.05Z</time></trkpt><trkpt lat="44.3266022" lon="8.2734055"><ele>403.99999999999994</ele><time>2026-04-04T14:29:48.049Z</time></trkpt><trkpt lat="44.3266621" lon="8.2734352"><ele>404.0</ele><time>2026-04-04T14:29:49.05Z</time></trkpt><trkpt lat="44.3267312" lon="8.2735203"><ele>404.0</ele><time>2026-04-04T14:29:51.05Z</time></trkpt><trkpt lat="44.3267755" lon="8.2736049"><ele>404.0</ele><time>2026-04-04T14:29:53.049Z</time></trkpt><trkpt lat="44.3268245" lon="8.2736755"><ele>403.99999999999994</ele><time>2026-04-04T14:29:57.049Z</time></trkpt><trkpt lat="44.3268709" lon="8.2737562"><ele>404.0</ele><time>2026-04-04T14:30:00.05Z</time></trkpt><trkpt lat="44.3269348" lon="8.2738408"><ele>404.0</ele><time>2026-04-04T14:30:03.05Z</time></trkpt><trkpt lat="44.3269822" lon="8.2739207"><ele>404.0</ele><time>2026-04-04T14:30:05.05Z</time></trkpt><trkpt lat="44.3270267" lon="8.2740279"><ele>404.0</ele><time>2026-04-04T14:30:07.048Z</time></trkpt><trkpt lat="44.3270894" lon="8.2741663"><ele>404.0</ele><time>2026-04-04T14:30:09.048Z</time></trkpt><trkpt lat="44.3271182" lon="8.2742471"><ele>404.0</ele><time>2026-04-04T14:30:10.05Z</time></trkpt><trkpt lat="44.3271656" lon="8.2744107"><ele>403.66666666666663</ele><time>2026-04-04T14:30:12.049Z</time></trkpt><trkpt lat="44.3271861" lon="8.2745024"><ele>403.3333333333333</ele><time>2026-04-04T14:30:13.048Z</time></trkpt><trkpt lat="44.327206" lon="8.2746014"><ele>403.0</ele><time>2026-04-04T14:30:14.049Z</time></trkpt><trkpt lat="44.3272336" lon="8.2747023"><ele>402.66666666666663</ele><time>2026-04-04T14:30:15.048Z</time></trkpt><trkpt lat="44.3272535" lon="8.2748038"><ele>402.3333333333333</ele><time>2026-04-04T14:30:16.049Z</time></trkpt><trkpt lat="44.3272766" lon="8.2749056"><ele>402.0</ele><time>2026-04-04T14:30:17.048Z</time></trkpt><trkpt lat="44.3272962" lon="8.2750185"><ele>402.8333333333333</ele><time>2026-04-04T14:30:18.048Z</time></trkpt><trkpt lat="44.3273128" lon="8.2751109"><ele>403.66666666666663</ele><time>2026-04-04T14:30:19.049Z</time></trkpt><trkpt lat="44.3273344" lon="8.2752102"><ele>404.5</ele><time>2026-04-04T14:30:20.049Z</time></trkpt><trkpt lat="44.3273653" lon="8.2753501"><ele>405.3333333333333</ele><time>2026-04-04T14:30:22.049Z</time></trkpt><trkpt lat="44.3274006" lon="8.2755144"><ele>406.16666666666663</ele><time>2026-04-04T14:30:24.049Z</time></trkpt><trkpt lat="44.3274253" lon="8.275596"><ele>407.0</ele><time>2026-04-04T14:30:25.049Z</time></trkpt><trkpt lat="44.3274579" lon="8.2757452"><ele>407.0</ele><time>2026-04-04T14:30:27.05Z</time></trkpt><trkpt lat="44.3275179" lon="8.2759049"><ele>407.0</ele><time>2026-04-04T14:30:29.051Z</time></trkpt><trkpt lat="44.3275857" lon="8.2760566"><ele>407.0</ele><time>2026-04-04T14:30:31.05Z</time></trkpt><trkpt lat="44.3276201" lon="8.2761359"><ele>407.0</ele><time>2026-04-04T14:30:32.049Z</time></trkpt><trkpt lat="44.3276793" lon="8.2762939"><ele>407.0</ele><time>2026-04-04T14:30:34.048Z</time></trkpt><trkpt lat="44.3277132" lon="8.2763687"><ele>407.0</ele><time>2026-04-04T14:30:35.051Z</time></trkpt><trkpt lat="44.3277838" lon="8.2765144"><ele>407.0</ele><time>2026-04-04T14:30:37.049Z</time></trkpt><trkpt lat="44.3278266" lon="8.2766492"><ele>407.0</ele><time>2026-04-04T14:30:39.049Z</time></trkpt><trkpt lat="44.3278875" lon="8.2767896"><ele>407.0</ele><time>2026-04-04T14:30:41.049Z</time></trkpt><trkpt lat="44.3279424" lon="8.2768658"><ele>406.0</ele><time>2026-04-04T14:30:42.049Z</time></trkpt><trkpt lat="44.3280054" lon="8.2770117"><ele>405.0</ele><time>2026-04-04T14:30:44.051Z</time></trkpt><trkpt lat="44.328059" lon="8.2771626"><ele>404.0</ele><time>2026-04-04T14:30:46.05Z</time></trkpt><trkpt lat="44.3281268" lon="8.2772955"><ele>403.0</ele><time>2026-04-04T14:30:48.049Z</time></trkpt><trkpt lat="44.3281877" lon="8.2774402"><ele>403.0</ele><time>2026-04-04T14:30:50.051Z</time></trkpt><trkpt lat="44.3282132" lon="8.2775236"><ele>403.0</ele><time>2026-04-04T14:30:51.049Z</time></trkpt><trkpt lat="44.3282684" lon="8.2776687"><ele>403.0</ele><time>2026-04-04T14:30:53.049Z</time></trkpt><trkpt lat="44.3283432" lon="8.2778002"><ele>403.0</ele><time>2026-04-04T14:30:55.048Z</time></trkpt><trkpt lat="44.3284454" lon="8.2779316"><ele>403.0</ele><time>2026-04-04T14:30:57.049Z</time></trkpt><trkpt lat="44.3284981" lon="8.27799"><ele>403.0</ele><time>2026-04-04T14:30:58.05Z</time></trkpt><trkpt lat="44.3285839" lon="8.2780985"><ele>403.0</ele><time>2026-04-04T14:31:00.048Z</time></trkpt><trkpt lat="44.328657" lon="8.2782197"><ele>403.0</ele><time>2026-04-04T14:31:02.049Z</time></trkpt><trkpt lat="44.3287346" lon="8.2783468"><ele>403.0</ele><time>2026-04-04T14:31:04.05Z</time></trkpt><trkpt lat="44.3288053" lon="8.2784642"><ele>403.50000000000006</ele><time>2026-04-04T14:31:06.049Z</time></trkpt><trkpt lat="44.3288593" lon="8.2785933"><ele>404.0</ele><time>2026-04-04T14:31:08.049Z</time></trkpt><trkpt lat="44.3289242" lon="8.278736"><ele>404.5</ele><time>2026-04-04T14:31:10.049Z</time></trkpt><trkpt lat="44.328964" lon="8.278808"><ele>405.0</ele><time>2026-04-04T14:31:11.051Z</time></trkpt><trkpt lat="44.3289962" lon="8.278887"><ele>405.50000000000006</ele><time>2026-04-04T14:31:12.05Z</time></trkpt><trkpt lat="44.3290265" lon="8.2789679"><ele>406.0</ele><time>2026-04-04T14:31:13.049Z</time></trkpt><trkpt lat="44.3290603" lon="8.2790434"><ele>406.0</ele><time>2026-04-04T14:31:14.049Z</time></trkpt><trkpt lat="44.3291125" lon="8.2791885"><ele>406.0</ele><time>2026-04-04T14:31:16.049Z</time></trkpt><trkpt lat="44.3291499" lon="8.2793191"><ele>406.0</ele><time>2026-04-04T14:31:18.05Z</time></trkpt><trkpt lat="44.329203" lon="8.2794595"><ele>406.0</ele><time>2026-04-04T14:31:20.049Z</time></trkpt><trkpt lat="44.3292434" lon="8.2796015"><ele>406.0</ele><time>2026-04-04T14:31:22.049Z</time></trkpt><trkpt lat="44.3292937" lon="8.2797296"><ele>404.8</ele><time>2026-04-04T14:31:24.049Z</time></trkpt><trkpt lat="44.3293378" lon="8.2798656"><ele>403.6</ele><time>2026-04-04T14:31:26.05Z</time></trkpt><trkpt lat="44.3293874" lon="8.2800244"><ele>402.4</ele><time>2026-04-04T14:31:28.049Z</time></trkpt><trkpt lat="44.3294388" lon="8.2801685"><ele>401.2</ele><time>2026-04-04T14:31:30.05Z</time></trkpt><trkpt lat="44.3294438" lon="8.2802563"><ele>400.0</ele><time>2026-04-04T14:31:31.05Z</time></trkpt><trkpt lat="44.3295045" lon="8.2803881"><ele>400.0</ele><time>2026-04-04T14:31:33.049Z</time></trkpt><trkpt lat="44.3295539" lon="8.280531"><ele>400.0</ele><time>2026-04-04T14:31:35.05Z</time></trkpt><trkpt lat="44.3295971" lon="8.2806937"><ele>400.0</ele><time>2026-04-04T14:31:37.049Z</time></trkpt><trkpt lat="44.3296222" lon="8.2807746"><ele>400.0</ele><time>2026-04-04T14:31:38.049Z</time></trkpt><trkpt lat="44.3296689" lon="8.2809131"><ele>400.0</ele><time>2026-04-04T14:31:40.05Z</time></trkpt><trkpt lat="44.3297158" lon="8.2810599"><ele>400.4</ele><time>2026-04-04T14:31:42.048Z</time></trkpt><trkpt lat="44.3297607" lon="8.2812016"><ele>400.8</ele><time>2026-04-04T14:31:44.049Z</time></trkpt><trkpt lat="44.3297824" lon="8.2812875"><ele>401.20000000000005</ele><time>2026-04-04T14:31:45.05Z</time></trkpt><trkpt lat="44.3298448" lon="8.2814339"><ele>401.6</ele><time>2026-04-04T14:31:47.049Z</time></trkpt><trkpt lat="44.3299175" lon="8.2815651"><ele>402.0</ele><time>2026-04-04T14:31:49.049Z</time></trkpt><trkpt lat="44.3299753" lon="8.2816382"><ele>401.2857142857143</ele><time>2026-04-04T14:31:50.049Z</time></trkpt><trkpt lat="44.3300302" lon="8.2817057"><ele>400.5714285714286</ele><time>2026-04-04T14:31:51.048Z</time></trkpt><trkpt lat="44.3300851" lon="8.2817721"><ele>399.8571428571429</ele><time>2026-04-04T14:31:52.049Z</time></trkpt><trkpt lat="44.3301408" lon="8.2818294"><ele>399.1428571428571</ele><time>2026-04-04T14:31:53.051Z</time></trkpt><trkpt lat="44.3301971" lon="8.2819116"><ele>398.42857142857144</ele><time>2026-04-04T14:31:54.049Z</time></trkpt><trkpt lat="44.330251" lon="8.2819665"><ele>397.7142857142857</ele><time>2026-04-04T14:31:55.05Z</time></trkpt><trkpt lat="44.3303029" lon="8.2820299"><ele>397.0</ele><time>2026-04-04T14:31:56.048Z</time></trkpt><trkpt lat="44.3303972" lon="8.2821452"><ele>397.0</ele><time>2026-04-04T14:31:58.05Z</time></trkpt><trkpt lat="44.3304923" lon="8.2822569"><ele>397.0</ele><time>2026-04-04T14:32:00.049Z</time></trkpt><trkpt lat="44.3305773" lon="8.2823826"><ele>397.0</ele><time>2026-04-04T14:32:02.051Z</time></trkpt><trkpt lat="44.3306287" lon="8.2824367"><ele>397.0</ele><time>2026-04-04T14:32:03.05Z</time></trkpt><trkpt lat="44.3307182" lon="8.2825348"><ele>397.0</ele><time>2026-04-04T14:32:05.048Z</time></trkpt><trkpt lat="44.3308014" lon="8.2826404"><ele>397.20000000000005</ele><time>2026-04-04T14:32:07.049Z</time></trkpt><trkpt lat="44.3308554" lon="8.2827163"><ele>397.4</ele><time>2026-04-04T14:32:08.049Z</time></trkpt><trkpt lat="44.3309361" lon="8.2828175"><ele>397.6</ele><time>2026-04-04T14:32:10.05Z</time></trkpt><trkpt lat="44.3310267" lon="8.2829144"><ele>397.79999999999995</ele><time>2026-04-04T14:32:12.049Z</time></trkpt><trkpt lat="44.3311097" lon="8.2830204"><ele>398.0</ele><time>2026-04-04T14:32:14.049Z</time></trkpt><trkpt lat="44.3311897" lon="8.2831318"><ele>397.0</ele><time>2026-04-04T14:32:16.049Z</time></trkpt><trkpt lat="44.3312568" lon="8.283232"><ele>396.0</ele><time>2026-04-04T14:32:18.05Z</time></trkpt><trkpt lat="44.3313432" lon="8.2833456"><ele>395.0</ele><time>2026-04-04T14:32:20.049Z</time></trkpt><trkpt lat="44.3314294" lon="8.2834497"><ele>394.0</ele><time>2026-04-04T14:32:22.05Z</time></trkpt><trkpt lat="44.331514" lon="8.2835494"><ele>393.0</ele><time>2026-04-04T14:32:24.049Z</time></trkpt><trkpt lat="44.3315964" lon="8.2836661"><ele>393.59999999999997</ele><time>2026-04-04T14:32:26.049Z</time></trkpt><trkpt lat="44.3316451" lon="8.2837245"><ele>394.2</ele><time>2026-04-04T14:32:27.049Z</time></trkpt><trkpt lat="44.3316926" lon="8.2837854"><ele>394.8</ele><time>2026-04-04T14:32:28.049Z</time></trkpt><trkpt lat="44.3317729" lon="8.283886"><ele>395.4</ele><time>2026-04-04T14:32:30.05Z</time></trkpt><trkpt lat="44.3318717" lon="8.2840021"><ele>396.0</ele><time>2026-04-04T14:32:32.049Z</time></trkpt><trkpt lat="44.3319764" lon="8.2840838"><ele>396.0</ele><time>2026-04-04T14:32:34.049Z</time></trkpt><trkpt lat="44.3320314" lon="8.2841329"><ele>396.0</ele><time>2026-04-04T14:32:35.049Z</time></trkpt><trkpt lat="44.3320886" lon="8.2841714"><ele>396.0</ele><time>2026-04-04T14:32:36.05Z</time></trkpt><trkpt lat="44.3321934" lon="8.2842702"><ele>396.0</ele><time>2026-04-04T14:32:38.048Z</time></trkpt><trkpt lat="44.3322494" lon="8.2843362"><ele>396.0</ele><time>2026-04-04T14:32:39.05Z</time></trkpt><trkpt lat="44.3323174" lon="8.2843743"><ele>396.0</ele><time>2026-04-04T14:32:40.049Z</time></trkpt><trkpt lat="44.3323757" lon="8.2844157"><ele>395.6666666666667</ele><time>2026-04-04T14:32:41.048Z</time></trkpt><trkpt lat="44.3324544" lon="8.2845309"><ele>395.33333333333337</ele><time>2026-04-04T14:32:43.049Z</time></trkpt><trkpt lat="44.3325196" lon="8.2845758"><ele>395.0</ele><time>2026-04-04T14:32:44.049Z</time></trkpt><trkpt lat="44.3325746" lon="8.2846338"><ele>394.6666666666667</ele><time>2026-04-04T14:32:45.049Z</time></trkpt><trkpt lat="44.3326308" lon="8.284692"><ele>394.33333333333337</ele><time>2026-04-04T14:32:46.05Z</time></trkpt><trkpt lat="44.3326793" lon="8.2847509"><ele>394.0</ele><time>2026-04-04T14:32:47.049Z</time></trkpt><trkpt lat="44.3327367" lon="8.2848164"><ele>394.00000000000006</ele><time>2026-04-04T14:32:48.048Z</time></trkpt><trkpt lat="44.3327805" lon="8.2848814"><ele>394.0</ele><time>2026-04-04T14:32:49.049Z</time></trkpt><trkpt lat="44.332843" lon="8.2850468"><ele>394.0</ele><time>2026-04-04T14:32:51.049Z</time></trkpt><trkpt lat="44.3328742" lon="8.2851324"><ele>394.0</ele><time>2026-04-04T14:32:52.048Z</time></trkpt><trkpt lat="44.332901" lon="8.2852236"><ele>394.00000000000006</ele><time>2026-04-04T14:32:53.049Z</time></trkpt><trkpt lat="44.3329087" lon="8.2853219"><ele>394.0</ele><time>2026-04-04T14:32:54.05Z</time></trkpt><trkpt lat="44.3329357" lon="8.2854128"><ele>394.0</ele><time>2026-04-04T14:32:55.05Z</time></trkpt><trkpt lat="44.3329693" lon="8.285502"><ele>394.0</ele><time>2026-04-04T14:32:56.05Z</time></trkpt><trkpt lat="44.332991" lon="8.2855938"><ele>394.0</ele><time>2026-04-04T14:32:57.05Z</time></trkpt><trkpt lat="44.3330131" lon="8.2856831"><ele>394.0</ele><time>2026-04-04T14:32:58.049Z</time></trkpt><trkpt lat="44.3330466" lon="8.2857702"><ele>394.0</ele><time>2026-04-04T14:32:59.05Z</time></trkpt><trkpt lat="44.3330653" lon="8.2858575"><ele>394.0</ele><time>2026-04-04T14:33:00.049Z</time></trkpt><trkpt lat="44.3330944" lon="8.285942"><ele>394.0</ele><time>2026-04-04T14:33:01.049Z</time></trkpt><trkpt lat="44.3331175" lon="8.2860287"><ele>394.14285714285717</ele><time>2026-04-04T14:33:02.049Z</time></trkpt><trkpt lat="44.33315" lon="8.2861198"><ele>394.28571428571433</ele><time>2026-04-04T14:33:03.049Z</time></trkpt><trkpt lat="44.3331861" lon="8.2862082"><ele>394.42857142857144</ele><time>2026-04-04T14:33:04.049Z</time></trkpt><trkpt lat="44.3332171" lon="8.2862966"><ele>394.57142857142856</ele><time>2026-04-04T14:33:05.048Z</time></trkpt><trkpt lat="44.3332592" lon="8.28637"><ele>394.7142857142857</ele><time>2026-04-04T14:33:06.048Z</time></trkpt><trkpt lat="44.333293" lon="8.2864499"><ele>394.85714285714283</ele><time>2026-04-04T14:33:07.049Z</time></trkpt><trkpt lat="44.3333346" lon="8.286533"><ele>395.0</ele><time>2026-04-04T14:33:08.049Z</time></trkpt><trkpt lat="44.3333694" lon="8.2866076"><ele>394.99999999999994</ele><time>2026-04-04T14:33:09.048Z</time></trkpt><trkpt lat="44.3334094" lon="8.2866767"><ele>395.0</ele><time>2026-04-04T14:33:10.05Z</time></trkpt><trkpt lat="44.3334531" lon="8.2867536"><ele>395.0</ele><time>2026-04-04T14:33:11.049Z</time></trkpt><trkpt lat="44.3335216" lon="8.2868898"><ele>395.0</ele><time>2026-04-04T14:33:13.049Z</time></trkpt><trkpt lat="44.3335747" lon="8.2869751"><ele>394.99999999999994</ele><time>2026-04-04T14:33:14.049Z</time></trkpt><trkpt lat="44.3336304" lon="8.2870591"><ele>395.0</ele><time>2026-04-04T14:33:15.049Z</time></trkpt><trkpt lat="44.3336523" lon="8.2871595"><ele>394.99999999999994</ele><time>2026-04-04T14:33:16.049Z</time></trkpt><trkpt lat="44.3336956" lon="8.2872291"><ele>395.0</ele><time>2026-04-04T14:33:17.049Z</time></trkpt><trkpt lat="44.3337357" lon="8.2873265"><ele>395.0</ele><time>2026-04-04T14:33:18.05Z</time></trkpt><trkpt lat="44.3337859" lon="8.2873972"><ele>395.0</ele><time>2026-04-04T14:33:19.049Z</time></trkpt><trkpt lat="44.333829" lon="8.2874854"><ele>394.99999999999994</ele><time>2026-04-04T14:33:20.049Z</time></trkpt><trkpt lat="44.3338567" lon="8.2875696"><ele>395.0</ele><time>2026-04-04T14:33:21.049Z</time></trkpt><trkpt lat="44.3339264" lon="8.2877177"><ele>395.49999999999994</ele><time>2026-04-04T14:33:23.049Z</time></trkpt><trkpt lat="44.3339614" lon="8.2877917"><ele>396.0</ele><time>2026-04-04T14:33:24.049Z</time></trkpt><trkpt lat="44.3340193" lon="8.2879227"><ele>396.5</ele><time>2026-04-04T14:33:26.048Z</time></trkpt><trkpt lat="44.3340684" lon="8.2879939"><ele>397.0</ele><time>2026-04-04T14:33:27.048Z</time></trkpt><trkpt lat="44.3341131" lon="8.2880849"><ele>397.49999999999994</ele><time>2026-04-04T14:33:28.049Z</time></trkpt><trkpt lat="44.3341564" lon="8.2881661"><ele>398.0</ele><time>2026-04-04T14:33:29.049Z</time></trkpt><trkpt lat="44.3342058" lon="8.2882219"><ele>397.99999999999994</ele><time>2026-04-04T14:33:30.049Z</time></trkpt><trkpt lat="44.3342422" lon="8.288306"><ele>398.0</ele><time>2026-04-04T14:33:31.05Z</time></trkpt><trkpt lat="44.3342765" lon="8.2883824"><ele>398.0</ele><time>2026-04-04T14:33:32.049Z</time></trkpt><trkpt lat="44.3342773" lon="8.288471"><ele>398.0</ele><time>2026-04-04T14:33:33.05Z</time></trkpt><trkpt lat="44.3343333" lon="8.288619"><ele>397.99999999999994</ele><time>2026-04-04T14:33:35.05Z</time></trkpt><trkpt lat="44.3343643" lon="8.2887079"><ele>398.0</ele><time>2026-04-04T14:33:36.049Z</time></trkpt><trkpt lat="44.3344044" lon="8.2888759"><ele>395.59999999999997</ele><time>2026-04-04T14:33:38.048Z</time></trkpt><trkpt lat="44.3344224" lon="8.2890693"><ele>393.2</ele><time>2026-04-04T14:33:40.049Z</time></trkpt><trkpt lat="44.3344365" lon="8.2891609"><ele>390.8</ele><time>2026-04-04T14:33:41.049Z</time></trkpt><trkpt lat="44.334481" lon="8.2893257"><ele>388.4</ele><time>2026-04-04T14:33:43.049Z</time></trkpt><trkpt lat="44.3345153" lon="8.289401"><ele>386.0</ele><time>2026-04-04T14:33:44.049Z</time></trkpt><trkpt lat="44.3345588" lon="8.2894799"><ele>385.99999999999994</ele><time>2026-04-04T14:33:45.048Z</time></trkpt><trkpt lat="44.3346002" lon="8.2895475"><ele>386.0</ele><time>2026-04-04T14:33:46.048Z</time></trkpt><trkpt lat="44.3346717" lon="8.2896778"><ele>386.0</ele><time>2026-04-04T14:33:48.049Z</time></trkpt><trkpt lat="44.3347182" lon="8.2897443"><ele>386.0</ele><time>2026-04-04T14:33:49.048Z</time></trkpt><trkpt lat="44.3348168" lon="8.2898321"><ele>385.99999999999994</ele><time>2026-04-04T14:33:51.049Z</time></trkpt><trkpt lat="44.3348867" lon="8.2898434"><ele>386.0</ele><time>2026-04-04T14:33:52.049Z</time></trkpt><trkpt lat="44.3349919" lon="8.2898623"><ele>385.7142857142857</ele><time>2026-04-04T14:33:54.049Z</time></trkpt><trkpt lat="44.3350593" lon="8.2898602"><ele>385.42857142857144</ele><time>2026-04-04T14:33:55.049Z</time></trkpt><trkpt lat="44.3351248" lon="8.2898542"><ele>385.1428571428571</ele><time>2026-04-04T14:33:56.049Z</time></trkpt><trkpt lat="44.3351931" lon="8.2898373"><ele>384.8571428571429</ele><time>2026-04-04T14:33:57.049Z</time></trkpt><trkpt lat="44.3352661" lon="8.2898224"><ele>384.57142857142856</ele><time>2026-04-04T14:33:58.048Z</time></trkpt><trkpt lat="44.335338" lon="8.2898001"><ele>384.2857142857143</ele><time>2026-04-04T14:33:59.05Z</time></trkpt><trkpt lat="44.3354118" lon="8.2897697"><ele>384.0</ele><time>2026-04-04T14:34:00.049Z</time></trkpt><trkpt lat="44.3354694" lon="8.2897256"><ele>386.1666666666667</ele><time>2026-04-04T14:34:01.049Z</time></trkpt><trkpt lat="44.3355346" lon="8.2896882"><ele>388.33333333333337</ele><time>2026-04-04T14:34:02.049Z</time></trkpt><trkpt lat="44.3356428" lon="8.2895946"><ele>390.5</ele><time>2026-04-04T14:34:04.049Z</time></trkpt><trkpt lat="44.3356984" lon="8.2895376"><ele>392.6666666666667</ele><time>2026-04-04T14:34:05.049Z</time></trkpt><trkpt lat="44.3357438" lon="8.2894765"><ele>394.83333333333337</ele><time>2026-04-04T14:34:06.049Z</time></trkpt><trkpt lat="44.3357958" lon="8.2894225"><ele>397.0</ele><time>2026-04-04T14:34:07.049Z</time></trkpt><trkpt lat="44.3358923" lon="8.289326"><ele>397.0</ele><time>2026-04-04T14:34:09.049Z</time></trkpt><trkpt lat="44.3359605" lon="8.2892744"><ele>397.0</ele><time>2026-04-04T14:34:10.048Z</time></trkpt><trkpt lat="44.3360628" lon="8.2891704"><ele>397.0</ele><time>2026-04-04T14:34:12.049Z</time></trkpt><trkpt lat="44.3361539" lon="8.2890723"><ele>397.0</ele><time>2026-04-04T14:34:14.048Z</time></trkpt><trkpt lat="44.3362523" lon="8.2889809"><ele>397.0</ele><time>2026-04-04T14:34:16.048Z</time></trkpt><trkpt lat="44.3363437" lon="8.2888833"><ele>395.20000000000005</ele><time>2026-04-04T14:34:18.049Z</time></trkpt><trkpt lat="44.3364253" lon="8.2888003"><ele>393.4</ele><time>2026-04-04T14:34:20.049Z</time></trkpt><trkpt lat="44.3365248" lon="8.288711"><ele>391.6</ele><time>2026-04-04T14:34:22.049Z</time></trkpt><trkpt lat="44.3366084" lon="8.2886094"><ele>389.79999999999995</ele><time>2026-04-04T14:34:24.05Z</time></trkpt><trkpt lat="44.3366725" lon="8.2884928"><ele>388.0</ele><time>2026-04-04T14:34:26.049Z</time></trkpt><trkpt lat="44.3367505" lon="8.2883593"><ele>388.0</ele><time>2026-04-04T14:34:28.049Z</time></trkpt><trkpt lat="44.3367501" lon="8.2882123"><ele>388.0</ele><time>2026-04-04T14:34:30.049Z</time></trkpt><trkpt lat="44.3367575" lon="8.2880444"><ele>388.0</ele><time>2026-04-04T14:34:32.048Z</time></trkpt><trkpt lat="44.336755" lon="8.2878728"><ele>388.0</ele><time>2026-04-04T14:34:34.049Z</time></trkpt><trkpt lat="44.3367723" lon="8.2877008"><ele>388.4</ele><time>2026-04-04T14:34:36.048Z</time></trkpt><trkpt lat="44.3367742" lon="8.2875227"><ele>388.79999999999995</ele><time>2026-04-04T14:34:38.049Z</time></trkpt><trkpt lat="44.3367773" lon="8.2874337"><ele>389.2</ele><time>2026-04-04T14:34:39.049Z</time></trkpt><trkpt lat="44.3367837" lon="8.2872815"><ele>389.6</ele><time>2026-04-04T14:34:41.048Z</time></trkpt><trkpt lat="44.3367787" lon="8.2871412"><ele>390.0</ele><time>2026-04-04T14:34:43.049Z</time></trkpt><trkpt lat="44.3367478" lon="8.2870484"><ele>390.6666666666667</ele><time>2026-04-04T14:34:44.048Z</time></trkpt><trkpt lat="44.3367211" lon="8.2868914"><ele>391.33333333333337</ele><time>2026-04-04T14:34:46.048Z</time></trkpt><trkpt lat="44.336703" lon="8.2868044"><ele>392.0</ele><time>2026-04-04T14:34:47.048Z</time></trkpt><trkpt lat="44.3366941" lon="8.2867054"><ele>392.6666666666667</ele><time>2026-04-04T14:34:48.048Z</time></trkpt><trkpt lat="44.3366846" lon="8.2865321"><ele>393.33333333333337</ele><time>2026-04-04T14:34:50.048Z</time></trkpt><trkpt lat="44.3366753" lon="8.2864368"><ele>394.0</ele><time>2026-04-04T14:34:51.049Z</time></trkpt><trkpt lat="44.3366726" lon="8.2863454"><ele>396.1666666666667</ele><time>2026-04-04T14:34:52.05Z</time></trkpt><trkpt lat="44.3366787" lon="8.2862434"><ele>398.33333333333337</ele><time>2026-04-04T14:34:53.05Z</time></trkpt><trkpt lat="44.3367006" lon="8.2861278"><ele>400.5</ele><time>2026-04-04T14:34:54.05Z</time></trkpt><trkpt lat="44.3367025" lon="8.2860388"><ele>402.66666666666663</ele><time>2026-04-04T14:34:55.05Z</time></trkpt><trkpt lat="44.3367389" lon="8.2858629"><ele>404.8333333333333</ele><time>2026-04-04T14:34:57.05Z</time></trkpt><trkpt lat="44.3367747" lon="8.285751"><ele>407.0</ele><time>2026-04-04T14:34:58.049Z</time></trkpt><trkpt lat="44.3368538" lon="8.2856314"><ele>405.6</ele><time>2026-04-04T14:35:00.048Z</time></trkpt><trkpt lat="44.3369365" lon="8.2855463"><ele>404.20000000000005</ele><time>2026-04-04T14:35:02.048Z</time></trkpt><trkpt lat="44.3370433" lon="8.2854537"><ele>402.8</ele><time>2026-04-04T14:35:04.05Z</time></trkpt><trkpt lat="44.3371468" lon="8.2853771"><ele>401.4</ele><time>2026-04-04T14:35:06.049Z</time></trkpt><trkpt lat="44.3372394" lon="8.2853332"><ele>400.0</ele><time>2026-04-04T14:35:08.049Z</time></trkpt><trkpt lat="44.3373483" lon="8.2852929"><ele>400.00000000000006</ele><time>2026-04-04T14:35:10.048Z</time></trkpt><trkpt lat="44.3374698" lon="8.2852736"><ele>400.0</ele><time>2026-04-04T14:35:12.049Z</time></trkpt><trkpt lat="44.3375335" lon="8.2852614"><ele>400.0</ele><time>2026-04-04T14:35:13.049Z</time></trkpt><trkpt lat="44.337606" lon="8.2852534"><ele>400.0</ele><time>2026-04-04T14:35:14.049Z</time></trkpt><trkpt lat="44.3376689" lon="8.2852571"><ele>400.00000000000006</ele><time>2026-04-04T14:35:15.049Z</time></trkpt><trkpt lat="44.3377386" lon="8.2852707"><ele>400.0</ele><time>2026-04-04T14:35:16.049Z</time></trkpt><trkpt lat="44.3378075" lon="8.2852832"><ele>400.00000000000006</ele><time>2026-04-04T14:35:17.048Z</time></trkpt><trkpt lat="44.3378727" lon="8.2853071"><ele>400.0</ele><time>2026-04-04T14:35:18.049Z</time></trkpt><trkpt lat="44.3379357" lon="8.2853309"><ele>400.0</ele><time>2026-04-04T14:35:19.048Z</time></trkpt><trkpt lat="44.338048" lon="8.2853974"><ele>400.0</ele><time>2026-04-04T14:35:21.049Z</time></trkpt><trkpt lat="44.3381073" lon="8.2854291"><ele>400.00000000000006</ele><time>2026-04-04T14:35:22.047Z</time></trkpt><trkpt lat="44.3381617" lon="8.2854782"><ele>400.0</ele><time>2026-04-04T14:35:23.049Z</time></trkpt><trkpt lat="44.3382161" lon="8.2855356"><ele>398.00000000000006</ele><time>2026-04-04T14:35:24.049Z</time></trkpt><trkpt lat="44.3382637" lon="8.2855958"><ele>396.0</ele><time>2026-04-04T14:35:25.048Z</time></trkpt><trkpt lat="44.3383086" lon="8.2856672"><ele>394.0</ele><time>2026-04-04T14:35:26.047Z</time></trkpt><trkpt lat="44.3383605" lon="8.2857367"><ele>392.0</ele><time>2026-04-04T14:35:27.048Z</time></trkpt><trkpt lat="44.3384077" lon="8.2858078"><ele>390.00000000000006</ele><time>2026-04-04T14:35:28.048Z</time></trkpt><trkpt lat="44.3384453" lon="8.285883"><ele>388.0</ele><time>2026-04-04T14:35:29.048Z</time></trkpt><trkpt lat="44.3385248" lon="8.2860072"><ele>388.0</ele><time>2026-04-04T14:35:31.049Z</time></trkpt><trkpt lat="44.3385841" lon="8.2860958"><ele>388.0</ele><time>2026-04-04T14:35:32.049Z</time></trkpt><trkpt lat="44.3386264" lon="8.2861662"><ele>388.0</ele><time>2026-04-04T14:35:33.05Z</time></trkpt><trkpt lat="44.3386784" lon="8.2862354"><ele>388.0</ele><time>2026-04-04T14:35:34.049Z</time></trkpt><trkpt lat="44.3387603" lon="8.2863686"><ele>388.0</ele><time>2026-04-04T14:35:36.049Z</time></trkpt><trkpt lat="44.3388485" lon="8.2864859"><ele>387.75</ele><time>2026-04-04T14:35:38.048Z</time></trkpt><trkpt lat="44.3389167" lon="8.2866041"><ele>387.5</ele><time>2026-04-04T14:35:40.049Z</time></trkpt><trkpt lat="44.3389979" lon="8.2866529"><ele>387.25</ele><time>2026-04-04T14:35:41.05Z</time></trkpt><trkpt lat="44.3391173" lon="8.2867829"><ele>387.0</ele><time>2026-04-04T14:35:43.05Z</time></trkpt><trkpt lat="44.3392112" lon="8.2868399"><ele>387.0</ele><time>2026-04-04T14:35:45.047Z</time></trkpt><trkpt lat="44.339277" lon="8.2868562"><ele>387.0</ele><time>2026-04-04T14:35:46.048Z</time></trkpt><trkpt lat="44.3393551" lon="8.2868431"><ele>387.0</ele><time>2026-04-04T14:35:47.048Z</time></trkpt><trkpt lat="44.3394718" lon="8.2868397"><ele>387.0</ele><time>2026-04-04T14:35:49.049Z</time></trkpt><trkpt lat="44.3395801" lon="8.2867765"><ele>387.0</ele><time>2026-04-04T14:35:51.048Z</time></trkpt><trkpt lat="44.3396475" lon="8.2867234"><ele>387.0</ele><time>2026-04-04T14:35:52.048Z</time></trkpt><trkpt lat="44.3397041" lon="8.2866661"><ele>387.0</ele><time>2026-04-04T14:35:53.048Z</time></trkpt><trkpt lat="44.3397632" lon="8.2866057"><ele>387.0</ele><time>2026-04-04T14:35:54.049Z</time></trkpt><trkpt lat="44.3398162" lon="8.2865438"><ele>387.0</ele><time>2026-04-04T14:35:55.049Z</time></trkpt><trkpt lat="44.3398607" lon="8.2864594"><ele>387.0</ele><time>2026-04-04T14:35:56.049Z</time></trkpt><trkpt lat="44.3399039" lon="8.2863741"><ele>387.0</ele><time>2026-04-04T14:35:57.048Z</time></trkpt><trkpt lat="44.3399344" lon="8.2862907"><ele>387.0</ele><time>2026-04-04T14:35:58.047Z</time></trkpt><trkpt lat="44.3399653" lon="8.2861991"><ele>387.7142857142857</ele><time>2026-04-04T14:35:59.049Z</time></trkpt><trkpt lat="44.3399973" lon="8.2861098"><ele>388.42857142857144</ele><time>2026-04-04T14:36:00.049Z</time></trkpt><trkpt lat="44.3400321" lon="8.2860175"><ele>389.1428571428571</ele><time>2026-04-04T14:36:01.048Z</time></trkpt><trkpt lat="44.3400612" lon="8.2859251"><ele>389.8571428571429</ele><time>2026-04-04T14:36:02.048Z</time></trkpt><trkpt lat="44.3400994" lon="8.2858367"><ele>390.57142857142856</ele><time>2026-04-04T14:36:03.049Z</time></trkpt><trkpt lat="44.3401379" lon="8.2857418"><ele>391.2857142857143</ele><time>2026-04-04T14:36:04.048Z</time></trkpt><trkpt lat="44.3401832" lon="8.2856725"><ele>392.0</ele><time>2026-04-04T14:36:05.049Z</time></trkpt><trkpt lat="44.3402325" lon="8.2856031"><ele>390.8</ele><time>2026-04-04T14:36:06.049Z</time></trkpt><trkpt lat="44.3402814" lon="8.2855373"><ele>389.6</ele><time>2026-04-04T14:36:07.049Z</time></trkpt><trkpt lat="44.3403274" lon="8.2854685"><ele>388.40000000000003</ele><time>2026-04-04T14:36:08.048Z</time></trkpt><trkpt lat="44.3403868" lon="8.2854069"><ele>387.20000000000005</ele><time>2026-04-04T14:36:09.048Z</time></trkpt><trkpt lat="44.340487" lon="8.2852994"><ele>386.0</ele><time>2026-04-04T14:36:11.047Z</time></trkpt><trkpt lat="44.3405897" lon="8.2852147"><ele>385.99999999999994</ele><time>2026-04-04T14:36:13.049Z</time></trkpt><trkpt lat="44.3406515" lon="8.2851698"><ele>386.0</ele><time>2026-04-04T14:36:14.048Z</time></trkpt><trkpt lat="44.3407126" lon="8.2851268"><ele>386.0</ele><time>2026-04-04T14:36:15.047Z</time></trkpt><trkpt lat="44.3407711" lon="8.2850849"><ele>386.0</ele><time>2026-04-04T14:36:16.048Z</time></trkpt><trkpt lat="44.3408894" lon="8.2850239"><ele>385.99999999999994</ele><time>2026-04-04T14:36:18.049Z</time></trkpt><trkpt lat="44.3410059" lon="8.2849878"><ele>386.0</ele><time>2026-04-04T14:36:20.049Z</time></trkpt><trkpt lat="44.3410672" lon="8.2849604"><ele>385.99999999999994</ele><time>2026-04-04T14:36:21.049Z</time></trkpt><trkpt lat="44.3411793" lon="8.2849079"><ele>386.0</ele><time>2026-04-04T14:36:23.05Z</time></trkpt><trkpt lat="44.3412755" lon="8.2848623"><ele>386.0</ele><time>2026-04-04T14:36:25.048Z</time></trkpt><trkpt lat="44.3413432" lon="8.2848205"><ele>386.0</ele><time>2026-04-04T14:36:26.048Z</time></trkpt><trkpt lat="44.3414053" lon="8.2847895"><ele>385.99999999999994</ele><time>2026-04-04T14:36:27.049Z</time></trkpt><trkpt lat="44.3414873" lon="8.2847771"><ele>386.0</ele><time>2026-04-04T14:36:28.049Z</time></trkpt><trkpt lat="44.3415615" lon="8.2847336"><ele>388.6</ele><time>2026-04-04T14:36:29.05Z</time></trkpt><trkpt lat="44.341669" lon="8.2846711"><ele>391.20000000000005</ele><time>2026-04-04T14:36:31.05Z</time></trkpt><trkpt lat="44.3417389" lon="8.2846388"><ele>393.79999999999995</ele><time>2026-04-04T14:36:32.048Z</time></trkpt><trkpt lat="44.3418509" lon="8.2845786"><ele>396.4</ele><time>2026-04-04T14:36:34.048Z</time></trkpt><trkpt lat="44.3419135" lon="8.2845439"><ele>399.0</ele><time>2026-04-04T14:36:35.048Z</time></trkpt><trkpt lat="44.3420369" lon="8.2844847"><ele>399.0</ele><time>2026-04-04T14:36:37.05Z</time></trkpt><trkpt lat="44.3421621" lon="8.2844182"><ele>399.0</ele><time>2026-04-04T14:36:39.048Z</time></trkpt><trkpt lat="44.3422293" lon="8.2843807"><ele>399.0</ele><time>2026-04-04T14:36:40.049Z</time></trkpt><trkpt lat="44.3422834" lon="8.2843255"><ele>399.0</ele><time>2026-04-04T14:36:41.049Z</time></trkpt><trkpt lat="44.3423336" lon="8.2842717"><ele>399.0</ele><time>2026-04-04T14:36:42.049Z</time></trkpt><trkpt lat="44.3424157" lon="8.2841506"><ele>396.1666666666667</ele><time>2026-04-04T14:36:44.048Z</time></trkpt><trkpt lat="44.3424611" lon="8.2840767"><ele>393.3333333333333</ele><time>2026-04-04T14:36:45.05Z</time></trkpt><trkpt lat="44.3425076" lon="8.2840085"><ele>390.5</ele><time>2026-04-04T14:36:46.048Z</time></trkpt><trkpt lat="44.3425454" lon="8.2839306"><ele>387.66666666666663</ele><time>2026-04-04T14:36:47.05Z</time></trkpt><trkpt lat="44.3425779" lon="8.2838482"><ele>384.8333333333333</ele><time>2026-04-04T14:36:48.049Z</time></trkpt><trkpt lat="44.342611" lon="8.2837648"><ele>382.0</ele><time>2026-04-04T14:36:49.048Z</time></trkpt><trkpt lat="44.3426761" lon="8.2836006"><ele>382.0</ele><time>2026-04-04T14:36:51.049Z</time></trkpt><trkpt lat="44.342697" lon="8.283515"><ele>382.0</ele><time>2026-04-04T14:36:52.049Z</time></trkpt><trkpt lat="44.3427222" lon="8.2834235"><ele>382.0</ele><time>2026-04-04T14:36:53.049Z</time></trkpt><trkpt lat="44.3427488" lon="8.2833231"><ele>382.0</ele><time>2026-04-04T14:36:54.049Z</time></trkpt><trkpt lat="44.3427862" lon="8.2832265"><ele>382.0</ele><time>2026-04-04T14:36:55.05Z</time></trkpt><trkpt lat="44.3428135" lon="8.2831408"><ele>382.0</ele><time>2026-04-04T14:36:56.048Z</time></trkpt><trkpt lat="44.3428494" lon="8.2830478"><ele>382.0</ele><time>2026-04-04T14:36:57.049Z</time></trkpt><trkpt lat="44.3429033" lon="8.2829128"><ele>381.5</ele><time>2026-04-04T14:36:59.05Z</time></trkpt><trkpt lat="44.3429567" lon="8.2827819"><ele>381.0</ele><time>2026-04-04T14:37:01.05Z</time></trkpt><trkpt lat="44.3429989" lon="8.2826255"><ele>380.5</ele><time>2026-04-04T14:37:03.047Z</time></trkpt><trkpt lat="44.3430264" lon="8.282546"><ele>380.0</ele><time>2026-04-04T14:37:04.049Z</time></trkpt><trkpt lat="44.3430546" lon="8.2824646"><ele>379.5</ele><time>2026-04-04T14:37:05.049Z</time></trkpt><trkpt lat="44.3430941" lon="8.2823753"><ele>379.0</ele><time>2026-04-04T14:37:06.048Z</time></trkpt><trkpt lat="44.3431565" lon="8.2822325"><ele>379.0</ele><time>2026-04-04T14:37:08.048Z</time></trkpt><trkpt lat="44.3432206" lon="8.2820959"><ele>379.0</ele><time>2026-04-04T14:37:10.049Z</time></trkpt><trkpt lat="44.3432423" lon="8.2820108"><ele>379.0</ele><time>2026-04-04T14:37:11.049Z</time></trkpt><trkpt lat="44.3432898" lon="8.2818422"><ele>379.0</ele><time>2026-04-04T14:37:13.049Z</time></trkpt><trkpt lat="44.3433251" lon="8.2817417"><ele>379.0</ele><time>2026-04-04T14:37:14.05Z</time></trkpt><trkpt lat="44.3433446" lon="8.2816426"><ele>379.0</ele><time>2026-04-04T14:37:15.048Z</time></trkpt><trkpt lat="44.3433868" lon="8.2814996"><ele>379.0</ele><time>2026-04-04T14:37:17.048Z</time></trkpt><trkpt lat="44.3434724" lon="8.2813581"><ele>379.0</ele><time>2026-04-04T14:37:19.048Z</time></trkpt><trkpt lat="44.3434944" lon="8.2812752"><ele>379.0</ele><time>2026-04-04T14:37:20.049Z</time></trkpt><trkpt lat="44.3435158" lon="8.2811801"><ele>379.0</ele><time>2026-04-04T14:37:21.05Z</time></trkpt><trkpt lat="44.3435467" lon="8.2810964"><ele>379.0</ele><time>2026-04-04T14:37:22.049Z</time></trkpt><trkpt lat="44.3435709" lon="8.2810127"><ele>381.0</ele><time>2026-04-04T14:37:23.048Z</time></trkpt><trkpt lat="44.3436241" lon="8.2808319"><ele>383.0</ele><time>2026-04-04T14:37:25.049Z</time></trkpt><trkpt lat="44.3436388" lon="8.2807461"><ele>385.0</ele><time>2026-04-04T14:37:26.049Z</time></trkpt><trkpt lat="44.3436719" lon="8.2806569"><ele>387.0</ele><time>2026-04-04T14:37:27.048Z</time></trkpt><trkpt lat="44.3437083" lon="8.2805806"><ele>389.00000000000006</ele><time>2026-04-04T14:37:28.048Z</time></trkpt><trkpt lat="44.3437483" lon="8.2805003"><ele>391.0</ele><time>2026-04-04T14:37:29.048Z</time></trkpt><trkpt lat="44.3438172" lon="8.2803627"><ele>387.20000000000005</ele><time>2026-04-04T14:37:31.048Z</time></trkpt><trkpt lat="44.3438908" lon="8.2802129"><ele>383.40000000000003</ele><time>2026-04-04T14:37:33.048Z</time></trkpt><trkpt lat="44.3439237" lon="8.2801354"><ele>379.6</ele><time>2026-04-04T14:37:34.047Z</time></trkpt><trkpt lat="44.343969" lon="8.279982"><ele>375.8</ele><time>2026-04-04T14:37:36.048Z</time></trkpt><trkpt lat="44.3439987" lon="8.2798924"><ele>372.0</ele><time>2026-04-04T14:37:37.048Z</time></trkpt><trkpt lat="44.3440227" lon="8.2798025"><ele>372.8</ele><time>2026-04-04T14:37:38.048Z</time></trkpt><trkpt lat="44.3440695" lon="8.2796719"><ele>373.6</ele><time>2026-04-04T14:37:40.049Z</time></trkpt><trkpt lat="44.3441223" lon="8.2795349"><ele>374.40000000000003</ele><time>2026-04-04T14:37:42.048Z</time></trkpt><trkpt lat="44.3441821" lon="8.2793988"><ele>375.20000000000005</ele><time>2026-04-04T14:37:44.048Z</time></trkpt><trkpt lat="44.3442277" lon="8.2792732"><ele>376.0</ele><time>2026-04-04T14:37:46.049Z</time></trkpt><trkpt lat="44.3442823" lon="8.2791517"><ele>376.0</ele><time>2026-04-04T14:37:48.049Z</time></trkpt><trkpt lat="44.3443144" lon="8.2790224"><ele>376.0</ele><time>2026-04-04T14:37:50.048Z</time></trkpt><trkpt lat="44.3443659" lon="8.2788625"><ele>376.0</ele><time>2026-04-04T14:37:52.049Z</time></trkpt><trkpt lat="44.3444185" lon="8.2787133"><ele>376.0</ele><time>2026-04-04T14:37:54.048Z</time></trkpt><trkpt lat="44.3444701" lon="8.2785634"><ele>377.5</ele><time>2026-04-04T14:37:56.049Z</time></trkpt><trkpt lat="44.3445254" lon="8.2783953"><ele>379.0</ele><time>2026-04-04T14:37:58.05Z</time></trkpt><trkpt lat="44.3445702" lon="8.2782556"><ele>380.5</ele><time>2026-04-04T14:38:00.047Z</time></trkpt><trkpt lat="44.3446223" lon="8.2781108"><ele>382.0</ele><time>2026-04-04T14:38:02.05Z</time></trkpt><trkpt lat="44.3446741" lon="8.2779646"><ele>380.20000000000005</ele><time>2026-04-04T14:38:04.049Z</time></trkpt><trkpt lat="44.3447346" lon="8.2778173"><ele>378.4</ele><time>2026-04-04T14:38:06.048Z</time></trkpt><trkpt lat="44.3447629" lon="8.2777348"><ele>376.6</ele><time>2026-04-04T14:38:07.049Z</time></trkpt><trkpt lat="44.3448248" lon="8.2775876"><ele>374.79999999999995</ele><time>2026-04-04T14:38:09.049Z</time></trkpt><trkpt lat="44.3448942" lon="8.2774504"><ele>373.0</ele><time>2026-04-04T14:38:11.048Z</time></trkpt><trkpt lat="44.3449697" lon="8.277314"><ele>374.0</ele><time>2026-04-04T14:38:13.048Z</time></trkpt><trkpt lat="44.3450123" lon="8.2772437"><ele>375.0</ele><time>2026-04-04T14:38:14.049Z</time></trkpt><trkpt lat="44.3450566" lon="8.2771786"><ele>376.0</ele><time>2026-04-04T14:38:15.048Z</time></trkpt><trkpt lat="44.345152" lon="8.2770964"><ele>377.0</ele><time>2026-04-04T14:38:17.05Z</time></trkpt><trkpt lat="44.3452499" lon="8.2770132"><ele>378.0</ele><time>2026-04-04T14:38:19.047Z</time></trkpt><trkpt lat="44.3453399" lon="8.2769288"><ele>378.0</ele><time>2026-04-04T14:38:21.05Z</time></trkpt><trkpt lat="44.3454309" lon="8.2768541"><ele>378.0</ele><time>2026-04-04T14:38:23.048Z</time></trkpt><trkpt lat="44.3455406" lon="8.2767829"><ele>378.0</ele><time>2026-04-04T14:38:25.049Z</time></trkpt><trkpt lat="44.3456467" lon="8.2767143"><ele>378.0</ele><time>2026-04-04T14:38:27.05Z</time></trkpt><trkpt lat="44.3457615" lon="8.2766579"><ele>376.59999999999997</ele><time>2026-04-04T14:38:29.048Z</time></trkpt><trkpt lat="44.3458752" lon="8.2766003"><ele>375.2</ele><time>2026-04-04T14:38:31.047Z</time></trkpt><trkpt lat="44.3459938" lon="8.2765729"><ele>373.8</ele><time>2026-04-04T14:38:33.05Z</time></trkpt><trkpt lat="44.3460583" lon="8.2765669"><ele>372.4</ele><time>2026-04-04T14:38:34.048Z</time></trkpt><trkpt lat="44.3461258" lon="8.2765678"><ele>371.0</ele><time>2026-04-04T14:38:35.049Z</time></trkpt><trkpt lat="44.3462502" lon="8.2765542"><ele>371.0</ele><time>2026-04-04T14:38:37.049Z</time></trkpt><trkpt lat="44.34637" lon="8.2765443"><ele>371.0</ele><time>2026-04-04T14:38:39.05Z</time></trkpt><trkpt lat="44.3464952" lon="8.2765543"><ele>371.0</ele><time>2026-04-04T14:38:41.048Z</time></trkpt><trkpt lat="44.3466111" lon="8.276583"><ele>371.0</ele><time>2026-04-04T14:38:43.049Z</time></trkpt><trkpt lat="44.346674" lon="8.2765777"><ele>371.0</ele><time>2026-04-04T14:38:44.048Z</time></trkpt><trkpt lat="44.3467971" lon="8.2765928"><ele>370.33333333333337</ele><time>2026-04-04T14:38:46.049Z</time></trkpt><trkpt lat="44.3469161" lon="8.2765897"><ele>369.6666666666667</ele><time>2026-04-04T14:38:48.049Z</time></trkpt><trkpt lat="44.3469893" lon="8.276593"><ele>369.0</ele><time>2026-04-04T14:38:49.048Z</time></trkpt><trkpt lat="44.3470522" lon="8.2765985"><ele>368.3333333333333</ele><time>2026-04-04T14:38:50.049Z</time></trkpt><trkpt lat="44.3471164" lon="8.2766016"><ele>367.66666666666663</ele><time>2026-04-04T14:38:51.05Z</time></trkpt><trkpt lat="44.3472375" lon="8.2766162"><ele>367.0</ele><time>2026-04-04T14:38:53.049Z</time></trkpt><trkpt lat="44.3473583" lon="8.2766207"><ele>366.8</ele><time>2026-04-04T14:38:55.048Z</time></trkpt><trkpt lat="44.3474302" lon="8.2766302"><ele>366.6</ele><time>2026-04-04T14:38:56.048Z</time></trkpt><trkpt lat="44.3475414" lon="8.2766521"><ele>366.40000000000003</ele><time>2026-04-04T14:38:58.047Z</time></trkpt><trkpt lat="44.3476463" lon="8.2766619"><ele>366.20000000000005</ele><time>2026-04-04T14:39:00.049Z</time></trkpt><trkpt lat="44.3477566" lon="8.2766706"><ele>366.0</ele><time>2026-04-04T14:39:02.048Z</time></trkpt><trkpt lat="44.3478586" lon="8.2766719"><ele>366.0</ele><time>2026-04-04T14:39:04.048Z</time></trkpt><trkpt lat="44.3479667" lon="8.2766826"><ele>366.0</ele><time>2026-04-04T14:39:06.048Z</time></trkpt><trkpt lat="44.3480699" lon="8.2766851"><ele>366.0</ele><time>2026-04-04T14:39:08.049Z</time></trkpt><trkpt lat="44.3481735" lon="8.2766873"><ele>366.0</ele><time>2026-04-04T14:39:10.049Z</time></trkpt><trkpt lat="44.3482751" lon="8.2766896"><ele>366.0</ele><time>2026-04-04T14:39:12.049Z</time></trkpt><trkpt lat="44.3483752" lon="8.2766964"><ele>365.6</ele><time>2026-04-04T14:39:14.047Z</time></trkpt><trkpt lat="44.3484801" lon="8.276701"><ele>365.20000000000005</ele><time>2026-04-04T14:39:16.048Z</time></trkpt><trkpt lat="44.348585" lon="8.2767418"><ele>364.79999999999995</ele><time>2026-04-04T14:39:18.049Z</time></trkpt><trkpt lat="44.3486918" lon="8.2768002"><ele>364.4</ele><time>2026-04-04T14:39:20.048Z</time></trkpt><trkpt lat="44.3487819" lon="8.2767668"><ele>364.0</ele><time>2026-04-04T14:39:22.047Z</time></trkpt><trkpt lat="44.3487919" lon="8.2766469"><ele>364.0</ele><time>2026-04-04T14:39:24.048Z</time></trkpt><trkpt lat="44.3487325" lon="8.2765256"><ele>364.0</ele><time>2026-04-04T14:39:26.047Z</time></trkpt><trkpt lat="44.3486495" lon="8.2764103"><ele>364.0</ele><time>2026-04-04T14:39:28.047Z</time></trkpt><trkpt lat="44.3485943" lon="8.2763497"><ele>364.0</ele><time>2026-04-04T14:39:29.049Z</time></trkpt><trkpt lat="44.3484988" lon="8.276251"><ele>364.0</ele><time>2026-04-04T14:39:31.048Z</time></trkpt><trkpt lat="44.348405" lon="8.2761679"><ele>366.0</ele><time>2026-04-04T14:39:33.049Z</time></trkpt><trkpt lat="44.3483122" lon="8.2760876"><ele>368.0</ele><time>2026-04-04T14:39:35.048Z</time></trkpt><trkpt lat="44.3482268" lon="8.2760222"><ele>370.0</ele><time>2026-04-04T14:39:37.048Z</time></trkpt><trkpt lat="44.3481507" lon="8.2759584"><ele>372.0</ele><time>2026-04-04T14:39:39.048Z</time></trkpt><trkpt lat="44.3480761" lon="8.2758944"><ele>374.0</ele><time>2026-04-04T14:39:41.048Z</time></trkpt><trkpt lat="44.3480162" lon="8.2758459"><ele>374.4285714285714</ele><time>2026-04-04T14:39:43.049Z</time></trkpt><trkpt lat="44.347949" lon="8.2757982"><ele>374.8571428571429</ele><time>2026-04-04T14:39:45.048Z</time></trkpt><trkpt lat="44.3478778" lon="8.2757722"><ele>375.2857142857143</ele><time>2026-04-04T14:39:47.047Z</time></trkpt><trkpt lat="44.347805" lon="8.2757575"><ele>375.71428571428567</ele><time>2026-04-04T14:39:49.047Z</time></trkpt><trkpt lat="44.3477325" lon="8.2757559"><ele>376.1428571428571</ele><time>2026-04-04T14:39:51.048Z</time></trkpt><trkpt lat="44.3476681" lon="8.2757548"><ele>376.57142857142856</ele><time>2026-04-04T14:39:53.049Z</time></trkpt><trkpt lat="44.3476048" lon="8.2757587"><ele>377.0</ele><time>2026-04-04T14:39:55.048Z</time></trkpt><trkpt lat="44.3475416" lon="8.275747"><ele>376.99999999999994</ele><time>2026-04-04T14:39:57.049Z</time></trkpt><trkpt lat="44.3474851" lon="8.2757013"><ele>377.0</ele><time>2026-04-04T14:39:59.048Z</time></trkpt><trkpt lat="44.3474849" lon="8.2756132"><ele>377.0</ele><time>2026-04-04T14:40:02.047Z</time></trkpt><trkpt lat="44.347533" lon="8.2755368"><ele>377.0</ele><time>2026-04-04T14:40:05.048Z</time></trkpt><trkpt lat="44.3475745" lon="8.2754579"><ele>377.0</ele><time>2026-04-04T14:40:07.048Z</time></trkpt><trkpt lat="44.3476577" lon="8.2754161"><ele>376.99999999999994</ele><time>2026-04-04T14:40:10.049Z</time></trkpt><trkpt lat="44.3477341" lon="8.2753784"><ele>377.0</ele><time>2026-04-04T14:40:13.047Z</time></trkpt><trkpt lat="44.3478039" lon="8.2753341"><ele>378.83333333333337</ele><time>2026-04-04T14:40:16.049Z</time></trkpt><trkpt lat="44.3478732" lon="8.2752951"><ele>380.6666666666667</ele><time>2026-04-04T14:40:19.048Z</time></trkpt><trkpt lat="44.3479461" lon="8.2752532"><ele>382.5</ele><time>2026-04-04T14:40:22.05Z</time></trkpt><trkpt lat="44.3480128" lon="8.2752088"><ele>384.33333333333337</ele><time>2026-04-04T14:40:25.047Z</time></trkpt><trkpt lat="44.3480757" lon="8.2751562"><ele>386.1666666666667</ele><time>2026-04-04T14:40:28.049Z</time></trkpt><trkpt lat="44.3481338" lon="8.2750854"><ele>388.0</ele><time>2026-04-04T14:40:32.049Z</time></trkpt><trkpt lat="44.3481893" lon="8.2749959"><ele>388.0</ele><time>2026-04-04T14:40:36.048Z</time></trkpt><trkpt lat="44.3482388" lon="8.2749188"><ele>388.0</ele><time>2026-04-04T14:40:39.049Z</time></trkpt><trkpt lat="44.3482823" lon="8.2748346"><ele>388.0</ele><time>2026-04-04T14:40:43.048Z</time></trkpt><trkpt lat="44.3483586" lon="8.2747898"><ele>388.0</ele><time>2026-04-04T14:40:47.047Z</time></trkpt><trkpt lat="44.3484221" lon="8.2747681"><ele>388.0</ele><time>2026-04-04T14:40:50.047Z</time></trkpt><trkpt lat="44.3484888" lon="8.2747576"><ele>388.0</ele><time>2026-04-04T14:40:53.049Z</time></trkpt><trkpt lat="44.3485551" lon="8.274753"><ele>388.0</ele><time>2026-04-04T14:40:56.048Z</time></trkpt><trkpt lat="44.3486393" lon="8.2747517"><ele>390.57142857142856</ele><time>2026-04-04T14:41:00.049Z</time></trkpt><trkpt lat="44.3487175" lon="8.2747381"><ele>393.14285714285717</ele><time>2026-04-04T14:41:04.049Z</time></trkpt><trkpt lat="44.3487867" lon="8.2747062"><ele>395.7142857142857</ele><time>2026-04-04T14:41:08.047Z</time></trkpt><trkpt lat="44.3488282" lon="8.2746177"><ele>398.2857142857143</ele><time>2026-04-04T14:41:12.048Z</time></trkpt><trkpt lat="44.3488338" lon="8.2745208"><ele>400.8571428571429</ele><time>2026-04-04T14:41:16.048Z</time></trkpt><trkpt lat="44.3488214" lon="8.2744228"><ele>403.42857142857144</ele><time>2026-04-04T14:41:20.048Z</time></trkpt><trkpt lat="44.3487935" lon="8.27432"><ele>406.0</ele><time>2026-04-04T14:41:24.047Z</time></trkpt><trkpt lat="44.3487667" lon="8.2742399"><ele>406.0</ele><time>2026-04-04T14:41:27.048Z</time></trkpt><trkpt lat="44.3487464" lon="8.2741302"><ele>406.0</ele><time>2026-04-04T14:41:31.047Z</time></trkpt><trkpt lat="44.3487314" lon="8.2740372"><ele>406.0</ele><time>2026-04-04T14:41:35.048Z</time></trkpt><trkpt lat="44.3487314" lon="8.2739466"><ele>406.0</ele><time>2026-04-04T14:41:38.048Z</time></trkpt><trkpt lat="44.3487245" lon="8.2738522"><ele>406.0</ele><time>2026-04-04T14:41:41.049Z</time></trkpt><trkpt lat="44.3486993" lon="8.273741"><ele>406.0</ele><time>2026-04-04T14:41:45.048Z</time></trkpt><trkpt lat="44.3486787" lon="8.2736314"><ele>406.0</ele><time>2026-04-04T14:41:49.048Z</time></trkpt><trkpt lat="44.3486498" lon="8.2735502"><ele>407.00000000000006</ele><time>2026-04-04T14:41:52.049Z</time></trkpt><trkpt lat="44.3486181" lon="8.2734449"><ele>408.0</ele><time>2026-04-04T14:41:56.049Z</time></trkpt><trkpt lat="44.3485947" lon="8.2733604"><ele>409.0</ele><time>2026-04-04T14:42:00.049Z</time></trkpt><trkpt lat="44.3485464" lon="8.2732944"><ele>410.0</ele><time>2026-04-04T14:42:04.048Z</time></trkpt><trkpt lat="44.3485168" lon="8.2731961"><ele>411.00000000000006</ele><time>2026-04-04T14:42:09.047Z</time></trkpt><trkpt lat="44.3484782" lon="8.2730909"><ele>412.0</ele><time>2026-04-04T14:42:12.048Z</time></trkpt><trkpt lat="44.3484263" lon="8.2729967"><ele>410.1428571428571</ele><time>2026-04-04T14:42:15.048Z</time></trkpt><trkpt lat="44.3483749" lon="8.2729101"><ele>408.2857142857143</ele><time>2026-04-04T14:42:18.048Z</time></trkpt><trkpt lat="44.3483229" lon="8.2728351"><ele>406.42857142857144</ele><time>2026-04-04T14:42:21.048Z</time></trkpt><trkpt lat="44.3482711" lon="8.2727649"><ele>404.57142857142856</ele><time>2026-04-04T14:42:25.048Z</time></trkpt><trkpt lat="44.348225" lon="8.2726828"><ele>402.7142857142857</ele><time>2026-04-04T14:42:29.048Z</time></trkpt><trkpt lat="44.3481867" lon="8.2725881"><ele>400.85714285714283</ele><time>2026-04-04T14:42:34.048Z</time></trkpt><trkpt lat="44.3481355" lon="8.2725344"><ele>399.0</ele><time>2026-04-04T14:42:38.048Z</time></trkpt><trkpt lat="44.3480709" lon="8.2724527"><ele>402.6666666666667</ele><time>2026-04-04T14:42:42.048Z</time></trkpt><trkpt lat="44.3480265" lon="8.2723622"><ele>406.33333333333337</ele><time>2026-04-04T14:42:45.047Z</time></trkpt><trkpt lat="44.3479825" lon="8.2722842"><ele>410.0</ele><time>2026-04-04T14:42:49.047Z</time></trkpt><trkpt lat="44.3479281" lon="8.2722063"><ele>413.6666666666667</ele><time>2026-04-04T14:42:53.049Z</time></trkpt><trkpt lat="44.3478799" lon="8.2721171"><ele>417.33333333333337</ele><time>2026-04-04T14:42:57.048Z</time></trkpt><trkpt lat="44.3478309" lon="8.2720226"><ele>421.0</ele><time>2026-04-04T14:43:01.047Z</time></trkpt><trkpt lat="44.3477827" lon="8.271934"><ele>421.00000000000006</ele><time>2026-04-04T14:43:05.048Z</time></trkpt><trkpt lat="44.3477448" lon="8.2718571"><ele>421.0</ele><time>2026-04-04T14:43:08.047Z</time></trkpt><trkpt lat="44.3477055" lon="8.2717816"><ele>421.0</ele><time>2026-04-04T14:43:11.048Z</time></trkpt><trkpt lat="44.3476636" lon="8.2716809"><ele>421.0</ele><time>2026-04-04T14:43:15.047Z</time></trkpt><trkpt lat="44.3476202" lon="8.2715883"><ele>421.00000000000006</ele><time>2026-04-04T14:43:19.048Z</time></trkpt><trkpt lat="44.3475868" lon="8.2714949"><ele>421.0</ele><time>2026-04-04T14:43:23.049Z</time></trkpt><trkpt lat="44.3475418" lon="8.2714038"><ele>419.1666666666667</ele><time>2026-04-04T14:43:27.049Z</time></trkpt><trkpt lat="44.3474872" lon="8.2713308"><ele>417.33333333333337</ele><time>2026-04-04T14:43:31.048Z</time></trkpt><trkpt lat="44.347441" lon="8.2712685"><ele>415.5</ele><time>2026-04-04T14:43:34.049Z</time></trkpt><trkpt lat="44.3473777" lon="8.2711939"><ele>413.66666666666663</ele><time>2026-04-04T14:43:38.048Z</time></trkpt><trkpt lat="44.3473119" lon="8.2711383"><ele>411.8333333333333</ele><time>2026-04-04T14:43:42.048Z</time></trkpt><trkpt lat="44.3472441" lon="8.2710769"><ele>410.0</ele><time>2026-04-04T14:43:46.047Z</time></trkpt><trkpt lat="44.3471766" lon="8.2710366"><ele>412.42857142857144</ele><time>2026-04-04T14:43:50.048Z</time></trkpt><trkpt lat="44.3471104" lon="8.2709945"><ele>414.85714285714283</ele><time>2026-04-04T14:43:56.048Z</time></trkpt><trkpt lat="44.3470597" lon="8.2709258"><ele>417.2857142857143</ele><time>2026-04-04T14:43:59.049Z</time></trkpt><trkpt lat="44.3470027" lon="8.2708515"><ele>419.7142857142857</ele><time>2026-04-04T14:44:03.048Z</time></trkpt><trkpt lat="44.3469597" lon="8.2707619"><ele>422.1428571428571</ele><time>2026-04-04T14:44:07.048Z</time></trkpt><trkpt lat="44.346914" lon="8.2706913"><ele>424.57142857142856</ele><time>2026-04-04T14:44:11.048Z</time></trkpt><trkpt lat="44.3468668" lon="8.2706273"><ele>427.0</ele><time>2026-04-04T14:44:15.047Z</time></trkpt><trkpt lat="44.3468207" lon="8.2705599"><ele>427.00000000000006</ele><time>2026-04-04T14:44:19.047Z</time></trkpt><trkpt lat="44.3467687" lon="8.2704624"><ele>427.0</ele><time>2026-04-04T14:44:23.047Z</time></trkpt><trkpt lat="44.3467323" lon="8.2703725"><ele>427.0</ele><time>2026-04-04T14:44:26.047Z</time></trkpt><trkpt lat="44.3466912" lon="8.2702846"><ele>427.0</ele><time>2026-04-04T14:44:29.048Z</time></trkpt><trkpt lat="44.3466384" lon="8.270208"><ele>427.00000000000006</ele><time>2026-04-04T14:44:32.048Z</time></trkpt><trkpt lat="44.3465781" lon="8.2701391"><ele>427.0</ele><time>2026-04-04T14:44:36.048Z</time></trkpt><trkpt lat="44.3465191" lon="8.2700564"><ele>427.0</ele><time>2026-04-04T14:44:41.048Z</time></trkpt><trkpt lat="44.3464815" lon="8.2699736"><ele>427.0</ele><time>2026-04-04T14:44:44.047Z</time></trkpt><trkpt lat="44.3464383" lon="8.269902"><ele>427.0</ele><time>2026-04-04T14:44:48.047Z</time></trkpt><trkpt lat="44.3463863" lon="8.2698201"><ele>427.0</ele><time>2026-04-04T14:44:51.048Z</time></trkpt><trkpt lat="44.3463416" lon="8.2697255"><ele>427.0</ele><time>2026-04-04T14:44:55.047Z</time></trkpt><trkpt lat="44.3462848" lon="8.2696554"><ele>427.0</ele><time>2026-04-04T14:44:58.047Z</time></trkpt><trkpt lat="44.3462605" lon="8.2695646"><ele>427.0</ele><time>2026-04-04T14:45:00.047Z</time></trkpt><trkpt lat="44.3462076" lon="8.2694751"><ele>427.85714285714283</ele><time>2026-04-04T14:45:03.047Z</time></trkpt><trkpt lat="44.3461665" lon="8.2694059"><ele>428.7142857142857</ele><time>2026-04-04T14:45:06.047Z</time></trkpt><trkpt lat="44.3461478" lon="8.2693183"><ele>429.57142857142856</ele><time>2026-04-04T14:45:09.048Z</time></trkpt><trkpt lat="44.3461062" lon="8.2692408"><ele>430.42857142857144</ele><time>2026-04-04T14:45:12.047Z</time></trkpt><trkpt lat="44.3460535" lon="8.2691718"><ele>431.2857142857143</ele><time>2026-04-04T14:45:15.048Z</time></trkpt><trkpt lat="44.3459963" lon="8.2690985"><ele>432.1428571428571</ele><time>2026-04-04T14:45:19.047Z</time></trkpt><trkpt lat="44.3459424" lon="8.26901"><ele>433.0</ele><time>2026-04-04T14:45:23.048Z</time></trkpt><trkpt lat="44.3459002" lon="8.268931"><ele>433.85714285714283</ele><time>2026-04-04T14:45:26.048Z</time></trkpt><trkpt lat="44.3458509" lon="8.2688478"><ele>434.7142857142857</ele><time>2026-04-04T14:45:30.048Z</time></trkpt><trkpt lat="44.3458151" lon="8.2687663"><ele>435.57142857142856</ele><time>2026-04-04T14:45:34.047Z</time></trkpt><trkpt lat="44.3458079" lon="8.2686638"><ele>436.42857142857144</ele><time>2026-04-04T14:45:37.049Z</time></trkpt><trkpt lat="44.3457907" lon="8.2685613"><ele>437.2857142857143</ele><time>2026-04-04T14:45:40.047Z</time></trkpt><trkpt lat="44.3457851" lon="8.2684547"><ele>438.1428571428571</ele><time>2026-04-04T14:45:43.048Z</time></trkpt><trkpt lat="44.3458002" lon="8.2683554"><ele>439.0</ele><time>2026-04-04T14:45:46.049Z</time></trkpt><trkpt lat="44.3457988" lon="8.2682518"><ele>439.0</ele><time>2026-04-04T14:45:50.047Z</time></trkpt><trkpt lat="44.3458001" lon="8.2681601"><ele>439.0</ele><time>2026-04-04T14:45:55.048Z</time></trkpt><trkpt lat="44.3458011" lon="8.2680541"><ele>439.0</ele><time>2026-04-04T14:45:58.048Z</time></trkpt><trkpt lat="44.3457943" lon="8.2679627"><ele>439.0</ele><time>2026-04-04T14:46:01.047Z</time></trkpt><trkpt lat="44.3457762" lon="8.2678574"><ele>439.0</ele><time>2026-04-04T14:46:04.048Z</time></trkpt><trkpt lat="44.3457663" lon="8.267759"><ele>439.0</ele><time>2026-04-04T14:46:06.047Z</time></trkpt><trkpt lat="44.3457432" lon="8.2676668"><ele>439.0</ele><time>2026-04-04T14:46:08.047Z</time></trkpt><trkpt lat="44.345771" lon="8.2675665"><ele>439.2857142857143</ele><time>2026-04-04T14:46:12.048Z</time></trkpt><trkpt lat="44.3458145" lon="8.2674986"><ele>439.57142857142856</ele><time>2026-04-04T14:46:15.048Z</time></trkpt><trkpt lat="44.3458501" lon="8.267424"><ele>439.8571428571429</ele><time>2026-04-04T14:46:18.048Z</time></trkpt><trkpt lat="44.3458992" lon="8.2673478"><ele>440.1428571428571</ele><time>2026-04-04T14:46:21.048Z</time></trkpt><trkpt lat="44.3459559" lon="8.2672981"><ele>440.42857142857144</ele><time>2026-04-04T14:46:24.048Z</time></trkpt><trkpt lat="44.3460065" lon="8.267244"><ele>440.7142857142857</ele><time>2026-04-04T14:46:27.047Z</time></trkpt><trkpt lat="44.346064" lon="8.2672008"><ele>441.0</ele><time>2026-04-04T14:46:30.048Z</time></trkpt><trkpt lat="44.3461257" lon="8.2671404"><ele>441.0</ele><time>2026-04-04T14:46:34.047Z</time></trkpt><trkpt lat="44.3461576" lon="8.2670489"><ele>441.0</ele><time>2026-04-04T14:46:37.05Z</time></trkpt><trkpt lat="44.3462076" lon="8.2669774"><ele>441.0</ele><time>2026-04-04T14:46:40.047Z</time></trkpt><trkpt lat="44.3462347" lon="8.2668873"><ele>441.0</ele><time>2026-04-04T14:46:44.047Z</time></trkpt><trkpt lat="44.346271" lon="8.2668103"><ele>441.0</ele><time>2026-04-04T14:46:47.047Z</time></trkpt><trkpt lat="44.3463197" lon="8.2667289"><ele>441.0</ele><time>2026-04-04T14:46:50.047Z</time></trkpt><trkpt lat="44.3463451" lon="8.2666419"><ele>441.0</ele><time>2026-04-04T14:46:53.047Z</time></trkpt><trkpt lat="44.3463621" lon="8.2665491"><ele>442.1428571428571</ele><time>2026-04-04T14:46:57.048Z</time></trkpt><trkpt lat="44.3463852" lon="8.2664563"><ele>443.2857142857143</ele><time>2026-04-04T14:47:02.047Z</time></trkpt><trkpt lat="44.3464065" lon="8.2663694"><ele>444.42857142857144</ele><time>2026-04-04T14:47:05.048Z</time></trkpt><trkpt lat="44.3464366" lon="8.2662882"><ele>445.57142857142856</ele><time>2026-04-04T14:47:08.047Z</time></trkpt><trkpt lat="44.3464605" lon="8.2661955"><ele>446.71428571428567</ele><time>2026-04-04T14:47:11.047Z</time></trkpt><trkpt lat="44.3465002" lon="8.2660908"><ele>447.85714285714283</ele><time>2026-04-04T14:47:15.048Z</time></trkpt><trkpt lat="44.3465335" lon="8.2660047"><ele>449.0</ele><time>2026-04-04T14:47:18.047Z</time></trkpt><trkpt lat="44.3465606" lon="8.2659204"><ele>451.66666666666663</ele><time>2026-04-04T14:47:21.047Z</time></trkpt><trkpt lat="44.3465817" lon="8.2658141"><ele>454.3333333333333</ele><time>2026-04-04T14:47:25.048Z</time></trkpt><trkpt lat="44.3466036" lon="8.2657004"><ele>457.0</ele><time>2026-04-04T14:47:29.046Z</time></trkpt><trkpt lat="44.3466234" lon="8.265608"><ele>459.66666666666663</ele><time>2026-04-04T14:47:32.046Z</time></trkpt><trkpt lat="44.3466457" lon="8.2655062"><ele>462.3333333333333</ele><time>2026-04-04T14:47:36.047Z</time></trkpt><trkpt lat="44.3466734" lon="8.2654005"><ele>465.0</ele><time>2026-04-04T14:47:40.046Z</time></trkpt><trkpt lat="44.3466861" lon="8.2652842"><ele>466.1428571428571</ele><time>2026-04-04T14:47:44.048Z</time></trkpt><trkpt lat="44.3466812" lon="8.2651861"><ele>467.28571428571433</ele><time>2026-04-04T14:47:48.046Z</time></trkpt><trkpt lat="44.3466839" lon="8.2650856"><ele>468.42857142857144</ele><time>2026-04-04T14:47:52.048Z</time></trkpt><trkpt lat="44.3466827" lon="8.2649854"><ele>469.57142857142856</ele><time>2026-04-04T14:47:56.047Z</time></trkpt><trkpt lat="44.3466384" lon="8.2648981"><ele>470.71428571428567</ele><time>2026-04-04T14:47:59.047Z</time></trkpt><trkpt lat="44.3466037" lon="8.2648067"><ele>471.8571428571429</ele><time>2026-04-04T14:48:03.047Z</time></trkpt><trkpt lat="44.3465855" lon="8.264716"><ele>473.0</ele><time>2026-04-04T14:48:07.046Z</time></trkpt><trkpt lat="44.3465725" lon="8.2646215"><ele>473.14285714285717</ele><time>2026-04-04T14:48:10.048Z</time></trkpt><trkpt lat="44.3465821" lon="8.2645262"><ele>473.2857142857142</ele><time>2026-04-04T14:48:13.047Z</time></trkpt><trkpt lat="44.3465771" lon="8.2644356"><ele>473.4285714285714</ele><time>2026-04-04T14:48:16.048Z</time></trkpt><trkpt lat="44.346568" lon="8.2643412"><ele>473.57142857142856</ele><time>2026-04-04T14:48:20.047Z</time></trkpt><trkpt lat="44.3465825" lon="8.2642354"><ele>473.71428571428567</ele><time>2026-04-04T14:48:24.048Z</time></trkpt><trkpt lat="44.3465908" lon="8.2641264"><ele>473.8571428571428</ele><time>2026-04-04T14:48:28.049Z</time></trkpt><trkpt lat="44.346628" lon="8.2640317"><ele>473.99999999999994</ele><time>2026-04-04T14:48:32.047Z</time></trkpt><trkpt lat="44.3466464" lon="8.2639301"><ele>473.99999999999994</ele><time>2026-04-04T14:48:36.046Z</time></trkpt><trkpt lat="44.3466553" lon="8.2638379"><ele>474.0</ele><time>2026-04-04T14:48:40.046Z</time></trkpt><trkpt lat="44.3466305" lon="8.2637379"><ele>473.99999999999994</ele><time>2026-04-04T14:48:44.048Z</time></trkpt><trkpt lat="44.3465847" lon="8.2636552"><ele>473.99999999999994</ele><time>2026-04-04T14:48:48.049Z</time></trkpt><trkpt lat="44.3465314" lon="8.2636078"><ele>474.0</ele><time>2026-04-04T14:48:51.047Z</time></trkpt><trkpt lat="44.3464802" lon="8.263556"><ele>473.99999999999994</ele><time>2026-04-04T14:48:54.047Z</time></trkpt><trkpt lat="44.3464075" lon="8.2635054"><ele>473.99999999999994</ele><time>2026-04-04T14:48:58.047Z</time></trkpt><trkpt lat="44.346361" lon="8.2634444"><ele>474.42857142857133</ele><time>2026-04-04T14:49:01.046Z</time></trkpt><trkpt lat="44.3463019" lon="8.2633811"><ele>474.85714285714283</ele><time>2026-04-04T14:49:05.047Z</time></trkpt><trkpt lat="44.3462454" lon="8.2633048"><ele>475.2857142857142</ele><time>2026-04-04T14:49:09.047Z</time></trkpt><trkpt lat="44.3461956" lon="8.2632449"><ele>475.71428571428567</ele><time>2026-04-04T14:49:12.047Z</time></trkpt><trkpt lat="44.3461371" lon="8.2631592"><ele>476.1428571428571</ele><time>2026-04-04T14:49:16.048Z</time></trkpt><trkpt lat="44.3460829" lon="8.2631137"><ele>476.57142857142856</ele><time>2026-04-04T14:49:19.047Z</time></trkpt><trkpt lat="44.3460205" lon="8.26306"><ele>477.0</ele><time>2026-04-04T14:49:22.048Z</time></trkpt><trkpt lat="44.3459642" lon="8.2629912"><ele>477.0</ele><time>2026-04-04T14:49:25.047Z</time></trkpt><trkpt lat="44.3458977" lon="8.2629076"><ele>477.0</ele><time>2026-04-04T14:49:28.047Z</time></trkpt><trkpt lat="44.3458318" lon="8.2628511"><ele>477.0</ele><time>2026-04-04T14:49:31.047Z</time></trkpt><trkpt lat="44.3457552" lon="8.2628062"><ele>477.0</ele><time>2026-04-04T14:49:34.047Z</time></trkpt><trkpt lat="44.3456787" lon="8.2627719"><ele>477.0</ele><time>2026-04-04T14:49:37.047Z</time></trkpt><trkpt lat="44.3456053" lon="8.2627368"><ele>477.0</ele><time>2026-04-04T14:49:40.048Z</time></trkpt><trkpt lat="44.3455398" lon="8.2626865"><ele>478.85714285714283</ele><time>2026-04-04T14:49:43.047Z</time></trkpt><trkpt lat="44.3454791" lon="8.2626618"><ele>480.71428571428567</ele><time>2026-04-04T14:49:46.048Z</time></trkpt><trkpt lat="44.3454138" lon="8.2626398"><ele>482.57142857142856</ele><time>2026-04-04T14:49:49.045Z</time></trkpt><trkpt lat="44.3453403" lon="8.2626316"><ele>484.42857142857144</ele><time>2026-04-04T14:49:52.047Z</time></trkpt><trkpt lat="44.345272" lon="8.2626068"><ele>486.2857142857143</ele><time>2026-04-04T14:49:55.047Z</time></trkpt><trkpt lat="44.3451978" lon="8.2625841"><ele>488.1428571428571</ele><time>2026-04-04T14:49:58.047Z</time></trkpt><trkpt lat="44.3451213" lon="8.2625264"><ele>490.0</ele><time>2026-04-04T14:50:01.047Z</time></trkpt><trkpt lat="44.3450597" lon="8.2624713"><ele>490.0</ele><time>2026-04-04T14:50:04.047Z</time></trkpt><trkpt lat="44.3450033" lon="8.2624148"><ele>490.0</ele><time>2026-04-04T14:50:07.047Z</time></trkpt><trkpt lat="44.3449466" lon="8.2623597"><ele>490.0</ele><time>2026-04-04T14:50:10.047Z</time></trkpt><trkpt lat="44.3448695" lon="8.2623035"><ele>490.0</ele><time>2026-04-04T14:50:14.048Z</time></trkpt><trkpt lat="44.3448146" lon="8.2622507"><ele>490.0</ele><time>2026-04-04T14:50:17.045Z</time></trkpt><trkpt lat="44.3447546" lon="8.2622039"><ele>490.0</ele><time>2026-04-04T14:50:20.047Z</time></trkpt><trkpt lat="44.3446984" lon="8.262145"><ele>490.0</ele><time>2026-04-04T14:50:23.047Z</time></trkpt><trkpt lat="44.3446466" lon="8.2620785"><ele>490.42857142857144</ele><time>2026-04-04T14:50:26.048Z</time></trkpt><trkpt lat="44.3446008" lon="8.2620155"><ele>490.8571428571429</ele><time>2026-04-04T14:50:29.047Z</time></trkpt><trkpt lat="44.3445562" lon="8.2619512"><ele>491.2857142857143</ele><time>2026-04-04T14:50:32.047Z</time></trkpt><trkpt lat="44.3445087" lon="8.2618861"><ele>491.7142857142857</ele><time>2026-04-04T14:50:35.047Z</time></trkpt><trkpt lat="44.3444646" lon="8.2618217"><ele>492.14285714285717</ele><time>2026-04-04T14:50:38.047Z</time></trkpt><trkpt lat="44.344419" lon="8.2617592"><ele>492.57142857142856</ele><time>2026-04-04T14:50:41.046Z</time></trkpt><trkpt lat="44.3443608" lon="8.261682"><ele>493.0</ele><time>2026-04-04T14:50:45.046Z</time></trkpt><trkpt lat="44.3443215" lon="8.2616095"><ele>493.0</ele><time>2026-04-04T14:50:48.047Z</time></trkpt><trkpt lat="44.344282" lon="8.2615168"><ele>493.0</ele><time>2026-04-04T14:50:52.048Z</time></trkpt><trkpt lat="44.3442348" lon="8.2614275"><ele>493.0</ele><time>2026-04-04T14:50:56.047Z</time></trkpt><trkpt lat="44.3441856" lon="8.2613616"><ele>493.0</ele><time>2026-04-04T14:51:00.047Z</time></trkpt><trkpt lat="44.3441417" lon="8.2612858"><ele>493.0</ele><time>2026-04-04T14:51:04.047Z</time></trkpt><trkpt lat="44.3440881" lon="8.2612027"><ele>493.0</ele><time>2026-04-04T14:51:08.048Z</time></trkpt><trkpt lat="44.344037" lon="8.2611285"><ele>493.0</ele><time>2026-04-04T14:51:12.047Z</time></trkpt><trkpt lat="44.3439913" lon="8.2610593"><ele>492.85714285714283</ele><time>2026-04-04T14:51:16.048Z</time></trkpt><trkpt lat="44.343934" lon="8.260986"><ele>492.7142857142858</ele><time>2026-04-04T14:51:20.048Z</time></trkpt><trkpt lat="44.3438798" lon="8.2608996"><ele>492.5714285714286</ele><time>2026-04-04T14:51:24.046Z</time></trkpt><trkpt lat="44.3438286" lon="8.2608323"><ele>492.42857142857144</ele><time>2026-04-04T14:51:28.047Z</time></trkpt><trkpt lat="44.3437843" lon="8.2607695"><ele>492.28571428571433</ele><time>2026-04-04T14:51:32.047Z</time></trkpt><trkpt lat="44.3437256" lon="8.2607057"><ele>492.1428571428572</ele><time>2026-04-04T14:51:37.047Z</time></trkpt><trkpt lat="44.3436729" lon="8.2606351"><ele>492.00000000000006</ele><time>2026-04-04T14:51:42.045Z</time></trkpt><trkpt lat="44.3436169" lon="8.2605615"><ele>495.4285714285715</ele><time>2026-04-04T14:51:46.047Z</time></trkpt><trkpt lat="44.3435656" lon="8.2604877"><ele>498.8571428571429</ele><time>2026-04-04T14:51:50.046Z</time></trkpt><trkpt lat="44.3435222" lon="8.2603991"><ele>502.2857142857143</ele><time>2026-04-04T14:51:54.045Z</time></trkpt><trkpt lat="44.3434859" lon="8.2603114"><ele>505.7142857142857</ele><time>2026-04-04T14:51:58.045Z</time></trkpt><trkpt lat="44.343459" lon="8.2602317"><ele>509.1428571428571</ele><time>2026-04-04T14:52:02.047Z</time></trkpt><trkpt lat="44.3434181" lon="8.2601361"><ele>512.5714285714286</ele><time>2026-04-04T14:52:06.047Z</time></trkpt><trkpt lat="44.3433745" lon="8.2600466"><ele>516.0</ele><time>2026-04-04T14:52:11.046Z</time></trkpt><trkpt lat="44.3433352" lon="8.2599706"><ele>516.0</ele><time>2026-04-04T14:52:14.047Z</time></trkpt><trkpt lat="44.3432944" lon="8.2598755"><ele>516.0</ele><time>2026-04-04T14:52:18.046Z</time></trkpt><trkpt lat="44.3432554" lon="8.259776"><ele>516.0</ele><time>2026-04-04T14:52:22.047Z</time></trkpt><trkpt lat="44.3432097" lon="8.2596797"><ele>516.0</ele><time>2026-04-04T14:52:26.046Z</time></trkpt><trkpt lat="44.343171" lon="8.259573"><ele>516.0</ele><time>2026-04-04T14:52:30.045Z</time></trkpt><trkpt lat="44.3431416" lon="8.259468"><ele>516.0</ele><time>2026-04-04T14:52:33.046Z</time></trkpt><trkpt lat="44.3431103" lon="8.2593809"><ele>516.0</ele><time>2026-04-04T14:52:36.046Z</time></trkpt><trkpt lat="44.343093" lon="8.2592741"><ele>516.0</ele><time>2026-04-04T14:52:40.046Z</time></trkpt><trkpt lat="44.3430741" lon="8.2591747"><ele>516.0</ele><time>2026-04-04T14:52:44.048Z</time></trkpt><trkpt lat="44.343058" lon="8.2590654"><ele>516.0</ele><time>2026-04-04T14:52:47.047Z</time></trkpt><trkpt lat="44.3430336" lon="8.2589612"><ele>516.0</ele><time>2026-04-04T14:52:50.047Z</time></trkpt><trkpt lat="44.3430151" lon="8.2588712"><ele>516.0</ele><time>2026-04-04T14:52:53.046Z</time></trkpt><trkpt lat="44.3430072" lon="8.2587664"><ele>521.2857142857142</ele><time>2026-04-04T14:52:56.046Z</time></trkpt><trkpt lat="44.3430064" lon="8.2586757"><ele>526.5714285714286</ele><time>2026-04-04T14:53:00.046Z</time></trkpt><trkpt lat="44.3429967" lon="8.2585498"><ele>531.8571428571429</ele><time>2026-04-04T14:53:04.047Z</time></trkpt><trkpt lat="44.3430021" lon="8.2584537"><ele>537.1428571428571</ele><time>2026-04-04T14:53:07.046Z</time></trkpt><trkpt lat="44.343009" lon="8.2583445"><ele>542.4285714285714</ele><time>2026-04-04T14:53:12.046Z</time></trkpt><trkpt lat="44.3430001" lon="8.25824"><ele>547.7142857142857</ele><time>2026-04-04T14:53:15.046Z</time></trkpt><trkpt lat="44.3430236" lon="8.2581527"><ele>553.0</ele><time>2026-04-04T14:53:18.047Z</time></trkpt><trkpt lat="44.3430645" lon="8.2580837"><ele>553.0</ele><time>2026-04-04T14:53:21.048Z</time></trkpt><trkpt lat="44.3431187" lon="8.2580042"><ele>553.0</ele><time>2026-04-04T14:53:25.046Z</time></trkpt><trkpt lat="44.3431781" lon="8.2579372"><ele>553.0</ele><time>2026-04-04T14:53:29.046Z</time></trkpt><trkpt lat="44.3432414" lon="8.257878"><ele>553.0</ele><time>2026-04-04T14:53:32.047Z</time></trkpt><trkpt lat="44.3433063" lon="8.2578335"><ele>553.0</ele><time>2026-04-04T14:53:35.045Z</time></trkpt><trkpt lat="44.3433671" lon="8.2578051"><ele>553.0</ele><time>2026-04-04T14:53:39.047Z</time></trkpt><trkpt lat="44.3434413" lon="8.2578062"><ele>553.0</ele><time>2026-04-04T14:53:47.046Z</time></trkpt><trkpt lat="44.3435105" lon="8.257839"><ele>553.0</ele><time>2026-04-04T14:53:50.046Z</time></trkpt><trkpt lat="44.3435812" lon="8.2578624"><ele>553.0</ele><time>2026-04-04T14:53:53.046Z</time></trkpt><trkpt lat="44.3436477" lon="8.2578454"><ele>553.0</ele><time>2026-04-04T14:53:56.045Z</time></trkpt><trkpt lat="44.343725" lon="8.2578004"><ele>553.0</ele><time>2026-04-04T14:53:59.046Z</time></trkpt><trkpt lat="44.3437937" lon="8.2577548"><ele>553.0</ele><time>2026-04-04T14:54:02.046Z</time></trkpt><trkpt lat="44.3438779" lon="8.2577109"><ele>553.0</ele><time>2026-04-04T14:54:07.047Z</time></trkpt><trkpt lat="44.343936" lon="8.2576684"><ele>551.5714285714286</ele><time>2026-04-04T14:54:11.047Z</time></trkpt><trkpt lat="44.3439855" lon="8.257592"><ele>550.1428571428571</ele><time>2026-04-04T14:54:14.047Z</time></trkpt><trkpt lat="44.3440539" lon="8.2575182"><ele>548.7142857142858</ele><time>2026-04-04T14:54:18.045Z</time></trkpt><trkpt lat="44.3441161" lon="8.2574776"><ele>547.2857142857142</ele><time>2026-04-04T14:54:21.046Z</time></trkpt><trkpt lat="44.344189" lon="8.2574683"><ele>545.8571428571429</ele><time>2026-04-04T14:54:24.046Z</time></trkpt><trkpt lat="44.3442539" lon="8.2574585"><ele>544.4285714285714</ele><time>2026-04-04T14:54:26.045Z</time></trkpt><trkpt lat="44.344312" lon="8.2574017"><ele>543.0</ele><time>2026-04-04T14:54:29.045Z</time></trkpt><trkpt lat="44.3443738" lon="8.2573671"><ele>543.0</ele><time>2026-04-04T14:54:32.046Z</time></trkpt><trkpt lat="44.3444377" lon="8.2573325"><ele>543.0</ele><time>2026-04-04T14:54:35.046Z</time></trkpt><trkpt lat="44.34451" lon="8.2573113"><ele>543.0</ele><time>2026-04-04T14:54:38.046Z</time></trkpt><trkpt lat="44.3445761" lon="8.2572992"><ele>543.0</ele><time>2026-04-04T14:54:41.045Z</time></trkpt><trkpt lat="44.3446478" lon="8.2572523"><ele>543.0</ele><time>2026-04-04T14:54:44.046Z</time></trkpt><trkpt lat="44.344684" lon="8.2571789"><ele>543.0</ele><time>2026-04-04T14:54:47.045Z</time></trkpt><trkpt lat="44.3447074" lon="8.2570608"><ele>543.0</ele><time>2026-04-04T14:54:51.047Z</time></trkpt><trkpt lat="44.3446868" lon="8.2569479"><ele>543.3333333333334</ele><time>2026-04-04T14:54:54.045Z</time></trkpt><trkpt lat="44.3447013" lon="8.2568232"><ele>543.6666666666666</ele><time>2026-04-04T14:54:58.046Z</time></trkpt><trkpt lat="44.3447032" lon="8.2567007"><ele>544.0</ele><time>2026-04-04T14:55:01.046Z</time></trkpt><trkpt lat="44.3446984" lon="8.2565749"><ele>544.3333333333333</ele><time>2026-04-04T14:55:04.045Z</time></trkpt><trkpt lat="44.3447036" lon="8.2564749"><ele>544.6666666666666</ele><time>2026-04-04T14:55:07.046Z</time></trkpt><trkpt lat="44.3447389" lon="8.2563902"><ele>545.0</ele><time>2026-04-04T14:55:11.045Z</time></trkpt><trkpt lat="44.3447442" lon="8.2562833"><ele>545.0</ele><time>2026-04-04T14:55:15.047Z</time></trkpt><trkpt lat="44.344733" lon="8.2561848"><ele>545.0</ele><time>2026-04-04T14:55:18.046Z</time></trkpt><trkpt lat="44.3447429" lon="8.2560811"><ele>545.0</ele><time>2026-04-04T14:55:21.047Z</time></trkpt><trkpt lat="44.3447487" lon="8.2559826"><ele>545.0</ele><time>2026-04-04T14:55:24.046Z</time></trkpt><trkpt lat="44.3447577" lon="8.2558916"><ele>545.0</ele><time>2026-04-04T14:55:27.046Z</time></trkpt><trkpt lat="44.3447719" lon="8.2558031"><ele>545.0</ele><time>2026-04-04T14:55:30.045Z</time></trkpt><trkpt lat="44.3447956" lon="8.2556962"><ele>545.0</ele><time>2026-04-04T14:55:34.046Z</time></trkpt><trkpt lat="44.3448033" lon="8.2555922"><ele>545.5714285714286</ele><time>2026-04-04T14:55:38.046Z</time></trkpt><trkpt lat="44.344795" lon="8.255497"><ele>546.1428571428572</ele><time>2026-04-04T14:55:41.045Z</time></trkpt><trkpt lat="44.3447894" lon="8.2553966"><ele>546.7142857142858</ele><time>2026-04-04T14:55:44.046Z</time></trkpt><trkpt lat="44.3447843" lon="8.2552876"><ele>547.2857142857143</ele><time>2026-04-04T14:55:48.047Z</time></trkpt><trkpt lat="44.3447837" lon="8.255198"><ele>547.8571428571429</ele><time>2026-04-04T14:55:51.045Z</time></trkpt><trkpt lat="44.3447902" lon="8.2551041"><ele>548.4285714285714</ele><time>2026-04-04T14:55:54.045Z</time></trkpt><trkpt lat="44.3448093" lon="8.2550049"><ele>549.0</ele><time>2026-04-04T14:55:57.046Z</time></trkpt><trkpt lat="44.3448202" lon="8.2549094"><ele>549.0</ele><time>2026-04-04T14:56:00.046Z</time></trkpt><trkpt lat="44.3448259" lon="8.2547973"><ele>549.0</ele><time>2026-04-04T14:56:05.046Z</time></trkpt><trkpt lat="44.3448145" lon="8.2546916"><ele>549.0</ele><time>2026-04-04T14:56:09.046Z</time></trkpt><trkpt lat="44.3447895" lon="8.2545984"><ele>549.0</ele><time>2026-04-04T14:56:12.047Z</time></trkpt><trkpt lat="44.344755" lon="8.2544907"><ele>549.0</ele><time>2026-04-04T14:56:16.047Z</time></trkpt><trkpt lat="44.3447227" lon="8.2544137"><ele>549.0</ele><time>2026-04-04T14:56:19.044Z</time></trkpt><trkpt lat="44.3446925" lon="8.2543358"><ele>549.0</ele><time>2026-04-04T14:56:22.047Z</time></trkpt><trkpt lat="44.344663" lon="8.2542333"><ele>550.6666666666666</ele><time>2026-04-04T14:56:25.045Z</time></trkpt><trkpt lat="44.3446337" lon="8.2541257"><ele>552.3333333333334</ele><time>2026-04-04T14:56:28.046Z</time></trkpt><trkpt lat="44.3445954" lon="8.2540363"><ele>554.0</ele><time>2026-04-04T14:56:31.045Z</time></trkpt><trkpt lat="44.3445504" lon="8.2539617"><ele>555.6666666666667</ele><time>2026-04-04T14:56:34.046Z</time></trkpt><trkpt lat="44.3445138" lon="8.2538858"><ele>557.3333333333334</ele><time>2026-04-04T14:56:37.046Z</time></trkpt><trkpt lat="44.3444557" lon="8.2537831"><ele>559.0</ele><time>2026-04-04T14:56:40.047Z</time></trkpt><trkpt lat="44.3444071" lon="8.2536862"><ele>559.0</ele><time>2026-04-04T14:56:43.047Z</time></trkpt><trkpt lat="44.3443588" lon="8.2536067"><ele>559.0</ele><time>2026-04-04T14:56:46.046Z</time></trkpt><trkpt lat="44.3443243" lon="8.2535095"><ele>559.0</ele><time>2026-04-04T14:56:49.045Z</time></trkpt><trkpt lat="44.3442875" lon="8.2534068"><ele>559.0</ele><time>2026-04-04T14:56:52.045Z</time></trkpt><trkpt lat="44.34423" lon="8.2533286"><ele>559.0</ele><time>2026-04-04T14:56:55.046Z</time></trkpt><trkpt lat="44.3441634" lon="8.2532714"><ele>559.0</ele><time>2026-04-04T14:56:58.044Z</time></trkpt><trkpt lat="44.3440894" lon="8.2532592"><ele>559.0</ele><time>2026-04-04T14:57:01.046Z</time></trkpt><trkpt lat="44.3440263" lon="8.2533021"><ele>559.0</ele><time>2026-04-04T14:57:04.046Z</time></trkpt><trkpt lat="44.3439402" lon="8.2533479"><ele>559.0</ele><time>2026-04-04T14:57:07.045Z</time></trkpt><trkpt lat="44.3438746" lon="8.2533675"><ele>559.0</ele><time>2026-04-04T14:57:09.047Z</time></trkpt><trkpt lat="44.3437979" lon="8.2533587"><ele>559.0</ele><time>2026-04-04T14:57:11.047Z</time></trkpt><trkpt lat="44.343714" lon="8.2533208"><ele>559.0</ele><time>2026-04-04T14:57:13.044Z</time></trkpt><trkpt lat="44.3436319" lon="8.2532771"><ele>559.4285714285714</ele><time>2026-04-04T14:57:15.045Z</time></trkpt><trkpt lat="44.3435669" lon="8.2532418"><ele>559.8571428571429</ele><time>2026-04-04T14:57:17.046Z</time></trkpt><trkpt lat="44.3435108" lon="8.2531935"><ele>560.2857142857143</ele><time>2026-04-04T14:57:19.047Z</time></trkpt><trkpt lat="44.3434551" lon="8.2531281"><ele>560.7142857142858</ele><time>2026-04-04T14:57:21.046Z</time></trkpt><trkpt lat="44.3433994" lon="8.2530456"><ele>561.1428571428571</ele><time>2026-04-04T14:57:23.046Z</time></trkpt><trkpt lat="44.3433545" lon="8.2529807"><ele>561.5714285714287</ele><time>2026-04-04T14:57:25.046Z</time></trkpt><trkpt lat="44.3432961" lon="8.2528846"><ele>562.0</ele><time>2026-04-04T14:57:28.046Z</time></trkpt><trkpt lat="44.3432643" lon="8.2527994"><ele>562.0</ele><time>2026-04-04T14:57:30.044Z</time></trkpt><trkpt lat="44.3432256" lon="8.2527207"><ele>562.0</ele><time>2026-04-04T14:57:32.044Z</time></trkpt><trkpt lat="44.3431808" lon="8.2526488"><ele>562.0</ele><time>2026-04-04T14:57:34.046Z</time></trkpt><trkpt lat="44.3431322" lon="8.2525719"><ele>562.0</ele><time>2026-04-04T14:57:36.047Z</time></trkpt><trkpt lat="44.3430707" lon="8.2524737"><ele>562.0</ele><time>2026-04-04T14:57:40.045Z</time></trkpt><trkpt lat="44.3430255" lon="8.2523777"><ele>562.0</ele><time>2026-04-04T14:57:42.046Z</time></trkpt><trkpt lat="44.3429791" lon="8.2522844"><ele>565.8333333333334</ele><time>2026-04-04T14:57:44.046Z</time></trkpt><trkpt lat="44.3429444" lon="8.252184"><ele>569.6666666666667</ele><time>2026-04-04T14:57:46.045Z</time></trkpt><trkpt lat="44.3429113" lon="8.2520665"><ele>573.5</ele><time>2026-04-04T14:57:49.044Z</time></trkpt><trkpt lat="44.3428845" lon="8.2519631"><ele>577.3333333333334</ele><time>2026-04-04T14:57:51.046Z</time></trkpt><trkpt lat="44.3428734" lon="8.251859"><ele>581.1666666666666</ele><time>2026-04-04T14:57:53.044Z</time></trkpt><trkpt lat="44.3428573" lon="8.2517524"><ele>585.0</ele><time>2026-04-04T14:57:55.046Z</time></trkpt><trkpt lat="44.342846" lon="8.2516395"><ele>585.0</ele><time>2026-04-04T14:57:57.045Z</time></trkpt><trkpt lat="44.3428226" lon="8.2515314"><ele>585.0</ele><time>2026-04-04T14:58:00.044Z</time></trkpt><trkpt lat="44.3427932" lon="8.2514445"><ele>585.0</ele><time>2026-04-04T14:58:03.046Z</time></trkpt><trkpt lat="44.342761" lon="8.2513508"><ele>585.0</ele><time>2026-04-04T14:58:05.045Z</time></trkpt><trkpt lat="44.3427166" lon="8.2512514"><ele>585.0</ele><time>2026-04-04T14:58:07.045Z</time></trkpt><trkpt lat="44.3426532" lon="8.2511257"><ele>585.0</ele><time>2026-04-04T14:58:09.045Z</time></trkpt><trkpt lat="44.3425811" lon="8.250995"><ele>582.6</ele><time>2026-04-04T14:58:11.044Z</time></trkpt><trkpt lat="44.3425465" lon="8.2508914"><ele>580.2</ele><time>2026-04-04T14:58:13.046Z</time></trkpt><trkpt lat="44.3425061" lon="8.2507773"><ele>577.8</ele><time>2026-04-04T14:58:16.045Z</time></trkpt><trkpt lat="44.3425087" lon="8.2506793"><ele>575.4</ele><time>2026-04-04T14:58:19.045Z</time></trkpt><trkpt lat="44.3424665" lon="8.2505415"><ele>573.0</ele><time>2026-04-04T14:58:21.046Z</time></trkpt><trkpt lat="44.3424269" lon="8.2504058"><ele>571.5</ele><time>2026-04-04T14:58:23.046Z</time></trkpt><trkpt lat="44.3423914" lon="8.2501985"><ele>570.0</ele><time>2026-04-04T14:58:25.046Z</time></trkpt><trkpt lat="44.3423886" lon="8.2500848"><ele>568.5</ele><time>2026-04-04T14:58:28.045Z</time></trkpt><trkpt lat="44.3423641" lon="8.2499962"><ele>567.0</ele><time>2026-04-04T14:58:29.045Z</time></trkpt><trkpt lat="44.3423636" lon="8.2498908"><ele>565.5</ele><time>2026-04-04T14:58:31.045Z</time></trkpt><trkpt lat="44.3423701" lon="8.249803"><ele>564.0</ele><time>2026-04-04T14:58:33.045Z</time></trkpt><trkpt lat="44.3423803" lon="8.2496543"><ele>564.6666666666666</ele><time>2026-04-04T14:58:35.046Z</time></trkpt><trkpt lat="44.3423969" lon="8.2495672"><ele>565.3333333333334</ele><time>2026-04-04T14:58:36.044Z</time></trkpt><trkpt lat="44.3423541" lon="8.2494445"><ele>566.0</ele><time>2026-04-04T14:58:38.046Z</time></trkpt><trkpt lat="44.3423013" lon="8.2493736"><ele>566.6666666666667</ele><time>2026-04-04T14:58:40.045Z</time></trkpt><trkpt lat="44.3422354" lon="8.2493192"><ele>567.3333333333334</ele><time>2026-04-04T14:58:42.045Z</time></trkpt><trkpt lat="44.3421535" lon="8.2492703"><ele>568.0</ele><time>2026-04-04T14:58:45.045Z</time></trkpt><trkpt lat="44.3420762" lon="8.2492535"><ele>568.0</ele><time>2026-04-04T14:58:48.044Z</time></trkpt><trkpt lat="44.3420099" lon="8.2492509"><ele>568.0</ele><time>2026-04-04T14:58:50.045Z</time></trkpt><trkpt lat="44.3419363" lon="8.2492565"><ele>568.0</ele><time>2026-04-04T14:58:52.046Z</time></trkpt><trkpt lat="44.3418598" lon="8.2492505"><ele>568.0</ele><time>2026-04-04T14:58:54.046Z</time></trkpt><trkpt lat="44.3417846" lon="8.249245"><ele>568.0</ele><time>2026-04-04T14:58:56.046Z</time></trkpt><trkpt lat="44.3417072" lon="8.2492505"><ele>568.0</ele><time>2026-04-04T14:58:58.047Z</time></trkpt><trkpt lat="44.3416416" lon="8.2492319"><ele>568.0</ele><time>2026-04-04T14:59:00.045Z</time></trkpt><trkpt lat="44.341571" lon="8.2492098"><ele>568.0</ele><time>2026-04-04T14:59:02.045Z</time></trkpt><trkpt lat="44.3415018" lon="8.2491966"><ele>568.0</ele><time>2026-04-04T14:59:04.045Z</time></trkpt><trkpt lat="44.3414076" lon="8.2491984"><ele>568.0</ele><time>2026-04-04T14:59:07.045Z</time></trkpt><trkpt lat="44.3413227" lon="8.2492205"><ele>568.0</ele><time>2026-04-04T14:59:10.046Z</time></trkpt><trkpt lat="44.3412394" lon="8.2492663"><ele>568.0</ele><time>2026-04-04T14:59:13.046Z</time></trkpt><trkpt lat="44.3411721" lon="8.2492897"><ele>568.0</ele><time>2026-04-04T14:59:15.047Z</time></trkpt><trkpt lat="44.3410892" lon="8.2493269"><ele>568.1666666666667</ele><time>2026-04-04T14:59:18.045Z</time></trkpt><trkpt lat="44.3410182" lon="8.2493537"><ele>568.3333333333334</ele><time>2026-04-04T14:59:20.046Z</time></trkpt><trkpt lat="44.3409415" lon="8.2493489"><ele>568.5</ele><time>2026-04-04T14:59:22.045Z</time></trkpt><trkpt lat="44.340857" lon="8.2493408"><ele>568.6666666666666</ele><time>2026-04-04T14:59:24.045Z</time></trkpt><trkpt lat="44.3407743" lon="8.2493298"><ele>568.8333333333333</ele><time>2026-04-04T14:59:26.044Z</time></trkpt><trkpt lat="44.3406889" lon="8.2493128"><ele>569.0</ele><time>2026-04-04T14:59:28.045Z</time></trkpt><trkpt lat="44.3406033" lon="8.2492923"><ele>569.5</ele><time>2026-04-04T14:59:30.047Z</time></trkpt><trkpt lat="44.3405225" lon="8.2492829"><ele>570.0</ele><time>2026-04-04T14:59:32.044Z</time></trkpt><trkpt lat="44.3404459" lon="8.24928"><ele>570.5</ele><time>2026-04-04T14:59:34.045Z</time></trkpt><trkpt lat="44.3403649" lon="8.2492911"><ele>571.0</ele><time>2026-04-04T14:59:36.045Z</time></trkpt><trkpt lat="44.3402833" lon="8.2493006"><ele>571.5</ele><time>2026-04-04T14:59:38.047Z</time></trkpt><trkpt lat="44.3402135" lon="8.2493212"><ele>572.0</ele><time>2026-04-04T14:59:40.045Z</time></trkpt><trkpt lat="44.3401502" lon="8.2493361"><ele>572.0</ele><time>2026-04-04T14:59:42.045Z</time></trkpt><trkpt lat="44.3400792" lon="8.2493501"><ele>572.0</ele><time>2026-04-04T14:59:44.046Z</time></trkpt><trkpt lat="44.339998" lon="8.2493954"><ele>572.0</ele><time>2026-04-04T14:59:46.046Z</time></trkpt><trkpt lat="44.3399027" lon="8.2494328"><ele>572.0</ele><time>2026-04-04T14:59:48.045Z</time></trkpt><trkpt lat="44.3397945" lon="8.2494518"><ele>572.0</ele><time>2026-04-04T14:59:50.045Z</time></trkpt><trkpt lat="44.3397023" lon="8.2494532"><ele>571.6</ele><time>2026-04-04T14:59:52.046Z</time></trkpt><trkpt lat="44.3396056" lon="8.2494482"><ele>571.2</ele><time>2026-04-04T14:59:54.046Z</time></trkpt><trkpt lat="44.3395071" lon="8.2494346"><ele>570.8</ele><time>2026-04-04T14:59:56.044Z</time></trkpt><trkpt lat="44.339413" lon="8.249414"><ele>570.4</ele><time>2026-04-04T14:59:58.046Z</time></trkpt><trkpt lat="44.3393248" lon="8.2493975"><ele>570.0</ele><time>2026-04-04T15:00:00.045Z</time></trkpt><trkpt lat="44.3392441" lon="8.24938"><ele>570.0</ele><time>2026-04-04T15:00:02.046Z</time></trkpt><trkpt lat="44.3391627" lon="8.2493555"><ele>570.0</ele><time>2026-04-04T15:00:04.045Z</time></trkpt><trkpt lat="44.3390837" lon="8.2493108"><ele>570.0</ele><time>2026-04-04T15:00:06.045Z</time></trkpt><trkpt lat="44.3389952" lon="8.2492189"><ele>570.0</ele><time>2026-04-04T15:00:08.045Z</time></trkpt><trkpt lat="44.338902" lon="8.2491064"><ele>570.0</ele><time>2026-04-04T15:00:10.045Z</time></trkpt><trkpt lat="44.3388538" lon="8.2490409"><ele>569.0</ele><time>2026-04-04T15:00:11.046Z</time></trkpt><trkpt lat="44.3387939" lon="8.2489821"><ele>568.0</ele><time>2026-04-04T15:00:12.046Z</time></trkpt><trkpt lat="44.3387439" lon="8.2489209"><ele>567.0</ele><time>2026-04-04T15:00:13.045Z</time></trkpt><trkpt lat="44.3386964" lon="8.2488517"><ele>566.0</ele><time>2026-04-04T15:00:14.044Z</time></trkpt><trkpt lat="44.3386181" lon="8.2487124"><ele>565.0</ele><time>2026-04-04T15:00:16.045Z</time></trkpt><trkpt lat="44.3386209" lon="8.248547"><ele>567.0</ele><time>2026-04-04T15:00:18.045Z</time></trkpt><trkpt lat="44.338638" lon="8.2484589"><ele>569.0</ele><time>2026-04-04T15:00:19.045Z</time></trkpt><trkpt lat="44.3386737" lon="8.2482888"><ele>571.0</ele><time>2026-04-04T15:00:21.044Z</time></trkpt><trkpt lat="44.3386827" lon="8.2481062"><ele>573.0</ele><time>2026-04-04T15:00:23.046Z</time></trkpt><trkpt lat="44.3386783" lon="8.2479495"><ele>575.0</ele><time>2026-04-04T15:00:25.045Z</time></trkpt><trkpt lat="44.3386691" lon="8.2478594"><ele>574.4</ele><time>2026-04-04T15:00:26.045Z</time></trkpt><trkpt lat="44.3386627" lon="8.247757"><ele>573.8</ele><time>2026-04-04T15:00:27.045Z</time></trkpt><trkpt lat="44.3386093" lon="8.2476155"><ele>573.2</ele><time>2026-04-04T15:00:29.045Z</time></trkpt><trkpt lat="44.3385657" lon="8.2474472"><ele>572.6</ele><time>2026-04-04T15:00:31.044Z</time></trkpt><trkpt lat="44.338505" lon="8.247343"><ele>572.0</ele><time>2026-04-04T15:00:34.045Z</time></trkpt><trkpt lat="44.3384588" lon="8.2472412"><ele>572.0</ele><time>2026-04-04T15:00:37.045Z</time></trkpt><trkpt lat="44.3384173" lon="8.2471524"><ele>572.0</ele><time>2026-04-04T15:00:40.045Z</time></trkpt><trkpt lat="44.3383914" lon="8.2470635"><ele>572.0</ele><time>2026-04-04T15:00:43.046Z</time></trkpt><trkpt lat="44.3383388" lon="8.2469859"><ele>572.0</ele><time>2026-04-04T15:00:46.044Z</time></trkpt><trkpt lat="44.3382869" lon="8.2469182"><ele>572.0</ele><time>2026-04-04T15:00:49.044Z</time></trkpt><trkpt lat="44.3382309" lon="8.2468461"><ele>572.0</ele><time>2026-04-04T15:00:52.045Z</time></trkpt><trkpt lat="44.3381765" lon="8.2467585"><ele>572.0</ele><time>2026-04-04T15:00:55.044Z</time></trkpt><trkpt lat="44.3381145" lon="8.2466818"><ele>572.0</ele><time>2026-04-04T15:00:58.046Z</time></trkpt><trkpt lat="44.3380533" lon="8.2466109"><ele>572.0</ele><time>2026-04-04T15:01:01.045Z</time></trkpt><trkpt lat="44.3379965" lon="8.246547"><ele>572.0</ele><time>2026-04-04T15:01:04.044Z</time></trkpt><trkpt lat="44.3379458" lon="8.2464691"><ele>572.0</ele><time>2026-04-04T15:01:07.044Z</time></trkpt><trkpt lat="44.3378998" lon="8.2463679"><ele>572.0</ele><time>2026-04-04T15:01:10.044Z</time></trkpt><trkpt lat="44.3378644" lon="8.2462681"><ele>576.5</ele><time>2026-04-04T15:01:13.044Z</time></trkpt><trkpt lat="44.3378265" lon="8.2461739"><ele>581.0</ele><time>2026-04-04T15:01:16.045Z</time></trkpt><trkpt lat="44.3378038" lon="8.2460755"><ele>585.5</ele><time>2026-04-04T15:01:19.044Z</time></trkpt><trkpt lat="44.3377819" lon="8.2459644"><ele>590.0</ele><time>2026-04-04T15:01:22.044Z</time></trkpt><trkpt lat="44.337762" lon="8.2458584"><ele>594.5</ele><time>2026-04-04T15:01:25.045Z</time></trkpt><trkpt lat="44.3377526" lon="8.2457199"><ele>599.0</ele><time>2026-04-04T15:01:28.045Z</time></trkpt><trkpt lat="44.3377825" lon="8.245615"><ele>601.1666666666666</ele><time>2026-04-04T15:01:32.045Z</time></trkpt><trkpt lat="44.3377586" lon="8.2455206"><ele>603.3333333333333</ele><time>2026-04-04T15:01:34.045Z</time></trkpt><trkpt lat="44.3377566" lon="8.2454181"><ele>605.5</ele><time>2026-04-04T15:01:38.045Z</time></trkpt><trkpt lat="44.3377629" lon="8.2453046"><ele>607.6666666666666</ele><time>2026-04-04T15:01:41.045Z</time></trkpt><trkpt lat="44.3377894" lon="8.2451986"><ele>609.8333333333334</ele><time>2026-04-04T15:01:44.045Z</time></trkpt><trkpt lat="44.3378307" lon="8.245084"><ele>612.0</ele><time>2026-04-04T15:01:46.044Z</time></trkpt><trkpt lat="44.3378619" lon="8.2450054"><ele>612.0</ele><time>2026-04-04T15:01:48.044Z</time></trkpt><trkpt lat="44.337868" lon="8.2449143"><ele>612.0</ele><time>2026-04-04T15:01:52.046Z</time></trkpt><trkpt lat="44.3378581" lon="8.2447985"><ele>612.0</ele><time>2026-04-04T15:01:55.046Z</time></trkpt><trkpt lat="44.337827" lon="8.2447218"><ele>612.0</ele><time>2026-04-04T15:01:57.044Z</time></trkpt><trkpt lat="44.3377927" lon="8.2446188"><ele>612.0</ele><time>2026-04-04T15:02:01.046Z</time></trkpt><trkpt lat="44.3377717" lon="8.244521"><ele>612.0</ele><time>2026-04-04T15:02:04.043Z</time></trkpt><trkpt lat="44.3377739" lon="8.2443968"><ele>611.8333333333334</ele><time>2026-04-04T15:02:07.043Z</time></trkpt><trkpt lat="44.3377736" lon="8.2442844"><ele>611.6666666666666</ele><time>2026-04-04T15:02:10.046Z</time></trkpt><trkpt lat="44.3377875" lon="8.2441878"><ele>611.5</ele><time>2026-04-04T15:02:14.045Z</time></trkpt><trkpt lat="44.3377818" lon="8.2440799"><ele>611.3333333333333</ele><time>2026-04-04T15:02:17.044Z</time></trkpt><trkpt lat="44.3377956" lon="8.243957"><ele>611.1666666666666</ele><time>2026-04-04T15:02:20.045Z</time></trkpt><trkpt lat="44.3378271" lon="8.2438666"><ele>611.0</ele><time>2026-04-04T15:02:23.044Z</time></trkpt><trkpt lat="44.3378372" lon="8.2437763"><ele>610.6</ele><time>2026-04-04T15:02:25.043Z</time></trkpt><trkpt lat="44.3378572" lon="8.2436681"><ele>610.2</ele><time>2026-04-04T15:02:28.045Z</time></trkpt><trkpt lat="44.3378592" lon="8.2435737"><ele>609.8</ele><time>2026-04-04T15:02:30.045Z</time></trkpt><trkpt lat="44.3378441" lon="8.2434237"><ele>609.4</ele><time>2026-04-04T15:02:32.045Z</time></trkpt><trkpt lat="44.3378199" lon="8.2432416"><ele>609.0</ele><time>2026-04-04T15:02:34.046Z</time></trkpt><trkpt lat="44.3377938" lon="8.2431602"><ele>609.0</ele><time>2026-04-04T15:02:35.044Z</time></trkpt><trkpt lat="44.3377532" lon="8.2429986"><ele>609.0</ele><time>2026-04-04T15:02:37.045Z</time></trkpt><trkpt lat="44.337684" lon="8.242839"><ele>609.0</ele><time>2026-04-04T15:02:39.043Z</time></trkpt><trkpt lat="44.3376479" lon="8.2426749"><ele>609.0</ele><time>2026-04-04T15:02:41.046Z</time></trkpt><trkpt lat="44.3376558" lon="8.2425647"><ele>609.0</ele><time>2026-04-04T15:02:42.044Z</time></trkpt><trkpt lat="44.3376828" lon="8.2424765"><ele>609.0</ele><time>2026-04-04T15:02:43.045Z</time></trkpt><trkpt lat="44.3377074" lon="8.2423919"><ele>609.0</ele><time>2026-04-04T15:02:44.045Z</time></trkpt><trkpt lat="44.3378003" lon="8.2423217"><ele>609.0</ele><time>2026-04-04T15:02:46.045Z</time></trkpt><trkpt lat="44.3379024" lon="8.2423101"><ele>609.0</ele><time>2026-04-04T15:02:48.045Z</time></trkpt><trkpt lat="44.3379921" lon="8.2422629"><ele>609.0</ele><time>2026-04-04T15:02:50.045Z</time></trkpt><trkpt lat="44.3380707" lon="8.2422233"><ele>609.5</ele><time>2026-04-04T15:02:52.045Z</time></trkpt><trkpt lat="44.3381311" lon="8.2421953"><ele>610.0</ele><time>2026-04-04T15:02:54.046Z</time></trkpt><trkpt lat="44.3381871" lon="8.2421518"><ele>610.5</ele><time>2026-04-04T15:02:55.045Z</time></trkpt><trkpt lat="44.3382612" lon="8.2421299"><ele>611.0</ele><time>2026-04-04T15:02:57.045Z</time></trkpt><trkpt lat="44.338349" lon="8.2420757"><ele>611.5</ele><time>2026-04-04T15:02:59.045Z</time></trkpt><trkpt lat="44.3384088" lon="8.2420467"><ele>612.0</ele><time>2026-04-04T15:03:00.046Z</time></trkpt><trkpt lat="44.3384999" lon="8.2420127"><ele>612.0</ele><time>2026-04-04T15:03:03.043Z</time></trkpt><trkpt lat="44.3385586" lon="8.2419572"><ele>612.0</ele><time>2026-04-04T15:03:06.044Z</time></trkpt><trkpt lat="44.3386124" lon="8.2418896"><ele>612.0</ele><time>2026-04-04T15:03:09.044Z</time></trkpt><trkpt lat="44.3386979" lon="8.2418059"><ele>612.0</ele><time>2026-04-04T15:03:11.044Z</time></trkpt><trkpt lat="44.3387806" lon="8.2417781"><ele>612.0</ele><time>2026-04-04T15:03:12.045Z</time></trkpt><trkpt lat="44.3388745" lon="8.2417639"><ele>612.0</ele><time>2026-04-04T15:03:14.045Z</time></trkpt><trkpt lat="44.3389511" lon="8.2417093"><ele>612.4</ele><time>2026-04-04T15:03:16.045Z</time></trkpt><trkpt lat="44.3390559" lon="8.2416675"><ele>612.8000000000001</ele><time>2026-04-04T15:03:18.047Z</time></trkpt><trkpt lat="44.3391597" lon="8.2415613"><ele>613.2</ele><time>2026-04-04T15:03:20.044Z</time></trkpt><trkpt lat="44.3392546" lon="8.2415051"><ele>613.6</ele><time>2026-04-04T15:03:22.046Z</time></trkpt><trkpt lat="44.3393269" lon="8.2414169"><ele>614.0</ele><time>2026-04-04T15:03:24.043Z</time></trkpt><trkpt lat="44.3394057" lon="8.241334"><ele>614.0</ele><time>2026-04-04T15:03:26.046Z</time></trkpt><trkpt lat="44.3394852" lon="8.2412411"><ele>614.0</ele><time>2026-04-04T15:03:28.045Z</time></trkpt><trkpt lat="44.3395544" lon="8.2411332"><ele>614.0</ele><time>2026-04-04T15:03:30.044Z</time></trkpt><trkpt lat="44.3396286" lon="8.241006"><ele>614.0</ele><time>2026-04-04T15:03:32.045Z</time></trkpt><trkpt lat="44.3396912" lon="8.2408563"><ele>614.0</ele><time>2026-04-04T15:03:34.046Z</time></trkpt><trkpt lat="44.3397595" lon="8.2406783"><ele>613.3333333333333</ele><time>2026-04-04T15:03:36.046Z</time></trkpt><trkpt lat="44.3397845" lon="8.2405952"><ele>612.6666666666666</ele><time>2026-04-04T15:03:37.045Z</time></trkpt><trkpt lat="44.339818" lon="8.2405056"><ele>612.0</ele><time>2026-04-04T15:03:38.044Z</time></trkpt><trkpt lat="44.3398897" lon="8.2403835"><ele>611.3333333333334</ele><time>2026-04-04T15:03:40.043Z</time></trkpt><trkpt lat="44.3399449" lon="8.2403107"><ele>610.6666666666667</ele><time>2026-04-04T15:03:41.046Z</time></trkpt><trkpt lat="44.339985" lon="8.2402099"><ele>610.0</ele><time>2026-04-04T15:03:42.045Z</time></trkpt><trkpt lat="44.3400714" lon="8.2402308"><ele>610.0</ele><time>2026-04-04T15:03:43.045Z</time></trkpt><trkpt lat="44.340145" lon="8.2402411"><ele>610.0</ele><time>2026-04-04T15:03:44.045Z</time></trkpt><trkpt lat="44.3402124" lon="8.2402447"><ele>610.0</ele><time>2026-04-04T15:03:45.046Z</time></trkpt><trkpt lat="44.3403387" lon="8.2403564"><ele>610.0</ele><time>2026-04-04T15:03:47.045Z</time></trkpt><trkpt lat="44.3403871" lon="8.240443"><ele>610.0</ele><time>2026-04-04T15:03:48.046Z</time></trkpt><trkpt lat="44.3404441" lon="8.240547"><ele>607.3333333333334</ele><time>2026-04-04T15:03:49.045Z</time></trkpt><trkpt lat="44.3404973" lon="8.2406476"><ele>604.6666666666667</ele><time>2026-04-04T15:03:50.045Z</time></trkpt><trkpt lat="44.3405435" lon="8.2407539"><ele>602.0</ele><time>2026-04-04T15:03:51.046Z</time></trkpt><trkpt lat="44.3405861" lon="8.2408682"><ele>599.3333333333334</ele><time>2026-04-04T15:03:52.045Z</time></trkpt><trkpt lat="44.340642" lon="8.2409769"><ele>596.6666666666666</ele><time>2026-04-04T15:03:53.045Z</time></trkpt><trkpt lat="44.3407038" lon="8.2410501"><ele>594.0</ele><time>2026-04-04T15:03:54.043Z</time></trkpt><trkpt lat="44.3407736" lon="8.2411674"><ele>594.0</ele><time>2026-04-04T15:03:55.044Z</time></trkpt><trkpt lat="44.3408441" lon="8.2412682"><ele>594.0</ele><time>2026-04-04T15:03:56.043Z</time></trkpt><trkpt lat="44.3409245" lon="8.2413693"><ele>594.0</ele><time>2026-04-04T15:03:57.044Z</time></trkpt><trkpt lat="44.3410112" lon="8.2414729"><ele>594.0</ele><time>2026-04-04T15:03:58.045Z</time></trkpt><trkpt lat="44.3410905" lon="8.2416202"><ele>591.8</ele><time>2026-04-04T15:03:59.045Z</time></trkpt><trkpt lat="44.3411697" lon="8.2416899"><ele>589.5999999999999</ele><time>2026-04-04T15:04:00.044Z</time></trkpt><trkpt lat="44.3412925" lon="8.2417398"><ele>587.4</ele><time>2026-04-04T15:04:01.046Z</time></trkpt><trkpt lat="44.3413909" lon="8.2418151"><ele>585.1999999999999</ele><time>2026-04-04T15:04:02.044Z</time></trkpt><trkpt lat="44.3414624" lon="8.241932"><ele>583.0</ele><time>2026-04-04T15:04:03.044Z</time></trkpt><trkpt lat="44.3415598" lon="8.2419956"><ele>583.0</ele><time>2026-04-04T15:04:04.044Z</time></trkpt><trkpt lat="44.3416993" lon="8.2419708"><ele>583.0</ele><time>2026-04-04T15:04:05.046Z</time></trkpt><trkpt lat="44.341792" lon="8.2419796"><ele>583.0</ele><time>2026-04-04T15:04:06.045Z</time></trkpt><trkpt lat="44.3418688" lon="8.2420273"><ele>583.0</ele><time>2026-04-04T15:04:07.045Z</time></trkpt><trkpt lat="44.3419486" lon="8.2420501"><ele>583.0</ele><time>2026-04-04T15:04:08.044Z</time></trkpt><trkpt lat="44.3420563" lon="8.2419821"><ele>583.0</ele><time>2026-04-04T15:04:09.047Z</time></trkpt><trkpt lat="44.3421387" lon="8.2418589"><ele>583.0</ele><time>2026-04-04T15:04:10.045Z</time></trkpt><trkpt lat="44.3422221" lon="8.2417751"><ele>583.0</ele><time>2026-04-04T15:04:11.044Z</time></trkpt><trkpt lat="44.3423209" lon="8.2416906"><ele>583.0</ele><time>2026-04-04T15:04:12.045Z</time></trkpt><trkpt lat="44.342419" lon="8.2416131"><ele>583.8</ele><time>2026-04-04T15:04:13.045Z</time></trkpt><trkpt lat="44.3425225" lon="8.2415459"><ele>584.5999999999999</ele><time>2026-04-04T15:04:14.045Z</time></trkpt><trkpt lat="44.3426239" lon="8.2415005"><ele>585.4000000000001</ele><time>2026-04-04T15:04:15.045Z</time></trkpt><trkpt lat="44.3427319" lon="8.2414469"><ele>586.2</ele><time>2026-04-04T15:04:16.044Z</time></trkpt><trkpt lat="44.3428294" lon="8.2413882"><ele>587.0</ele><time>2026-04-04T15:04:17.044Z</time></trkpt><trkpt lat="44.3428996" lon="8.2412731"><ele>587.0</ele><time>2026-04-04T15:04:18.044Z</time></trkpt><trkpt lat="44.3429718" lon="8.2412061"><ele>587.0</ele><time>2026-04-04T15:04:19.044Z</time></trkpt><trkpt lat="44.3430507" lon="8.2410892"><ele>587.0</ele><time>2026-04-04T15:04:20.044Z</time></trkpt><trkpt lat="44.3430954" lon="8.2409528"><ele>587.0</ele><time>2026-04-04T15:04:21.044Z</time></trkpt><trkpt lat="44.3431586" lon="8.2408384"><ele>587.0</ele><time>2026-04-04T15:04:22.046Z</time></trkpt><trkpt lat="44.3432294" lon="8.2407067"><ele>580.5</ele><time>2026-04-04T15:04:23.044Z</time></trkpt><trkpt lat="44.3432968" lon="8.2405669"><ele>574.0</ele><time>2026-04-04T15:04:24.044Z</time></trkpt><trkpt lat="44.3433499" lon="8.2404284"><ele>567.5</ele><time>2026-04-04T15:04:25.046Z</time></trkpt><trkpt lat="44.3434187" lon="8.240292"><ele>561.0</ele><time>2026-04-04T15:04:26.045Z</time></trkpt><trkpt lat="44.3434927" lon="8.2401665"><ele>561.0</ele><time>2026-04-04T15:04:27.044Z</time></trkpt><trkpt lat="44.3435707" lon="8.2400251"><ele>561.0</ele><time>2026-04-04T15:04:28.043Z</time></trkpt><trkpt lat="44.3436466" lon="8.2399062"><ele>561.0</ele><time>2026-04-04T15:04:29.044Z</time></trkpt><trkpt lat="44.3437221" lon="8.2397787"><ele>561.0</ele><time>2026-04-04T15:04:30.045Z</time></trkpt><trkpt lat="44.3438004" lon="8.2396533"><ele>563.2</ele><time>2026-04-04T15:04:31.045Z</time></trkpt><trkpt lat="44.3438658" lon="8.2395535"><ele>565.4000000000001</ele><time>2026-04-04T15:04:32.044Z</time></trkpt><trkpt lat="44.3439275" lon="8.2394174"><ele>567.6</ele><time>2026-04-04T15:04:33.044Z</time></trkpt><trkpt lat="44.344001" lon="8.2392942"><ele>569.8000000000001</ele><time>2026-04-04T15:04:34.046Z</time></trkpt><trkpt lat="44.3440641" lon="8.2391601"><ele>572.0</ele><time>2026-04-04T15:04:35.046Z</time></trkpt><trkpt lat="44.3441317" lon="8.2390416"><ele>568.4</ele><time>2026-04-04T15:04:36.044Z</time></trkpt><trkpt lat="44.3442069" lon="8.2389237"><ele>564.8000000000001</ele><time>2026-04-04T15:04:37.046Z</time></trkpt><trkpt lat="44.3442602" lon="8.2387957"><ele>561.2</ele><time>2026-04-04T15:04:38.045Z</time></trkpt><trkpt lat="44.3443125" lon="8.2386498"><ele>557.6</ele><time>2026-04-04T15:04:39.045Z</time></trkpt><trkpt lat="44.3443803" lon="8.2385239"><ele>554.0</ele><time>2026-04-04T15:04:40.046Z</time></trkpt><trkpt lat="44.3443694" lon="8.2383009"><ele>554.0</ele><time>2026-04-04T15:04:42.045Z</time></trkpt><trkpt lat="44.3443592" lon="8.2381904"><ele>554.0</ele><time>2026-04-04T15:04:43.045Z</time></trkpt><trkpt lat="44.3443446" lon="8.2380637"><ele>554.0</ele><time>2026-04-04T15:04:44.044Z</time></trkpt><trkpt lat="44.3443255" lon="8.2379266"><ele>554.0</ele><time>2026-04-04T15:04:45.043Z</time></trkpt><trkpt lat="44.3443079" lon="8.2378235"><ele>554.0</ele><time>2026-04-04T15:04:46.044Z</time></trkpt><trkpt lat="44.3442854" lon="8.2377295"><ele>554.0</ele><time>2026-04-04T15:04:47.044Z</time></trkpt><trkpt lat="44.3442634" lon="8.2376179"><ele>553.8333333333333</ele><time>2026-04-04T15:04:48.044Z</time></trkpt><trkpt lat="44.3442493" lon="8.2375223"><ele>553.6666666666666</ele><time>2026-04-04T15:04:49.044Z</time></trkpt><trkpt lat="44.344234" lon="8.2374129"><ele>553.5</ele><time>2026-04-04T15:04:50.044Z</time></trkpt><trkpt lat="44.3442678" lon="8.2373202"><ele>553.3333333333334</ele><time>2026-04-04T15:04:51.045Z</time></trkpt><trkpt lat="44.3442986" lon="8.2372367"><ele>553.1666666666667</ele><time>2026-04-04T15:04:52.044Z</time></trkpt><trkpt lat="44.3443925" lon="8.2371616"><ele>553.0</ele><time>2026-04-04T15:04:54.046Z</time></trkpt><trkpt lat="44.3444636" lon="8.2371564"><ele>554.6</ele><time>2026-04-04T15:04:55.045Z</time></trkpt><trkpt lat="44.3445685" lon="8.2371905"><ele>556.1999999999999</ele><time>2026-04-04T15:04:57.045Z</time></trkpt><trkpt lat="44.3446646" lon="8.2372082"><ele>557.8</ele><time>2026-04-04T15:04:59.044Z</time></trkpt><trkpt lat="44.3447594" lon="8.2371769"><ele>559.4</ele><time>2026-04-04T15:05:01.046Z</time></trkpt><trkpt lat="44.3448378" lon="8.2371419"><ele>561.0</ele><time>2026-04-04T15:05:04.045Z</time></trkpt><trkpt lat="44.3449142" lon="8.2371052"><ele>561.0</ele><time>2026-04-04T15:05:07.044Z</time></trkpt><trkpt lat="44.3449952" lon="8.2370788"><ele>561.0</ele><time>2026-04-04T15:05:10.044Z</time></trkpt><trkpt lat="44.345082" lon="8.2370364"><ele>561.0</ele><time>2026-04-04T15:05:13.044Z</time></trkpt><trkpt lat="44.345148" lon="8.2370118"><ele>561.0</ele><time>2026-04-04T15:05:15.043Z</time></trkpt><trkpt lat="44.3452352" lon="8.2370084"><ele>561.0</ele><time>2026-04-04T15:05:18.044Z</time></trkpt><trkpt lat="44.3453163" lon="8.2370259"><ele>561.0</ele><time>2026-04-04T15:05:21.044Z</time></trkpt><trkpt lat="44.3453829" lon="8.2370141"><ele>561.0</ele><time>2026-04-04T15:05:24.043Z</time></trkpt><trkpt lat="44.3454735" lon="8.2370072"><ele>561.0</ele><time>2026-04-04T15:05:27.045Z</time></trkpt><trkpt lat="44.3455399" lon="8.2369982"><ele>561.0</ele><time>2026-04-04T15:05:29.045Z</time></trkpt><trkpt lat="44.3456072" lon="8.236977"><ele>561.0</ele><time>2026-04-04T15:05:31.044Z</time></trkpt><trkpt lat="44.345682" lon="8.2369475"><ele>561.0</ele><time>2026-04-04T15:05:33.043Z</time></trkpt><trkpt lat="44.345776" lon="8.236876"><ele>561.0</ele><time>2026-04-04T15:05:35.045Z</time></trkpt><trkpt lat="44.3458852" lon="8.2368187"><ele>560.5</ele><time>2026-04-04T15:05:37.045Z</time></trkpt><trkpt lat="44.3459445" lon="8.2367772"><ele>560.0</ele><time>2026-04-04T15:05:38.043Z</time></trkpt><trkpt lat="44.3460118" lon="8.2367398"><ele>559.5</ele><time>2026-04-04T15:05:39.045Z</time></trkpt><trkpt lat="44.346082" lon="8.2366983"><ele>559.0</ele><time>2026-04-04T15:05:40.044Z</time></trkpt><trkpt lat="44.3461543" lon="8.2366873"><ele>558.5</ele><time>2026-04-04T15:05:41.044Z</time></trkpt><trkpt lat="44.3462394" lon="8.2366426"><ele>558.0</ele><time>2026-04-04T15:05:42.044Z</time></trkpt><trkpt lat="44.3463377" lon="8.2366089"><ele>558.1999999999999</ele><time>2026-04-04T15:05:43.044Z</time></trkpt><trkpt lat="44.3464241" lon="8.2365439"><ele>558.4</ele><time>2026-04-04T15:05:44.044Z</time></trkpt><trkpt lat="44.3465129" lon="8.2364814"><ele>558.5999999999999</ele><time>2026-04-04T15:05:45.044Z</time></trkpt><trkpt lat="44.3466027" lon="8.2364167"><ele>558.8</ele><time>2026-04-04T15:05:46.046Z</time></trkpt><trkpt lat="44.346692" lon="8.2363508"><ele>559.0</ele><time>2026-04-04T15:05:47.045Z</time></trkpt><trkpt lat="44.3467812" lon="8.2362757"><ele>559.0</ele><time>2026-04-04T15:05:48.044Z</time></trkpt><trkpt lat="44.3468619" lon="8.2362014"><ele>559.0</ele><time>2026-04-04T15:05:49.046Z</time></trkpt><trkpt lat="44.346959" lon="8.2361424"><ele>559.0</ele><time>2026-04-04T15:05:50.044Z</time></trkpt><trkpt lat="44.3470759" lon="8.2361162"><ele>559.0</ele><time>2026-04-04T15:05:51.043Z</time></trkpt><trkpt lat="44.3471696" lon="8.2360621"><ele>559.0</ele><time>2026-04-04T15:05:52.045Z</time></trkpt><trkpt lat="44.3472599" lon="8.2360423"><ele>556.0</ele><time>2026-04-04T15:05:53.043Z</time></trkpt><trkpt lat="44.347345" lon="8.2360054"><ele>553.0</ele><time>2026-04-04T15:05:54.044Z</time></trkpt><trkpt lat="44.3474416" lon="8.2359784"><ele>550.0</ele><time>2026-04-04T15:05:55.044Z</time></trkpt><trkpt lat="44.3475146" lon="8.2359568"><ele>547.0</ele><time>2026-04-04T15:05:56.045Z</time></trkpt><trkpt lat="44.3476234" lon="8.2359374"><ele>544.0</ele><time>2026-04-04T15:05:57.045Z</time></trkpt><trkpt lat="44.3477492" lon="8.2359315"><ele>544.0</ele><time>2026-04-04T15:05:58.043Z</time></trkpt><trkpt lat="44.3478559" lon="8.2359414"><ele>544.0</ele><time>2026-04-04T15:05:59.044Z</time></trkpt><trkpt lat="44.3479538" lon="8.2359448"><ele>544.0</ele><time>2026-04-04T15:06:00.043Z</time></trkpt><trkpt lat="44.348063" lon="8.2359448"><ele>544.0</ele><time>2026-04-04T15:06:01.044Z</time></trkpt><trkpt lat="44.348153" lon="8.2359458"><ele>544.0</ele><time>2026-04-04T15:06:02.044Z</time></trkpt><trkpt lat="44.348252" lon="8.2359506"><ele>543.6</ele><time>2026-04-04T15:06:03.044Z</time></trkpt><trkpt lat="44.348355" lon="8.2359589"><ele>543.2</ele><time>2026-04-04T15:06:04.045Z</time></trkpt><trkpt lat="44.3484521" lon="8.2359674"><ele>542.8000000000001</ele><time>2026-04-04T15:06:05.045Z</time></trkpt><trkpt lat="44.3485476" lon="8.2359856"><ele>542.4</ele><time>2026-04-04T15:06:06.044Z</time></trkpt><trkpt lat="44.3486375" lon="8.2360113"><ele>542.0</ele><time>2026-04-04T15:06:07.044Z</time></trkpt><trkpt lat="44.3487457" lon="8.2360545"><ele>542.0</ele><time>2026-04-04T15:06:08.044Z</time></trkpt><trkpt lat="44.3488493" lon="8.2361004"><ele>542.0</ele><time>2026-04-04T15:06:09.044Z</time></trkpt><trkpt lat="44.3489264" lon="8.2361265"><ele>542.0</ele><time>2026-04-04T15:06:10.044Z</time></trkpt><trkpt lat="44.3489967" lon="8.2361569"><ele>542.0</ele><time>2026-04-04T15:06:11.043Z</time></trkpt><trkpt lat="44.3490835" lon="8.2362038"><ele>542.0</ele><time>2026-04-04T15:06:12.045Z</time></trkpt><trkpt lat="44.3491551" lon="8.2362357"><ele>542.0</ele><time>2026-04-04T15:06:13.045Z</time></trkpt><trkpt lat="44.3492198" lon="8.2362596"><ele>542.1666666666666</ele><time>2026-04-04T15:06:14.045Z</time></trkpt><trkpt lat="44.3492918" lon="8.2362836"><ele>542.3333333333333</ele><time>2026-04-04T15:06:15.044Z</time></trkpt><trkpt lat="44.3494247" lon="8.236312"><ele>542.5</ele><time>2026-04-04T15:06:17.045Z</time></trkpt><trkpt lat="44.3494995" lon="8.2363221"><ele>542.6666666666666</ele><time>2026-04-04T15:06:18.044Z</time></trkpt><trkpt lat="44.3495634" lon="8.2362785"><ele>542.8333333333334</ele><time>2026-04-04T15:06:19.045Z</time></trkpt><trkpt lat="44.3496344" lon="8.2362647"><ele>543.0</ele><time>2026-04-04T15:06:20.044Z</time></trkpt><trkpt lat="44.3497148" lon="8.2362343"><ele>543.6</ele><time>2026-04-04T15:06:21.043Z</time></trkpt><trkpt lat="44.3497827" lon="8.2362352"><ele>544.1999999999999</ele><time>2026-04-04T15:06:22.045Z</time></trkpt><trkpt lat="44.3498884" lon="8.236296"><ele>544.8</ele><time>2026-04-04T15:06:24.045Z</time></trkpt><trkpt lat="44.349972" lon="8.2363935"><ele>545.4</ele><time>2026-04-04T15:06:26.044Z</time></trkpt><trkpt lat="44.3500213" lon="8.2364994"><ele>546.0</ele><time>2026-04-04T15:06:28.043Z</time></trkpt><trkpt lat="44.350078" lon="8.2365731"><ele>543.3333333333334</ele><time>2026-04-04T15:06:30.044Z</time></trkpt><trkpt lat="44.3501373" lon="8.2366517"><ele>540.6666666666666</ele><time>2026-04-04T15:06:32.044Z</time></trkpt><trkpt lat="44.350167" lon="8.2367348"><ele>538.0</ele><time>2026-04-04T15:06:34.045Z</time></trkpt><trkpt lat="44.3502429" lon="8.2368238"><ele>535.3333333333333</ele><time>2026-04-04T15:06:37.044Z</time></trkpt><trkpt lat="44.3503014" lon="8.2369111"><ele>532.6666666666666</ele><time>2026-04-04T15:06:40.044Z</time></trkpt><trkpt lat="44.3503369" lon="8.2370408"><ele>530.0</ele><time>2026-04-04T15:06:43.045Z</time></trkpt><trkpt lat="44.3503693" lon="8.2371164"><ele>529.9999999999999</ele><time>2026-04-04T15:06:45.044Z</time></trkpt><trkpt lat="44.350424" lon="8.2372209"><ele>530.0</ele><time>2026-04-04T15:06:48.044Z</time></trkpt><trkpt lat="44.3504612" lon="8.2372927"><ele>530.0</ele><time>2026-04-04T15:06:50.044Z</time></trkpt><trkpt lat="44.3504961" lon="8.2373775"><ele>530.0</ele><time>2026-04-04T15:06:52.044Z</time></trkpt><trkpt lat="44.3505306" lon="8.237478"><ele>530.0</ele><time>2026-04-04T15:06:54.043Z</time></trkpt><trkpt lat="44.3505708" lon="8.2375568"><ele>529.9999999999999</ele><time>2026-04-04T15:06:56.043Z</time></trkpt><trkpt lat="44.3506062" lon="8.2376341"><ele>530.0</ele><time>2026-04-04T15:06:58.044Z</time></trkpt><trkpt lat="44.3506336" lon="8.2377171"><ele>530.6666666666666</ele><time>2026-04-04T15:07:00.044Z</time></trkpt><trkpt lat="44.3506537" lon="8.2378083"><ele>531.3333333333333</ele><time>2026-04-04T15:07:02.044Z</time></trkpt><trkpt lat="44.3506603" lon="8.2379049"><ele>532.0</ele><time>2026-04-04T15:07:04.045Z</time></trkpt><trkpt lat="44.3506807" lon="8.2380022"><ele>532.6666666666666</ele><time>2026-04-04T15:07:06.044Z</time></trkpt><trkpt lat="44.3507234" lon="8.2381"><ele>533.3333333333334</ele><time>2026-04-04T15:07:08.044Z</time></trkpt><trkpt lat="44.3507619" lon="8.2381704"><ele>534.0</ele><time>2026-04-04T15:07:09.044Z</time></trkpt><trkpt lat="44.3508675" lon="8.2382248"><ele>534.0000000000001</ele><time>2026-04-04T15:07:11.044Z</time></trkpt><trkpt lat="44.3509345" lon="8.2382457"><ele>534.0</ele><time>2026-04-04T15:07:12.044Z</time></trkpt><trkpt lat="44.3510143" lon="8.2382525"><ele>534.0</ele><time>2026-04-04T15:07:13.045Z</time></trkpt><trkpt lat="44.3510796" lon="8.2382651"><ele>534.0</ele><time>2026-04-04T15:07:14.044Z</time></trkpt><trkpt lat="44.3511557" lon="8.2383511"><ele>534.0</ele><time>2026-04-04T15:07:15.045Z</time></trkpt><trkpt lat="44.3512209" lon="8.2383636"><ele>534.0000000000001</ele><time>2026-04-04T15:07:16.045Z</time></trkpt><trkpt lat="44.3512756" lon="8.2383152"><ele>534.0</ele><time>2026-04-04T15:07:17.044Z</time></trkpt><trkpt lat="44.351337" lon="8.2382955"><ele>533.5</ele><time>2026-04-04T15:07:18.045Z</time></trkpt><trkpt lat="44.3514072" lon="8.2382566"><ele>533.0</ele><time>2026-04-04T15:07:19.044Z</time></trkpt><trkpt lat="44.3514688" lon="8.2382203"><ele>532.5</ele><time>2026-04-04T15:07:20.045Z</time></trkpt><trkpt lat="44.3515276" lon="8.2381764"><ele>532.0</ele><time>2026-04-04T15:07:21.044Z</time></trkpt><trkpt lat="44.3515913" lon="8.2381425"><ele>531.5</ele><time>2026-04-04T15:07:22.043Z</time></trkpt><trkpt lat="44.3516952" lon="8.2380554"><ele>531.0</ele><time>2026-04-04T15:07:24.045Z</time></trkpt><trkpt lat="44.3517974" lon="8.2379533"><ele>531.8571428571429</ele><time>2026-04-04T15:07:26.045Z</time></trkpt><trkpt lat="44.3518587" lon="8.2379218"><ele>532.7142857142858</ele><time>2026-04-04T15:07:27.043Z</time></trkpt><trkpt lat="44.3519174" lon="8.2378818"><ele>533.5714285714286</ele><time>2026-04-04T15:07:28.044Z</time></trkpt><trkpt lat="44.3519803" lon="8.2378336"><ele>534.4285714285714</ele><time>2026-04-04T15:07:29.045Z</time></trkpt><trkpt lat="44.3520422" lon="8.2377875"><ele>535.2857142857142</ele><time>2026-04-04T15:07:30.044Z</time></trkpt><trkpt lat="44.3521136" lon="8.2377482"><ele>536.1428571428571</ele><time>2026-04-04T15:07:31.043Z</time></trkpt><trkpt lat="44.3521801" lon="8.2376966"><ele>537.0</ele><time>2026-04-04T15:07:32.045Z</time></trkpt><trkpt lat="44.3522515" lon="8.2376633"><ele>537.0</ele><time>2026-04-04T15:07:33.044Z</time></trkpt><trkpt lat="44.3523291" lon="8.2376319"><ele>537.0</ele><time>2026-04-04T15:07:34.044Z</time></trkpt><trkpt lat="44.3524139" lon="8.2375985"><ele>537.0</ele><time>2026-04-04T15:07:35.045Z</time></trkpt><trkpt lat="44.352489" lon="8.237579"><ele>537.0</ele><time>2026-04-04T15:07:36.043Z</time></trkpt><trkpt lat="44.3525784" lon="8.2375533"><ele>537.0</ele><time>2026-04-04T15:07:37.044Z</time></trkpt><trkpt lat="44.3526736" lon="8.2375129"><ele>537.0</ele><time>2026-04-04T15:07:38.044Z</time></trkpt><trkpt lat="44.3527608" lon="8.2374856"><ele>537.0</ele><time>2026-04-04T15:07:39.044Z</time></trkpt><trkpt lat="44.3528394" lon="8.237464"><ele>537.0</ele><time>2026-04-04T15:07:40.043Z</time></trkpt><trkpt lat="44.3529203" lon="8.2374447"><ele>537.0</ele><time>2026-04-04T15:07:41.044Z</time></trkpt><trkpt lat="44.3530104" lon="8.2374251"><ele>537.0</ele><time>2026-04-04T15:07:42.044Z</time></trkpt><trkpt lat="44.3531023" lon="8.2373988"><ele>537.0</ele><time>2026-04-04T15:07:43.044Z</time></trkpt><trkpt lat="44.3531965" lon="8.2373799"><ele>537.0</ele><time>2026-04-04T15:07:44.044Z</time></trkpt><trkpt lat="44.3532829" lon="8.2373608"><ele>535.0</ele><time>2026-04-04T15:07:45.043Z</time></trkpt><trkpt lat="44.3533759" lon="8.2373561"><ele>533.0</ele><time>2026-04-04T15:07:46.044Z</time></trkpt><trkpt lat="44.3534745" lon="8.2373693"><ele>531.0</ele><time>2026-04-04T15:07:47.044Z</time></trkpt><trkpt lat="44.3535697" lon="8.237391"><ele>529.0</ele><time>2026-04-04T15:07:48.044Z</time></trkpt><trkpt lat="44.353666" lon="8.2374132"><ele>527.0</ele><time>2026-04-04T15:07:49.045Z</time></trkpt><trkpt lat="44.3537605" lon="8.2374311"><ele>527.0</ele><time>2026-04-04T15:07:50.045Z</time></trkpt><trkpt lat="44.3538653" lon="8.2374463"><ele>527.0</ele><time>2026-04-04T15:07:51.043Z</time></trkpt><trkpt lat="44.3539652" lon="8.2374707"><ele>527.0</ele><time>2026-04-04T15:07:52.043Z</time></trkpt><trkpt lat="44.354068" lon="8.2374981"><ele>527.0</ele><time>2026-04-04T15:07:53.044Z</time></trkpt><trkpt lat="44.3541674" lon="8.2375257"><ele>527.0</ele><time>2026-04-04T15:07:54.045Z</time></trkpt><trkpt lat="44.3542661" lon="8.2375884"><ele>526.2</ele><time>2026-04-04T15:07:55.043Z</time></trkpt><trkpt lat="44.3543641" lon="8.2376641"><ele>525.4000000000001</ele><time>2026-04-04T15:07:56.044Z</time></trkpt><trkpt lat="44.3544531" lon="8.2377533"><ele>524.5999999999999</ele><time>2026-04-04T15:07:57.044Z</time></trkpt><trkpt lat="44.3545384" lon="8.2378516"><ele>523.8</ele><time>2026-04-04T15:07:58.044Z</time></trkpt><trkpt lat="44.3546251" lon="8.2379482"><ele>523.0</ele><time>2026-04-04T15:07:59.044Z</time></trkpt><trkpt lat="44.3547143" lon="8.2380511"><ele>521.25</ele><time>2026-04-04T15:08:00.044Z</time></trkpt><trkpt lat="44.3548063" lon="8.2381576"><ele>519.5</ele><time>2026-04-04T15:08:01.043Z</time></trkpt><trkpt lat="44.3548871" lon="8.2382702"><ele>517.75</ele><time>2026-04-04T15:08:02.042Z</time></trkpt><trkpt lat="44.3549771" lon="8.2383884"><ele>516.0</ele><time>2026-04-04T15:08:03.044Z</time></trkpt><trkpt lat="44.3550569" lon="8.2385092"><ele>516.0</ele><time>2026-04-04T15:08:04.044Z</time></trkpt><trkpt lat="44.3551231" lon="8.238643"><ele>516.0</ele><time>2026-04-04T15:08:05.044Z</time></trkpt><trkpt lat="44.3551918" lon="8.2387798"><ele>516.0</ele><time>2026-04-04T15:08:06.044Z</time></trkpt><trkpt lat="44.3552563" lon="8.2389273"><ele>516.0</ele><time>2026-04-04T15:08:07.045Z</time></trkpt><trkpt lat="44.3553111" lon="8.2390666"><ele>516.4</ele><time>2026-04-04T15:08:08.044Z</time></trkpt><trkpt lat="44.3553689" lon="8.2392106"><ele>516.8</ele><time>2026-04-04T15:08:09.044Z</time></trkpt><trkpt lat="44.3554322" lon="8.2393372"><ele>517.1999999999999</ele><time>2026-04-04T15:08:10.044Z</time></trkpt><trkpt lat="44.3554999" lon="8.2394264"><ele>517.6</ele><time>2026-04-04T15:08:11.043Z</time></trkpt><trkpt lat="44.3555818" lon="8.2395152"><ele>518.0</ele><time>2026-04-04T15:08:12.043Z</time></trkpt><trkpt lat="44.3556817" lon="8.2395751"><ele>518.0</ele><time>2026-04-04T15:08:13.044Z</time></trkpt><trkpt lat="44.3557852" lon="8.2395921"><ele>518.0</ele><time>2026-04-04T15:08:14.043Z</time></trkpt><trkpt lat="44.3558926" lon="8.2396213"><ele>518.0</ele><time>2026-04-04T15:08:15.044Z</time></trkpt><trkpt lat="44.3559999" lon="8.2396915"><ele>518.0</ele><time>2026-04-04T15:08:16.042Z</time></trkpt><trkpt lat="44.3561007" lon="8.2397662"><ele>518.0</ele><time>2026-04-04T15:08:17.043Z</time></trkpt><trkpt lat="44.3561953" lon="8.2398592"><ele>516.1999999999999</ele><time>2026-04-04T15:08:18.043Z</time></trkpt><trkpt lat="44.3562723" lon="8.2399792"><ele>514.4</ele><time>2026-04-04T15:08:19.045Z</time></trkpt><trkpt lat="44.3563421" lon="8.2400931"><ele>512.5999999999999</ele><time>2026-04-04T15:08:20.044Z</time></trkpt><trkpt lat="44.3564046" lon="8.2402058"><ele>510.79999999999995</ele><time>2026-04-04T15:08:21.044Z</time></trkpt><trkpt lat="44.3564721" lon="8.2403217"><ele>509.0</ele><time>2026-04-04T15:08:22.044Z</time></trkpt><trkpt lat="44.3565383" lon="8.2404483"><ele>509.0</ele><time>2026-04-04T15:08:23.043Z</time></trkpt><trkpt lat="44.3566036" lon="8.2405838"><ele>509.0</ele><time>2026-04-04T15:08:24.045Z</time></trkpt><trkpt lat="44.3566663" lon="8.2407249"><ele>509.0</ele><time>2026-04-04T15:08:25.044Z</time></trkpt><trkpt lat="44.3567136" lon="8.2408683"><ele>509.0</ele><time>2026-04-04T15:08:26.043Z</time></trkpt><trkpt lat="44.3567547" lon="8.2410136"><ele>506.4</ele><time>2026-04-04T15:08:27.045Z</time></trkpt><trkpt lat="44.3567915" lon="8.241152"><ele>503.79999999999995</ele><time>2026-04-04T15:08:28.044Z</time></trkpt><trkpt lat="44.3568282" lon="8.2412769"><ele>501.20000000000005</ele><time>2026-04-04T15:08:29.043Z</time></trkpt><trkpt lat="44.3568778" lon="8.2413913"><ele>498.6</ele><time>2026-04-04T15:08:30.044Z</time></trkpt><trkpt lat="44.3569345" lon="8.2414843"><ele>496.0</ele><time>2026-04-04T15:08:31.043Z</time></trkpt><trkpt lat="44.3570053" lon="8.241538"><ele>495.50000000000006</ele><time>2026-04-04T15:08:32.045Z</time></trkpt><trkpt lat="44.3570693" lon="8.2415787"><ele>495.0</ele><time>2026-04-04T15:08:33.043Z</time></trkpt><trkpt lat="44.3571438" lon="8.2416062"><ele>494.5</ele><time>2026-04-04T15:08:34.045Z</time></trkpt><trkpt lat="44.3572095" lon="8.2416308"><ele>494.0</ele><time>2026-04-04T15:08:35.045Z</time></trkpt><trkpt lat="44.3572345" lon="8.2417422"><ele>493.50000000000006</ele><time>2026-04-04T15:08:37.044Z</time></trkpt><trkpt lat="44.3572173" lon="8.2418537"><ele>493.0</ele><time>2026-04-04T15:08:39.044Z</time></trkpt><trkpt lat="44.357168" lon="8.2419597"><ele>493.0</ele><time>2026-04-04T15:08:42.043Z</time></trkpt><trkpt lat="44.3571274" lon="8.2420446"><ele>493.0</ele><time>2026-04-04T15:08:44.045Z</time></trkpt><trkpt lat="44.3570898" lon="8.2421157"><ele>493.0</ele><time>2026-04-04T15:08:46.044Z</time></trkpt><trkpt lat="44.3570515" lon="8.2422015"><ele>493.0</ele><time>2026-04-04T15:08:48.044Z</time></trkpt><trkpt lat="44.3570129" lon="8.24228"><ele>493.0</ele><time>2026-04-04T15:08:50.045Z</time></trkpt><trkpt lat="44.3569756" lon="8.2423563"><ele>493.0</ele><time>2026-04-04T15:08:52.044Z</time></trkpt><trkpt lat="44.3569323" lon="8.2424628"><ele>493.0</ele><time>2026-04-04T15:08:55.043Z</time></trkpt><trkpt lat="44.3568848" lon="8.242565"><ele>493.00000000000006</ele><time>2026-04-04T15:08:58.044Z</time></trkpt><trkpt lat="44.3568291" lon="8.2426651"><ele>493.0</ele><time>2026-04-04T15:09:01.044Z</time></trkpt><trkpt lat="44.3567739" lon="8.2427598"><ele>493.0</ele><time>2026-04-04T15:09:04.044Z</time></trkpt><trkpt lat="44.3567155" lon="8.2428482"><ele>493.0</ele><time>2026-04-04T15:09:07.044Z</time></trkpt><trkpt lat="44.3566688" lon="8.2429157"><ele>493.00000000000006</ele><time>2026-04-04T15:09:09.043Z</time></trkpt><trkpt lat="44.3566211" lon="8.2429742"><ele>493.0</ele><time>2026-04-04T15:09:11.043Z</time></trkpt><trkpt lat="44.3565787" lon="8.2430447"><ele>493.71428571428567</ele><time>2026-04-04T15:09:13.044Z</time></trkpt><trkpt lat="44.3565165" lon="8.2431419"><ele>494.42857142857144</ele><time>2026-04-04T15:09:16.043Z</time></trkpt><trkpt lat="44.3564696" lon="8.2432089"><ele>495.1428571428571</ele><time>2026-04-04T15:09:18.044Z</time></trkpt><trkpt lat="44.3564201" lon="8.2432738"><ele>495.85714285714283</ele><time>2026-04-04T15:09:20.044Z</time></trkpt><trkpt lat="44.356368" lon="8.2433448"><ele>496.57142857142856</ele><time>2026-04-04T15:09:22.044Z</time></trkpt><trkpt lat="44.3563219" lon="8.2434294"><ele>497.2857142857143</ele><time>2026-04-04T15:09:24.043Z</time></trkpt><trkpt lat="44.3562914" lon="8.2435213"><ele>498.0</ele><time>2026-04-04T15:09:26.043Z</time></trkpt><trkpt lat="44.3562753" lon="8.2436324"><ele>496.0</ele><time>2026-04-04T15:09:28.043Z</time></trkpt><trkpt lat="44.3562784" lon="8.2437681"><ele>493.99999999999994</ele><time>2026-04-04T15:09:30.044Z</time></trkpt><trkpt lat="44.3562914" lon="8.2439024"><ele>491.99999999999994</ele><time>2026-04-04T15:09:32.043Z</time></trkpt><trkpt lat="44.3563133" lon="8.244041"><ele>490.0</ele><time>2026-04-04T15:09:34.045Z</time></trkpt><trkpt lat="44.3563395" lon="8.2441698"><ele>488.0</ele><time>2026-04-04T15:09:36.044Z</time></trkpt><trkpt lat="44.3563633" lon="8.2443086"><ele>486.79999999999995</ele><time>2026-04-04T15:09:38.045Z</time></trkpt><trkpt lat="44.3563726" lon="8.2444669"><ele>485.59999999999997</ele><time>2026-04-04T15:09:40.044Z</time></trkpt><trkpt lat="44.3563759" lon="8.2446164"><ele>484.40000000000003</ele><time>2026-04-04T15:09:42.044Z</time></trkpt><trkpt lat="44.3563806" lon="8.2447609"><ele>483.20000000000005</ele><time>2026-04-04T15:09:44.045Z</time></trkpt><trkpt lat="44.3563756" lon="8.2449156"><ele>482.0</ele><time>2026-04-04T15:09:46.044Z</time></trkpt><trkpt lat="44.3563581" lon="8.2450739"><ele>481.99999999999994</ele><time>2026-04-04T15:09:48.045Z</time></trkpt><trkpt lat="44.3563198" lon="8.2452043"><ele>482.0</ele><time>2026-04-04T15:09:50.043Z</time></trkpt><trkpt lat="44.3562689" lon="8.245358"><ele>482.0</ele><time>2026-04-04T15:09:52.043Z</time></trkpt><trkpt lat="44.3562272" lon="8.2454247"><ele>482.0</ele><time>2026-04-04T15:09:53.043Z</time></trkpt><trkpt lat="44.3561806" lon="8.2455004"><ele>481.99999999999994</ele><time>2026-04-04T15:09:54.044Z</time></trkpt><trkpt lat="44.3561359" lon="8.245568"><ele>482.0</ele><time>2026-04-04T15:09:55.044Z</time></trkpt><trkpt lat="44.3560322" lon="8.2456706"><ele>483.40000000000003</ele><time>2026-04-04T15:09:57.045Z</time></trkpt><trkpt lat="44.3559722" lon="8.2457135"><ele>484.80000000000007</ele><time>2026-04-04T15:09:58.044Z</time></trkpt><trkpt lat="44.3559167" lon="8.2457624"><ele>486.2</ele><time>2026-04-04T15:09:59.044Z</time></trkpt><trkpt lat="44.3558094" lon="8.2458658"><ele>487.6</ele><time>2026-04-04T15:10:01.043Z</time></trkpt><trkpt lat="44.3557531" lon="8.245914"><ele>489.0</ele><time>2026-04-04T15:10:02.044Z</time></trkpt><trkpt lat="44.3556407" lon="8.2460043"><ele>487.0</ele><time>2026-04-04T15:10:04.045Z</time></trkpt><trkpt lat="44.3555226" lon="8.2460898"><ele>485.0</ele><time>2026-04-04T15:10:06.044Z</time></trkpt><trkpt lat="44.3554595" lon="8.2461414"><ele>483.0</ele><time>2026-04-04T15:10:07.042Z</time></trkpt><trkpt lat="44.3553944" lon="8.246184"><ele>481.0</ele><time>2026-04-04T15:10:08.044Z</time></trkpt><trkpt lat="44.3553286" lon="8.2462339"><ele>479.0</ele><time>2026-04-04T15:10:09.044Z</time></trkpt><trkpt lat="44.3552602" lon="8.2462861"><ele>477.0</ele><time>2026-04-04T15:10:10.044Z</time></trkpt><trkpt lat="44.3551352" lon="8.2463389"><ele>477.0</ele><time>2026-04-04T15:10:12.043Z</time></trkpt><trkpt lat="44.3550668" lon="8.2463785"><ele>477.0</ele><time>2026-04-04T15:10:13.044Z</time></trkpt><trkpt lat="44.3549941" lon="8.2464195"><ele>477.0</ele><time>2026-04-04T15:10:14.044Z</time></trkpt><trkpt lat="44.3549221" lon="8.2464574"><ele>477.0</ele><time>2026-04-04T15:10:15.044Z</time></trkpt><trkpt lat="44.354851" lon="8.2465007"><ele>477.0</ele><time>2026-04-04T15:10:16.045Z</time></trkpt><trkpt lat="44.3547795" lon="8.2465513"><ele>477.0</ele><time>2026-04-04T15:10:17.044Z</time></trkpt><trkpt lat="44.3547075" lon="8.2465916"><ele>476.6</ele><time>2026-04-04T15:10:18.043Z</time></trkpt><trkpt lat="44.3546279" lon="8.2466115"><ele>476.20000000000005</ele><time>2026-04-04T15:10:19.044Z</time></trkpt><trkpt lat="44.3545572" lon="8.2466494"><ele>475.8</ele><time>2026-04-04T15:10:20.044Z</time></trkpt><trkpt lat="44.3544926" lon="8.2466735"><ele>475.4</ele><time>2026-04-04T15:10:21.043Z</time></trkpt><trkpt lat="44.3543823" lon="8.2466588"><ele>475.0</ele><time>2026-04-04T15:10:23.045Z</time></trkpt><trkpt lat="44.3543303" lon="8.2465036"><ele>472.50000000000006</ele><time>2026-04-04T15:10:25.043Z</time></trkpt><trkpt lat="44.3543467" lon="8.2464053"><ele>470.0</ele><time>2026-04-04T15:10:26.045Z</time></trkpt><trkpt lat="44.3543944" lon="8.2463329"><ele>467.5</ele><time>2026-04-04T15:10:27.045Z</time></trkpt><trkpt lat="44.3544608" lon="8.2462675"><ele>465.0</ele><time>2026-04-04T15:10:28.043Z</time></trkpt><trkpt lat="44.3545343" lon="8.2462053"><ele>462.50000000000006</ele><time>2026-04-04T15:10:29.044Z</time></trkpt><trkpt lat="44.3546177" lon="8.2461448"><ele>460.0</ele><time>2026-04-04T15:10:30.044Z</time></trkpt><trkpt lat="44.3547038" lon="8.2460808"><ele>463.4</ele><time>2026-04-04T15:10:31.044Z</time></trkpt><trkpt lat="44.3547802" lon="8.2460213"><ele>466.8</ele><time>2026-04-04T15:10:32.042Z</time></trkpt><trkpt lat="44.3548542" lon="8.2459519"><ele>470.20000000000005</ele><time>2026-04-04T15:10:33.043Z</time></trkpt><trkpt lat="44.354944" lon="8.2458781"><ele>473.6</ele><time>2026-04-04T15:10:34.043Z</time></trkpt><trkpt lat="44.3550248" lon="8.2458004"><ele>477.0</ele><time>2026-04-04T15:10:35.044Z</time></trkpt><trkpt lat="44.3551203" lon="8.245696"><ele>475.6</ele><time>2026-04-04T15:10:36.042Z</time></trkpt><trkpt lat="44.3551991" lon="8.2456062"><ele>474.20000000000005</ele><time>2026-04-04T15:10:37.044Z</time></trkpt><trkpt lat="44.3552688" lon="8.2455132"><ele>472.8</ele><time>2026-04-04T15:10:38.043Z</time></trkpt><trkpt lat="44.3553365" lon="8.2454234"><ele>471.4</ele><time>2026-04-04T15:10:39.043Z</time></trkpt><trkpt lat="44.3553959" lon="8.2453401"><ele>470.0</ele><time>2026-04-04T15:10:40.044Z</time></trkpt><trkpt lat="44.3554461" lon="8.2452593"><ele>469.99999999999994</ele><time>2026-04-04T15:10:41.043Z</time></trkpt><trkpt lat="44.3554923" lon="8.2451764"><ele>470.0</ele><time>2026-04-04T15:10:42.044Z</time></trkpt><trkpt lat="44.3555188" lon="8.2450809"><ele>470.0</ele><time>2026-04-04T15:10:43.044Z</time></trkpt><trkpt lat="44.3555263" lon="8.2449886"><ele>470.0</ele><time>2026-04-04T15:10:44.043Z</time></trkpt><trkpt lat="44.3555109" lon="8.2449028"><ele>469.99999999999994</ele><time>2026-04-04T15:10:45.043Z</time></trkpt><trkpt lat="44.3554593" lon="8.2447593"><ele>470.0</ele><time>2026-04-04T15:10:47.043Z</time></trkpt><trkpt lat="44.3553592" lon="8.2448294"><ele>469.99999999999994</ele><time>2026-04-04T15:10:48.044Z</time></trkpt><trkpt lat="44.3552859" lon="8.2448984"><ele>470.0</ele><time>2026-04-04T15:10:49.042Z</time></trkpt><trkpt lat="44.3552216" lon="8.2449759"><ele>470.0</ele><time>2026-04-04T15:10:50.042Z</time></trkpt><trkpt lat="44.3551582" lon="8.2450553"><ele>470.0</ele><time>2026-04-04T15:10:51.042Z</time></trkpt><trkpt lat="44.3550872" lon="8.2451295"><ele>469.99999999999994</ele><time>2026-04-04T15:10:52.043Z</time></trkpt><trkpt lat="44.3550014" lon="8.2452053"><ele>470.0</ele><time>2026-04-04T15:10:53.044Z</time></trkpt><trkpt lat="44.3549173" lon="8.245279"><ele>470.0</ele><time>2026-04-04T15:10:54.043Z</time></trkpt><trkpt lat="44.3548236" lon="8.2453441"><ele>470.0</ele><time>2026-04-04T15:10:55.043Z</time></trkpt><trkpt lat="44.3547268" lon="8.2454152"><ele>470.0</ele><time>2026-04-04T15:10:56.044Z</time></trkpt><trkpt lat="44.3546327" lon="8.2454908"><ele>470.0</ele><time>2026-04-04T15:10:57.043Z</time></trkpt><trkpt lat="44.3545423" lon="8.2455534"><ele>470.0</ele><time>2026-04-04T15:10:58.044Z</time></trkpt><trkpt lat="44.3544489" lon="8.2456169"><ele>468.0</ele><time>2026-04-04T15:10:59.044Z</time></trkpt><trkpt lat="44.3543516" lon="8.2456803"><ele>466.0</ele><time>2026-04-04T15:11:00.044Z</time></trkpt><trkpt lat="44.3542586" lon="8.245746"><ele>464.0</ele><time>2026-04-04T15:11:01.044Z</time></trkpt><trkpt lat="44.3541732" lon="8.2458055"><ele>462.0</ele><time>2026-04-04T15:11:02.043Z</time></trkpt><trkpt lat="44.3540813" lon="8.2458689"><ele>460.0</ele><time>2026-04-04T15:11:03.044Z</time></trkpt><trkpt lat="44.3539928" lon="8.2459246"><ele>460.0</ele><time>2026-04-04T15:11:04.045Z</time></trkpt><trkpt lat="44.3539065" lon="8.2460095"><ele>460.0</ele><time>2026-04-04T15:11:05.042Z</time></trkpt><trkpt lat="44.3538113" lon="8.2460934"><ele>460.0</ele><time>2026-04-04T15:11:06.044Z</time></trkpt><trkpt lat="44.3537176" lon="8.2461802"><ele>460.0</ele><time>2026-04-04T15:11:07.044Z</time></trkpt><trkpt lat="44.3536204" lon="8.2462659"><ele>460.0</ele><time>2026-04-04T15:11:08.042Z</time></trkpt><trkpt lat="44.353531" lon="8.2463619"><ele>459.5</ele><time>2026-04-04T15:11:09.045Z</time></trkpt><trkpt lat="44.3534387" lon="8.2464577"><ele>459.0</ele><time>2026-04-04T15:11:10.043Z</time></trkpt><trkpt lat="44.3533443" lon="8.2465567"><ele>458.5</ele><time>2026-04-04T15:11:11.042Z</time></trkpt><trkpt lat="44.3532474" lon="8.2466507"><ele>458.0</ele><time>2026-04-04T15:11:12.043Z</time></trkpt><trkpt lat="44.3531449" lon="8.2467458"><ele>458.0</ele><time>2026-04-04T15:11:13.045Z</time></trkpt><trkpt lat="44.3530444" lon="8.2468385"><ele>458.0</ele><time>2026-04-04T15:11:14.044Z</time></trkpt><trkpt lat="44.3529439" lon="8.2469305"><ele>458.0</ele><time>2026-04-04T15:11:15.043Z</time></trkpt><trkpt lat="44.3528389" lon="8.2470188"><ele>458.0</ele><time>2026-04-04T15:11:16.042Z</time></trkpt><trkpt lat="44.3527394" lon="8.2470965"><ele>455.4</ele><time>2026-04-04T15:11:17.044Z</time></trkpt><trkpt lat="44.3526475" lon="8.2471831"><ele>452.79999999999995</ele><time>2026-04-04T15:11:18.042Z</time></trkpt><trkpt lat="44.3525538" lon="8.2472675"><ele>450.2</ele><time>2026-04-04T15:11:19.043Z</time></trkpt><trkpt lat="44.3524704" lon="8.2473529"><ele>447.6</ele><time>2026-04-04T15:11:20.044Z</time></trkpt><trkpt lat="44.3523902" lon="8.2474318"><ele>445.0</ele><time>2026-04-04T15:11:21.044Z</time></trkpt><trkpt lat="44.352324" lon="8.2475277"><ele>445.00000000000006</ele><time>2026-04-04T15:11:22.044Z</time></trkpt><trkpt lat="44.3522699" lon="8.2476315"><ele>445.0</ele><time>2026-04-04T15:11:23.044Z</time></trkpt><trkpt lat="44.3522429" lon="8.2477451"><ele>445.0</ele><time>2026-04-04T15:11:24.044Z</time></trkpt><trkpt lat="44.3522159" lon="8.2478583"><ele>445.0</ele><time>2026-04-04T15:11:25.043Z</time></trkpt><trkpt lat="44.3522286" lon="8.2479834"><ele>445.00000000000006</ele><time>2026-04-04T15:11:26.045Z</time></trkpt><trkpt lat="44.3522691" lon="8.2480976"><ele>445.0</ele><time>2026-04-04T15:11:27.043Z</time></trkpt><trkpt lat="44.352323" lon="8.2481888"><ele>444.2</ele><time>2026-04-04T15:11:28.044Z</time></trkpt><trkpt lat="44.3523914" lon="8.2482823"><ele>443.4</ele><time>2026-04-04T15:11:29.043Z</time></trkpt><trkpt lat="44.3524691" lon="8.2483564"><ele>442.6</ele><time>2026-04-04T15:11:30.043Z</time></trkpt><trkpt lat="44.3525775" lon="8.2483991"><ele>441.8</ele><time>2026-04-04T15:11:31.043Z</time></trkpt><trkpt lat="44.3526664" lon="8.2484333"><ele>441.0</ele><time>2026-04-04T15:11:32.043Z</time></trkpt><trkpt lat="44.3527499" lon="8.2484585"><ele>441.0</ele><time>2026-04-04T15:11:33.043Z</time></trkpt><trkpt lat="44.3528228" lon="8.2484812"><ele>441.0</ele><time>2026-04-04T15:11:34.043Z</time></trkpt><trkpt lat="44.3528902" lon="8.2485298"><ele>441.0</ele><time>2026-04-04T15:11:35.042Z</time></trkpt><trkpt lat="44.3529791" lon="8.2486119"><ele>441.0</ele><time>2026-04-04T15:11:37.043Z</time></trkpt><trkpt lat="44.3529373" lon="8.2487111"><ele>441.0</ele><time>2026-04-04T15:11:38.044Z</time></trkpt><trkpt lat="44.3528308" lon="8.248767"><ele>441.0</ele><time>2026-04-04T15:11:40.043Z</time></trkpt><trkpt lat="44.3527593" lon="8.2487728"><ele>441.0</ele><time>2026-04-04T15:11:41.043Z</time></trkpt><trkpt lat="44.3526788" lon="8.2487827"><ele>441.0</ele><time>2026-04-04T15:11:42.044Z</time></trkpt><trkpt lat="44.3526044" lon="8.248792"><ele>441.0</ele><time>2026-04-04T15:11:43.044Z</time></trkpt><trkpt lat="44.3525192" lon="8.2488019"><ele>441.0</ele><time>2026-04-04T15:11:44.043Z</time></trkpt><trkpt lat="44.3524445" lon="8.2488045"><ele>441.0</ele><time>2026-04-04T15:11:45.043Z</time></trkpt><trkpt lat="44.3523637" lon="8.2488011"><ele>441.0</ele><time>2026-04-04T15:11:46.043Z</time></trkpt><trkpt lat="44.3522826" lon="8.2488012"><ele>441.0</ele><time>2026-04-04T15:11:47.044Z</time></trkpt><trkpt lat="44.352202" lon="8.2488034"><ele>441.0</ele><time>2026-04-04T15:11:48.044Z</time></trkpt><trkpt lat="44.3521168" lon="8.2488021"><ele>441.0</ele><time>2026-04-04T15:11:49.045Z</time></trkpt><trkpt lat="44.3520289" lon="8.248803"><ele>441.0</ele><time>2026-04-04T15:11:50.043Z</time></trkpt><trkpt lat="44.3519423" lon="8.2488059"><ele>441.0</ele><time>2026-04-04T15:11:51.044Z</time></trkpt><trkpt lat="44.3518519" lon="8.2488146"><ele>438.8</ele><time>2026-04-04T15:11:52.043Z</time></trkpt><trkpt lat="44.3517638" lon="8.2488161"><ele>436.6</ele><time>2026-04-04T15:11:53.044Z</time></trkpt><trkpt lat="44.3516788" lon="8.2488734"><ele>434.4</ele><time>2026-04-04T15:11:54.043Z</time></trkpt><trkpt lat="44.3515988" lon="8.2489384"><ele>432.2</ele><time>2026-04-04T15:11:55.042Z</time></trkpt><trkpt lat="44.3515233" lon="8.2490256"><ele>430.0</ele><time>2026-04-04T15:11:56.045Z</time></trkpt><trkpt lat="44.3514591" lon="8.2491297"><ele>429.00000000000006</ele><time>2026-04-04T15:11:57.042Z</time></trkpt><trkpt lat="44.3514022" lon="8.249228"><ele>428.0</ele><time>2026-04-04T15:11:58.044Z</time></trkpt><trkpt lat="44.3513631" lon="8.2493287"><ele>427.0</ele><time>2026-04-04T15:11:59.043Z</time></trkpt><trkpt lat="44.3513232" lon="8.2494502"><ele>426.0</ele><time>2026-04-04T15:12:00.045Z</time></trkpt><trkpt lat="44.3512864" lon="8.2495683"><ele>425.00000000000006</ele><time>2026-04-04T15:12:01.044Z</time></trkpt><trkpt lat="44.3512626" lon="8.2496864"><ele>424.0</ele><time>2026-04-04T15:12:02.044Z</time></trkpt><trkpt lat="44.3512318" lon="8.2498098"><ele>423.1666666666667</ele><time>2026-04-04T15:12:03.043Z</time></trkpt><trkpt lat="44.3512111" lon="8.2499225"><ele>422.33333333333337</ele><time>2026-04-04T15:12:04.042Z</time></trkpt><trkpt lat="44.3511828" lon="8.2500323"><ele>421.5</ele><time>2026-04-04T15:12:05.042Z</time></trkpt><trkpt lat="44.3511599" lon="8.2501422"><ele>420.66666666666663</ele><time>2026-04-04T15:12:06.044Z</time></trkpt><trkpt lat="44.3511377" lon="8.2502623"><ele>419.8333333333333</ele><time>2026-04-04T15:12:07.044Z</time></trkpt><trkpt lat="44.3511097" lon="8.2503641"><ele>419.0</ele><time>2026-04-04T15:12:08.044Z</time></trkpt><trkpt lat="44.3510737" lon="8.2504631"><ele>418.99999999999994</ele><time>2026-04-04T15:12:09.043Z</time></trkpt><trkpt lat="44.3510743" lon="8.2505728"><ele>419.0</ele><time>2026-04-04T15:12:10.043Z</time></trkpt><trkpt lat="44.3510483" lon="8.2506685"><ele>419.0</ele><time>2026-04-04T15:12:11.044Z</time></trkpt><trkpt lat="44.351023" lon="8.2507585"><ele>419.0</ele><time>2026-04-04T15:12:12.044Z</time></trkpt><trkpt lat="44.350993" lon="8.2509286"><ele>418.99999999999994</ele><time>2026-04-04T15:12:14.043Z</time></trkpt><trkpt lat="44.3509704" lon="8.2510128"><ele>419.0</ele><time>2026-04-04T15:12:15.043Z</time></trkpt><trkpt lat="44.3509375" lon="8.2511037"><ele>419.2</ele><time>2026-04-04T15:12:16.045Z</time></trkpt><trkpt lat="44.3509222" lon="8.2511898"><ele>419.4</ele><time>2026-04-04T15:12:17.043Z</time></trkpt><trkpt lat="44.3508701" lon="8.2513368"><ele>419.6</ele><time>2026-04-04T15:12:19.044Z</time></trkpt><trkpt lat="44.3508274" lon="8.2514915"><ele>419.8</ele><time>2026-04-04T15:12:21.043Z</time></trkpt><trkpt lat="44.3507897" lon="8.2516422"><ele>420.0</ele><time>2026-04-04T15:12:23.043Z</time></trkpt><trkpt lat="44.3507504" lon="8.2517787"><ele>420.2</ele><time>2026-04-04T15:12:25.044Z</time></trkpt><trkpt lat="44.3507192" lon="8.2519094"><ele>420.4</ele><time>2026-04-04T15:12:27.042Z</time></trkpt><trkpt lat="44.3506895" lon="8.2520432"><ele>420.6</ele><time>2026-04-04T15:12:29.043Z</time></trkpt><trkpt lat="44.3506562" lon="8.2521611"><ele>420.8</ele><time>2026-04-04T15:12:31.043Z</time></trkpt><trkpt lat="44.3506338" lon="8.2522846"><ele>421.0</ele><time>2026-04-04T15:12:33.044Z</time></trkpt><trkpt lat="44.3506024" lon="8.2524045"><ele>421.33333333333337</ele><time>2026-04-04T15:12:35.044Z</time></trkpt><trkpt lat="44.3505751" lon="8.2525166"><ele>421.6666666666667</ele><time>2026-04-04T15:12:37.042Z</time></trkpt><trkpt lat="44.350541" lon="8.2526409"><ele>422.0</ele><time>2026-04-04T15:12:39.044Z</time></trkpt><trkpt lat="44.3505137" lon="8.2527544"><ele>422.33333333333337</ele><time>2026-04-04T15:12:41.042Z</time></trkpt><trkpt lat="44.3504953" lon="8.2528783"><ele>422.6666666666667</ele><time>2026-04-04T15:12:43.043Z</time></trkpt><trkpt lat="44.3504602" lon="8.2529925"><ele>423.0</ele><time>2026-04-04T15:12:45.044Z</time></trkpt><trkpt lat="44.3504218" lon="8.2531133"><ele>421.2</ele><time>2026-04-04T15:12:47.043Z</time></trkpt><trkpt lat="44.3503894" lon="8.2532516"><ele>419.4</ele><time>2026-04-04T15:12:49.043Z</time></trkpt><trkpt lat="44.3503546" lon="8.2533827"><ele>417.59999999999997</ele><time>2026-04-04T15:12:51.042Z</time></trkpt><trkpt lat="44.3502966" lon="8.2535409"><ele>415.79999999999995</ele><time>2026-04-04T15:12:53.044Z</time></trkpt><trkpt lat="44.3502687" lon="8.253623"><ele>414.0</ele><time>2026-04-04T15:12:54.044Z</time></trkpt><trkpt lat="44.3502392" lon="8.2537104"><ele>414.0</ele><time>2026-04-04T15:12:55.044Z</time></trkpt><trkpt lat="44.350207" lon="8.2537942"><ele>414.0</ele><time>2026-04-04T15:12:56.043Z</time></trkpt><trkpt lat="44.3501418" lon="8.2539604"><ele>414.0</ele><time>2026-04-04T15:12:58.043Z</time></trkpt><trkpt lat="44.3501078" lon="8.2540443"><ele>414.0</ele><time>2026-04-04T15:12:59.044Z</time></trkpt><trkpt lat="44.3500519" lon="8.2541994"><ele>414.0</ele><time>2026-04-04T15:13:01.043Z</time></trkpt><trkpt lat="44.350028" lon="8.2542837"><ele>413.8571428571429</ele><time>2026-04-04T15:13:02.042Z</time></trkpt><trkpt lat="44.3499944" lon="8.2543732"><ele>413.7142857142857</ele><time>2026-04-04T15:13:03.043Z</time></trkpt><trkpt lat="44.3499759" lon="8.2544674"><ele>413.57142857142856</ele><time>2026-04-04T15:13:04.043Z</time></trkpt><trkpt lat="44.349974" lon="8.2545596"><ele>413.42857142857144</ele><time>2026-04-04T15:13:05.043Z</time></trkpt><trkpt lat="44.3499534" lon="8.2546508"><ele>413.2857142857143</ele><time>2026-04-04T15:13:06.042Z</time></trkpt><trkpt lat="44.3499257" lon="8.2547421"><ele>413.14285714285717</ele><time>2026-04-04T15:13:07.043Z</time></trkpt><trkpt lat="44.3499083" lon="8.2548298"><ele>413.0</ele><time>2026-04-04T15:13:08.044Z</time></trkpt><trkpt lat="44.3499049" lon="8.2549306"><ele>413.0</ele><time>2026-04-04T15:13:09.043Z</time></trkpt><trkpt lat="44.3499002" lon="8.2550212"><ele>413.0</ele><time>2026-04-04T15:13:10.043Z</time></trkpt><trkpt lat="44.3499038" lon="8.2551207"><ele>413.0</ele><time>2026-04-04T15:13:11.043Z</time></trkpt><trkpt lat="44.3499122" lon="8.2552118"><ele>413.0</ele><time>2026-04-04T15:13:12.044Z</time></trkpt><trkpt lat="44.3499188" lon="8.2553078"><ele>413.0</ele><time>2026-04-04T15:13:13.043Z</time></trkpt><trkpt lat="44.3499262" lon="8.255429"><ele>413.0</ele><time>2026-04-04T15:13:14.042Z</time></trkpt><trkpt lat="44.3499324" lon="8.2555322"><ele>413.0</ele><time>2026-04-04T15:13:15.043Z</time></trkpt><trkpt lat="44.3499387" lon="8.2556301"><ele>412.7142857142857</ele><time>2026-04-04T15:13:16.044Z</time></trkpt><trkpt lat="44.3499631" lon="8.2557184"><ele>412.42857142857144</ele><time>2026-04-04T15:13:17.044Z</time></trkpt><trkpt lat="44.3499849" lon="8.2558144"><ele>412.1428571428571</ele><time>2026-04-04T15:13:18.045Z</time></trkpt><trkpt lat="44.3499898" lon="8.2559188"><ele>411.8571428571429</ele><time>2026-04-04T15:13:19.044Z</time></trkpt><trkpt lat="44.3499971" lon="8.2560202"><ele>411.57142857142856</ele><time>2026-04-04T15:13:20.044Z</time></trkpt><trkpt lat="44.3499919" lon="8.2561237"><ele>411.2857142857143</ele><time>2026-04-04T15:13:21.044Z</time></trkpt><trkpt lat="44.3500037" lon="8.2562223"><ele>411.0</ele><time>2026-04-04T15:13:22.042Z</time></trkpt><trkpt lat="44.3499917" lon="8.2563258"><ele>411.0</ele><time>2026-04-04T15:13:23.043Z</time></trkpt><trkpt lat="44.3499942" lon="8.2564258"><ele>411.0</ele><time>2026-04-04T15:13:24.044Z</time></trkpt><trkpt lat="44.3499933" lon="8.2565249"><ele>411.0</ele><time>2026-04-04T15:13:25.043Z</time></trkpt><trkpt lat="44.3499903" lon="8.2566231"><ele>411.0</ele><time>2026-04-04T15:13:26.043Z</time></trkpt><trkpt lat="44.3499901" lon="8.2567219"><ele>411.0</ele><time>2026-04-04T15:13:27.043Z</time></trkpt><trkpt lat="44.349989" lon="8.2568215"><ele>411.0</ele><time>2026-04-04T15:13:28.044Z</time></trkpt><trkpt lat="44.3500182" lon="8.2569996"><ele>410.57142857142856</ele><time>2026-04-04T15:13:30.043Z</time></trkpt><trkpt lat="44.3500164" lon="8.257102"><ele>410.1428571428571</ele><time>2026-04-04T15:13:31.042Z</time></trkpt><trkpt lat="44.3500173" lon="8.257195"><ele>409.7142857142857</ele><time>2026-04-04T15:13:32.042Z</time></trkpt><trkpt lat="44.3500211" lon="8.2572932"><ele>409.2857142857143</ele><time>2026-04-04T15:13:33.043Z</time></trkpt><trkpt lat="44.3500099" lon="8.2573862"><ele>408.8571428571429</ele><time>2026-04-04T15:13:34.043Z</time></trkpt><trkpt lat="44.3500097" lon="8.2574898"><ele>408.42857142857144</ele><time>2026-04-04T15:13:35.042Z</time></trkpt><trkpt lat="44.3500155" lon="8.25759"><ele>408.0</ele><time>2026-04-04T15:13:36.043Z</time></trkpt><trkpt lat="44.3500198" lon="8.2576983"><ele>407.6666666666667</ele><time>2026-04-04T15:13:37.044Z</time></trkpt><trkpt lat="44.3500224" lon="8.2578092"><ele>407.33333333333337</ele><time>2026-04-04T15:13:38.043Z</time></trkpt><trkpt lat="44.3500312" lon="8.2579118"><ele>407.0</ele><time>2026-04-04T15:13:39.043Z</time></trkpt><trkpt lat="44.3500389" lon="8.2580203"><ele>406.6666666666667</ele><time>2026-04-04T15:13:40.043Z</time></trkpt><trkpt lat="44.3500441" lon="8.2581217"><ele>406.33333333333337</ele><time>2026-04-04T15:13:41.043Z</time></trkpt><trkpt lat="44.3500456" lon="8.2582509"><ele>406.0</ele><time>2026-04-04T15:13:42.044Z</time></trkpt><trkpt lat="44.3500581" lon="8.2583566"><ele>405.33333333333337</ele><time>2026-04-04T15:13:43.043Z</time></trkpt><trkpt lat="44.3500602" lon="8.2584655"><ele>404.6666666666667</ele><time>2026-04-04T15:13:44.043Z</time></trkpt><trkpt lat="44.3500612" lon="8.258594"><ele>404.0</ele><time>2026-04-04T15:13:45.042Z</time></trkpt><trkpt lat="44.3500731" lon="8.2587086"><ele>403.33333333333337</ele><time>2026-04-04T15:13:46.044Z</time></trkpt><trkpt lat="44.3500812" lon="8.2588211"><ele>402.6666666666667</ele><time>2026-04-04T15:13:47.044Z</time></trkpt><trkpt lat="44.3500845" lon="8.2589417"><ele>402.0</ele><time>2026-04-04T15:13:48.044Z</time></trkpt><trkpt lat="44.3500935" lon="8.2590602"><ele>401.5</ele><time>2026-04-04T15:13:49.043Z</time></trkpt><trkpt lat="44.3501082" lon="8.259176"><ele>401.0</ele><time>2026-04-04T15:13:50.045Z</time></trkpt><trkpt lat="44.3501283" lon="8.2592862"><ele>400.5</ele><time>2026-04-04T15:13:51.043Z</time></trkpt><trkpt lat="44.3501438" lon="8.2593924"><ele>400.0</ele><time>2026-04-04T15:13:52.043Z</time></trkpt><trkpt lat="44.3501666" lon="8.2594964"><ele>399.5</ele><time>2026-04-04T15:13:53.045Z</time></trkpt><trkpt lat="44.3501969" lon="8.2596019"><ele>399.0</ele><time>2026-04-04T15:13:54.043Z</time></trkpt><trkpt lat="44.3502301" lon="8.2596993"><ele>398.85714285714283</ele><time>2026-04-04T15:13:55.043Z</time></trkpt><trkpt lat="44.3502585" lon="8.2598034"><ele>398.7142857142857</ele><time>2026-04-04T15:13:56.044Z</time></trkpt><trkpt lat="44.3502913" lon="8.2598994"><ele>398.57142857142856</ele><time>2026-04-04T15:13:57.044Z</time></trkpt><trkpt lat="44.3503185" lon="8.2599957"><ele>398.42857142857144</ele><time>2026-04-04T15:13:58.042Z</time></trkpt><trkpt lat="44.3503503" lon="8.2600954"><ele>398.2857142857143</ele><time>2026-04-04T15:13:59.043Z</time></trkpt><trkpt lat="44.3503793" lon="8.2601879"><ele>398.1428571428571</ele><time>2026-04-04T15:14:00.043Z</time></trkpt><trkpt lat="44.3504107" lon="8.2602739"><ele>398.0</ele><time>2026-04-04T15:14:01.043Z</time></trkpt><trkpt lat="44.3504404" lon="8.2603544"><ele>397.99999999999994</ele><time>2026-04-04T15:14:02.043Z</time></trkpt><trkpt lat="44.3504701" lon="8.260446"><ele>398.0</ele><time>2026-04-04T15:14:03.044Z</time></trkpt><trkpt lat="44.3504982" lon="8.26053"><ele>398.0</ele><time>2026-04-04T15:14:04.043Z</time></trkpt><trkpt lat="44.3505255" lon="8.260614"><ele>398.0</ele><time>2026-04-04T15:14:05.044Z</time></trkpt><trkpt lat="44.3505502" lon="8.2607087"><ele>397.99999999999994</ele><time>2026-04-04T15:14:06.044Z</time></trkpt><trkpt lat="44.3505809" lon="8.2607894"><ele>398.0</ele><time>2026-04-04T15:14:07.042Z</time></trkpt><trkpt lat="44.3506292" lon="8.2609453"><ele>397.75</ele><time>2026-04-04T15:14:09.043Z</time></trkpt><trkpt lat="44.3506916" lon="8.2611089"><ele>397.5</ele><time>2026-04-04T15:14:11.044Z</time></trkpt><trkpt lat="44.3507277" lon="8.261249"><ele>397.25</ele><time>2026-04-04T15:14:13.042Z</time></trkpt><trkpt lat="44.3507624" lon="8.2614107"><ele>397.0</ele><time>2026-04-04T15:14:15.042Z</time></trkpt><trkpt lat="44.3507947" lon="8.2615608"><ele>397.0</ele><time>2026-04-04T15:14:17.043Z</time></trkpt><trkpt lat="44.3508151" lon="8.2617163"><ele>397.0</ele><time>2026-04-04T15:14:19.043Z</time></trkpt><trkpt lat="44.3508339" lon="8.2618773"><ele>397.0</ele><time>2026-04-04T15:14:21.044Z</time></trkpt><trkpt lat="44.350841" lon="8.262041"><ele>397.0</ele><time>2026-04-04T15:14:23.044Z</time></trkpt><trkpt lat="44.3508401" lon="8.2621314"><ele>397.0</ele><time>2026-04-04T15:14:24.043Z</time></trkpt><trkpt lat="44.3508376" lon="8.2622255"><ele>396.0</ele><time>2026-04-04T15:14:25.043Z</time></trkpt><trkpt lat="44.3508431" lon="8.2624002"><ele>395.0</ele><time>2026-04-04T15:14:27.045Z</time></trkpt><trkpt lat="44.350836" lon="8.2625796"><ele>394.0</ele><time>2026-04-04T15:14:29.043Z</time></trkpt><trkpt lat="44.3508253" lon="8.2626852"><ele>393.0</ele><time>2026-04-04T15:14:30.043Z</time></trkpt><trkpt lat="44.350822" lon="8.2627769"><ele>392.0</ele><time>2026-04-04T15:14:31.044Z</time></trkpt><trkpt lat="44.3508141" lon="8.2629462"><ele>392.25</ele><time>2026-04-04T15:14:33.043Z</time></trkpt><trkpt lat="44.350805" lon="8.2631167"><ele>392.5</ele><time>2026-04-04T15:14:35.044Z</time></trkpt><trkpt lat="44.3508029" lon="8.2632775"><ele>392.75</ele><time>2026-04-04T15:14:37.043Z</time></trkpt><trkpt lat="44.3508323" lon="8.2634351"><ele>393.0</ele><time>2026-04-04T15:14:39.043Z</time></trkpt><trkpt lat="44.3508535" lon="8.2635765"><ele>393.0</ele><time>2026-04-04T15:14:41.044Z</time></trkpt><trkpt lat="44.3508829" lon="8.2637218"><ele>393.0</ele><time>2026-04-04T15:14:43.043Z</time></trkpt><trkpt lat="44.3509318" lon="8.2638647"><ele>393.0</ele><time>2026-04-04T15:14:45.044Z</time></trkpt><trkpt lat="44.3509869" lon="8.263982"><ele>393.0</ele><time>2026-04-04T15:14:47.043Z</time></trkpt><trkpt lat="44.3510485" lon="8.2641039"><ele>393.0</ele><time>2026-04-04T15:14:49.042Z</time></trkpt><trkpt lat="44.3511176" lon="8.2642153"><ele>392.4</ele><time>2026-04-04T15:14:51.044Z</time></trkpt><trkpt lat="44.3511735" lon="8.2643382"><ele>391.79999999999995</ele><time>2026-04-04T15:14:53.043Z</time></trkpt><trkpt lat="44.3512463" lon="8.2644368"><ele>391.2</ele><time>2026-04-04T15:14:55.042Z</time></trkpt><trkpt lat="44.3513128" lon="8.2645323"><ele>390.6</ele><time>2026-04-04T15:14:57.043Z</time></trkpt><trkpt lat="44.3513818" lon="8.2646302"><ele>390.0</ele><time>2026-04-04T15:14:59.044Z</time></trkpt><trkpt lat="44.3514522" lon="8.2647234"><ele>390.5</ele><time>2026-04-04T15:15:01.043Z</time></trkpt><trkpt lat="44.3515147" lon="8.264811"><ele>391.0</ele><time>2026-04-04T15:15:03.044Z</time></trkpt><trkpt lat="44.3515764" lon="8.2649012"><ele>391.5</ele><time>2026-04-04T15:15:05.043Z</time></trkpt><trkpt lat="44.3516355" lon="8.2649827"><ele>392.0</ele><time>2026-04-04T15:15:07.043Z</time></trkpt><trkpt lat="44.3516852" lon="8.265068"><ele>392.5</ele><time>2026-04-04T15:15:09.045Z</time></trkpt><trkpt lat="44.3517397" lon="8.2651558"><ele>393.0</ele><time>2026-04-04T15:15:11.043Z</time></trkpt><trkpt lat="44.3518115" lon="8.2652345"><ele>393.0</ele><time>2026-04-04T15:15:13.043Z</time></trkpt><trkpt lat="44.3518627" lon="8.2653276"><ele>393.0</ele><time>2026-04-04T15:15:15.043Z</time></trkpt><trkpt lat="44.3519197" lon="8.2654122"><ele>393.0</ele><time>2026-04-04T15:15:17.044Z</time></trkpt><trkpt lat="44.3519924" lon="8.2654955"><ele>393.0</ele><time>2026-04-04T15:15:19.043Z</time></trkpt><trkpt lat="44.3520625" lon="8.2655801"><ele>393.0</ele><time>2026-04-04T15:15:21.044Z</time></trkpt><trkpt lat="44.3521347" lon="8.2656603"><ele>393.0</ele><time>2026-04-04T15:15:23.043Z</time></trkpt><trkpt lat="44.3522072" lon="8.2657575"><ele>394.2</ele><time>2026-04-04T15:15:25.044Z</time></trkpt><trkpt lat="44.3523009" lon="8.2658576"><ele>395.4</ele><time>2026-04-04T15:15:27.042Z</time></trkpt><trkpt lat="44.3523531" lon="8.2659836"><ele>396.59999999999997</ele><time>2026-04-04T15:15:29.044Z</time></trkpt><trkpt lat="44.352433" lon="8.2661123"><ele>397.79999999999995</ele><time>2026-04-04T15:15:31.043Z</time></trkpt><trkpt lat="44.3524723" lon="8.2661896"><ele>399.0</ele><time>2026-04-04T15:15:32.043Z</time></trkpt><trkpt lat="44.3525217" lon="8.2663021"><ele>399.0</ele><time>2026-04-04T15:15:34.043Z</time></trkpt><trkpt lat="44.3525695" lon="8.2664385"><ele>399.0</ele><time>2026-04-04T15:15:36.043Z</time></trkpt><trkpt lat="44.3526351" lon="8.2665693"><ele>399.0</ele><time>2026-04-04T15:15:38.044Z</time></trkpt><trkpt lat="44.3526931" lon="8.2667055"><ele>399.0</ele><time>2026-04-04T15:15:40.044Z</time></trkpt><trkpt lat="44.3527468" lon="8.2668329"><ele>399.0</ele><time>2026-04-04T15:15:42.042Z</time></trkpt><trkpt lat="44.352822" lon="8.2669578"><ele>398.0</ele><time>2026-04-04T15:15:44.043Z</time></trkpt><trkpt lat="44.3529005" lon="8.2670819"><ele>397.0</ele><time>2026-04-04T15:15:46.045Z</time></trkpt><trkpt lat="44.3529806" lon="8.2671994"><ele>396.0</ele><time>2026-04-04T15:15:48.044Z</time></trkpt><trkpt lat="44.3530478" lon="8.2673123"><ele>395.0</ele><time>2026-04-04T15:15:50.043Z</time></trkpt><trkpt lat="44.353128" lon="8.2674393"><ele>395.0</ele><time>2026-04-04T15:15:52.043Z</time></trkpt><trkpt lat="44.3532053" lon="8.2675598"><ele>395.0</ele><time>2026-04-04T15:15:54.043Z</time></trkpt><trkpt lat="44.3532879" lon="8.2677072"><ele>395.0</ele><time>2026-04-04T15:15:56.043Z</time></trkpt><trkpt lat="44.3533245" lon="8.2677848"><ele>395.0</ele><time>2026-04-04T15:15:57.043Z</time></trkpt><trkpt lat="44.3533694" lon="8.2678492"><ele>395.0</ele><time>2026-04-04T15:15:58.044Z</time></trkpt><trkpt lat="44.3534541" lon="8.2679699"><ele>395.0</ele><time>2026-04-04T15:16:00.042Z</time></trkpt><trkpt lat="44.353534" lon="8.2680881"><ele>395.0</ele><time>2026-04-04T15:16:02.043Z</time></trkpt><trkpt lat="44.353607" lon="8.268203"><ele>395.0</ele><time>2026-04-04T15:16:04.043Z</time></trkpt><trkpt lat="44.3536796" lon="8.2683202"><ele>395.0</ele><time>2026-04-04T15:16:06.042Z</time></trkpt><trkpt lat="44.3537505" lon="8.2684408"><ele>395.0</ele><time>2026-04-04T15:16:08.042Z</time></trkpt><trkpt lat="44.3538288" lon="8.2685528"><ele>395.4285714285714</ele><time>2026-04-04T15:16:10.042Z</time></trkpt><trkpt lat="44.3538715" lon="8.2686222"><ele>395.8571428571429</ele><time>2026-04-04T15:16:11.044Z</time></trkpt><trkpt lat="44.3539141" lon="8.2686883"><ele>396.2857142857143</ele><time>2026-04-04T15:16:12.043Z</time></trkpt><trkpt lat="44.3539609" lon="8.2687542"><ele>396.71428571428567</ele><time>2026-04-04T15:16:13.043Z</time></trkpt><trkpt lat="44.3540106" lon="8.2688217"><ele>397.1428571428571</ele><time>2026-04-04T15:16:14.043Z</time></trkpt><trkpt lat="44.3540714" lon="8.268893"><ele>397.57142857142856</ele><time>2026-04-04T15:16:15.043Z</time></trkpt><trkpt lat="44.3541211" lon="8.2689609"><ele>398.0</ele><time>2026-04-04T15:16:16.043Z</time></trkpt><trkpt lat="44.3541696" lon="8.2690273"><ele>396.3333333333333</ele><time>2026-04-04T15:16:17.043Z</time></trkpt><trkpt lat="44.3542156" lon="8.2690978"><ele>394.66666666666663</ele><time>2026-04-04T15:16:18.042Z</time></trkpt><trkpt lat="44.3542607" lon="8.2691641"><ele>393.0</ele><time>2026-04-04T15:16:19.043Z</time></trkpt><trkpt lat="44.3543103" lon="8.2692306"><ele>391.33333333333337</ele><time>2026-04-04T15:16:20.043Z</time></trkpt><trkpt lat="44.3543907" lon="8.2693626"><ele>389.6666666666667</ele><time>2026-04-04T15:16:22.043Z</time></trkpt><trkpt lat="44.3544668" lon="8.2694792"><ele>388.0</ele><time>2026-04-04T15:16:24.044Z</time></trkpt><trkpt lat="44.354541" lon="8.26959"><ele>388.0</ele><time>2026-04-04T15:16:26.042Z</time></trkpt><trkpt lat="44.3545698" lon="8.269673"><ele>388.0</ele><time>2026-04-04T15:16:27.042Z</time></trkpt><trkpt lat="44.3546402" lon="8.2697745"><ele>388.0</ele><time>2026-04-04T15:16:29.043Z</time></trkpt><trkpt lat="44.3547053" lon="8.2698828"><ele>388.0</ele><time>2026-04-04T15:16:31.042Z</time></trkpt><trkpt lat="44.3547755" lon="8.2699709"><ele>388.0</ele><time>2026-04-04T15:16:33.044Z</time></trkpt><trkpt lat="44.3548433" lon="8.2700885"><ele>388.2</ele><time>2026-04-04T15:16:35.043Z</time></trkpt><trkpt lat="44.3549174" lon="8.2701992"><ele>388.4</ele><time>2026-04-04T15:16:37.044Z</time></trkpt><trkpt lat="44.3549958" lon="8.2703084"><ele>388.59999999999997</ele><time>2026-04-04T15:16:39.044Z</time></trkpt><trkpt lat="44.3550729" lon="8.2704225"><ele>388.79999999999995</ele><time>2026-04-04T15:16:41.043Z</time></trkpt><trkpt lat="44.355159" lon="8.2705349"><ele>389.0</ele><time>2026-04-04T15:16:43.042Z</time></trkpt><trkpt lat="44.3552452" lon="8.2706607"><ele>388.8333333333333</ele><time>2026-04-04T15:16:45.043Z</time></trkpt><trkpt lat="44.3553421" lon="8.2707769"><ele>388.66666666666663</ele><time>2026-04-04T15:16:47.043Z</time></trkpt><trkpt lat="44.3553857" lon="8.2708482"><ele>388.5</ele><time>2026-04-04T15:16:48.043Z</time></trkpt><trkpt lat="44.35544" lon="8.2709142"><ele>388.33333333333337</ele><time>2026-04-04T15:16:49.043Z</time></trkpt><trkpt lat="44.3554954" lon="8.2709824"><ele>388.1666666666667</ele><time>2026-04-04T15:16:50.043Z</time></trkpt><trkpt lat="44.3555526" lon="8.2710474"><ele>388.0</ele><time>2026-04-04T15:16:51.043Z</time></trkpt><trkpt lat="44.3556058" lon="8.2711237"><ele>388.00000000000006</ele><time>2026-04-04T15:16:52.043Z</time></trkpt><trkpt lat="44.3556651" lon="8.2711894"><ele>388.0</ele><time>2026-04-04T15:16:53.044Z</time></trkpt><trkpt lat="44.3557231" lon="8.2712569"><ele>388.0</ele><time>2026-04-04T15:16:54.043Z</time></trkpt><trkpt lat="44.355781" lon="8.2713249"><ele>388.0</ele><time>2026-04-04T15:16:55.043Z</time></trkpt><trkpt lat="44.3558442" lon="8.2713937"><ele>388.00000000000006</ele><time>2026-04-04T15:16:56.043Z</time></trkpt><trkpt lat="44.3558922" lon="8.271474"><ele>388.0</ele><time>2026-04-04T15:16:57.042Z</time></trkpt><trkpt lat="44.3559431" lon="8.2715475"><ele>386.1666666666667</ele><time>2026-04-04T15:16:58.042Z</time></trkpt><trkpt lat="44.3559908" lon="8.2716314"><ele>384.33333333333337</ele><time>2026-04-04T15:16:59.043Z</time></trkpt><trkpt lat="44.3560302" lon="8.2717086"><ele>382.5</ele><time>2026-04-04T15:17:00.043Z</time></trkpt><trkpt lat="44.3560667" lon="8.2717907"><ele>380.6666666666667</ele><time>2026-04-04T15:17:01.043Z</time></trkpt><trkpt lat="44.3561008" lon="8.2719284"><ele>378.83333333333337</ele><time>2026-04-04T15:17:03.043Z</time></trkpt><trkpt lat="44.3561247" lon="8.2720541"><ele>377.0</ele><time>2026-04-04T15:17:05.043Z</time></trkpt><trkpt lat="44.3561602" lon="8.2721776"><ele>376.20000000000005</ele><time>2026-04-04T15:17:07.043Z</time></trkpt><trkpt lat="44.3561876" lon="8.2722987"><ele>375.4</ele><time>2026-04-04T15:17:09.043Z</time></trkpt><trkpt lat="44.3562182" lon="8.2724411"><ele>374.6</ele><time>2026-04-04T15:17:11.044Z</time></trkpt><trkpt lat="44.3562409" lon="8.2725822"><ele>373.79999999999995</ele><time>2026-04-04T15:17:13.043Z</time></trkpt><trkpt lat="44.3562631" lon="8.2727492"><ele>373.0</ele><time>2026-04-04T15:17:15.044Z</time></trkpt><trkpt lat="44.3562864" lon="8.2729106"><ele>373.0</ele><time>2026-04-04T15:17:17.043Z</time></trkpt><trkpt lat="44.3562883" lon="8.2730692"><ele>373.0</ele><time>2026-04-04T15:17:19.044Z</time></trkpt><trkpt lat="44.3562725" lon="8.2732052"><ele>373.0</ele><time>2026-04-04T15:17:21.043Z</time></trkpt><trkpt lat="44.3562756" lon="8.2732947"><ele>373.0</ele><time>2026-04-04T15:17:22.043Z</time></trkpt><trkpt lat="44.356287" lon="8.2733858"><ele>373.0</ele><time>2026-04-04T15:17:23.043Z</time></trkpt><trkpt lat="44.3562901" lon="8.2734753"><ele>373.0</ele><time>2026-04-04T15:17:24.042Z</time></trkpt><trkpt lat="44.3562895" lon="8.2735839"><ele>372.7142857142857</ele><time>2026-04-04T15:17:25.043Z</time></trkpt><trkpt lat="44.3562846" lon="8.2736842"><ele>372.42857142857144</ele><time>2026-04-04T15:17:26.042Z</time></trkpt><trkpt lat="44.3562845" lon="8.273785"><ele>372.1428571428571</ele><time>2026-04-04T15:17:27.043Z</time></trkpt><trkpt lat="44.3562889" lon="8.2738885"><ele>371.8571428571429</ele><time>2026-04-04T15:17:28.044Z</time></trkpt><trkpt lat="44.3562884" lon="8.2739833"><ele>371.57142857142856</ele><time>2026-04-04T15:17:29.043Z</time></trkpt><trkpt lat="44.3562806" lon="8.2740866"><ele>371.2857142857143</ele><time>2026-04-04T15:17:30.043Z</time></trkpt><trkpt lat="44.3562761" lon="8.2741935"><ele>371.0</ele><time>2026-04-04T15:17:31.043Z</time></trkpt><trkpt lat="44.3562684" lon="8.2742998"><ele>370.6666666666667</ele><time>2026-04-04T15:17:32.042Z</time></trkpt><trkpt lat="44.3562615" lon="8.2744103"><ele>370.33333333333337</ele><time>2026-04-04T15:17:33.044Z</time></trkpt><trkpt lat="44.3562511" lon="8.2745201"><ele>370.0</ele><time>2026-04-04T15:17:34.043Z</time></trkpt><trkpt lat="44.3562405" lon="8.2746356"><ele>369.6666666666667</ele><time>2026-04-04T15:17:35.044Z</time></trkpt><trkpt lat="44.3562408" lon="8.2747363"><ele>369.3333333333333</ele><time>2026-04-04T15:17:36.042Z</time></trkpt><trkpt lat="44.356239" lon="8.2748453"><ele>369.0</ele><time>2026-04-04T15:17:37.043Z</time></trkpt><trkpt lat="44.3562301" lon="8.2749545"><ele>369.0</ele><time>2026-04-04T15:17:38.043Z</time></trkpt><trkpt lat="44.3562263" lon="8.2750624"><ele>369.0</ele><time>2026-04-04T15:17:39.042Z</time></trkpt><trkpt lat="44.3562188" lon="8.2751743"><ele>369.0</ele><time>2026-04-04T15:17:40.042Z</time></trkpt><trkpt lat="44.3562079" lon="8.2752889"><ele>369.0</ele><time>2026-04-04T15:17:41.043Z</time></trkpt><trkpt lat="44.3561911" lon="8.2753963"><ele>369.0</ele><time>2026-04-04T15:17:42.042Z</time></trkpt><trkpt lat="44.3561771" lon="8.2755083"><ele>369.0</ele><time>2026-04-04T15:17:43.043Z</time></trkpt><trkpt lat="44.3561601" lon="8.2756257"><ele>369.1666666666667</ele><time>2026-04-04T15:17:44.043Z</time></trkpt><trkpt lat="44.3561418" lon="8.2757365"><ele>369.3333333333333</ele><time>2026-04-04T15:17:45.043Z</time></trkpt><trkpt lat="44.3561198" lon="8.2758437"><ele>369.5</ele><time>2026-04-04T15:17:46.043Z</time></trkpt><trkpt lat="44.3560909" lon="8.2759563"><ele>369.66666666666663</ele><time>2026-04-04T15:17:47.044Z</time></trkpt><trkpt lat="44.3560568" lon="8.276054"><ele>369.8333333333333</ele><time>2026-04-04T15:17:48.042Z</time></trkpt><trkpt lat="44.3560105" lon="8.2761438"><ele>370.0</ele><time>2026-04-04T15:17:49.043Z</time></trkpt><trkpt lat="44.355952" lon="8.2762339"><ele>370.0</ele><time>2026-04-04T15:17:50.043Z</time></trkpt><trkpt lat="44.3558831" lon="8.2763208"><ele>370.0</ele><time>2026-04-04T15:17:51.041Z</time></trkpt><trkpt lat="44.3558161" lon="8.2764055"><ele>370.0</ele><time>2026-04-04T15:17:52.042Z</time></trkpt><trkpt lat="44.3557448" lon="8.2764923"><ele>370.0</ele><time>2026-04-04T15:17:53.043Z</time></trkpt><trkpt lat="44.3556765" lon="8.2765903"><ele>370.0</ele><time>2026-04-04T15:17:54.043Z</time></trkpt><trkpt lat="44.3556198" lon="8.27669"><ele>369.8</ele><time>2026-04-04T15:17:55.042Z</time></trkpt><trkpt lat="44.3555646" lon="8.2767848"><ele>369.6</ele><time>2026-04-04T15:17:56.043Z</time></trkpt><trkpt lat="44.3555067" lon="8.2768849"><ele>369.4</ele><time>2026-04-04T15:17:57.043Z</time></trkpt><trkpt lat="44.3554515" lon="8.2769931"><ele>369.2</ele><time>2026-04-04T15:17:58.043Z</time></trkpt><trkpt lat="44.3554018" lon="8.2770934"><ele>369.0</ele><time>2026-04-04T15:17:59.043Z</time></trkpt><trkpt lat="44.3553525" lon="8.2772101"><ele>367.6</ele><time>2026-04-04T15:18:00.043Z</time></trkpt><trkpt lat="44.3553017" lon="8.2773216"><ele>366.2</ele><time>2026-04-04T15:18:01.042Z</time></trkpt><trkpt lat="44.355252" lon="8.2774345"><ele>364.8</ele><time>2026-04-04T15:18:02.043Z</time></trkpt><trkpt lat="44.3552114" lon="8.2775472"><ele>363.40000000000003</ele><time>2026-04-04T15:18:03.042Z</time></trkpt><trkpt lat="44.3551706" lon="8.2776555"><ele>362.0</ele><time>2026-04-04T15:18:04.043Z</time></trkpt><trkpt lat="44.3551214" lon="8.2777661"><ele>362.0</ele><time>2026-04-04T15:18:05.041Z</time></trkpt><trkpt lat="44.3550722" lon="8.2778774"><ele>362.0</ele><time>2026-04-04T15:18:06.044Z</time></trkpt><trkpt lat="44.355019" lon="8.2779584"><ele>362.0</ele><time>2026-04-04T15:18:07.042Z</time></trkpt><trkpt lat="44.3549794" lon="8.2780673"><ele>362.0</ele><time>2026-04-04T15:18:08.043Z</time></trkpt><trkpt lat="44.3549369" lon="8.2781684"><ele>362.0</ele><time>2026-04-04T15:18:09.044Z</time></trkpt><trkpt lat="44.3548909" lon="8.2782655"><ele>362.0</ele><time>2026-04-04T15:18:10.042Z</time></trkpt><trkpt lat="44.3548427" lon="8.278362"><ele>362.0</ele><time>2026-04-04T15:18:11.042Z</time></trkpt><trkpt lat="44.3547977" lon="8.2784459"><ele>362.0</ele><time>2026-04-04T15:18:12.043Z</time></trkpt><trkpt lat="44.3547611" lon="8.2785414"><ele>362.0</ele><time>2026-04-04T15:18:13.043Z</time></trkpt><trkpt lat="44.3547294" lon="8.2786337"><ele>362.0</ele><time>2026-04-04T15:18:14.044Z</time></trkpt><trkpt lat="44.3546939" lon="8.2787358"><ele>362.0</ele><time>2026-04-04T15:18:15.042Z</time></trkpt><trkpt lat="44.3546971" lon="8.2788655"><ele>362.0</ele><time>2026-04-04T15:18:16.042Z</time></trkpt><trkpt lat="44.3546903" lon="8.2789564"><ele>361.0</ele><time>2026-04-04T15:18:17.043Z</time></trkpt><trkpt lat="44.3546411" lon="8.279092"><ele>360.0</ele><time>2026-04-04T15:18:19.044Z</time></trkpt><trkpt lat="44.3545881" lon="8.2792133"><ele>359.0</ele><time>2026-04-04T15:18:21.043Z</time></trkpt><trkpt lat="44.3545031" lon="8.2792621"><ele>358.0</ele><time>2026-04-04T15:18:23.044Z</time></trkpt><trkpt lat="44.3544025" lon="8.2792238"><ele>357.0</ele><time>2026-04-04T15:18:25.043Z</time></trkpt><trkpt lat="44.3543492" lon="8.279166"><ele>357.0</ele><time>2026-04-04T15:18:26.042Z</time></trkpt><trkpt lat="44.3542457" lon="8.2790714"><ele>357.0</ele><time>2026-04-04T15:18:28.042Z</time></trkpt><trkpt lat="44.3541639" lon="8.2789979"><ele>357.0</ele><time>2026-04-04T15:18:30.042Z</time></trkpt><trkpt lat="44.3540801" lon="8.278881"><ele>357.0</ele><time>2026-04-04T15:18:32.042Z</time></trkpt><trkpt lat="44.3539884" lon="8.278791"><ele>357.0</ele><time>2026-04-04T15:18:34.043Z</time></trkpt><trkpt lat="44.3538978" lon="8.2786901"><ele>357.0</ele><time>2026-04-04T15:18:36.043Z</time></trkpt><trkpt lat="44.3538073" lon="8.2785792"><ele>357.0</ele><time>2026-04-04T15:18:38.043Z</time></trkpt><trkpt lat="44.3537063" lon="8.2784915"><ele>357.0</ele><time>2026-04-04T15:18:40.043Z</time></trkpt><trkpt lat="44.3536093" lon="8.2784084"><ele>357.0</ele><time>2026-04-04T15:18:42.044Z</time></trkpt><trkpt lat="44.3535512" lon="8.2783663"><ele>357.0</ele><time>2026-04-04T15:18:43.041Z</time></trkpt><trkpt lat="44.353445" lon="8.2783256"><ele>357.0</ele><time>2026-04-04T15:18:45.043Z</time></trkpt><trkpt lat="44.3533875" lon="8.2784344"><ele>357.0</ele><time>2026-04-04T15:18:47.041Z</time></trkpt><trkpt lat="44.3533903" lon="8.2785727"><ele>357.0</ele><time>2026-04-04T15:18:49.043Z</time></trkpt><trkpt lat="44.3533982" lon="8.2787198"><ele>357.0</ele><time>2026-04-04T15:18:51.042Z</time></trkpt><trkpt lat="44.3533877" lon="8.278872"><ele>357.0</ele><time>2026-04-04T15:18:53.043Z</time></trkpt><trkpt lat="44.3533739" lon="8.2790299"><ele>357.0</ele><time>2026-04-04T15:18:55.041Z</time></trkpt><trkpt lat="44.3533552" lon="8.2791872"><ele>357.0</ele><time>2026-04-04T15:18:57.043Z</time></trkpt><trkpt lat="44.3533341" lon="8.2793306"><ele>357.0</ele><time>2026-04-04T15:18:59.043Z</time></trkpt><trkpt lat="44.3533231" lon="8.2794894"><ele>356.6</ele><time>2026-04-04T15:19:01.043Z</time></trkpt><trkpt lat="44.3533144" lon="8.2796318"><ele>356.20000000000005</ele><time>2026-04-04T15:19:03.042Z</time></trkpt><trkpt lat="44.3533001" lon="8.2797595"><ele>355.8</ele><time>2026-04-04T15:19:05.042Z</time></trkpt><trkpt lat="44.3532888" lon="8.2798879"><ele>355.4</ele><time>2026-04-04T15:19:07.043Z</time></trkpt><trkpt lat="44.3532843" lon="8.2800319"><ele>355.0</ele><time>2026-04-04T15:19:09.043Z</time></trkpt><trkpt lat="44.3532753" lon="8.2801693"><ele>354.8</ele><time>2026-04-04T15:19:11.043Z</time></trkpt><trkpt lat="44.3532726" lon="8.280294"><ele>354.6</ele><time>2026-04-04T15:19:13.044Z</time></trkpt><trkpt lat="44.3532663" lon="8.280447"><ele>354.4</ele><time>2026-04-04T15:19:15.044Z</time></trkpt><trkpt lat="44.3532611" lon="8.2805832"><ele>354.2</ele><time>2026-04-04T15:19:17.044Z</time></trkpt><trkpt lat="44.3532451" lon="8.2807206"><ele>354.0</ele><time>2026-04-04T15:19:19.041Z</time></trkpt><trkpt lat="44.3532261" lon="8.2808581"><ele>353.79999999999995</ele><time>2026-04-04T15:19:21.043Z</time></trkpt><trkpt lat="44.3532116" lon="8.280993"><ele>353.59999999999997</ele><time>2026-04-04T15:19:23.042Z</time></trkpt><trkpt lat="44.3532029" lon="8.2811467"><ele>353.4</ele><time>2026-04-04T15:19:25.042Z</time></trkpt><trkpt lat="44.3531854" lon="8.281295"><ele>353.2</ele><time>2026-04-04T15:19:27.043Z</time></trkpt><trkpt lat="44.3531775" lon="8.2814565"><ele>353.0</ele><time>2026-04-04T15:19:29.043Z</time></trkpt><trkpt lat="44.3531575" lon="8.2816179"><ele>353.0</ele><time>2026-04-04T15:19:31.042Z</time></trkpt><trkpt lat="44.3531373" lon="8.2817784"><ele>353.0</ele><time>2026-04-04T15:19:33.042Z</time></trkpt><trkpt lat="44.3531163" lon="8.2819292"><ele>353.0</ele><time>2026-04-04T15:19:35.043Z</time></trkpt><trkpt lat="44.3530967" lon="8.2820765"><ele>353.0</ele><time>2026-04-04T15:19:37.044Z</time></trkpt><trkpt lat="44.353086" lon="8.2822277"><ele>353.0</ele><time>2026-04-04T15:19:39.042Z</time></trkpt><trkpt lat="44.3530784" lon="8.2823681"><ele>353.0</ele><time>2026-04-04T15:19:41.043Z</time></trkpt><trkpt lat="44.3530599" lon="8.2825021"><ele>353.0</ele><time>2026-04-04T15:19:43.043Z</time></trkpt><trkpt lat="44.3530491" lon="8.2826482"><ele>353.0</ele><time>2026-04-04T15:19:45.043Z</time></trkpt><trkpt lat="44.3530374" lon="8.2828051"><ele>353.0</ele><time>2026-04-04T15:19:47.044Z</time></trkpt><trkpt lat="44.3530264" lon="8.2829632"><ele>353.0</ele><time>2026-04-04T15:19:49.043Z</time></trkpt><trkpt lat="44.3530244" lon="8.2831125"><ele>353.59999999999997</ele><time>2026-04-04T15:19:51.042Z</time></trkpt><trkpt lat="44.3530158" lon="8.2832701"><ele>354.2</ele><time>2026-04-04T15:19:53.042Z</time></trkpt><trkpt lat="44.3530228" lon="8.2834257"><ele>354.8</ele><time>2026-04-04T15:19:55.043Z</time></trkpt><trkpt lat="44.3530187" lon="8.2835798"><ele>355.4</ele><time>2026-04-04T15:19:57.042Z</time></trkpt><trkpt lat="44.3530304" lon="8.2837157"><ele>356.0</ele><time>2026-04-04T15:19:59.041Z</time></trkpt><trkpt lat="44.3530357" lon="8.2838609"><ele>355.6</ele><time>2026-04-04T15:20:01.043Z</time></trkpt><trkpt lat="44.3530463" lon="8.2839954"><ele>355.20000000000005</ele><time>2026-04-04T15:20:03.043Z</time></trkpt><trkpt lat="44.3530559" lon="8.284146"><ele>354.79999999999995</ele><time>2026-04-04T15:20:05.043Z</time></trkpt><trkpt lat="44.3530636" lon="8.2842904"><ele>354.4</ele><time>2026-04-04T15:20:07.043Z</time></trkpt><trkpt lat="44.3530707" lon="8.2844298"><ele>354.0</ele><time>2026-04-04T15:20:09.042Z</time></trkpt><trkpt lat="44.3530843" lon="8.2845772"><ele>354.0</ele><time>2026-04-04T15:20:11.042Z</time></trkpt><trkpt lat="44.3530952" lon="8.284723"><ele>354.0</ele><time>2026-04-04T15:20:13.043Z</time></trkpt><trkpt lat="44.3531081" lon="8.2848731"><ele>354.0</ele><time>2026-04-04T15:20:15.044Z</time></trkpt><trkpt lat="44.3531197" lon="8.2850113"><ele>354.0</ele><time>2026-04-04T15:20:17.043Z</time></trkpt><trkpt lat="44.3531415" lon="8.2851484"><ele>354.0</ele><time>2026-04-04T15:20:19.042Z</time></trkpt><trkpt lat="44.3531615" lon="8.2853042"><ele>354.0</ele><time>2026-04-04T15:20:21.044Z</time></trkpt><trkpt lat="44.3531929" lon="8.2854305"><ele>354.0</ele><time>2026-04-04T15:20:23.042Z</time></trkpt><trkpt lat="44.3532691" lon="8.2855051"><ele>354.0</ele><time>2026-04-04T15:20:25.041Z</time></trkpt><trkpt lat="44.3533372" lon="8.2855006"><ele>354.0</ele><time>2026-04-04T15:20:27.042Z</time></trkpt><trkpt lat="44.3534331" lon="8.2855013"><ele>354.0</ele><time>2026-04-04T15:20:29.043Z</time></trkpt><trkpt lat="44.3535377" lon="8.285481"><ele>354.0</ele><time>2026-04-04T15:20:31.043Z</time></trkpt><trkpt lat="44.3536377" lon="8.2854818"><ele>354.0</ele><time>2026-04-04T15:20:33.043Z</time></trkpt><trkpt lat="44.3537441" lon="8.2854994"><ele>354.0</ele><time>2026-04-04T15:20:35.043Z</time></trkpt><trkpt lat="44.3538527" lon="8.2855296"><ele>354.0</ele><time>2026-04-04T15:20:37.043Z</time></trkpt><trkpt lat="44.3539597" lon="8.2855499"><ele>354.0</ele><time>2026-04-04T15:20:39.042Z</time></trkpt><trkpt lat="44.354068" lon="8.2855746"><ele>353.2</ele><time>2026-04-04T15:20:41.043Z</time></trkpt><trkpt lat="44.3541684" lon="8.285606"><ele>352.4</ele><time>2026-04-04T15:20:43.044Z</time></trkpt><trkpt lat="44.3542701" lon="8.2856403"><ele>351.6</ele><time>2026-04-04T15:20:45.041Z</time></trkpt><trkpt lat="44.3543713" lon="8.2856659"><ele>350.8</ele><time>2026-04-04T15:20:47.044Z</time></trkpt><trkpt lat="44.3544633" lon="8.2856963"><ele>350.0</ele><time>2026-04-04T15:20:49.042Z</time></trkpt><trkpt lat="44.3545485" lon="8.2857631"><ele>350.0</ele><time>2026-04-04T15:20:51.043Z</time></trkpt><trkpt lat="44.354636" lon="8.2858481"><ele>350.0</ele><time>2026-04-04T15:20:53.041Z</time></trkpt><trkpt lat="44.3547199" lon="8.2859436"><ele>350.0</ele><time>2026-04-04T15:20:55.043Z</time></trkpt><trkpt lat="44.3548073" lon="8.2860245"><ele>350.0</ele><time>2026-04-04T15:20:57.043Z</time></trkpt><trkpt lat="44.3548918" lon="8.2861153"><ele>350.0</ele><time>2026-04-04T15:20:59.042Z</time></trkpt><trkpt lat="44.3549788" lon="8.2861892"><ele>350.4</ele><time>2026-04-04T15:21:01.042Z</time></trkpt><trkpt lat="44.3550525" lon="8.2862741"><ele>350.8</ele><time>2026-04-04T15:21:03.042Z</time></trkpt><trkpt lat="44.3551251" lon="8.2863537"><ele>351.20000000000005</ele><time>2026-04-04T15:21:05.043Z</time></trkpt><trkpt lat="44.3551882" lon="8.2864537"><ele>351.6</ele><time>2026-04-04T15:21:07.042Z</time></trkpt><trkpt lat="44.3552336" lon="8.2865625"><ele>352.0</ele><time>2026-04-04T15:21:09.042Z</time></trkpt><trkpt lat="44.3552636" lon="8.2866818"><ele>352.0</ele><time>2026-04-04T15:21:11.043Z</time></trkpt><trkpt lat="44.3552856" lon="8.2868078"><ele>352.0</ele><time>2026-04-04T15:21:13.043Z</time></trkpt><trkpt lat="44.3552992" lon="8.2869391"><ele>352.0</ele><time>2026-04-04T15:21:15.043Z</time></trkpt><trkpt lat="44.355314" lon="8.2870715"><ele>352.0</ele><time>2026-04-04T15:21:17.044Z</time></trkpt><trkpt lat="44.3553383" lon="8.2872062"><ele>352.0</ele><time>2026-04-04T15:21:19.043Z</time></trkpt><trkpt lat="44.3553637" lon="8.2873526"><ele>352.20000000000005</ele><time>2026-04-04T15:21:21.043Z</time></trkpt><trkpt lat="44.355381" lon="8.2874881"><ele>352.4</ele><time>2026-04-04T15:21:23.043Z</time></trkpt><trkpt lat="44.3554207" lon="8.2876214"><ele>352.6</ele><time>2026-04-04T15:21:25.044Z</time></trkpt><trkpt lat="44.3554432" lon="8.2877703"><ele>352.79999999999995</ele><time>2026-04-04T15:21:27.042Z</time></trkpt><trkpt lat="44.3554652" lon="8.2879104"><ele>353.0</ele><time>2026-04-04T15:21:29.042Z</time></trkpt><trkpt lat="44.3554689" lon="8.2880344"><ele>353.2</ele><time>2026-04-04T15:21:31.043Z</time></trkpt><trkpt lat="44.3554855" lon="8.2881817"><ele>353.4</ele><time>2026-04-04T15:21:33.041Z</time></trkpt><trkpt lat="44.3554928" lon="8.28832"><ele>353.59999999999997</ele><time>2026-04-04T15:21:35.043Z</time></trkpt><trkpt lat="44.3555055" lon="8.288458"><ele>353.79999999999995</ele><time>2026-04-04T15:21:37.043Z</time></trkpt><trkpt lat="44.3555159" lon="8.2886024"><ele>354.0</ele><time>2026-04-04T15:21:39.043Z</time></trkpt><trkpt lat="44.3555297" lon="8.2887504"><ele>353.4</ele><time>2026-04-04T15:21:41.042Z</time></trkpt><trkpt lat="44.3555398" lon="8.2888931"><ele>352.79999999999995</ele><time>2026-04-04T15:21:43.044Z</time></trkpt><trkpt lat="44.3555505" lon="8.2890338"><ele>352.20000000000005</ele><time>2026-04-04T15:21:45.043Z</time></trkpt><trkpt lat="44.3555687" lon="8.2891486"><ele>351.6</ele><time>2026-04-04T15:21:47.042Z</time></trkpt><trkpt lat="44.3555748" lon="8.2892635"><ele>351.0</ele><time>2026-04-04T15:21:49.043Z</time></trkpt><trkpt lat="44.355572" lon="8.28938"><ele>351.0</ele><time>2026-04-04T15:21:51.043Z</time></trkpt><trkpt lat="44.3555847" lon="8.2895075"><ele>351.0</ele><time>2026-04-04T15:21:53.042Z</time></trkpt><trkpt lat="44.3556071" lon="8.2896337"><ele>351.0</ele><time>2026-04-04T15:21:55.043Z</time></trkpt><trkpt lat="44.355619" lon="8.2897595"><ele>351.0</ele><time>2026-04-04T15:21:57.044Z</time></trkpt><trkpt lat="44.3556297" lon="8.2898723"><ele>351.0</ele><time>2026-04-04T15:21:59.043Z</time></trkpt><trkpt lat="44.35564" lon="8.2899843"><ele>351.0</ele><time>2026-04-04T15:22:01.042Z</time></trkpt><trkpt lat="44.3556546" lon="8.2900977"><ele>351.6666666666667</ele><time>2026-04-04T15:22:03.044Z</time></trkpt><trkpt lat="44.3556659" lon="8.2902059"><ele>352.3333333333333</ele><time>2026-04-04T15:22:05.041Z</time></trkpt><trkpt lat="44.355679" lon="8.2902934"><ele>353.0</ele><time>2026-04-04T15:22:07.043Z</time></trkpt><trkpt lat="44.3556943" lon="8.2904063"><ele>353.66666666666663</ele><time>2026-04-04T15:22:10.044Z</time></trkpt><trkpt lat="44.3557565" lon="8.2904387"><ele>354.3333333333333</ele><time>2026-04-04T15:22:16.042Z</time></trkpt><trkpt lat="44.3556999" lon="8.290533"><ele>355.0</ele><time>2026-04-04T15:22:23.042Z</time></trkpt><trkpt lat="44.3556024" lon="8.2905405"><ele>355.3333333333333</ele><time>2026-04-04T15:22:25.043Z</time></trkpt><trkpt lat="44.3555294" lon="8.2905673"><ele>355.66666666666663</ele><time>2026-04-04T15:22:27.042Z</time></trkpt><trkpt lat="44.3554583" lon="8.290606"><ele>356.0</ele><time>2026-04-04T15:22:29.041Z</time></trkpt><trkpt lat="44.3553865" lon="8.2906474"><ele>356.3333333333333</ele><time>2026-04-04T15:22:31.042Z</time></trkpt><trkpt lat="44.3553156" lon="8.2906917"><ele>356.6666666666667</ele><time>2026-04-04T15:22:33.043Z</time></trkpt><trkpt lat="44.3552444" lon="8.2907312"><ele>357.0</ele><time>2026-04-04T15:22:35.042Z</time></trkpt><trkpt lat="44.3551762" lon="8.2907758"><ele>357.14285714285717</ele><time>2026-04-04T15:22:37.043Z</time></trkpt><trkpt lat="44.3551132" lon="8.290824"><ele>357.2857142857143</ele><time>2026-04-04T15:22:39.041Z</time></trkpt><trkpt lat="44.3550496" lon="8.2908635"><ele>357.42857142857144</ele><time>2026-04-04T15:22:41.042Z</time></trkpt><trkpt lat="44.3549865" lon="8.2909089"><ele>357.57142857142856</ele><time>2026-04-04T15:22:43.043Z</time></trkpt><trkpt lat="44.3548983" lon="8.2909561"><ele>357.7142857142857</ele><time>2026-04-04T15:22:46.042Z</time></trkpt><trkpt lat="44.3548389" lon="8.2910055"><ele>357.8571428571429</ele><time>2026-04-04T15:22:48.044Z</time></trkpt><trkpt lat="44.3547828" lon="8.2910534"><ele>358.0</ele><time>2026-04-04T15:22:50.042Z</time></trkpt><trkpt lat="44.3547283" lon="8.2911019"><ele>357.7142857142857</ele><time>2026-04-04T15:22:52.043Z</time></trkpt><trkpt lat="44.3546693" lon="8.2911413"><ele>357.42857142857144</ele><time>2026-04-04T15:22:54.041Z</time></trkpt><trkpt lat="44.3546108" lon="8.2911959"><ele>357.1428571428571</ele><time>2026-04-04T15:22:56.042Z</time></trkpt><trkpt lat="44.3545498" lon="8.2912562"><ele>356.8571428571429</ele><time>2026-04-04T15:22:58.042Z</time></trkpt><trkpt lat="44.3544868" lon="8.291318"><ele>356.57142857142856</ele><time>2026-04-04T15:23:00.043Z</time></trkpt><trkpt lat="44.3544269" lon="8.2913822"><ele>356.2857142857143</ele><time>2026-04-04T15:23:02.042Z</time></trkpt><trkpt lat="44.3543681" lon="8.2914509"><ele>356.0</ele><time>2026-04-04T15:23:04.042Z</time></trkpt><trkpt lat="44.3543165" lon="8.2915209"><ele>356.57142857142856</ele><time>2026-04-04T15:23:06.043Z</time></trkpt><trkpt lat="44.3542655" lon="8.2915793"><ele>357.1428571428571</ele><time>2026-04-04T15:23:08.041Z</time></trkpt><trkpt lat="44.3541976" lon="8.2916597"><ele>357.71428571428567</ele><time>2026-04-04T15:23:11.041Z</time></trkpt><trkpt lat="44.3541448" lon="8.2917153"><ele>358.2857142857143</ele><time>2026-04-04T15:23:13.042Z</time></trkpt><trkpt lat="44.3540947" lon="8.2917899"><ele>358.8571428571429</ele><time>2026-04-04T15:23:15.042Z</time></trkpt><trkpt lat="44.3540393" lon="8.2918621"><ele>359.4285714285714</ele><time>2026-04-04T15:23:17.043Z</time></trkpt><trkpt lat="44.3539869" lon="8.2919391"><ele>360.0</ele><time>2026-04-04T15:23:19.043Z</time></trkpt><trkpt lat="44.3539264" lon="8.2920137"><ele>360.0</ele><time>2026-04-04T15:23:21.042Z</time></trkpt><trkpt lat="44.3538687" lon="8.2920893"><ele>360.0</ele><time>2026-04-04T15:23:23.042Z</time></trkpt><trkpt lat="44.3538171" lon="8.2921675"><ele>360.0</ele><time>2026-04-04T15:23:25.042Z</time></trkpt><trkpt lat="44.3537675" lon="8.2922346"><ele>360.0</ele><time>2026-04-04T15:23:27.041Z</time></trkpt><trkpt lat="44.3537151" lon="8.2923049"><ele>360.0</ele><time>2026-04-04T15:23:29.043Z</time></trkpt><trkpt lat="44.3536492" lon="8.2923433"><ele>360.0</ele><time>2026-04-04T15:23:31.043Z</time></trkpt><trkpt lat="44.3535761" lon="8.292365"><ele>360.0</ele><time>2026-04-04T15:23:33.043Z</time></trkpt><trkpt lat="44.353504" lon="8.2923618"><ele>360.0</ele><time>2026-04-04T15:23:35.043Z</time></trkpt><trkpt lat="44.353442" lon="8.2923103"><ele>360.0</ele><time>2026-04-04T15:23:37.042Z</time></trkpt><trkpt lat="44.3533953" lon="8.2922261"><ele>360.0</ele><time>2026-04-04T15:23:39.042Z</time></trkpt><trkpt lat="44.3533461" lon="8.2921305"><ele>360.0</ele><time>2026-04-04T15:23:41.043Z</time></trkpt><trkpt lat="44.3532602" lon="8.2920955"><ele>360.0</ele><time>2026-04-04T15:23:43.042Z</time></trkpt><trkpt lat="44.3531831" lon="8.2921529"><ele>360.0</ele><time>2026-04-04T15:23:45.042Z</time></trkpt><trkpt lat="44.3531083" lon="8.2921578"><ele>361.1666666666667</ele><time>2026-04-04T15:23:47.043Z</time></trkpt><trkpt lat="44.3530376" lon="8.2921147"><ele>362.3333333333333</ele><time>2026-04-04T15:23:49.043Z</time></trkpt><trkpt lat="44.3529532" lon="8.2921002"><ele>363.5</ele><time>2026-04-04T15:23:51.043Z</time></trkpt><trkpt lat="44.3528748" lon="8.2921128"><ele>364.66666666666663</ele><time>2026-04-04T15:23:53.042Z</time></trkpt><trkpt lat="44.3528109" lon="8.2921657"><ele>365.8333333333333</ele><time>2026-04-04T15:23:55.042Z</time></trkpt><trkpt lat="44.3527572" lon="8.2922266"><ele>367.0</ele><time>2026-04-04T15:23:57.043Z</time></trkpt><trkpt lat="44.352706" lon="8.292294"><ele>367.0</ele><time>2026-04-04T15:23:59.042Z</time></trkpt><trkpt lat="44.3526582" lon="8.2923628"><ele>367.0</ele><time>2026-04-04T15:24:01.044Z</time></trkpt><trkpt lat="44.3526122" lon="8.2924271"><ele>367.0</ele><time>2026-04-04T15:24:03.041Z</time></trkpt><trkpt lat="44.352571" lon="8.2924983"><ele>367.0</ele><time>2026-04-04T15:24:05.041Z</time></trkpt><trkpt lat="44.3525201" lon="8.2925674"><ele>367.0</ele><time>2026-04-04T15:24:07.044Z</time></trkpt><trkpt lat="44.3524766" lon="8.2926354"><ele>367.0</ele><time>2026-04-04T15:24:09.043Z</time></trkpt><trkpt lat="44.3524197" lon="8.2927294"><ele>367.0</ele><time>2026-04-04T15:24:12.042Z</time></trkpt><trkpt lat="44.3523761" lon="8.2928"><ele>367.0</ele><time>2026-04-04T15:24:14.041Z</time></trkpt><trkpt lat="44.3523273" lon="8.2928665"><ele>367.0</ele><time>2026-04-04T15:24:16.042Z</time></trkpt><trkpt lat="44.3522778" lon="8.2929329"><ele>367.0</ele><time>2026-04-04T15:24:18.041Z</time></trkpt><trkpt lat="44.3522298" lon="8.2930056"><ele>367.0</ele><time>2026-04-04T15:24:20.043Z</time></trkpt><trkpt lat="44.3521837" lon="8.2930709"><ele>367.0</ele><time>2026-04-04T15:24:22.043Z</time></trkpt><trkpt lat="44.3521365" lon="8.2931366"><ele>367.0</ele><time>2026-04-04T15:24:24.042Z</time></trkpt><trkpt lat="44.3520895" lon="8.2932074"><ele>367.0</ele><time>2026-04-04T15:24:26.043Z</time></trkpt><trkpt lat="44.3520397" lon="8.2932809"><ele>367.4285714285714</ele><time>2026-04-04T15:24:28.041Z</time></trkpt><trkpt lat="44.3519882" lon="8.2933387"><ele>367.8571428571429</ele><time>2026-04-04T15:24:30.043Z</time></trkpt><trkpt lat="44.3519344" lon="8.2933948"><ele>368.2857142857143</ele><time>2026-04-04T15:24:32.043Z</time></trkpt><trkpt lat="44.3518781" lon="8.2934525"><ele>368.71428571428567</ele><time>2026-04-04T15:24:34.042Z</time></trkpt><trkpt lat="44.3518256" lon="8.2935175"><ele>369.1428571428571</ele><time>2026-04-04T15:24:36.043Z</time></trkpt><trkpt lat="44.3517747" lon="8.2935861"><ele>369.57142857142856</ele><time>2026-04-04T15:24:38.043Z</time></trkpt><trkpt lat="44.3517227" lon="8.2936535"><ele>370.0</ele><time>2026-04-04T15:24:40.042Z</time></trkpt><trkpt lat="44.3516665" lon="8.2937218"><ele>370.0</ele><time>2026-04-04T15:24:42.043Z</time></trkpt><trkpt lat="44.3516108" lon="8.2938029"><ele>370.0</ele><time>2026-04-04T15:24:44.041Z</time></trkpt><trkpt lat="44.3515479" lon="8.2938773"><ele>370.0</ele><time>2026-04-04T15:24:46.041Z</time></trkpt><trkpt lat="44.3514866" lon="8.2939506"><ele>370.0</ele><time>2026-04-04T15:24:48.043Z</time></trkpt><trkpt lat="44.3514371" lon="8.2940131"><ele>370.0</ele><time>2026-04-04T15:24:50.041Z</time></trkpt><trkpt lat="44.3513929" lon="8.2940837"><ele>370.0</ele><time>2026-04-04T15:24:52.043Z</time></trkpt><trkpt lat="44.3513345" lon="8.294145"><ele>370.16666666666663</ele><time>2026-04-04T15:24:54.044Z</time></trkpt><trkpt lat="44.3512665" lon="8.2942058"><ele>370.3333333333333</ele><time>2026-04-04T15:24:56.042Z</time></trkpt><trkpt lat="44.3511975" lon="8.2942754"><ele>370.5</ele><time>2026-04-04T15:24:58.042Z</time></trkpt><trkpt lat="44.3511318" lon="8.2943466"><ele>370.6666666666667</ele><time>2026-04-04T15:25:00.043Z</time></trkpt><trkpt lat="44.3510621" lon="8.2944104"><ele>370.83333333333337</ele><time>2026-04-04T15:25:02.044Z</time></trkpt><trkpt lat="44.3509948" lon="8.2944739"><ele>371.0</ele><time>2026-04-04T15:25:04.041Z</time></trkpt><trkpt lat="44.3509243" lon="8.294535"><ele>371.0</ele><time>2026-04-04T15:25:06.043Z</time></trkpt><trkpt lat="44.3508565" lon="8.2945979"><ele>371.0</ele><time>2026-04-04T15:25:08.042Z</time></trkpt><trkpt lat="44.3507935" lon="8.29465"><ele>371.0</ele><time>2026-04-04T15:25:10.043Z</time></trkpt><trkpt lat="44.3507317" lon="8.2947021"><ele>371.0</ele><time>2026-04-04T15:25:12.041Z</time></trkpt><trkpt lat="44.35067" lon="8.2947567"><ele>371.0</ele><time>2026-04-04T15:25:14.043Z</time></trkpt><trkpt lat="44.3506126" lon="8.2948133"><ele>371.0</ele><time>2026-04-04T15:25:16.043Z</time></trkpt><trkpt lat="44.3505534" lon="8.2948698"><ele>371.0</ele><time>2026-04-04T15:25:18.042Z</time></trkpt><trkpt lat="44.3504952" lon="8.2949231"><ele>370.7142857142857</ele><time>2026-04-04T15:25:20.042Z</time></trkpt><trkpt lat="44.3504415" lon="8.2949727"><ele>370.42857142857144</ele><time>2026-04-04T15:25:22.043Z</time></trkpt><trkpt lat="44.3503666" lon="8.2950466"><ele>370.1428571428571</ele><time>2026-04-04T15:25:25.043Z</time></trkpt><trkpt lat="44.3503075" lon="8.295112"><ele>369.8571428571429</ele><time>2026-04-04T15:25:27.041Z</time></trkpt><trkpt lat="44.350247" lon="8.2951724"><ele>369.57142857142856</ele><time>2026-04-04T15:25:29.043Z</time></trkpt><trkpt lat="44.3501875" lon="8.2952323"><ele>369.2857142857143</ele><time>2026-04-04T15:25:31.042Z</time></trkpt><trkpt lat="44.3501373" lon="8.2952894"><ele>369.0</ele><time>2026-04-04T15:25:33.044Z</time></trkpt><trkpt lat="44.3500547" lon="8.295319"><ele>369.0</ele><time>2026-04-04T15:25:36.042Z</time></trkpt><trkpt lat="44.349985" lon="8.2953377"><ele>369.0</ele><time>2026-04-04T15:25:38.042Z</time></trkpt><trkpt lat="44.3499111" lon="8.2953896"><ele>369.0</ele><time>2026-04-04T15:25:40.042Z</time></trkpt><trkpt lat="44.3498461" lon="8.2954517"><ele>369.0</ele><time>2026-04-04T15:25:42.042Z</time></trkpt><trkpt lat="44.3497856" lon="8.2955081"><ele>369.0</ele><time>2026-04-04T15:25:44.041Z</time></trkpt><trkpt lat="44.3497209" lon="8.2955597"><ele>369.0</ele><time>2026-04-04T15:25:46.043Z</time></trkpt><trkpt lat="44.3496538" lon="8.2956041"><ele>370.1428571428571</ele><time>2026-04-04T15:25:48.042Z</time></trkpt><trkpt lat="44.3495876" lon="8.2956565"><ele>371.2857142857143</ele><time>2026-04-04T15:25:50.041Z</time></trkpt><trkpt lat="44.3495259" lon="8.2957121"><ele>372.42857142857144</ele><time>2026-04-04T15:25:52.042Z</time></trkpt><trkpt lat="44.349467" lon="8.2957751"><ele>373.57142857142856</ele><time>2026-04-04T15:25:54.042Z</time></trkpt><trkpt lat="44.3494096" lon="8.2958424"><ele>374.7142857142857</ele><time>2026-04-04T15:25:56.042Z</time></trkpt><trkpt lat="44.3493532" lon="8.2959094"><ele>375.85714285714283</ele><time>2026-04-04T15:25:58.043Z</time></trkpt><trkpt lat="44.3492976" lon="8.2959724"><ele>377.0</ele><time>2026-04-04T15:26:00.042Z</time></trkpt><trkpt lat="44.3492398" lon="8.2960276"><ele>376.99999999999994</ele><time>2026-04-04T15:26:02.042Z</time></trkpt><trkpt lat="44.3491789" lon="8.2960779"><ele>377.0</ele><time>2026-04-04T15:26:04.043Z</time></trkpt><trkpt lat="44.3491186" lon="8.2961272"><ele>377.0</ele><time>2026-04-04T15:26:06.041Z</time></trkpt><trkpt lat="44.3490592" lon="8.2961788"><ele>377.0</ele><time>2026-04-04T15:26:08.044Z</time></trkpt><trkpt lat="44.3489998" lon="8.2962269"><ele>377.0</ele><time>2026-04-04T15:26:10.042Z</time></trkpt><trkpt lat="44.348942" lon="8.2962781"><ele>376.99999999999994</ele><time>2026-04-04T15:26:12.041Z</time></trkpt><trkpt lat="44.348877" lon="8.2963274"><ele>377.0</ele><time>2026-04-04T15:26:14.043Z</time></trkpt><trkpt lat="44.3488113" lon="8.2963686"><ele>376.57142857142856</ele><time>2026-04-04T15:26:16.042Z</time></trkpt><trkpt lat="44.3487458" lon="8.296406"><ele>376.1428571428571</ele><time>2026-04-04T15:26:18.042Z</time></trkpt><trkpt lat="44.3486794" lon="8.2964459"><ele>375.71428571428567</ele><time>2026-04-04T15:26:20.042Z</time></trkpt><trkpt lat="44.3486151" lon="8.2964888"><ele>375.2857142857143</ele><time>2026-04-04T15:26:22.041Z</time></trkpt><trkpt lat="44.3485511" lon="8.2965239"><ele>374.8571428571429</ele><time>2026-04-04T15:26:24.041Z</time></trkpt><trkpt lat="44.3484895" lon="8.2965487"><ele>374.4285714285714</ele><time>2026-04-04T15:26:26.042Z</time></trkpt><trkpt lat="44.3484269" lon="8.2965769"><ele>374.0</ele><time>2026-04-04T15:26:28.041Z</time></trkpt><trkpt lat="44.3483599" lon="8.296596"><ele>374.0</ele><time>2026-04-04T15:26:30.044Z</time></trkpt><trkpt lat="44.3482934" lon="8.296614"><ele>374.0</ele><time>2026-04-04T15:26:32.041Z</time></trkpt><trkpt lat="44.3482263" lon="8.296632"><ele>374.0</ele><time>2026-04-04T15:26:34.043Z</time></trkpt><trkpt lat="44.3481545" lon="8.2966567"><ele>374.0</ele><time>2026-04-04T15:26:36.041Z</time></trkpt><trkpt lat="44.3480836" lon="8.2966715"><ele>374.0</ele><time>2026-04-04T15:26:38.042Z</time></trkpt><trkpt lat="44.3480107" lon="8.2966868"><ele>374.0</ele><time>2026-04-04T15:26:40.043Z</time></trkpt><trkpt lat="44.3479366" lon="8.2967048"><ele>374.0</ele><time>2026-04-04T15:26:42.042Z</time></trkpt><trkpt lat="44.3478605" lon="8.2967195"><ele>374.85714285714283</ele><time>2026-04-04T15:26:44.043Z</time></trkpt><trkpt lat="44.3477856" lon="8.2967307"><ele>375.7142857142857</ele><time>2026-04-04T15:26:46.043Z</time></trkpt><trkpt lat="44.3477125" lon="8.2967423"><ele>376.57142857142856</ele><time>2026-04-04T15:26:48.042Z</time></trkpt><trkpt lat="44.3476395" lon="8.2967544"><ele>377.42857142857144</ele><time>2026-04-04T15:26:50.042Z</time></trkpt><trkpt lat="44.3475693" lon="8.2967613"><ele>378.28571428571433</ele><time>2026-04-04T15:26:52.043Z</time></trkpt><trkpt lat="44.3474965" lon="8.2967696"><ele>379.14285714285717</ele><time>2026-04-04T15:26:54.042Z</time></trkpt><trkpt lat="44.3474218" lon="8.2967801"><ele>380.0</ele><time>2026-04-04T15:26:56.042Z</time></trkpt><trkpt lat="44.347346" lon="8.2967928"><ele>380.0</ele><time>2026-04-04T15:26:58.041Z</time></trkpt><trkpt lat="44.3472733" lon="8.2968051"><ele>380.0</ele><time>2026-04-04T15:27:00.042Z</time></trkpt><trkpt lat="44.3472057" lon="8.2968161"><ele>380.0</ele><time>2026-04-04T15:27:02.042Z</time></trkpt><trkpt lat="44.3471367" lon="8.2968311"><ele>380.0</ele><time>2026-04-04T15:27:04.042Z</time></trkpt><trkpt lat="44.3470707" lon="8.2968421"><ele>380.0</ele><time>2026-04-04T15:27:06.041Z</time></trkpt><trkpt lat="44.3470048" lon="8.29685"><ele>380.0</ele><time>2026-04-04T15:27:08.042Z</time></trkpt><trkpt lat="44.3469389" lon="8.2968571"><ele>380.0</ele><time>2026-04-04T15:27:10.042Z</time></trkpt><trkpt lat="44.3468737" lon="8.2968632"><ele>380.42857142857144</ele><time>2026-04-04T15:27:12.044Z</time></trkpt><trkpt lat="44.3468037" lon="8.2968689"><ele>380.8571428571429</ele><time>2026-04-04T15:27:14.041Z</time></trkpt><trkpt lat="44.3467322" lon="8.2968735"><ele>381.2857142857143</ele><time>2026-04-04T15:27:16.042Z</time></trkpt><trkpt lat="44.3466652" lon="8.2968741"><ele>381.7142857142857</ele><time>2026-04-04T15:27:18.043Z</time></trkpt><trkpt lat="44.3466003" lon="8.29688"><ele>382.1428571428571</ele><time>2026-04-04T15:27:20.041Z</time></trkpt><trkpt lat="44.3465348" lon="8.2968815"><ele>382.57142857142856</ele><time>2026-04-04T15:27:22.043Z</time></trkpt><trkpt lat="44.3464683" lon="8.2968709"><ele>383.0</ele><time>2026-04-04T15:27:24.041Z</time></trkpt><trkpt lat="44.3463987" lon="8.2968838"><ele>383.57142857142856</ele><time>2026-04-04T15:27:26.042Z</time></trkpt><trkpt lat="44.3463288" lon="8.296906"><ele>384.1428571428571</ele><time>2026-04-04T15:27:28.042Z</time></trkpt><trkpt lat="44.3462651" lon="8.2969286"><ele>384.7142857142857</ele><time>2026-04-04T15:27:30.043Z</time></trkpt><trkpt lat="44.3462013" lon="8.2969566"><ele>385.2857142857143</ele><time>2026-04-04T15:27:32.042Z</time></trkpt><trkpt lat="44.3461367" lon="8.2969855"><ele>385.8571428571429</ele><time>2026-04-04T15:27:34.042Z</time></trkpt><trkpt lat="44.3460733" lon="8.2970231"><ele>386.42857142857144</ele><time>2026-04-04T15:27:36.042Z</time></trkpt><trkpt lat="44.3460134" lon="8.2970683"><ele>387.0</ele><time>2026-04-04T15:27:38.042Z</time></trkpt><trkpt lat="44.3459542" lon="8.2971168"><ele>387.0</ele><time>2026-04-04T15:27:40.042Z</time></trkpt><trkpt lat="44.3458965" lon="8.2971756"><ele>387.0</ele><time>2026-04-04T15:27:42.043Z</time></trkpt><trkpt lat="44.3458391" lon="8.2972335"><ele>387.0</ele><time>2026-04-04T15:27:44.041Z</time></trkpt><trkpt lat="44.345786" lon="8.2973"><ele>387.0</ele><time>2026-04-04T15:27:46.042Z</time></trkpt><trkpt lat="44.3457353" lon="8.2973556"><ele>387.0</ele><time>2026-04-04T15:27:48.043Z</time></trkpt><trkpt lat="44.3456636" lon="8.2974401"><ele>387.0</ele><time>2026-04-04T15:27:51.042Z</time></trkpt><trkpt lat="44.3456159" lon="8.297501"><ele>387.0</ele><time>2026-04-04T15:27:53.042Z</time></trkpt><trkpt lat="44.345567" lon="8.297562"><ele>387.8571428571429</ele><time>2026-04-04T15:27:55.042Z</time></trkpt><trkpt lat="44.345519" lon="8.2976309"><ele>388.7142857142857</ele><time>2026-04-04T15:27:57.041Z</time></trkpt><trkpt lat="44.3454692" lon="8.2977013"><ele>389.57142857142856</ele><time>2026-04-04T15:27:59.042Z</time></trkpt><trkpt lat="44.3454139" lon="8.2977706"><ele>390.42857142857144</ele><time>2026-04-04T15:28:01.042Z</time></trkpt><trkpt lat="44.345362" lon="8.2978354"><ele>391.2857142857143</ele><time>2026-04-04T15:28:03.042Z</time></trkpt><trkpt lat="44.3453106" lon="8.2979054"><ele>392.14285714285717</ele><time>2026-04-04T15:28:05.042Z</time></trkpt><trkpt lat="44.3452682" lon="8.297989"><ele>393.0</ele><time>2026-04-04T15:28:07.041Z</time></trkpt><trkpt lat="44.3452345" lon="8.298072"><ele>392.6666666666667</ele><time>2026-04-04T15:28:09.042Z</time></trkpt><trkpt lat="44.3452124" lon="8.2981642"><ele>392.33333333333337</ele><time>2026-04-04T15:28:11.043Z</time></trkpt><trkpt lat="44.3451972" lon="8.2982531"><ele>392.0</ele><time>2026-04-04T15:28:13.041Z</time></trkpt><trkpt lat="44.3451775" lon="8.2983417"><ele>391.6666666666667</ele><time>2026-04-04T15:28:15.042Z</time></trkpt><trkpt lat="44.3451691" lon="8.2984615"><ele>391.33333333333337</ele><time>2026-04-04T15:28:18.043Z</time></trkpt><trkpt lat="44.3451842" lon="8.2985908"><ele>391.0</ele><time>2026-04-04T15:28:21.042Z</time></trkpt><trkpt lat="44.3452117" lon="8.2987123"><ele>391.00000000000006</ele><time>2026-04-04T15:28:24.042Z</time></trkpt><trkpt lat="44.3452448" lon="8.2988326"><ele>391.0</ele><time>2026-04-04T15:28:27.041Z</time></trkpt><trkpt lat="44.3452766" lon="8.2989473"><ele>391.0</ele><time>2026-04-04T15:28:30.042Z</time></trkpt><trkpt lat="44.34531" lon="8.2990592"><ele>391.0</ele><time>2026-04-04T15:28:33.042Z</time></trkpt><trkpt lat="44.3453448" lon="8.2991701"><ele>391.00000000000006</ele><time>2026-04-04T15:28:36.042Z</time></trkpt><trkpt lat="44.3453855" lon="8.2992895"><ele>391.0</ele><time>2026-04-04T15:28:39.041Z</time></trkpt><trkpt lat="44.3454167" lon="8.2993764"><ele>391.57142857142856</ele><time>2026-04-04T15:28:41.042Z</time></trkpt><trkpt lat="44.3454492" lon="8.2994579"><ele>392.1428571428571</ele><time>2026-04-04T15:28:43.042Z</time></trkpt><trkpt lat="44.3454893" lon="8.2995335"><ele>392.71428571428567</ele><time>2026-04-04T15:28:45.041Z</time></trkpt><trkpt lat="44.3455367" lon="8.299605"><ele>393.2857142857143</ele><time>2026-04-04T15:28:47.043Z</time></trkpt><trkpt lat="44.3455885" lon="8.2996741"><ele>393.8571428571429</ele><time>2026-04-04T15:28:49.042Z</time></trkpt><trkpt lat="44.3456477" lon="8.2997409"><ele>394.4285714285714</ele><time>2026-04-04T15:28:51.041Z</time></trkpt><trkpt lat="44.3457101" lon="8.2998028"><ele>395.0</ele><time>2026-04-04T15:28:53.043Z</time></trkpt><trkpt lat="44.345771" lon="8.2998579"><ele>395.1428571428571</ele><time>2026-04-04T15:28:55.041Z</time></trkpt><trkpt lat="44.3458353" lon="8.2999041"><ele>395.28571428571433</ele><time>2026-04-04T15:28:57.041Z</time></trkpt><trkpt lat="44.3459052" lon="8.2999444"><ele>395.42857142857144</ele><time>2026-04-04T15:28:59.042Z</time></trkpt><trkpt lat="44.3459701" lon="8.2999772"><ele>395.57142857142856</ele><time>2026-04-04T15:29:01.042Z</time></trkpt><trkpt lat="44.3460396" lon="8.300007"><ele>395.71428571428567</ele><time>2026-04-04T15:29:03.042Z</time></trkpt><trkpt lat="44.3461077" lon="8.300037"><ele>395.8571428571429</ele><time>2026-04-04T15:29:05.043Z</time></trkpt><trkpt lat="44.3461735" lon="8.3000762"><ele>396.0</ele><time>2026-04-04T15:29:07.041Z</time></trkpt><trkpt lat="44.3462366" lon="8.3001315"><ele>396.0</ele><time>2026-04-04T15:29:09.042Z</time></trkpt><trkpt lat="44.3462956" lon="8.3002024"><ele>396.0</ele><time>2026-04-04T15:29:11.041Z</time></trkpt><trkpt lat="44.3463493" lon="8.3002804"><ele>396.0</ele><time>2026-04-04T15:29:13.043Z</time></trkpt><trkpt lat="44.3463964" lon="8.3003691"><ele>396.0</ele><time>2026-04-04T15:29:15.043Z</time></trkpt><trkpt lat="44.3464405" lon="8.3004601"><ele>396.0</ele><time>2026-04-04T15:29:17.041Z</time></trkpt><trkpt lat="44.3464787" lon="8.3005479"><ele>396.0</ele><time>2026-04-04T15:29:19.042Z</time></trkpt><trkpt lat="44.3465149" lon="8.3006399"><ele>395.6666666666667</ele><time>2026-04-04T15:29:21.042Z</time></trkpt><trkpt lat="44.346549" lon="8.3007236"><ele>395.33333333333337</ele><time>2026-04-04T15:29:23.042Z</time></trkpt><trkpt lat="44.3465948" lon="8.3008372"><ele>395.0</ele><time>2026-04-04T15:29:26.042Z</time></trkpt><trkpt lat="44.3466281" lon="8.3009333"><ele>394.6666666666667</ele><time>2026-04-04T15:29:28.043Z</time></trkpt><trkpt lat="44.3466672" lon="8.3010361"><ele>394.33333333333337</ele><time>2026-04-04T15:29:30.042Z</time></trkpt><trkpt lat="44.3467023" lon="8.3011486"><ele>394.0</ele><time>2026-04-04T15:29:32.043Z</time></trkpt><trkpt lat="44.3467477" lon="8.3012671"><ele>394.0</ele><time>2026-04-04T15:29:34.042Z</time></trkpt><trkpt lat="44.3467907" lon="8.3013859"><ele>394.0</ele><time>2026-04-04T15:29:36.041Z</time></trkpt><trkpt lat="44.3468355" lon="8.3014912"><ele>394.0</ele><time>2026-04-04T15:29:38.042Z</time></trkpt><trkpt lat="44.3468798" lon="8.3016136"><ele>394.0</ele><time>2026-04-04T15:29:40.042Z</time></trkpt><trkpt lat="44.3469315" lon="8.3017349"><ele>394.0</ele><time>2026-04-04T15:29:42.042Z</time></trkpt><trkpt lat="44.3469766" lon="8.3018557"><ele>395.6</ele><time>2026-04-04T15:29:44.041Z</time></trkpt><trkpt lat="44.3470402" lon="8.3019857"><ele>397.2</ele><time>2026-04-04T15:29:46.043Z</time></trkpt><trkpt lat="44.3470793" lon="8.3021056"><ele>398.8</ele><time>2026-04-04T15:29:48.042Z</time></trkpt><trkpt lat="44.347092" lon="8.3022208"><ele>400.40000000000003</ele><time>2026-04-04T15:29:50.042Z</time></trkpt><trkpt lat="44.3470969" lon="8.3023356"><ele>402.0</ele><time>2026-04-04T15:29:52.042Z</time></trkpt><trkpt lat="44.3470961" lon="8.3024458"><ele>402.5</ele><time>2026-04-04T15:29:54.043Z</time></trkpt><trkpt lat="44.3470717" lon="8.3025585"><ele>403.0</ele><time>2026-04-04T15:29:56.042Z</time></trkpt><trkpt lat="44.34704" lon="8.3026631"><ele>403.5</ele><time>2026-04-04T15:29:58.041Z</time></trkpt><trkpt lat="44.347009" lon="8.3027655"><ele>404.0</ele><time>2026-04-04T15:30:00.043Z</time></trkpt><trkpt lat="44.3469791" lon="8.3028755"><ele>404.5</ele><time>2026-04-04T15:30:02.042Z</time></trkpt><trkpt lat="44.3469539" lon="8.3029879"><ele>405.0</ele><time>2026-04-04T15:30:04.043Z</time></trkpt><trkpt lat="44.3469228" lon="8.3031009"><ele>405.1666666666667</ele><time>2026-04-04T15:30:06.042Z</time></trkpt><trkpt lat="44.3469034" lon="8.3032093"><ele>405.33333333333337</ele><time>2026-04-04T15:30:08.042Z</time></trkpt><trkpt lat="44.3468986" lon="8.3033226"><ele>405.5</ele><time>2026-04-04T15:30:10.042Z</time></trkpt><trkpt lat="44.3468907" lon="8.3034386"><ele>405.6666666666667</ele><time>2026-04-04T15:30:12.042Z</time></trkpt><trkpt lat="44.346877" lon="8.3035594"><ele>405.83333333333337</ele><time>2026-04-04T15:30:14.043Z</time></trkpt><trkpt lat="44.3468547" lon="8.3036806"><ele>406.0</ele><time>2026-04-04T15:30:16.043Z</time></trkpt><trkpt lat="44.3468189" lon="8.3037925"><ele>406.00000000000006</ele><time>2026-04-04T15:30:18.043Z</time></trkpt><trkpt lat="44.3467798" lon="8.3039047"><ele>406.0</ele><time>2026-04-04T15:30:20.042Z</time></trkpt><trkpt lat="44.3467493" lon="8.3040106"><ele>406.0</ele><time>2026-04-04T15:30:22.043Z</time></trkpt><trkpt lat="44.3467181" lon="8.3041201"><ele>406.0</ele><time>2026-04-04T15:30:24.041Z</time></trkpt><trkpt lat="44.3466874" lon="8.3042347"><ele>406.00000000000006</ele><time>2026-04-04T15:30:26.041Z</time></trkpt><trkpt lat="44.3466593" lon="8.3043708"><ele>406.0</ele><time>2026-04-04T15:30:28.042Z</time></trkpt><trkpt lat="44.346649" lon="8.3044877"><ele>405.6</ele><time>2026-04-04T15:30:30.042Z</time></trkpt><trkpt lat="44.3466643" lon="8.3045945"><ele>405.20000000000005</ele><time>2026-04-04T15:30:32.042Z</time></trkpt><trkpt lat="44.3467271" lon="8.3046843"><ele>404.79999999999995</ele><time>2026-04-04T15:30:34.042Z</time></trkpt><trkpt lat="44.3467783" lon="8.3048036"><ele>404.4</ele><time>2026-04-04T15:30:36.041Z</time></trkpt><trkpt lat="44.3467963" lon="8.304938"><ele>404.0</ele><time>2026-04-04T15:30:38.041Z</time></trkpt><trkpt lat="44.3468141" lon="8.3050706"><ele>403.79999999999995</ele><time>2026-04-04T15:30:40.042Z</time></trkpt><trkpt lat="44.3468278" lon="8.305207"><ele>403.59999999999997</ele><time>2026-04-04T15:30:42.042Z</time></trkpt><trkpt lat="44.3468428" lon="8.3053587"><ele>403.4</ele><time>2026-04-04T15:30:44.042Z</time></trkpt><trkpt lat="44.3468514" lon="8.3055155"><ele>403.2</ele><time>2026-04-04T15:30:46.042Z</time></trkpt><trkpt lat="44.3468679" lon="8.3056786"><ele>403.0</ele><time>2026-04-04T15:30:48.041Z</time></trkpt><trkpt lat="44.3468751" lon="8.3058347"><ele>402.0</ele><time>2026-04-04T15:30:50.041Z</time></trkpt><trkpt lat="44.346881" lon="8.3059957"><ele>401.0</ele><time>2026-04-04T15:30:52.042Z</time></trkpt><trkpt lat="44.3468948" lon="8.3061561"><ele>400.0</ele><time>2026-04-04T15:30:54.042Z</time></trkpt><trkpt lat="44.3469128" lon="8.3063041"><ele>399.0</ele><time>2026-04-04T15:30:56.041Z</time></trkpt><trkpt lat="44.3469249" lon="8.3064713"><ele>398.2</ele><time>2026-04-04T15:30:58.042Z</time></trkpt><trkpt lat="44.3469326" lon="8.3065628"><ele>397.4</ele><time>2026-04-04T15:30:59.043Z</time></trkpt><trkpt lat="44.3469626" lon="8.3067202"><ele>396.6</ele><time>2026-04-04T15:31:01.041Z</time></trkpt><trkpt lat="44.347008" lon="8.3068736"><ele>395.8</ele><time>2026-04-04T15:31:03.043Z</time></trkpt><trkpt lat="44.3470488" lon="8.3070317"><ele>395.0</ele><time>2026-04-04T15:31:05.04Z</time></trkpt><trkpt lat="44.3471098" lon="8.3071746"><ele>394.3333333333333</ele><time>2026-04-04T15:31:07.042Z</time></trkpt><trkpt lat="44.3471428" lon="8.3072504"><ele>393.66666666666663</ele><time>2026-04-04T15:31:08.041Z</time></trkpt><trkpt lat="44.3472106" lon="8.3073922"><ele>393.0</ele><time>2026-04-04T15:31:10.042Z</time></trkpt><trkpt lat="44.3472453" lon="8.307467"><ele>392.33333333333337</ele><time>2026-04-04T15:31:11.042Z</time></trkpt><trkpt lat="44.3472861" lon="8.3075529"><ele>391.6666666666667</ele><time>2026-04-04T15:31:12.04Z</time></trkpt><trkpt lat="44.3473189" lon="8.3076318"><ele>391.0</ele><time>2026-04-04T15:31:13.042Z</time></trkpt><trkpt lat="44.3473522" lon="8.3077205"><ele>391.6666666666667</ele><time>2026-04-04T15:31:14.042Z</time></trkpt><trkpt lat="44.3473921" lon="8.3078106"><ele>392.33333333333337</ele><time>2026-04-04T15:31:15.043Z</time></trkpt><trkpt lat="44.3474056" lon="8.3079084"><ele>393.0</ele><time>2026-04-04T15:31:16.041Z</time></trkpt><trkpt lat="44.3474299" lon="8.3079955"><ele>393.66666666666663</ele><time>2026-04-04T15:31:17.042Z</time></trkpt><trkpt lat="44.3474466" lon="8.3081176"><ele>394.3333333333333</ele><time>2026-04-04T15:31:18.041Z</time></trkpt><trkpt lat="44.3474536" lon="8.3082242"><ele>395.0</ele><time>2026-04-04T15:31:19.042Z</time></trkpt><trkpt lat="44.3474546" lon="8.3083357"><ele>394.99999999999994</ele><time>2026-04-04T15:31:20.042Z</time></trkpt><trkpt lat="44.3474429" lon="8.3084447"><ele>395.0</ele><time>2026-04-04T15:31:21.042Z</time></trkpt><trkpt lat="44.3474256" lon="8.3085587"><ele>395.0</ele><time>2026-04-04T15:31:22.041Z</time></trkpt><trkpt lat="44.3473973" lon="8.3086682"><ele>395.0</ele><time>2026-04-04T15:31:23.043Z</time></trkpt><trkpt lat="44.3473503" lon="8.3087826"><ele>394.99999999999994</ele><time>2026-04-04T15:31:24.041Z</time></trkpt><trkpt lat="44.347308" lon="8.308864"><ele>395.0</ele><time>2026-04-04T15:31:25.041Z</time></trkpt><trkpt lat="44.347261" lon="8.3089474"><ele>395.49999999999994</ele><time>2026-04-04T15:31:26.043Z</time></trkpt><trkpt lat="44.3472126" lon="8.309027"><ele>396.0</ele><time>2026-04-04T15:31:27.041Z</time></trkpt><trkpt lat="44.3471549" lon="8.3091043"><ele>396.5</ele><time>2026-04-04T15:31:28.041Z</time></trkpt><trkpt lat="44.347101" lon="8.3091948"><ele>397.0</ele><time>2026-04-04T15:31:29.042Z</time></trkpt><trkpt lat="44.3470555" lon="8.3092854"><ele>397.49999999999994</ele><time>2026-04-04T15:31:30.042Z</time></trkpt><trkpt lat="44.3470179" lon="8.3093763"><ele>398.0</ele><time>2026-04-04T15:31:31.042Z</time></trkpt><trkpt lat="44.3469861" lon="8.3094705"><ele>396.8333333333333</ele><time>2026-04-04T15:31:32.041Z</time></trkpt><trkpt lat="44.3469719" lon="8.309582"><ele>395.66666666666663</ele><time>2026-04-04T15:31:33.04Z</time></trkpt><trkpt lat="44.3469296" lon="8.3096947"><ele>394.5</ele><time>2026-04-04T15:31:34.041Z</time></trkpt><trkpt lat="44.3469097" lon="8.3097926"><ele>393.33333333333337</ele><time>2026-04-04T15:31:35.042Z</time></trkpt><trkpt lat="44.3469041" lon="8.3099013"><ele>392.1666666666667</ele><time>2026-04-04T15:31:36.041Z</time></trkpt><trkpt lat="44.3468843" lon="8.3100232"><ele>391.0</ele><time>2026-04-04T15:31:37.042Z</time></trkpt><trkpt lat="44.3468785" lon="8.3101259"><ele>391.00000000000006</ele><time>2026-04-04T15:31:38.043Z</time></trkpt><trkpt lat="44.3468739" lon="8.310228"><ele>391.0</ele><time>2026-04-04T15:31:39.043Z</time></trkpt><trkpt lat="44.3468713" lon="8.3103186"><ele>391.0</ele><time>2026-04-04T15:31:40.042Z</time></trkpt><trkpt lat="44.3468578" lon="8.3104335"><ele>391.0</ele><time>2026-04-04T15:31:41.04Z</time></trkpt><trkpt lat="44.346865" lon="8.3105492"><ele>391.00000000000006</ele><time>2026-04-04T15:31:42.042Z</time></trkpt><trkpt lat="44.3468586" lon="8.3106633"><ele>391.0</ele><time>2026-04-04T15:31:43.041Z</time></trkpt><trkpt lat="44.3468561" lon="8.3107791"><ele>390.6666666666667</ele><time>2026-04-04T15:31:44.041Z</time></trkpt><trkpt lat="44.3468453" lon="8.3108864"><ele>390.33333333333337</ele><time>2026-04-04T15:31:45.043Z</time></trkpt><trkpt lat="44.3468529" lon="8.3109975"><ele>390.0</ele><time>2026-04-04T15:31:46.043Z</time></trkpt><trkpt lat="44.3468576" lon="8.3111169"><ele>389.66666666666663</ele><time>2026-04-04T15:31:47.043Z</time></trkpt><trkpt lat="44.3468613" lon="8.3112287"><ele>389.3333333333333</ele><time>2026-04-04T15:31:48.041Z</time></trkpt><trkpt lat="44.3468679" lon="8.3113426"><ele>389.0</ele><time>2026-04-04T15:31:49.042Z</time></trkpt><trkpt lat="44.3468561" lon="8.3114397"><ele>388.16666666666663</ele><time>2026-04-04T15:31:50.043Z</time></trkpt><trkpt lat="44.346866" lon="8.3115378"><ele>387.3333333333333</ele><time>2026-04-04T15:31:51.042Z</time></trkpt><trkpt lat="44.3468621" lon="8.3116496"><ele>386.5</ele><time>2026-04-04T15:31:52.041Z</time></trkpt><trkpt lat="44.3468797" lon="8.3117678"><ele>385.66666666666663</ele><time>2026-04-04T15:31:53.042Z</time></trkpt><trkpt lat="44.3468822" lon="8.3118893"><ele>384.8333333333333</ele><time>2026-04-04T15:31:54.041Z</time></trkpt><trkpt lat="44.3468793" lon="8.3120114"><ele>384.0</ele><time>2026-04-04T15:31:55.042Z</time></trkpt><trkpt lat="44.3468893" lon="8.3121136"><ele>384.0</ele><time>2026-04-04T15:31:56.042Z</time></trkpt><trkpt lat="44.3468831" lon="8.3122272"><ele>384.0</ele><time>2026-04-04T15:31:57.04Z</time></trkpt><trkpt lat="44.3468777" lon="8.3123387"><ele>384.0</ele><time>2026-04-04T15:31:58.042Z</time></trkpt><trkpt lat="44.3468541" lon="8.3124507"><ele>384.0</ele><time>2026-04-04T15:31:59.041Z</time></trkpt><trkpt lat="44.3468396" lon="8.3125615"><ele>384.0</ele><time>2026-04-04T15:32:00.042Z</time></trkpt><trkpt lat="44.3468179" lon="8.3126731"><ele>384.0</ele><time>2026-04-04T15:32:01.041Z</time></trkpt><trkpt lat="44.3467985" lon="8.3127795"><ele>384.4285714285714</ele><time>2026-04-04T15:32:02.041Z</time></trkpt><trkpt lat="44.3467757" lon="8.312881"><ele>384.85714285714283</ele><time>2026-04-04T15:32:03.042Z</time></trkpt><trkpt lat="44.3467512" lon="8.3129751"><ele>385.2857142857143</ele><time>2026-04-04T15:32:04.042Z</time></trkpt><trkpt lat="44.3467244" lon="8.3130685"><ele>385.71428571428567</ele><time>2026-04-04T15:32:05.043Z</time></trkpt><trkpt lat="44.3466942" lon="8.3131689"><ele>386.14285714285717</ele><time>2026-04-04T15:32:06.042Z</time></trkpt><trkpt lat="44.3466651" lon="8.3132694"><ele>386.57142857142856</ele><time>2026-04-04T15:32:07.042Z</time></trkpt><trkpt lat="44.3466358" lon="8.3133529"><ele>387.0</ele><time>2026-04-04T15:32:08.043Z</time></trkpt><trkpt lat="44.3466076" lon="8.3134362"><ele>387.3333333333333</ele><time>2026-04-04T15:32:09.04Z</time></trkpt><trkpt lat="44.3465756" lon="8.3135153"><ele>387.66666666666663</ele><time>2026-04-04T15:32:10.042Z</time></trkpt><trkpt lat="44.3465396" lon="8.313603"><ele>388.0</ele><time>2026-04-04T15:32:11.04Z</time></trkpt><trkpt lat="44.3465109" lon="8.3136823"><ele>388.3333333333333</ele><time>2026-04-04T15:32:12.041Z</time></trkpt><trkpt lat="44.3464547" lon="8.3138205"><ele>388.66666666666663</ele><time>2026-04-04T15:32:14.04Z</time></trkpt><trkpt lat="44.346385" lon="8.3139529"><ele>389.0</ele><time>2026-04-04T15:32:16.042Z</time></trkpt><trkpt lat="44.3463198" lon="8.3140932"><ele>389.0</ele><time>2026-04-04T15:32:18.043Z</time></trkpt><trkpt lat="44.3462643" lon="8.3142341"><ele>389.0</ele><time>2026-04-04T15:32:20.042Z</time></trkpt><trkpt lat="44.3461987" lon="8.3143696"><ele>389.0</ele><time>2026-04-04T15:32:22.041Z</time></trkpt><trkpt lat="44.3461502" lon="8.3144419"><ele>389.0</ele><time>2026-04-04T15:32:23.041Z</time></trkpt><trkpt lat="44.3460999" lon="8.3145632"><ele>389.0</ele><time>2026-04-04T15:32:25.042Z</time></trkpt><trkpt lat="44.3460516" lon="8.3146859"><ele>388.2</ele><time>2026-04-04T15:32:27.041Z</time></trkpt><trkpt lat="44.3460093" lon="8.3148186"><ele>387.4</ele><time>2026-04-04T15:32:29.042Z</time></trkpt><trkpt lat="44.3459651" lon="8.3149722"><ele>386.6</ele><time>2026-04-04T15:32:31.042Z</time></trkpt><trkpt lat="44.3459316" lon="8.315092"><ele>385.8</ele><time>2026-04-04T15:32:33.041Z</time></trkpt><trkpt lat="44.3458948" lon="8.3152231"><ele>385.0</ele><time>2026-04-04T15:32:35.041Z</time></trkpt><trkpt lat="44.3458766" lon="8.3153562"><ele>385.0</ele><time>2026-04-04T15:32:37.042Z</time></trkpt><trkpt lat="44.345845" lon="8.3155055"><ele>385.0</ele><time>2026-04-04T15:32:39.041Z</time></trkpt><trkpt lat="44.3458114" lon="8.3156304"><ele>385.0</ele><time>2026-04-04T15:32:41.042Z</time></trkpt><trkpt lat="44.3457896" lon="8.315762"><ele>385.0</ele><time>2026-04-04T15:32:43.042Z</time></trkpt><trkpt lat="44.3457639" lon="8.3158972"><ele>385.0</ele><time>2026-04-04T15:32:45.041Z</time></trkpt><trkpt lat="44.3457555" lon="8.3160253"><ele>384.6</ele><time>2026-04-04T15:32:47.043Z</time></trkpt><trkpt lat="44.3457324" lon="8.3161576"><ele>384.2</ele><time>2026-04-04T15:32:49.042Z</time></trkpt><trkpt lat="44.3457153" lon="8.3162964"><ele>383.79999999999995</ele><time>2026-04-04T15:32:51.042Z</time></trkpt><trkpt lat="44.3456997" lon="8.316432"><ele>383.4</ele><time>2026-04-04T15:32:53.041Z</time></trkpt><trkpt lat="44.3456735" lon="8.3165788"><ele>383.0</ele><time>2026-04-04T15:32:55.042Z</time></trkpt><trkpt lat="44.345644" lon="8.3167197"><ele>382.0</ele><time>2026-04-04T15:32:57.043Z</time></trkpt><trkpt lat="44.3456199" lon="8.3168615"><ele>381.0</ele><time>2026-04-04T15:32:59.041Z</time></trkpt><trkpt lat="44.3455892" lon="8.3169998"><ele>380.0</ele><time>2026-04-04T15:33:01.042Z</time></trkpt><trkpt lat="44.3455584" lon="8.3171483"><ele>379.0</ele><time>2026-04-04T15:33:03.043Z</time></trkpt><trkpt lat="44.3455368" lon="8.3172861"><ele>378.0</ele><time>2026-04-04T15:33:05.042Z</time></trkpt><trkpt lat="44.3455169" lon="8.3174241"><ele>383.2</ele><time>2026-04-04T15:33:07.041Z</time></trkpt><trkpt lat="44.3454852" lon="8.3175707"><ele>388.4</ele><time>2026-04-04T15:33:09.041Z</time></trkpt><trkpt lat="44.345469" lon="8.3177093"><ele>393.59999999999997</ele><time>2026-04-04T15:33:11.042Z</time></trkpt><trkpt lat="44.3454537" lon="8.317855"><ele>398.79999999999995</ele><time>2026-04-04T15:33:13.041Z</time></trkpt><trkpt lat="44.3454287" lon="8.3179947"><ele>404.0</ele><time>2026-04-04T15:33:15.041Z</time></trkpt><trkpt lat="44.3454062" lon="8.3181388"><ele>404.0</ele><time>2026-04-04T15:33:17.041Z</time></trkpt><trkpt lat="44.3453875" lon="8.3182742"><ele>404.0</ele><time>2026-04-04T15:33:19.041Z</time></trkpt><trkpt lat="44.3453623" lon="8.3184123"><ele>404.0</ele><time>2026-04-04T15:33:21.041Z</time></trkpt><trkpt lat="44.3453326" lon="8.3185587"><ele>404.0</ele><time>2026-04-04T15:33:23.042Z</time></trkpt><trkpt lat="44.3453131" lon="8.3186948"><ele>404.0</ele><time>2026-04-04T15:33:25.04Z</time></trkpt><trkpt lat="44.3452943" lon="8.3188198"><ele>404.0</ele><time>2026-04-04T15:33:27.042Z</time></trkpt><trkpt lat="44.3452752" lon="8.3189583"><ele>404.0</ele><time>2026-04-04T15:33:29.041Z</time></trkpt><trkpt lat="44.3452565" lon="8.3190949"><ele>404.0</ele><time>2026-04-04T15:33:31.041Z</time></trkpt><trkpt lat="44.3452429" lon="8.3192423"><ele>404.0</ele><time>2026-04-04T15:33:33.042Z</time></trkpt><trkpt lat="44.3452459" lon="8.3193753"><ele>404.0</ele><time>2026-04-04T15:33:35.042Z</time></trkpt><trkpt lat="44.3452665" lon="8.3195038"><ele>404.0</ele><time>2026-04-04T15:33:37.042Z</time></trkpt><trkpt lat="44.3452932" lon="8.3196313"><ele>404.0</ele><time>2026-04-04T15:33:39.041Z</time></trkpt><trkpt lat="44.3453226" lon="8.3197641"><ele>404.0</ele><time>2026-04-04T15:33:41.043Z</time></trkpt><trkpt lat="44.3453594" lon="8.3198842"><ele>404.0</ele><time>2026-04-04T15:33:43.041Z</time></trkpt><trkpt lat="44.3454005" lon="8.3200098"><ele>404.0</ele><time>2026-04-04T15:33:45.042Z</time></trkpt><trkpt lat="44.3454413" lon="8.3201294"><ele>403.6</ele><time>2026-04-04T15:33:47.043Z</time></trkpt><trkpt lat="44.3454758" lon="8.320245"><ele>403.2</ele><time>2026-04-04T15:33:49.042Z</time></trkpt><trkpt lat="44.3455147" lon="8.3203594"><ele>402.8</ele><time>2026-04-04T15:33:51.042Z</time></trkpt><trkpt lat="44.3455442" lon="8.3204751"><ele>402.40000000000003</ele><time>2026-04-04T15:33:53.042Z</time></trkpt><trkpt lat="44.3455224" lon="8.3205989"><ele>402.0</ele><time>2026-04-04T15:33:55.042Z</time></trkpt><trkpt lat="44.3455098" lon="8.3207279"><ele>402.0</ele><time>2026-04-04T15:33:57.04Z</time></trkpt><trkpt lat="44.3454746" lon="8.3208578"><ele>402.0</ele><time>2026-04-04T15:33:59.041Z</time></trkpt><trkpt lat="44.3454271" lon="8.3209973"><ele>402.0</ele><time>2026-04-04T15:34:01.041Z</time></trkpt><trkpt lat="44.3453699" lon="8.3211222"><ele>402.0</ele><time>2026-04-04T15:34:03.041Z</time></trkpt><trkpt lat="44.3453063" lon="8.3212432"><ele>402.0</ele><time>2026-04-04T15:34:05.041Z</time></trkpt><trkpt lat="44.3452308" lon="8.321357"><ele>397.75</ele><time>2026-04-04T15:34:07.042Z</time></trkpt><trkpt lat="44.3451441" lon="8.3214629"><ele>393.5</ele><time>2026-04-04T15:34:09.04Z</time></trkpt><trkpt lat="44.345051" lon="8.3215567"><ele>389.25</ele><time>2026-04-04T15:34:11.042Z</time></trkpt><trkpt lat="44.3449597" lon="8.3216492"><ele>385.0</ele><time>2026-04-04T15:34:13.04Z</time></trkpt><trkpt lat="44.3448591" lon="8.3217397"><ele>385.0</ele><time>2026-04-04T15:34:15.042Z</time></trkpt><trkpt lat="44.3447575" lon="8.3218235"><ele>385.0</ele><time>2026-04-04T15:34:17.041Z</time></trkpt><trkpt lat="44.344658" lon="8.3219189"><ele>385.0</ele><time>2026-04-04T15:34:19.042Z</time></trkpt><trkpt lat="44.3445688" lon="8.3220163"><ele>385.0</ele><time>2026-04-04T15:34:21.04Z</time></trkpt><trkpt lat="44.3444862" lon="8.3221093"><ele>384.2</ele><time>2026-04-04T15:34:23.042Z</time></trkpt><trkpt lat="44.3443973" lon="8.3221824"><ele>383.4</ele><time>2026-04-04T15:34:25.041Z</time></trkpt><trkpt lat="44.3443397" lon="8.3222316"><ele>382.6</ele><time>2026-04-04T15:34:26.041Z</time></trkpt><trkpt lat="44.3442524" lon="8.3223165"><ele>381.8</ele><time>2026-04-04T15:34:28.042Z</time></trkpt><trkpt lat="44.3441662" lon="8.3223749"><ele>381.0</ele><time>2026-04-04T15:34:30.041Z</time></trkpt><trkpt lat="44.3440863" lon="8.3224702"><ele>381.0</ele><time>2026-04-04T15:34:32.041Z</time></trkpt><trkpt lat="44.3439968" lon="8.3225593"><ele>381.0</ele><time>2026-04-04T15:34:34.042Z</time></trkpt><trkpt lat="44.3439359" lon="8.3226502"><ele>381.0</ele><time>2026-04-04T15:34:36.042Z</time></trkpt><trkpt lat="44.343848" lon="8.32273"><ele>381.0</ele><time>2026-04-04T15:34:38.041Z</time></trkpt><trkpt lat="44.3437667" lon="8.3228036"><ele>381.0</ele><time>2026-04-04T15:34:40.041Z</time></trkpt><trkpt lat="44.3436838" lon="8.3228906"><ele>380.8</ele><time>2026-04-04T15:34:42.041Z</time></trkpt><trkpt lat="44.3435986" lon="8.3229606"><ele>380.6</ele><time>2026-04-04T15:34:44.041Z</time></trkpt><trkpt lat="44.3435183" lon="8.3230408"><ele>380.4</ele><time>2026-04-04T15:34:46.041Z</time></trkpt><trkpt lat="44.3434343" lon="8.3231367"><ele>380.2</ele><time>2026-04-04T15:34:48.041Z</time></trkpt><trkpt lat="44.3433572" lon="8.3232278"><ele>380.0</ele><time>2026-04-04T15:34:50.042Z</time></trkpt><trkpt lat="44.3432757" lon="8.323312"><ele>380.0</ele><time>2026-04-04T15:34:52.043Z</time></trkpt><trkpt lat="44.343199" lon="8.3234111"><ele>380.0</ele><time>2026-04-04T15:34:54.042Z</time></trkpt><trkpt lat="44.3431222" lon="8.3234886"><ele>380.0</ele><time>2026-04-04T15:34:56.041Z</time></trkpt><trkpt lat="44.343037" lon="8.3235641"><ele>380.0</ele><time>2026-04-04T15:34:58.042Z</time></trkpt><trkpt lat="44.3429523" lon="8.3236399"><ele>380.0</ele><time>2026-04-04T15:35:00.043Z</time></trkpt><trkpt lat="44.3428615" lon="8.3236903"><ele>382.6</ele><time>2026-04-04T15:35:02.042Z</time></trkpt><trkpt lat="44.342769" lon="8.3236952"><ele>385.2</ele><time>2026-04-04T15:35:04.042Z</time></trkpt><trkpt lat="44.3426702" lon="8.3236757"><ele>387.79999999999995</ele><time>2026-04-04T15:35:06.042Z</time></trkpt><trkpt lat="44.3425815" lon="8.3236276"><ele>390.4</ele><time>2026-04-04T15:35:08.04Z</time></trkpt><trkpt lat="44.3424856" lon="8.323599"><ele>393.0</ele><time>2026-04-04T15:35:10.041Z</time></trkpt><trkpt lat="44.3423879" lon="8.3236255"><ele>393.0</ele><time>2026-04-04T15:35:12.041Z</time></trkpt><trkpt lat="44.3422942" lon="8.3236769"><ele>393.0</ele><time>2026-04-04T15:35:14.043Z</time></trkpt><trkpt lat="44.3421945" lon="8.3237401"><ele>393.0</ele><time>2026-04-04T15:35:16.04Z</time></trkpt><trkpt lat="44.3421017" lon="8.3238035"><ele>393.0</ele><time>2026-04-04T15:35:18.041Z</time></trkpt><trkpt lat="44.3420061" lon="8.3238728"><ele>393.0</ele><time>2026-04-04T15:35:20.043Z</time></trkpt><trkpt lat="44.3419078" lon="8.3239395"><ele>391.2</ele><time>2026-04-04T15:35:22.043Z</time></trkpt><trkpt lat="44.3418194" lon="8.3240107"><ele>389.4</ele><time>2026-04-04T15:35:24.041Z</time></trkpt><trkpt lat="44.3417316" lon="8.3240911"><ele>387.59999999999997</ele><time>2026-04-04T15:35:26.042Z</time></trkpt><trkpt lat="44.3416405" lon="8.3241742"><ele>385.79999999999995</ele><time>2026-04-04T15:35:28.043Z</time></trkpt><trkpt lat="44.3415627" lon="8.3242529"><ele>384.0</ele><time>2026-04-04T15:35:30.043Z</time></trkpt><trkpt lat="44.3414577" lon="8.3242846"><ele>383.6</ele><time>2026-04-04T15:35:32.042Z</time></trkpt><trkpt lat="44.3413488" lon="8.3242269"><ele>383.2</ele><time>2026-04-04T15:35:34.042Z</time></trkpt><trkpt lat="44.3412653" lon="8.3241168"><ele>382.8</ele><time>2026-04-04T15:35:36.04Z</time></trkpt><trkpt lat="44.3412545" lon="8.3240251"><ele>382.40000000000003</ele><time>2026-04-04T15:35:37.044Z</time></trkpt><trkpt lat="44.3412053" lon="8.3238834"><ele>382.0</ele><time>2026-04-04T15:35:39.042Z</time></trkpt><trkpt lat="44.3411604" lon="8.3237406"><ele>383.8</ele><time>2026-04-04T15:35:41.042Z</time></trkpt><trkpt lat="44.3411156" lon="8.3236241"><ele>385.6</ele><time>2026-04-04T15:35:43.045Z</time></trkpt><trkpt lat="44.3410673" lon="8.3235145"><ele>387.40000000000003</ele><time>2026-04-04T15:35:45.044Z</time></trkpt><trkpt lat="44.3410117" lon="8.3234242"><ele>389.20000000000005</ele><time>2026-04-04T15:35:47.042Z</time></trkpt><trkpt lat="44.3409529" lon="8.3233342"><ele>391.0</ele><time>2026-04-04T15:35:49.041Z</time></trkpt><trkpt lat="44.3408916" lon="8.3232298"><ele>391.0</ele><time>2026-04-04T15:35:51.044Z</time></trkpt><trkpt lat="44.340835" lon="8.3231283"><ele>391.0</ele><time>2026-04-04T15:35:53.043Z</time></trkpt><trkpt lat="44.3407651" lon="8.3230128"><ele>391.0</ele><time>2026-04-04T15:35:55.043Z</time></trkpt><trkpt lat="44.3406903" lon="8.3228928"><ele>391.0</ele><time>2026-04-04T15:35:57.042Z</time></trkpt><trkpt lat="44.3406169" lon="8.3227729"><ele>391.0</ele><time>2026-04-04T15:35:59.044Z</time></trkpt><trkpt lat="44.340555" lon="8.3226578"><ele>390.20000000000005</ele><time>2026-04-04T15:36:01.045Z</time></trkpt><trkpt lat="44.3404851" lon="8.3225592"><ele>389.40000000000003</ele><time>2026-04-04T15:36:03.045Z</time></trkpt><trkpt lat="44.34042" lon="8.3224589"><ele>388.6</ele><time>2026-04-04T15:36:05.042Z</time></trkpt><trkpt lat="44.3403669" lon="8.3223541"><ele>387.8</ele><time>2026-04-04T15:36:07.043Z</time></trkpt><trkpt lat="44.3403089" lon="8.3222763"><ele>387.0</ele><time>2026-04-04T15:36:09.041Z</time></trkpt><trkpt lat="44.3402399" lon="8.3221874"><ele>389.0</ele><time>2026-04-04T15:36:11.044Z</time></trkpt><trkpt lat="44.3401916" lon="8.3220834"><ele>391.0</ele><time>2026-04-04T15:36:13.042Z</time></trkpt><trkpt lat="44.3401226" lon="8.321986"><ele>393.0</ele><time>2026-04-04T15:36:15.045Z</time></trkpt><trkpt lat="44.3400658" lon="8.3218785"><ele>395.0</ele><time>2026-04-04T15:36:17.046Z</time></trkpt><trkpt lat="44.3400101" lon="8.3217725"><ele>397.0</ele><time>2026-04-04T15:36:19.041Z</time></trkpt><trkpt lat="44.3399359" lon="8.3217022"><ele>397.0</ele><time>2026-04-04T15:36:21.045Z</time></trkpt><trkpt lat="44.3398708" lon="8.3216224"><ele>397.0</ele><time>2026-04-04T15:36:23.046Z</time></trkpt><trkpt lat="44.3397946" lon="8.3215587"><ele>397.0</ele><time>2026-04-04T15:36:25.041Z</time></trkpt><trkpt lat="44.3396968" lon="8.3215198"><ele>397.0</ele><time>2026-04-04T15:36:27.045Z</time></trkpt><trkpt lat="44.3396083" lon="8.3215159"><ele>397.0</ele><time>2026-04-04T15:36:29.042Z</time></trkpt><trkpt lat="44.3395223" lon="8.3215091"><ele>398.00000000000006</ele><time>2026-04-04T15:36:31.047Z</time></trkpt><trkpt lat="44.339439" lon="8.3214861"><ele>399.0</ele><time>2026-04-04T15:36:33.046Z</time></trkpt><trkpt lat="44.3393557" lon="8.3214495"><ele>400.0</ele><time>2026-04-04T15:36:35.043Z</time></trkpt><trkpt lat="44.3392734" lon="8.321399"><ele>401.0</ele><time>2026-04-04T15:36:37.045Z</time></trkpt><trkpt lat="44.3391965" lon="8.3213405"><ele>402.00000000000006</ele><time>2026-04-04T15:36:39.043Z</time></trkpt><trkpt lat="44.3391185" lon="8.3212854"><ele>403.0</ele><time>2026-04-04T15:36:41.045Z</time></trkpt><trkpt lat="44.3390438" lon="8.3212254"><ele>403.0</ele><time>2026-04-04T15:36:43.042Z</time></trkpt><trkpt lat="44.3389652" lon="8.3211762"><ele>403.0</ele><time>2026-04-04T15:36:45.041Z</time></trkpt><trkpt lat="44.3388816" lon="8.3211403"><ele>403.0</ele><time>2026-04-04T15:36:47.044Z</time></trkpt><trkpt lat="44.3387913" lon="8.3211233"><ele>403.0</ele><time>2026-04-04T15:36:49.042Z</time></trkpt><trkpt lat="44.3386947" lon="8.3211552"><ele>403.0</ele><time>2026-04-04T15:36:51.043Z</time></trkpt><trkpt lat="44.33861" lon="8.3212118"><ele>403.4</ele><time>2026-04-04T15:36:53.046Z</time></trkpt><trkpt lat="44.3385363" lon="8.3212922"><ele>403.79999999999995</ele><time>2026-04-04T15:36:55.042Z</time></trkpt><trkpt lat="44.3384581" lon="8.3213725"><ele>404.2</ele><time>2026-04-04T15:36:57.043Z</time></trkpt><trkpt lat="44.3383837" lon="8.3214648"><ele>404.6</ele><time>2026-04-04T15:36:59.042Z</time></trkpt><trkpt lat="44.3383034" lon="8.3215682"><ele>405.0</ele><time>2026-04-04T15:37:01.043Z</time></trkpt><trkpt lat="44.3382138" lon="8.3216649"><ele>406.0</ele><time>2026-04-04T15:37:03.047Z</time></trkpt><trkpt lat="44.3381358" lon="8.3217641"><ele>407.0</ele><time>2026-04-04T15:37:05.047Z</time></trkpt><trkpt lat="44.3380855" lon="8.3218193"><ele>408.0</ele><time>2026-04-04T15:37:06.043Z</time></trkpt><trkpt lat="44.3380086" lon="8.3219283"><ele>409.0</ele><time>2026-04-04T15:37:08.046Z</time></trkpt><trkpt lat="44.3379303" lon="8.3220481"><ele>410.0</ele><time>2026-04-04T15:37:10.046Z</time></trkpt><trkpt lat="44.3378631" lon="8.3221692"><ele>406.0</ele><time>2026-04-04T15:37:12.041Z</time></trkpt><trkpt lat="44.3378041" lon="8.3223143"><ele>402.0</ele><time>2026-04-04T15:37:14.045Z</time></trkpt><trkpt lat="44.3377592" lon="8.3224579"><ele>398.0</ele><time>2026-04-04T15:37:16.047Z</time></trkpt><trkpt lat="44.3377392" lon="8.3226119"><ele>394.0</ele><time>2026-04-04T15:37:18.043Z</time></trkpt><trkpt lat="44.3377008" lon="8.3227644"><ele>394.00000000000006</ele><time>2026-04-04T15:37:20.047Z</time></trkpt><trkpt lat="44.3376888" lon="8.3228558"><ele>394.0</ele><time>2026-04-04T15:37:21.046Z</time></trkpt><trkpt lat="44.3376831" lon="8.3230119"><ele>394.0</ele><time>2026-04-04T15:37:23.047Z</time></trkpt><trkpt lat="44.3376831" lon="8.3231745"><ele>394.0</ele><time>2026-04-04T15:37:25.046Z</time></trkpt><trkpt lat="44.3376989" lon="8.3232599"><ele>394.00000000000006</ele><time>2026-04-04T15:37:26.046Z</time></trkpt><trkpt lat="44.3377172" lon="8.3233515"><ele>394.0</ele><time>2026-04-04T15:37:27.042Z</time></trkpt><trkpt lat="44.3377405" lon="8.3234392"><ele>392.2</ele><time>2026-04-04T15:37:28.046Z</time></trkpt><trkpt lat="44.337763" lon="8.3235218"><ele>390.4</ele><time>2026-04-04T15:37:29.046Z</time></trkpt><trkpt lat="44.3378053" lon="8.3236731"><ele>388.6</ele><time>2026-04-04T15:37:31.045Z</time></trkpt><trkpt lat="44.3378701" lon="8.3238196"><ele>386.8</ele><time>2026-04-04T15:37:33.046Z</time></trkpt><trkpt lat="44.3379196" lon="8.3239542"><ele>385.0</ele><time>2026-04-04T15:37:35.044Z</time></trkpt><trkpt lat="44.3379651" lon="8.3240786"><ele>385.00000000000006</ele><time>2026-04-04T15:37:37.044Z</time></trkpt><trkpt lat="44.338001" lon="8.3241895"><ele>385.0</ele><time>2026-04-04T15:37:39.04Z</time></trkpt><trkpt lat="44.338051" lon="8.3242965"><ele>385.0</ele><time>2026-04-04T15:37:41.047Z</time></trkpt><trkpt lat="44.3380869" lon="8.3244114"><ele>385.0</ele><time>2026-04-04T15:37:43.047Z</time></trkpt><trkpt lat="44.3381185" lon="8.3245037"><ele>385.00000000000006</ele><time>2026-04-04T15:37:45.046Z</time></trkpt><trkpt lat="44.3381375" lon="8.3245987"><ele>385.0</ele><time>2026-04-04T15:37:47.042Z</time></trkpt><trkpt lat="44.3381252" lon="8.3247093"><ele>385.1666666666667</ele><time>2026-04-04T15:37:49.046Z</time></trkpt><trkpt lat="44.3380708" lon="8.3247931"><ele>385.33333333333337</ele><time>2026-04-04T15:37:51.047Z</time></trkpt><trkpt lat="44.3379867" lon="8.3248237"><ele>385.5</ele><time>2026-04-04T15:37:53.044Z</time></trkpt><trkpt lat="44.3378939" lon="8.3248256"><ele>385.66666666666663</ele><time>2026-04-04T15:37:55.042Z</time></trkpt><trkpt lat="44.3378055" lon="8.3248409"><ele>385.8333333333333</ele><time>2026-04-04T15:37:57.047Z</time></trkpt><trkpt lat="44.3377083" lon="8.324858"><ele>386.0</ele><time>2026-04-04T15:37:59.042Z</time></trkpt><trkpt lat="44.3376014" lon="8.3248809"><ele>386.20000000000005</ele><time>2026-04-04T15:38:01.046Z</time></trkpt><trkpt lat="44.3374939" lon="8.3249059"><ele>386.40000000000003</ele><time>2026-04-04T15:38:03.045Z</time></trkpt><trkpt lat="44.3373913" lon="8.3249171"><ele>386.6</ele><time>2026-04-04T15:38:05.047Z</time></trkpt><trkpt lat="44.3372894" lon="8.3249434"><ele>386.8</ele><time>2026-04-04T15:38:07.041Z</time></trkpt><trkpt lat="44.3371691" lon="8.3249361"><ele>387.0</ele><time>2026-04-04T15:38:09.043Z</time></trkpt><trkpt lat="44.337106" lon="8.3249354"><ele>387.0</ele><time>2026-04-04T15:38:10.041Z</time></trkpt><trkpt lat="44.3370058" lon="8.3249512"><ele>387.0</ele><time>2026-04-04T15:38:12.047Z</time></trkpt><trkpt lat="44.3368953" lon="8.3249758"><ele>387.0</ele><time>2026-04-04T15:38:14.047Z</time></trkpt><trkpt lat="44.3367986" lon="8.3250233"><ele>387.0</ele><time>2026-04-04T15:38:16.041Z</time></trkpt><trkpt lat="44.3366963" lon="8.3250906"><ele>387.0</ele><time>2026-04-04T15:38:18.047Z</time></trkpt><trkpt lat="44.3366216" lon="8.3251308"><ele>387.0</ele><time>2026-04-04T15:38:20.049Z</time></trkpt><trkpt lat="44.3365416" lon="8.3251715"><ele>387.0</ele><time>2026-04-04T15:38:22.047Z</time></trkpt><trkpt lat="44.3364652" lon="8.3252004"><ele>387.0</ele><time>2026-04-04T15:38:24.048Z</time></trkpt><trkpt lat="44.3363949" lon="8.3252232"><ele>387.0</ele><time>2026-04-04T15:38:26.048Z</time></trkpt><trkpt lat="44.3363311" lon="8.3252638"><ele>387.0</ele><time>2026-04-04T15:38:28.041Z</time></trkpt><trkpt lat="44.3362575" lon="8.3253199"><ele>387.0</ele><time>2026-04-04T15:38:30.048Z</time></trkpt><trkpt lat="44.3361872" lon="8.3253773"><ele>387.20000000000005</ele><time>2026-04-04T15:38:32.041Z</time></trkpt><trkpt lat="44.3361073" lon="8.3254501"><ele>387.4</ele><time>2026-04-04T15:38:34.045Z</time></trkpt><trkpt lat="44.3360523" lon="8.3255345"><ele>387.6</ele><time>2026-04-04T15:38:35.045Z</time></trkpt><trkpt lat="44.3359636" lon="8.3256256"><ele>387.79999999999995</ele><time>2026-04-04T15:38:37.041Z</time></trkpt><trkpt lat="44.3358637" lon="8.3257084"><ele>388.0</ele><time>2026-04-04T15:38:39.041Z</time></trkpt><trkpt lat="44.3357905" lon="8.3257888"><ele>387.59999999999997</ele><time>2026-04-04T15:38:41.041Z</time></trkpt><trkpt lat="44.3357046" lon="8.3258817"><ele>387.2</ele><time>2026-04-04T15:38:43.042Z</time></trkpt><trkpt lat="44.3356904" lon="8.3260085"><ele>386.8</ele><time>2026-04-04T15:38:45.042Z</time></trkpt><trkpt lat="44.3356129" lon="8.3261036"><ele>386.4</ele><time>2026-04-04T15:38:47.04Z</time></trkpt><trkpt lat="44.335554" lon="8.3261968"><ele>386.0</ele><time>2026-04-04T15:38:49.041Z</time></trkpt><trkpt lat="44.3354915" lon="8.326293"><ele>386.6</ele><time>2026-04-04T15:38:51.042Z</time></trkpt><trkpt lat="44.3354137" lon="8.3264057"><ele>387.20000000000005</ele><time>2026-04-04T15:38:53.042Z</time></trkpt><trkpt lat="44.3353314" lon="8.3265011"><ele>387.79999999999995</ele><time>2026-04-04T15:38:55.041Z</time></trkpt><trkpt lat="44.335263" lon="8.3265814"><ele>388.4</ele><time>2026-04-04T15:38:57.04Z</time></trkpt><trkpt lat="44.3351809" lon="8.3266465"><ele>389.0</ele><time>2026-04-04T15:38:59.041Z</time></trkpt><trkpt lat="44.335093" lon="8.3266911"><ele>388.99999999999994</ele><time>2026-04-04T15:39:01.04Z</time></trkpt><trkpt lat="44.3350034" lon="8.3267025"><ele>389.0</ele><time>2026-04-04T15:39:03.041Z</time></trkpt><trkpt lat="44.3349217" lon="8.3266847"><ele>389.0</ele><time>2026-04-04T15:39:05.049Z</time></trkpt><trkpt lat="44.3348492" lon="8.3266727"><ele>389.0</ele><time>2026-04-04T15:39:07.045Z</time></trkpt><trkpt lat="44.3347805" lon="8.3266181"><ele>388.99999999999994</ele><time>2026-04-04T15:39:09.046Z</time></trkpt><trkpt lat="44.334713" lon="8.3265583"><ele>389.0</ele><time>2026-04-04T15:39:11.041Z</time></trkpt><trkpt lat="44.334641" lon="8.3264921"><ele>388.99999999999994</ele><time>2026-04-04T15:39:13.048Z</time></trkpt><trkpt lat="44.3345738" lon="8.3264411"><ele>389.0</ele><time>2026-04-04T15:39:15.041Z</time></trkpt><trkpt lat="44.3344978" lon="8.3263837"><ele>389.0</ele><time>2026-04-04T15:39:17.041Z</time></trkpt><trkpt lat="44.3344214" lon="8.3263283"><ele>389.0</ele><time>2026-04-04T15:39:19.041Z</time></trkpt><trkpt lat="44.3343446" lon="8.3262661"><ele>388.99999999999994</ele><time>2026-04-04T15:39:21.04Z</time></trkpt><trkpt lat="44.3342687" lon="8.326203"><ele>389.0</ele><time>2026-04-04T15:39:23.042Z</time></trkpt><trkpt lat="44.3341896" lon="8.3261309"><ele>389.0</ele><time>2026-04-04T15:39:25.042Z</time></trkpt><trkpt lat="44.3341066" lon="8.3260608"><ele>389.0</ele><time>2026-04-04T15:39:27.042Z</time></trkpt><trkpt lat="44.334025" lon="8.3259972"><ele>389.0</ele><time>2026-04-04T15:39:29.041Z</time></trkpt><trkpt lat="44.3339325" lon="8.3259287"><ele>389.0</ele><time>2026-04-04T15:39:31.041Z</time></trkpt><trkpt lat="44.3338447" lon="8.3258486"><ele>389.0</ele><time>2026-04-04T15:39:33.041Z</time></trkpt><trkpt lat="44.3337568" lon="8.3257666"><ele>389.49999999999994</ele><time>2026-04-04T15:39:35.042Z</time></trkpt><trkpt lat="44.3336576" lon="8.325743"><ele>390.0</ele><time>2026-04-04T15:39:37.04Z</time></trkpt><trkpt lat="44.3335681" lon="8.3257282"><ele>390.5</ele><time>2026-04-04T15:39:39.04Z</time></trkpt><trkpt lat="44.3334883" lon="8.3257433"><ele>391.0</ele><time>2026-04-04T15:39:41.048Z</time></trkpt><trkpt lat="44.3334172" lon="8.3257411"><ele>391.49999999999994</ele><time>2026-04-04T15:39:43.046Z</time></trkpt><trkpt lat="44.3333168" lon="8.3257691"><ele>392.0</ele><time>2026-04-04T15:39:45.041Z</time></trkpt><trkpt lat="44.3332334" lon="8.3257953"><ele>391.99999999999994</ele><time>2026-04-04T15:39:47.041Z</time></trkpt><trkpt lat="44.3331415" lon="8.325829"><ele>392.0</ele><time>2026-04-04T15:39:49.041Z</time></trkpt><trkpt lat="44.3330737" lon="8.3258628"><ele>392.0</ele><time>2026-04-04T15:39:51.041Z</time></trkpt><trkpt lat="44.3329929" lon="8.3259242"><ele>392.0</ele><time>2026-04-04T15:39:53.047Z</time></trkpt><trkpt lat="44.3329135" lon="8.3259735"><ele>391.99999999999994</ele><time>2026-04-04T15:39:55.041Z</time></trkpt><trkpt lat="44.3328311" lon="8.3260273"><ele>392.0</ele><time>2026-04-04T15:39:57.041Z</time></trkpt><trkpt lat="44.3327473" lon="8.3260954"><ele>392.3333333333333</ele><time>2026-04-04T15:39:59.046Z</time></trkpt><trkpt lat="44.3326689" lon="8.3261401"><ele>392.66666666666663</ele><time>2026-04-04T15:40:01.041Z</time></trkpt><trkpt lat="44.3325869" lon="8.3262015"><ele>393.0</ele><time>2026-04-04T15:40:03.041Z</time></trkpt><trkpt lat="44.3325071" lon="8.3262612"><ele>393.33333333333337</ele><time>2026-04-04T15:40:05.041Z</time></trkpt><trkpt lat="44.3324266" lon="8.3263206"><ele>393.6666666666667</ele><time>2026-04-04T15:40:07.041Z</time></trkpt><trkpt lat="44.332347" lon="8.3263701"><ele>394.0</ele><time>2026-04-04T15:40:09.043Z</time></trkpt><trkpt lat="44.3322621" lon="8.3264165"><ele>394.50000000000006</ele><time>2026-04-04T15:40:11.041Z</time></trkpt><trkpt lat="44.3321832" lon="8.3264574"><ele>395.0</ele><time>2026-04-04T15:40:13.041Z</time></trkpt><trkpt lat="44.3321037" lon="8.3265176"><ele>395.5</ele><time>2026-04-04T15:40:15.049Z</time></trkpt><trkpt lat="44.3320366" lon="8.3265501"><ele>396.0</ele><time>2026-04-04T15:40:17.041Z</time></trkpt><trkpt lat="44.3319677" lon="8.3265893"><ele>396.50000000000006</ele><time>2026-04-04T15:40:19.045Z</time></trkpt><trkpt lat="44.3318919" lon="8.3266314"><ele>397.0</ele><time>2026-04-04T15:40:21.041Z</time></trkpt><trkpt lat="44.3318116" lon="8.3266698"><ele>397.00000000000006</ele><time>2026-04-04T15:40:23.041Z</time></trkpt><trkpt lat="44.3317324" lon="8.3267187"><ele>397.0</ele><time>2026-04-04T15:40:25.048Z</time></trkpt><trkpt lat="44.3316574" lon="8.3267721"><ele>397.0</ele><time>2026-04-04T15:40:27.044Z</time></trkpt><trkpt lat="44.3315804" lon="8.3268243"><ele>397.0</ele><time>2026-04-04T15:40:29.045Z</time></trkpt><trkpt lat="44.3315003" lon="8.3268737"><ele>397.00000000000006</ele><time>2026-04-04T15:40:31.04Z</time></trkpt><trkpt lat="44.3314226" lon="8.3269343"><ele>397.0</ele><time>2026-04-04T15:40:33.04Z</time></trkpt><trkpt lat="44.3313483" lon="8.3269968"><ele>397.33333333333337</ele><time>2026-04-04T15:40:35.044Z</time></trkpt><trkpt lat="44.3312748" lon="8.3270635"><ele>397.6666666666667</ele><time>2026-04-04T15:40:37.041Z</time></trkpt><trkpt lat="44.3312022" lon="8.3271257"><ele>398.0</ele><time>2026-04-04T15:40:39.044Z</time></trkpt><trkpt lat="44.3311325" lon="8.3271924"><ele>398.33333333333337</ele><time>2026-04-04T15:40:41.043Z</time></trkpt><trkpt lat="44.3310641" lon="8.3272636"><ele>398.6666666666667</ele><time>2026-04-04T15:40:43.041Z</time></trkpt><trkpt lat="44.3309981" lon="8.3273407"><ele>399.0</ele><time>2026-04-04T15:40:45.041Z</time></trkpt><trkpt lat="44.3309368" lon="8.327396"><ele>399.0</ele><time>2026-04-04T15:40:47.041Z</time></trkpt><trkpt lat="44.330883" lon="8.3274604"><ele>399.0</ele><time>2026-04-04T15:40:49.041Z</time></trkpt><trkpt lat="44.3308213" lon="8.3275306"><ele>399.0</ele><time>2026-04-04T15:40:51.041Z</time></trkpt><trkpt lat="44.3307494" lon="8.3275984"><ele>399.0</ele><time>2026-04-04T15:40:53.042Z</time></trkpt><trkpt lat="44.3306837" lon="8.3276735"><ele>399.0</ele><time>2026-04-04T15:40:55.046Z</time></trkpt><trkpt lat="44.3306174" lon="8.3277505"><ele>399.0</ele><time>2026-04-04T15:40:57.041Z</time></trkpt><trkpt lat="44.3305442" lon="8.3278298"><ele>399.2</ele><time>2026-04-04T15:40:59.048Z</time></trkpt><trkpt lat="44.3304794" lon="8.3279093"><ele>399.4</ele><time>2026-04-04T15:41:01.041Z</time></trkpt><trkpt lat="44.3304081" lon="8.3279938"><ele>399.6</ele><time>2026-04-04T15:41:03.047Z</time></trkpt><trkpt lat="44.3303397" lon="8.3280656"><ele>399.8</ele><time>2026-04-04T15:41:05.04Z</time></trkpt><trkpt lat="44.3302629" lon="8.3281551"><ele>400.0</ele><time>2026-04-04T15:41:07.041Z</time></trkpt><trkpt lat="44.3301941" lon="8.3282303"><ele>400.00000000000006</ele><time>2026-04-04T15:41:09.041Z</time></trkpt><trkpt lat="44.3301196" lon="8.3283028"><ele>400.0</ele><time>2026-04-04T15:41:11.04Z</time></trkpt><trkpt lat="44.3300447" lon="8.3283708"><ele>400.0</ele><time>2026-04-04T15:41:13.041Z</time></trkpt><trkpt lat="44.3299768" lon="8.3284487"><ele>400.0</ele><time>2026-04-04T15:41:15.04Z</time></trkpt><trkpt lat="44.3298963" lon="8.3284996"><ele>400.00000000000006</ele><time>2026-04-04T15:41:17.045Z</time></trkpt><trkpt lat="44.3298142" lon="8.3285495"><ele>400.0</ele><time>2026-04-04T15:41:19.042Z</time></trkpt><trkpt lat="44.3297378" lon="8.3286034"><ele>404.33333333333337</ele><time>2026-04-04T15:41:21.048Z</time></trkpt><trkpt lat="44.3296627" lon="8.3286473"><ele>408.6666666666667</ele><time>2026-04-04T15:41:23.041Z</time></trkpt><trkpt lat="44.3295883" lon="8.3286974"><ele>413.0</ele><time>2026-04-04T15:41:25.04Z</time></trkpt><trkpt lat="44.3295113" lon="8.3287403"><ele>417.33333333333337</ele><time>2026-04-04T15:41:27.045Z</time></trkpt><trkpt lat="44.3294326" lon="8.3287853"><ele>421.6666666666667</ele><time>2026-04-04T15:41:29.041Z</time></trkpt><trkpt lat="44.3293525" lon="8.3288104"><ele>426.0</ele><time>2026-04-04T15:41:31.04Z</time></trkpt><trkpt lat="44.3292717" lon="8.3288676"><ele>422.6666666666667</ele><time>2026-04-04T15:41:33.041Z</time></trkpt><trkpt lat="44.3291872" lon="8.3289241"><ele>419.33333333333337</ele><time>2026-04-04T15:41:35.04Z</time></trkpt><trkpt lat="44.3291023" lon="8.3289597"><ele>416.0</ele><time>2026-04-04T15:41:37.04Z</time></trkpt><trkpt lat="44.3290291" lon="8.3290035"><ele>412.6666666666667</ele><time>2026-04-04T15:41:39.04Z</time></trkpt><trkpt lat="44.3289479" lon="8.3290572"><ele>409.33333333333337</ele><time>2026-04-04T15:41:41.04Z</time></trkpt><trkpt lat="44.328871" lon="8.329118"><ele>406.0</ele><time>2026-04-04T15:41:43.04Z</time></trkpt><trkpt lat="44.3287991" lon="8.329167"><ele>406.00000000000006</ele><time>2026-04-04T15:41:45.041Z</time></trkpt><trkpt lat="44.3287227" lon="8.3292031"><ele>406.0</ele><time>2026-04-04T15:41:47.042Z</time></trkpt><trkpt lat="44.3286407" lon="8.3292295"><ele>406.0</ele><time>2026-04-04T15:41:49.041Z</time></trkpt><trkpt lat="44.3285648" lon="8.3292709"><ele>406.0</ele><time>2026-04-04T15:41:51.045Z</time></trkpt><trkpt lat="44.3284862" lon="8.3293151"><ele>406.00000000000006</ele><time>2026-04-04T15:41:53.046Z</time></trkpt><trkpt lat="44.3284103" lon="8.3293499"><ele>406.0</ele><time>2026-04-04T15:41:55.042Z</time></trkpt><trkpt lat="44.3283309" lon="8.32939"><ele>406.00000000000006</ele><time>2026-04-04T15:41:57.044Z</time></trkpt><trkpt lat="44.3282525" lon="8.3294224"><ele>406.0</ele><time>2026-04-04T15:41:59.042Z</time></trkpt><trkpt lat="44.3281689" lon="8.3294446"><ele>406.0</ele><time>2026-04-04T15:42:01.046Z</time></trkpt><trkpt lat="44.3280899" lon="8.3294872"><ele>406.0</ele><time>2026-04-04T15:42:03.046Z</time></trkpt><trkpt lat="44.3280083" lon="8.3295258"><ele>406.00000000000006</ele><time>2026-04-04T15:42:05.045Z</time></trkpt><trkpt lat="44.327928" lon="8.3295609"><ele>406.0</ele><time>2026-04-04T15:42:07.042Z</time></trkpt><trkpt lat="44.3278494" lon="8.3295964"><ele>405.1666666666667</ele><time>2026-04-04T15:42:09.04Z</time></trkpt><trkpt lat="44.3277715" lon="8.3296383"><ele>404.33333333333337</ele><time>2026-04-04T15:42:11.041Z</time></trkpt><trkpt lat="44.3276958" lon="8.3296821"><ele>403.5</ele><time>2026-04-04T15:42:13.042Z</time></trkpt><trkpt lat="44.3276246" lon="8.329729"><ele>402.66666666666663</ele><time>2026-04-04T15:42:15.042Z</time></trkpt><trkpt lat="44.3275524" lon="8.3297714"><ele>401.8333333333333</ele><time>2026-04-04T15:42:17.041Z</time></trkpt><trkpt lat="44.3274788" lon="8.3298124"><ele>401.0</ele><time>2026-04-04T15:42:19.041Z</time></trkpt><trkpt lat="44.327408" lon="8.3298542"><ele>400.57142857142856</ele><time>2026-04-04T15:42:21.044Z</time></trkpt><trkpt lat="44.3273424" lon="8.3298832"><ele>400.14285714285717</ele><time>2026-04-04T15:42:23.04Z</time></trkpt><trkpt lat="44.3272767" lon="8.3298944"><ele>399.71428571428567</ele><time>2026-04-04T15:42:25.048Z</time></trkpt><trkpt lat="44.3272109" lon="8.329926"><ele>399.2857142857143</ele><time>2026-04-04T15:42:27.044Z</time></trkpt><trkpt lat="44.3271411" lon="8.3299651"><ele>398.85714285714283</ele><time>2026-04-04T15:42:29.041Z</time></trkpt><trkpt lat="44.3270637" lon="8.3300067"><ele>398.4285714285714</ele><time>2026-04-04T15:42:31.043Z</time></trkpt><trkpt lat="44.3269887" lon="8.3300473"><ele>398.0</ele><time>2026-04-04T15:42:33.041Z</time></trkpt><trkpt lat="44.3269173" lon="8.3300916"><ele>397.99999999999994</ele><time>2026-04-04T15:42:35.041Z</time></trkpt><trkpt lat="44.3268438" lon="8.3301395"><ele>398.0</ele><time>2026-04-04T15:42:37.045Z</time></trkpt><trkpt lat="44.3267694" lon="8.3301759"><ele>398.0</ele><time>2026-04-04T15:42:39.044Z</time></trkpt><trkpt lat="44.3266907" lon="8.3301922"><ele>398.0</ele><time>2026-04-04T15:42:41.04Z</time></trkpt><trkpt lat="44.3266122" lon="8.330167"><ele>397.99999999999994</ele><time>2026-04-04T15:42:43.044Z</time></trkpt><trkpt lat="44.3265513" lon="8.3300933"><ele>398.0</ele><time>2026-04-04T15:42:45.041Z</time></trkpt><trkpt lat="44.3265131" lon="8.3299867"><ele>398.0</ele><time>2026-04-04T15:42:47.046Z</time></trkpt><trkpt lat="44.3264758" lon="8.3298778"><ele>398.0</ele><time>2026-04-04T15:42:49.048Z</time></trkpt><trkpt lat="44.3264543" lon="8.3297534"><ele>398.0</ele><time>2026-04-04T15:42:51.041Z</time></trkpt><trkpt lat="44.326428" lon="8.3296386"><ele>398.0</ele><time>2026-04-04T15:42:53.04Z</time></trkpt><trkpt lat="44.3263993" lon="8.3295104"><ele>398.0</ele><time>2026-04-04T15:42:55.041Z</time></trkpt><trkpt lat="44.3263798" lon="8.3293753"><ele>399.49999999999994</ele><time>2026-04-04T15:42:57.041Z</time></trkpt><trkpt lat="44.3263603" lon="8.3292377"><ele>401.0</ele><time>2026-04-04T15:42:59.041Z</time></trkpt><trkpt lat="44.3263417" lon="8.3291059"><ele>402.5</ele><time>2026-04-04T15:43:01.041Z</time></trkpt><trkpt lat="44.3263341" lon="8.3289784"><ele>404.0</ele><time>2026-04-04T15:43:03.041Z</time></trkpt><trkpt lat="44.3263213" lon="8.3288711"><ele>405.49999999999994</ele><time>2026-04-04T15:43:05.042Z</time></trkpt><trkpt lat="44.3263153" lon="8.3287659"><ele>407.0</ele><time>2026-04-04T15:43:07.04Z</time></trkpt><trkpt lat="44.3263067" lon="8.3286465"><ele>406.8</ele><time>2026-04-04T15:43:09.04Z</time></trkpt><trkpt lat="44.3263023" lon="8.3285116"><ele>406.6</ele><time>2026-04-04T15:43:11.046Z</time></trkpt><trkpt lat="44.3263037" lon="8.3283796"><ele>406.40000000000003</ele><time>2026-04-04T15:43:13.041Z</time></trkpt><trkpt lat="44.3263124" lon="8.3282614"><ele>406.20000000000005</ele><time>2026-04-04T15:43:15.04Z</time></trkpt><trkpt lat="44.326308" lon="8.328135"><ele>406.0</ele><time>2026-04-04T15:43:17.045Z</time></trkpt><trkpt lat="44.326295" lon="8.328005"><ele>406.0</ele><time>2026-04-04T15:43:19.041Z</time></trkpt><trkpt lat="44.3262863" lon="8.3278803"><ele>406.0</ele><time>2026-04-04T15:43:21.041Z</time></trkpt><trkpt lat="44.3262564" lon="8.3277749"><ele>406.0</ele><time>2026-04-04T15:43:23.041Z</time></trkpt><trkpt lat="44.3262128" lon="8.3276641"><ele>406.0</ele><time>2026-04-04T15:43:25.04Z</time></trkpt><trkpt lat="44.3261482" lon="8.3275437"><ele>406.0</ele><time>2026-04-04T15:43:27.04Z</time></trkpt><trkpt lat="44.3260621" lon="8.3274588"><ele>406.0</ele><time>2026-04-04T15:43:29.042Z</time></trkpt><trkpt lat="44.3259765" lon="8.3273826"><ele>406.0</ele><time>2026-04-04T15:43:31.041Z</time></trkpt><trkpt lat="44.3258915" lon="8.3272947"><ele>406.0</ele><time>2026-04-04T15:43:33.041Z</time></trkpt><trkpt lat="44.3257981" lon="8.3272364"><ele>406.0</ele><time>2026-04-04T15:43:35.042Z</time></trkpt><trkpt lat="44.3256969" lon="8.3271852"><ele>406.0</ele><time>2026-04-04T15:43:37.041Z</time></trkpt><trkpt lat="44.3256026" lon="8.3271406"><ele>406.8</ele><time>2026-04-04T15:43:39.04Z</time></trkpt><trkpt lat="44.32551" lon="8.3271017"><ele>407.6</ele><time>2026-04-04T15:43:41.041Z</time></trkpt><trkpt lat="44.3254103" lon="8.3270818"><ele>408.4</ele><time>2026-04-04T15:43:43.041Z</time></trkpt><trkpt lat="44.3253048" lon="8.3270832"><ele>409.2</ele><time>2026-04-04T15:43:45.041Z</time></trkpt><trkpt lat="44.3252167" lon="8.3270818"><ele>410.0</ele><time>2026-04-04T15:43:47.042Z</time></trkpt><trkpt lat="44.3251317" lon="8.3271107"><ele>409.99999999999994</ele><time>2026-04-04T15:43:49.041Z</time></trkpt><trkpt lat="44.3250641" lon="8.3270936"><ele>410.0</ele><time>2026-04-04T15:43:51.041Z</time></trkpt><trkpt lat="44.3249717" lon="8.3270854"><ele>410.0</ele><time>2026-04-04T15:43:53.041Z</time></trkpt><trkpt lat="44.324866" lon="8.3270831"><ele>410.0</ele><time>2026-04-04T15:43:55.041Z</time></trkpt><trkpt lat="44.3247773" lon="8.3270833"><ele>409.99999999999994</ele><time>2026-04-04T15:43:57.042Z</time></trkpt><trkpt lat="44.3246884" lon="8.3270496"><ele>410.0</ele><time>2026-04-04T15:43:59.042Z</time></trkpt><trkpt lat="44.3245798" lon="8.327017"><ele>412.6</ele><time>2026-04-04T15:44:01.041Z</time></trkpt><trkpt lat="44.324474" lon="8.3269706"><ele>415.2</ele><time>2026-04-04T15:44:03.041Z</time></trkpt><trkpt lat="44.3243634" lon="8.3269153"><ele>417.79999999999995</ele><time>2026-04-04T15:44:05.042Z</time></trkpt><trkpt lat="44.3242702" lon="8.3268474"><ele>420.4</ele><time>2026-04-04T15:44:07.042Z</time></trkpt><trkpt lat="44.3242002" lon="8.3267795"><ele>423.0</ele><time>2026-04-04T15:44:09.041Z</time></trkpt><trkpt lat="44.3241481" lon="8.3266451"><ele>423.0</ele><time>2026-04-04T15:44:11.042Z</time></trkpt><trkpt lat="44.3241066" lon="8.3265136"><ele>423.0</ele><time>2026-04-04T15:44:13.042Z</time></trkpt><trkpt lat="44.3240628" lon="8.3263875"><ele>423.0</ele><time>2026-04-04T15:44:15.04Z</time></trkpt><trkpt lat="44.3240615" lon="8.3262384"><ele>423.0</ele><time>2026-04-04T15:44:17.041Z</time></trkpt><trkpt lat="44.3240478" lon="8.3261166"><ele>423.0</ele><time>2026-04-04T15:44:19.041Z</time></trkpt><trkpt lat="44.3240312" lon="8.3259607"><ele>420.4</ele><time>2026-04-04T15:44:21.04Z</time></trkpt><trkpt lat="44.3240113" lon="8.3258378"><ele>417.79999999999995</ele><time>2026-04-04T15:44:23.042Z</time></trkpt><trkpt lat="44.3239939" lon="8.3257212"><ele>415.2</ele><time>2026-04-04T15:44:25.04Z</time></trkpt><trkpt lat="44.3239901" lon="8.3255778"><ele>412.6</ele><time>2026-04-04T15:44:27.042Z</time></trkpt><trkpt lat="44.3239883" lon="8.3254263"><ele>410.0</ele><time>2026-04-04T15:44:29.041Z</time></trkpt><trkpt lat="44.3239788" lon="8.3253219"><ele>409.4</ele><time>2026-04-04T15:44:31.041Z</time></trkpt><trkpt lat="44.3239507" lon="8.3251877"><ele>408.8</ele><time>2026-04-04T15:44:33.04Z</time></trkpt><trkpt lat="44.3239246" lon="8.3250559"><ele>408.20000000000005</ele><time>2026-04-04T15:44:35.041Z</time></trkpt><trkpt lat="44.3239024" lon="8.3249167"><ele>407.6</ele><time>2026-04-04T15:44:37.041Z</time></trkpt><trkpt lat="44.3238992" lon="8.3247717"><ele>407.0</ele><time>2026-04-04T15:44:39.041Z</time></trkpt><trkpt lat="44.3238972" lon="8.3246391"><ele>407.8</ele><time>2026-04-04T15:44:41.041Z</time></trkpt><trkpt lat="44.3238732" lon="8.3245108"><ele>408.6</ele><time>2026-04-04T15:44:43.04Z</time></trkpt><trkpt lat="44.3238468" lon="8.3243846"><ele>409.40000000000003</ele><time>2026-04-04T15:44:45.042Z</time></trkpt><trkpt lat="44.3238139" lon="8.3242596"><ele>410.20000000000005</ele><time>2026-04-04T15:44:47.04Z</time></trkpt><trkpt lat="44.3237693" lon="8.3241109"><ele>411.0</ele><time>2026-04-04T15:44:49.041Z</time></trkpt><trkpt lat="44.3237073" lon="8.3240135"><ele>411.0</ele><time>2026-04-04T15:44:51.04Z</time></trkpt><trkpt lat="44.3236336" lon="8.3239334"><ele>411.0</ele><time>2026-04-04T15:44:53.042Z</time></trkpt><trkpt lat="44.3235585" lon="8.3238643"><ele>411.0</ele><time>2026-04-04T15:44:55.042Z</time></trkpt><trkpt lat="44.3234675" lon="8.3238337"><ele>411.0</ele><time>2026-04-04T15:44:57.041Z</time></trkpt><trkpt lat="44.3233614" lon="8.3238641"><ele>411.0</ele><time>2026-04-04T15:44:59.04Z</time></trkpt><trkpt lat="44.3232673" lon="8.3239216"><ele>411.0</ele><time>2026-04-04T15:45:01.041Z</time></trkpt><trkpt lat="44.3231701" lon="8.3239846"><ele>411.0</ele><time>2026-04-04T15:45:03.042Z</time></trkpt><trkpt lat="44.3230846" lon="8.3240602"><ele>411.0</ele><time>2026-04-04T15:45:05.041Z</time></trkpt><trkpt lat="44.3230133" lon="8.3241365"><ele>411.0</ele><time>2026-04-04T15:45:07.041Z</time></trkpt><trkpt lat="44.3229373" lon="8.324203"><ele>411.0</ele><time>2026-04-04T15:45:09.04Z</time></trkpt><trkpt lat="44.3228672" lon="8.3242683"><ele>411.0</ele><time>2026-04-04T15:45:11.041Z</time></trkpt><trkpt lat="44.3227992" lon="8.32436"><ele>411.0</ele><time>2026-04-04T15:45:13.041Z</time></trkpt><trkpt lat="44.3227208" lon="8.3244297"><ele>411.0</ele><time>2026-04-04T15:45:15.041Z</time></trkpt><trkpt lat="44.3226246" lon="8.3244896"><ele>411.0</ele><time>2026-04-04T15:45:17.04Z</time></trkpt><trkpt lat="44.3225275" lon="8.3245307"><ele>411.0</ele><time>2026-04-04T15:45:19.04Z</time></trkpt><trkpt lat="44.322436" lon="8.3245593"><ele>411.0</ele><time>2026-04-04T15:45:21.041Z</time></trkpt><trkpt lat="44.3223537" lon="8.3245419"><ele>411.0</ele><time>2026-04-04T15:45:23.041Z</time></trkpt><trkpt lat="44.322266" lon="8.3244881"><ele>411.0</ele><time>2026-04-04T15:45:25.042Z</time></trkpt><trkpt lat="44.3221776" lon="8.3244239"><ele>411.0</ele><time>2026-04-04T15:45:27.04Z</time></trkpt><trkpt lat="44.3221064" lon="8.3243382"><ele>411.0</ele><time>2026-04-04T15:45:29.041Z</time></trkpt><trkpt lat="44.3220369" lon="8.3242272"><ele>410.7142857142857</ele><time>2026-04-04T15:45:31.042Z</time></trkpt><trkpt lat="44.3219856" lon="8.3241416"><ele>410.42857142857144</ele><time>2026-04-04T15:45:33.041Z</time></trkpt><trkpt lat="44.3219286" lon="8.3240613"><ele>410.1428571428571</ele><time>2026-04-04T15:45:35.042Z</time></trkpt><trkpt lat="44.3218769" lon="8.3239908"><ele>409.8571428571429</ele><time>2026-04-04T15:45:37.04Z</time></trkpt><trkpt lat="44.3218349" lon="8.3239151"><ele>409.5714285714286</ele><time>2026-04-04T15:45:39.04Z</time></trkpt><trkpt lat="44.3217696" lon="8.3238998"><ele>409.2857142857143</ele><time>2026-04-04T15:45:42.04Z</time></trkpt><trkpt lat="44.3217369" lon="8.3239752"><ele>409.0</ele><time>2026-04-04T15:45:46.042Z</time></trkpt><trkpt lat="44.3216989" lon="8.3240654"><ele>409.0</ele><time>2026-04-04T15:45:58.041Z</time></trkpt><trkpt lat="44.321698" lon="8.3239714"><ele>409.0</ele><time>2026-04-04T15:46:05.042Z</time></trkpt><trkpt lat="44.3216808" lon="8.3240734"><ele>409.0</ele><time>2026-04-04T15:46:22.041Z</time></trkpt></trkseg></trk></gpx>